<?xml version="1.0" encoding="UTF-8" standalone="no" ?>
<gpx xmlns="http://www.topografix.com/GPX/1/1" xmlns:xsi="http://www.w3.org/2001/XMLSchema-instance" xsi:schemaLocation="http://www.topografix.com/GPX/1/1 http://www.topografix.com/GPX/1/1/gpx.xsd" version="1.1" creator="VisuGPX - https://www.visugpx.com">
  <metadata>
    <name>Reco Trans 2014 départ d\'Utelle : b112, b115, b167, b194</name>
    <desc><![CDATA[Environ 2h de portage.]]></desc>
  </metadata>
  <trk>
    <name><![CDATA[Reco Trans départ d'Utelle : b112, b115, b167, b194]]></name>
    <desc><![CDATA[Avec Gaso, Alex, Jean et Hervé.]]></desc>
    <trkseg>
      <trkpt lat="43.91626" lon="7.24862">
        <ele>795.20001220703</ele>
        <time>2013-12-21T08:29:16.000Z</time>
      </trkpt>
      <trkpt lat="43.91639" lon="7.2486">
        <ele>794.79998779297</ele>
        <time>2013-12-21T08:29:25.000Z</time>
      </trkpt>
      <trkpt lat="43.91657" lon="7.24854">
        <ele>794.40002441406</ele>
        <time>2013-12-21T08:29:34.000Z</time>
      </trkpt>
      <trkpt lat="43.91671" lon="7.24845">
        <ele>794</ele>
        <time>2013-12-21T08:29:41.000Z</time>
      </trkpt>
      <trkpt lat="43.91679" lon="7.24833">
        <ele>794.20001220703</ele>
        <time>2013-12-21T08:29:48.000Z</time>
      </trkpt>
      <trkpt lat="43.91689" lon="7.24822">
        <ele>795</ele>
        <time>2013-12-21T08:29:54.000Z</time>
      </trkpt>
      <trkpt lat="43.91705" lon="7.24814">
        <ele>794.79998779297</ele>
        <time>2013-12-21T08:30:00.000Z</time>
      </trkpt>
      <trkpt lat="43.91726" lon="7.24804">
        <ele>794.79998779297</ele>
        <time>2013-12-21T08:30:07.000Z</time>
      </trkpt>
      <trkpt lat="43.91743" lon="7.24788">
        <ele>794.59997558594</ele>
        <time>2013-12-21T08:30:14.000Z</time>
      </trkpt>
      <trkpt lat="43.91754" lon="7.24765">
        <ele>794.59997558594</ele>
        <time>2013-12-21T08:30:21.000Z</time>
      </trkpt>
      <trkpt lat="43.91765" lon="7.24743">
        <ele>794.59997558594</ele>
        <time>2013-12-21T08:30:28.000Z</time>
      </trkpt>
      <trkpt lat="43.91775" lon="7.24715">
        <ele>794.20001220703</ele>
        <time>2013-12-21T08:30:36.000Z</time>
      </trkpt>
      <trkpt lat="43.91784" lon="7.24692">
        <ele>793.59997558594</ele>
        <time>2013-12-21T08:30:43.000Z</time>
      </trkpt>
      <trkpt lat="43.91792" lon="7.24676">
        <ele>793</ele>
        <time>2013-12-21T08:30:48.000Z</time>
      </trkpt>
      <trkpt lat="43.91802" lon="7.24648">
        <ele>792.20001220703</ele>
        <time>2013-12-21T08:30:56.000Z</time>
      </trkpt>
      <trkpt lat="43.91814" lon="7.24624">
        <ele>791.59997558594</ele>
        <time>2013-12-21T08:31:03.000Z</time>
      </trkpt>
      <trkpt lat="43.91828" lon="7.24598">
        <ele>791</ele>
        <time>2013-12-21T08:31:11.000Z</time>
      </trkpt>
      <trkpt lat="43.91844" lon="7.2457">
        <ele>790.40002441406</ele>
        <time>2013-12-21T08:31:20.000Z</time>
      </trkpt>
      <trkpt lat="43.9186" lon="7.2454">
        <ele>790.40002441406</ele>
        <time>2013-12-21T08:31:31.000Z</time>
      </trkpt>
      <trkpt lat="43.91871" lon="7.24528">
        <ele>791.59997558594</ele>
        <time>2013-12-21T08:31:38.000Z</time>
      </trkpt>
      <trkpt lat="43.91893" lon="7.24526">
        <ele>795.79998779297</ele>
        <time>2013-12-21T08:31:46.000Z</time>
      </trkpt>
      <trkpt lat="43.91913" lon="7.24522">
        <ele>801</ele>
        <time>2013-12-21T08:31:55.000Z</time>
      </trkpt>
      <trkpt lat="43.91926" lon="7.24513">
        <ele>805</ele>
        <time>2013-12-21T08:32:03.000Z</time>
      </trkpt>
      <trkpt lat="43.91936" lon="7.245">
        <ele>808.79998779297</ele>
        <time>2013-12-21T08:32:11.000Z</time>
      </trkpt>
      <trkpt lat="43.91942" lon="7.24487">
        <ele>812.40002441406</ele>
        <time>2013-12-21T08:32:19.000Z</time>
      </trkpt>
      <trkpt lat="43.91952" lon="7.24484">
        <ele>815</ele>
        <time>2013-12-21T08:32:25.000Z</time>
      </trkpt>
      <trkpt lat="43.91966" lon="7.24479">
        <ele>818.20001220703</ele>
        <time>2013-12-21T08:32:34.000Z</time>
      </trkpt>
      <trkpt lat="43.91977" lon="7.24472">
        <ele>820.20001220703</ele>
        <time>2013-12-21T08:32:40.000Z</time>
      </trkpt>
      <trkpt lat="43.91986" lon="7.24468">
        <ele>822</ele>
        <time>2013-12-21T08:32:45.000Z</time>
      </trkpt>
      <trkpt lat="43.91993" lon="7.24462">
        <ele>823.79998779297</ele>
        <time>2013-12-21T08:32:50.000Z</time>
      </trkpt>
      <trkpt lat="43.92001" lon="7.24455">
        <ele>826.79998779297</ele>
        <time>2013-12-21T08:32:58.000Z</time>
      </trkpt>
      <trkpt lat="43.92007" lon="7.24447">
        <ele>828.79998779297</ele>
        <time>2013-12-21T08:33:05.000Z</time>
      </trkpt>
      <trkpt lat="43.92008" lon="7.24444">
        <ele>829.40002441406</ele>
        <time>2013-12-21T08:33:07.000Z</time>
      </trkpt>
      <trkpt lat="43.92013" lon="7.24436">
        <ele>830.20001220703</ele>
        <time>2013-12-21T08:33:12.000Z</time>
      </trkpt>
      <trkpt lat="43.92017" lon="7.24425">
        <ele>831.79998779297</ele>
        <time>2013-12-21T08:33:19.000Z</time>
      </trkpt>
      <trkpt lat="43.92018" lon="7.24422">
        <ele>832.20001220703</ele>
        <time>2013-12-21T08:33:21.000Z</time>
      </trkpt>
      <trkpt lat="43.92023" lon="7.24419">
        <ele>833</ele>
        <time>2013-12-21T08:33:26.000Z</time>
      </trkpt>
      <trkpt lat="43.92023" lon="7.24419">
        <ele>834.79998779297</ele>
        <time>2013-12-21T08:33:35.000Z</time>
      </trkpt>
      <trkpt lat="43.92023" lon="7.24417">
        <ele>836.20001220703</ele>
        <time>2013-12-21T08:33:49.000Z</time>
      </trkpt>
      <trkpt lat="43.92021" lon="7.24414">
        <ele>838.59997558594</ele>
        <time>2013-12-21T08:36:05.000Z</time>
      </trkpt>
      <trkpt lat="43.92023" lon="7.24415">
        <ele>838.79998779297</ele>
        <time>2013-12-21T08:36:07.000Z</time>
      </trkpt>
      <trkpt lat="43.92023" lon="7.24415">
        <ele>839.20001220703</ele>
        <time>2013-12-21T08:36:09.000Z</time>
      </trkpt>
      <trkpt lat="43.92023" lon="7.24411">
        <ele>841.40002441406</ele>
        <time>2013-12-21T08:36:20.000Z</time>
      </trkpt>
      <trkpt lat="43.92026" lon="7.24403">
        <ele>842.20001220703</ele>
        <time>2013-12-21T08:36:27.000Z</time>
      </trkpt>
      <trkpt lat="43.92028" lon="7.24396">
        <ele>843.20001220703</ele>
        <time>2013-12-21T08:36:34.000Z</time>
      </trkpt>
      <trkpt lat="43.92029" lon="7.24395">
        <ele>843.20001220703</ele>
        <time>2013-12-21T08:36:35.000Z</time>
      </trkpt>
      <trkpt lat="43.92032" lon="7.24391">
        <ele>843.59997558594</ele>
        <time>2013-12-21T08:36:39.000Z</time>
      </trkpt>
      <trkpt lat="43.92032" lon="7.2439">
        <ele>843.79998779297</ele>
        <time>2013-12-21T08:36:40.000Z</time>
      </trkpt>
      <trkpt lat="43.92037" lon="7.24382">
        <ele>844.79998779297</ele>
        <time>2013-12-21T08:36:48.000Z</time>
      </trkpt>
      <trkpt lat="43.92042" lon="7.24374">
        <ele>845.59997558594</ele>
        <time>2013-12-21T08:36:55.000Z</time>
      </trkpt>
      <trkpt lat="43.92045" lon="7.24373">
        <ele>846.79998779297</ele>
        <time>2013-12-21T08:37:01.000Z</time>
      </trkpt>
      <trkpt lat="43.92049" lon="7.24366">
        <ele>847.79998779297</ele>
        <time>2013-12-21T08:37:08.000Z</time>
      </trkpt>
      <trkpt lat="43.92051" lon="7.24362">
        <ele>848.40002441406</ele>
        <time>2013-12-21T08:37:11.000Z</time>
      </trkpt>
      <trkpt lat="43.9205" lon="7.24357">
        <ele>848.79998779297</ele>
        <time>2013-12-21T08:37:15.000Z</time>
      </trkpt>
      <trkpt lat="43.92051" lon="7.2435">
        <ele>849.40002441406</ele>
        <time>2013-12-21T08:37:20.000Z</time>
      </trkpt>
      <trkpt lat="43.92053" lon="7.2435">
        <ele>849.59997558594</ele>
        <time>2013-12-21T08:37:22.000Z</time>
      </trkpt>
      <trkpt lat="43.92054" lon="7.2435">
        <ele>849.59997558594</ele>
        <time>2013-12-21T08:37:23.000Z</time>
      </trkpt>
      <trkpt lat="43.92057" lon="7.24354">
        <ele>850.20001220703</ele>
        <time>2013-12-21T08:37:28.000Z</time>
      </trkpt>
      <trkpt lat="43.92059" lon="7.24356">
        <ele>850.40002441406</ele>
        <time>2013-12-21T08:37:30.000Z</time>
      </trkpt>
      <trkpt lat="43.92061" lon="7.2436">
        <ele>851.20001220703</ele>
        <time>2013-12-21T08:37:35.000Z</time>
      </trkpt>
      <trkpt lat="43.92062" lon="7.24365">
        <ele>852</ele>
        <time>2013-12-21T08:37:39.000Z</time>
      </trkpt>
      <trkpt lat="43.92063" lon="7.24366">
        <ele>852.40002441406</ele>
        <time>2013-12-21T08:37:41.000Z</time>
      </trkpt>
      <trkpt lat="43.92065" lon="7.24366">
        <ele>853.59997558594</ele>
        <time>2013-12-21T08:37:46.000Z</time>
      </trkpt>
      <trkpt lat="43.92067" lon="7.24365">
        <ele>855.59997558594</ele>
        <time>2013-12-21T08:37:55.000Z</time>
      </trkpt>
      <trkpt lat="43.92068" lon="7.24364">
        <ele>857</ele>
        <time>2013-12-21T08:38:02.000Z</time>
      </trkpt>
      <trkpt lat="43.9207" lon="7.24362">
        <ele>857.59997558594</ele>
        <time>2013-12-21T08:38:06.000Z</time>
      </trkpt>
      <trkpt lat="43.92071" lon="7.2436">
        <ele>858</ele>
        <time>2013-12-21T08:38:08.000Z</time>
      </trkpt>
      <trkpt lat="43.92073" lon="7.24359">
        <ele>858.59997558594</ele>
        <time>2013-12-21T08:38:12.000Z</time>
      </trkpt>
      <trkpt lat="43.92077" lon="7.2436">
        <ele>859.59997558594</ele>
        <time>2013-12-21T08:38:19.000Z</time>
      </trkpt>
      <trkpt lat="43.92081" lon="7.24362">
        <ele>860.59997558594</ele>
        <time>2013-12-21T08:38:25.000Z</time>
      </trkpt>
      <trkpt lat="43.92083" lon="7.24365">
        <ele>861.79998779297</ele>
        <time>2013-12-21T08:38:31.000Z</time>
      </trkpt>
      <trkpt lat="43.92084" lon="7.24366">
        <ele>862.79998779297</ele>
        <time>2013-12-21T08:38:39.000Z</time>
      </trkpt>
      <trkpt lat="43.92084" lon="7.24368">
        <ele>863.40002441406</ele>
        <time>2013-12-21T08:38:50.000Z</time>
      </trkpt>
      <trkpt lat="43.92086" lon="7.24368">
        <ele>863.40002441406</ele>
        <time>2013-12-21T08:38:57.000Z</time>
      </trkpt>
      <trkpt lat="43.92087" lon="7.24373">
        <ele>864.20001220703</ele>
        <time>2013-12-21T08:39:09.000Z</time>
      </trkpt>
      <trkpt lat="43.92087" lon="7.24371">
        <ele>866.79998779297</ele>
        <time>2013-12-21T08:39:30.000Z</time>
      </trkpt>
      <trkpt lat="43.92085" lon="7.24371">
        <ele>867</ele>
        <time>2013-12-21T08:39:31.000Z</time>
      </trkpt>
      <trkpt lat="43.92076" lon="7.24365">
        <ele>867.40002441406</ele>
        <time>2013-12-21T08:39:36.000Z</time>
      </trkpt>
      <trkpt lat="43.92075" lon="7.24366">
        <ele>867.40002441406</ele>
        <time>2013-12-21T08:39:37.000Z</time>
      </trkpt>
      <trkpt lat="43.9207" lon="7.24371">
        <ele>867.59997558594</ele>
        <time>2013-12-21T08:39:40.000Z</time>
      </trkpt>
      <trkpt lat="43.92067" lon="7.24368">
        <ele>867.59997558594</ele>
        <time>2013-12-21T08:39:43.000Z</time>
      </trkpt>
      <trkpt lat="43.92067" lon="7.24365">
        <ele>867.40002441406</ele>
        <time>2013-12-21T08:39:44.000Z</time>
      </trkpt>
      <trkpt lat="43.92061" lon="7.24356">
        <ele>867.40002441406</ele>
        <time>2013-12-21T08:39:47.000Z</time>
      </trkpt>
      <trkpt lat="43.92059" lon="7.24355">
        <ele>867.40002441406</ele>
        <time>2013-12-21T08:39:48.000Z</time>
      </trkpt>
      <trkpt lat="43.92055" lon="7.24353">
        <ele>867.20001220703</ele>
        <time>2013-12-21T08:39:51.000Z</time>
      </trkpt>
      <trkpt lat="43.92056" lon="7.24355">
        <ele>866.79998779297</ele>
        <time>2013-12-21T08:39:59.000Z</time>
      </trkpt>
      <trkpt lat="43.92057" lon="7.24362">
        <ele>865</ele>
        <time>2013-12-21T08:43:06.000Z</time>
      </trkpt>
      <trkpt lat="43.92059" lon="7.24369">
        <ele>864.59997558594</ele>
        <time>2013-12-21T08:43:08.000Z</time>
      </trkpt>
      <trkpt lat="43.92055" lon="7.24377">
        <ele>864.20001220703</ele>
        <time>2013-12-21T08:43:10.000Z</time>
      </trkpt>
      <trkpt lat="43.92045" lon="7.24395">
        <ele>863.40002441406</ele>
        <time>2013-12-21T08:43:15.000Z</time>
      </trkpt>
      <trkpt lat="43.92037" lon="7.24408">
        <ele>862.40002441406</ele>
        <time>2013-12-21T08:43:20.000Z</time>
      </trkpt>
      <trkpt lat="43.92032" lon="7.2442">
        <ele>861.40002441406</ele>
        <time>2013-12-21T08:43:25.000Z</time>
      </trkpt>
      <trkpt lat="43.9203" lon="7.24424">
        <ele>860.59997558594</ele>
        <time>2013-12-21T08:43:28.000Z</time>
      </trkpt>
      <trkpt lat="43.92031" lon="7.24423">
        <ele>860.20001220703</ele>
        <time>2013-12-21T08:43:30.000Z</time>
      </trkpt>
      <trkpt lat="43.92033" lon="7.24417">
        <ele>857.20001220703</ele>
        <time>2013-12-21T08:43:49.000Z</time>
      </trkpt>
      <trkpt lat="43.92046" lon="7.24406">
        <ele>856.40002441406</ele>
        <time>2013-12-21T08:43:55.000Z</time>
      </trkpt>
      <trkpt lat="43.92059" lon="7.24406">
        <ele>855.79998779297</ele>
        <time>2013-12-21T08:43:59.000Z</time>
      </trkpt>
      <trkpt lat="43.92069" lon="7.24403">
        <ele>855.20001220703</ele>
        <time>2013-12-21T08:44:03.000Z</time>
      </trkpt>
      <trkpt lat="43.92072" lon="7.24403">
        <ele>855</ele>
        <time>2013-12-21T08:44:04.000Z</time>
      </trkpt>
      <trkpt lat="43.92084" lon="7.24408">
        <ele>854.40002441406</ele>
        <time>2013-12-21T08:44:09.000Z</time>
      </trkpt>
      <trkpt lat="43.92094" lon="7.24412">
        <ele>853.79998779297</ele>
        <time>2013-12-21T08:44:15.000Z</time>
      </trkpt>
      <trkpt lat="43.92104" lon="7.24414">
        <ele>853.20001220703</ele>
        <time>2013-12-21T08:44:21.000Z</time>
      </trkpt>
      <trkpt lat="43.92115" lon="7.24411">
        <ele>852.59997558594</ele>
        <time>2013-12-21T08:44:27.000Z</time>
      </trkpt>
      <trkpt lat="43.92129" lon="7.24405">
        <ele>851.79998779297</ele>
        <time>2013-12-21T08:44:34.000Z</time>
      </trkpt>
      <trkpt lat="43.92143" lon="7.24401">
        <ele>851</ele>
        <time>2013-12-21T08:44:41.000Z</time>
      </trkpt>
      <trkpt lat="43.92149" lon="7.24406">
        <ele>850.59997558594</ele>
        <time>2013-12-21T08:44:46.000Z</time>
      </trkpt>
      <trkpt lat="43.92151" lon="7.24408">
        <ele>850.40002441406</ele>
        <time>2013-12-21T08:44:48.000Z</time>
      </trkpt>
      <trkpt lat="43.92154" lon="7.24406">
        <ele>850</ele>
        <time>2013-12-21T08:44:51.000Z</time>
      </trkpt>
      <trkpt lat="43.92159" lon="7.24413">
        <ele>848.79998779297</ele>
        <time>2013-12-21T08:45:06.000Z</time>
      </trkpt>
      <trkpt lat="43.9216" lon="7.24414">
        <ele>848.59997558594</ele>
        <time>2013-12-21T08:45:08.000Z</time>
      </trkpt>
      <trkpt lat="43.92163" lon="7.24417">
        <ele>848.40002441406</ele>
        <time>2013-12-21T08:45:13.000Z</time>
      </trkpt>
      <trkpt lat="43.92166" lon="7.24418">
        <ele>848</ele>
        <time>2013-12-21T08:45:19.000Z</time>
      </trkpt>
      <trkpt lat="43.92168" lon="7.2442">
        <ele>847.79998779297</ele>
        <time>2013-12-21T08:45:25.000Z</time>
      </trkpt>
      <trkpt lat="43.9217" lon="7.24425">
        <ele>847.40002441406</ele>
        <time>2013-12-21T08:45:33.000Z</time>
      </trkpt>
      <trkpt lat="43.92173" lon="7.2443">
        <ele>847.20001220703</ele>
        <time>2013-12-21T08:45:38.000Z</time>
      </trkpt>
      <trkpt lat="43.92173" lon="7.24431">
        <ele>847.20001220703</ele>
        <time>2013-12-21T08:45:39.000Z</time>
      </trkpt>
      <trkpt lat="43.92175" lon="7.24436">
        <ele>847.20001220703</ele>
        <time>2013-12-21T08:45:44.000Z</time>
      </trkpt>
      <trkpt lat="43.92177" lon="7.2444">
        <ele>847.20001220703</ele>
        <time>2013-12-21T08:45:49.000Z</time>
      </trkpt>
      <trkpt lat="43.92178" lon="7.24447">
        <ele>847.20001220703</ele>
        <time>2013-12-21T08:45:55.000Z</time>
      </trkpt>
      <trkpt lat="43.92184" lon="7.24461">
        <ele>847</ele>
        <time>2013-12-21T08:46:00.000Z</time>
      </trkpt>
      <trkpt lat="43.92185" lon="7.24467">
        <ele>847</ele>
        <time>2013-12-21T08:46:04.000Z</time>
      </trkpt>
      <trkpt lat="43.92195" lon="7.24471">
        <ele>847</ele>
        <time>2013-12-21T08:46:09.000Z</time>
      </trkpt>
      <trkpt lat="43.92209" lon="7.24467">
        <ele>846.59997558594</ele>
        <time>2013-12-21T08:46:14.000Z</time>
      </trkpt>
      <trkpt lat="43.92213" lon="7.24468">
        <ele>846.40002441406</ele>
        <time>2013-12-21T08:46:17.000Z</time>
      </trkpt>
      <trkpt lat="43.92213" lon="7.24468">
        <ele>846.40002441406</ele>
        <time>2013-12-21T08:46:18.000Z</time>
      </trkpt>
      <trkpt lat="43.92216" lon="7.24471">
        <ele>845.59997558594</ele>
        <time>2013-12-21T08:46:24.000Z</time>
      </trkpt>
      <trkpt lat="43.92217" lon="7.24473">
        <ele>845.40002441406</ele>
        <time>2013-12-21T08:46:26.000Z</time>
      </trkpt>
      <trkpt lat="43.92219" lon="7.24478">
        <ele>845.20001220703</ele>
        <time>2013-12-21T08:46:29.000Z</time>
      </trkpt>
      <trkpt lat="43.9222" lon="7.2448">
        <ele>845.20001220703</ele>
        <time>2013-12-21T08:46:31.000Z</time>
      </trkpt>
      <trkpt lat="43.92219" lon="7.24481">
        <ele>845</ele>
        <time>2013-12-21T08:46:32.000Z</time>
      </trkpt>
      <trkpt lat="43.9222" lon="7.24489">
        <ele>844.79998779297</ele>
        <time>2013-12-21T08:46:37.000Z</time>
      </trkpt>
      <trkpt lat="43.92221" lon="7.24498">
        <ele>844.79998779297</ele>
        <time>2013-12-21T08:46:45.000Z</time>
      </trkpt>
      <trkpt lat="43.92219" lon="7.24507">
        <ele>845</ele>
        <time>2013-12-21T08:46:51.000Z</time>
      </trkpt>
      <trkpt lat="43.92224" lon="7.24515">
        <ele>844.20001220703</ele>
        <time>2013-12-21T08:47:05.000Z</time>
      </trkpt>
      <trkpt lat="43.92223" lon="7.24525">
        <ele>843.79998779297</ele>
        <time>2013-12-21T08:47:13.000Z</time>
      </trkpt>
      <trkpt lat="43.92223" lon="7.24528">
        <ele>843.79998779297</ele>
        <time>2013-12-21T08:47:15.000Z</time>
      </trkpt>
      <trkpt lat="43.92222" lon="7.2453">
        <ele>843.59997558594</ele>
        <time>2013-12-21T08:47:17.000Z</time>
      </trkpt>
      <trkpt lat="43.92222" lon="7.24532">
        <ele>843.59997558594</ele>
        <time>2013-12-21T08:47:19.000Z</time>
      </trkpt>
      <trkpt lat="43.92222" lon="7.24542">
        <ele>843.59997558594</ele>
        <time>2013-12-21T08:47:26.000Z</time>
      </trkpt>
      <trkpt lat="43.92221" lon="7.24548">
        <ele>845</ele>
        <time>2013-12-21T08:47:32.000Z</time>
      </trkpt>
      <trkpt lat="43.92223" lon="7.2455">
        <ele>845.79998779297</ele>
        <time>2013-12-21T08:47:35.000Z</time>
      </trkpt>
      <trkpt lat="43.92224" lon="7.24551">
        <ele>846.40002441406</ele>
        <time>2013-12-21T08:47:37.000Z</time>
      </trkpt>
      <trkpt lat="43.92224" lon="7.24551">
        <ele>846.59997558594</ele>
        <time>2013-12-21T08:47:38.000Z</time>
      </trkpt>
      <trkpt lat="43.92229" lon="7.2456">
        <ele>848.79998779297</ele>
        <time>2013-12-21T08:47:46.000Z</time>
      </trkpt>
      <trkpt lat="43.92233" lon="7.24569">
        <ele>851</ele>
        <time>2013-12-21T08:47:54.000Z</time>
      </trkpt>
      <trkpt lat="43.92238" lon="7.24578">
        <ele>852.79998779297</ele>
        <time>2013-12-21T08:48:02.000Z</time>
      </trkpt>
      <trkpt lat="43.92237" lon="7.24589">
        <ele>854.40002441406</ele>
        <time>2013-12-21T08:48:10.000Z</time>
      </trkpt>
      <trkpt lat="43.92237" lon="7.24599">
        <ele>856</ele>
        <time>2013-12-21T08:48:17.000Z</time>
      </trkpt>
      <trkpt lat="43.92243" lon="7.2461">
        <ele>858.20001220703</ele>
        <time>2013-12-21T08:48:26.000Z</time>
      </trkpt>
      <trkpt lat="43.92247" lon="7.24621">
        <ele>860.59997558594</ele>
        <time>2013-12-21T08:48:35.000Z</time>
      </trkpt>
      <trkpt lat="43.9225" lon="7.24626">
        <ele>862.20001220703</ele>
        <time>2013-12-21T08:48:42.000Z</time>
      </trkpt>
      <trkpt lat="43.9225" lon="7.24626">
        <ele>864</ele>
        <time>2013-12-21T08:48:49.000Z</time>
      </trkpt>
      <trkpt lat="43.92255" lon="7.24632">
        <ele>865.20001220703</ele>
        <time>2013-12-21T08:48:57.000Z</time>
      </trkpt>
      <trkpt lat="43.92258" lon="7.24645">
        <ele>865.79998779297</ele>
        <time>2013-12-21T08:49:03.000Z</time>
      </trkpt>
      <trkpt lat="43.92259" lon="7.24646">
        <ele>866</ele>
        <time>2013-12-21T08:49:04.000Z</time>
      </trkpt>
      <trkpt lat="43.9226" lon="7.24647">
        <ele>866.20001220703</ele>
        <time>2013-12-21T08:49:09.000Z</time>
      </trkpt>
      <trkpt lat="43.92262" lon="7.24651">
        <ele>866</ele>
        <time>2013-12-21T08:49:29.000Z</time>
      </trkpt>
      <trkpt lat="43.92262" lon="7.24659">
        <ele>865.79998779297</ele>
        <time>2013-12-21T08:49:36.000Z</time>
      </trkpt>
      <trkpt lat="43.92262" lon="7.2467">
        <ele>865.59997558594</ele>
        <time>2013-12-21T08:49:43.000Z</time>
      </trkpt>
      <trkpt lat="43.92263" lon="7.24677">
        <ele>865.79998779297</ele>
        <time>2013-12-21T08:49:50.000Z</time>
      </trkpt>
      <trkpt lat="43.92265" lon="7.24679">
        <ele>865.79998779297</ele>
        <time>2013-12-21T08:49:56.000Z</time>
      </trkpt>
      <trkpt lat="43.92266" lon="7.24688">
        <ele>866</ele>
        <time>2013-12-21T08:50:05.000Z</time>
      </trkpt>
      <trkpt lat="43.92269" lon="7.24696">
        <ele>866</ele>
        <time>2013-12-21T08:50:10.000Z</time>
      </trkpt>
      <trkpt lat="43.92271" lon="7.24701">
        <ele>866</ele>
        <time>2013-12-21T08:50:14.000Z</time>
      </trkpt>
      <trkpt lat="43.92271" lon="7.24703">
        <ele>866</ele>
        <time>2013-12-21T08:50:18.000Z</time>
      </trkpt>
      <trkpt lat="43.92273" lon="7.24707">
        <ele>866</ele>
        <time>2013-12-21T08:50:21.000Z</time>
      </trkpt>
      <trkpt lat="43.92279" lon="7.24718">
        <ele>866</ele>
        <time>2013-12-21T08:50:30.000Z</time>
      </trkpt>
      <trkpt lat="43.92281" lon="7.24723">
        <ele>866</ele>
        <time>2013-12-21T08:50:37.000Z</time>
      </trkpt>
      <trkpt lat="43.92284" lon="7.24731">
        <ele>866.20001220703</ele>
        <time>2013-12-21T08:51:12.000Z</time>
      </trkpt>
      <trkpt lat="43.92288" lon="7.2474">
        <ele>866.20001220703</ele>
        <time>2013-12-21T08:51:19.000Z</time>
      </trkpt>
      <trkpt lat="43.92289" lon="7.24744">
        <ele>866</ele>
        <time>2013-12-21T08:51:24.000Z</time>
      </trkpt>
      <trkpt lat="43.92291" lon="7.24751">
        <ele>866</ele>
        <time>2013-12-21T08:51:30.000Z</time>
      </trkpt>
      <trkpt lat="43.92292" lon="7.24759">
        <ele>866</ele>
        <time>2013-12-21T08:51:37.000Z</time>
      </trkpt>
      <trkpt lat="43.92296" lon="7.2477">
        <ele>866.20001220703</ele>
        <time>2013-12-21T08:51:46.000Z</time>
      </trkpt>
      <trkpt lat="43.92298" lon="7.24777">
        <ele>866.59997558594</ele>
        <time>2013-12-21T08:51:51.000Z</time>
      </trkpt>
      <trkpt lat="43.92299" lon="7.24782">
        <ele>866.59997558594</ele>
        <time>2013-12-21T08:51:54.000Z</time>
      </trkpt>
      <trkpt lat="43.92304" lon="7.24792">
        <ele>867.20001220703</ele>
        <time>2013-12-21T08:52:02.000Z</time>
      </trkpt>
      <trkpt lat="43.92309" lon="7.24798">
        <ele>868.20001220703</ele>
        <time>2013-12-21T08:52:10.000Z</time>
      </trkpt>
      <trkpt lat="43.92315" lon="7.24808">
        <ele>868.79998779297</ele>
        <time>2013-12-21T08:52:18.000Z</time>
      </trkpt>
      <trkpt lat="43.92315" lon="7.24809">
        <ele>869.20001220703</ele>
        <time>2013-12-21T08:52:23.000Z</time>
      </trkpt>
      <trkpt lat="43.92321" lon="7.24812">
        <ele>869.59997558594</ele>
        <time>2013-12-21T08:52:31.000Z</time>
      </trkpt>
      <trkpt lat="43.92334" lon="7.24815">
        <ele>870</ele>
        <time>2013-12-21T08:52:39.000Z</time>
      </trkpt>
      <trkpt lat="43.92339" lon="7.24815">
        <ele>870</ele>
        <time>2013-12-21T08:52:43.000Z</time>
      </trkpt>
      <trkpt lat="43.92341" lon="7.24815">
        <ele>870</ele>
        <time>2013-12-21T08:52:45.000Z</time>
      </trkpt>
      <trkpt lat="43.92348" lon="7.24818">
        <ele>870.59997558594</ele>
        <time>2013-12-21T08:52:50.000Z</time>
      </trkpt>
      <trkpt lat="43.92349" lon="7.24816">
        <ele>871</ele>
        <time>2013-12-21T08:52:57.000Z</time>
      </trkpt>
      <trkpt lat="43.92353" lon="7.24817">
        <ele>871.40002441406</ele>
        <time>2013-12-21T08:53:04.000Z</time>
      </trkpt>
      <trkpt lat="43.92353" lon="7.24817">
        <ele>871.40002441406</ele>
        <time>2013-12-21T08:53:05.000Z</time>
      </trkpt>
      <trkpt lat="43.92356" lon="7.24818">
        <ele>871.40002441406</ele>
        <time>2013-12-21T08:53:15.000Z</time>
      </trkpt>
      <trkpt lat="43.92363" lon="7.24816">
        <ele>871.40002441406</ele>
        <time>2013-12-21T08:53:23.000Z</time>
      </trkpt>
      <trkpt lat="43.92369" lon="7.2481">
        <ele>871.20001220703</ele>
        <time>2013-12-21T08:53:31.000Z</time>
      </trkpt>
      <trkpt lat="43.92371" lon="7.24805">
        <ele>871</ele>
        <time>2013-12-21T08:53:38.000Z</time>
      </trkpt>
      <trkpt lat="43.92375" lon="7.24799">
        <ele>871</ele>
        <time>2013-12-21T08:53:45.000Z</time>
      </trkpt>
      <trkpt lat="43.92379" lon="7.24794">
        <ele>871.20001220703</ele>
        <time>2013-12-21T08:53:51.000Z</time>
      </trkpt>
      <trkpt lat="43.92381" lon="7.24792">
        <ele>871.40002441406</ele>
        <time>2013-12-21T08:53:54.000Z</time>
      </trkpt>
      <trkpt lat="43.92384" lon="7.24789">
        <ele>871.59997558594</ele>
        <time>2013-12-21T08:53:58.000Z</time>
      </trkpt>
      <trkpt lat="43.92391" lon="7.24783">
        <ele>873</ele>
        <time>2013-12-21T08:54:07.000Z</time>
      </trkpt>
      <trkpt lat="43.92391" lon="7.24788">
        <ele>874.59997558594</ele>
        <time>2013-12-21T08:54:13.000Z</time>
      </trkpt>
      <trkpt lat="43.92395" lon="7.24785">
        <ele>876.20001220703</ele>
        <time>2013-12-21T08:54:19.000Z</time>
      </trkpt>
      <trkpt lat="43.92399" lon="7.24785">
        <ele>878.79998779297</ele>
        <time>2013-12-21T08:54:27.000Z</time>
      </trkpt>
      <trkpt lat="43.92401" lon="7.24783">
        <ele>879.40002441406</ele>
        <time>2013-12-21T08:54:29.000Z</time>
      </trkpt>
      <trkpt lat="43.92404" lon="7.24777">
        <ele>880.20001220703</ele>
        <time>2013-12-21T08:54:33.000Z</time>
      </trkpt>
      <trkpt lat="43.92409" lon="7.24768">
        <ele>881.20001220703</ele>
        <time>2013-12-21T08:54:40.000Z</time>
      </trkpt>
      <trkpt lat="43.92414" lon="7.24764">
        <ele>882.20001220703</ele>
        <time>2013-12-21T08:54:45.000Z</time>
      </trkpt>
      <trkpt lat="43.92418" lon="7.24763">
        <ele>883.59997558594</ele>
        <time>2013-12-21T08:54:52.000Z</time>
      </trkpt>
      <trkpt lat="43.92418" lon="7.24763">
        <ele>883.79998779297</ele>
        <time>2013-12-21T08:54:53.000Z</time>
      </trkpt>
      <trkpt lat="43.92423" lon="7.2476">
        <ele>885</ele>
        <time>2013-12-21T08:55:00.000Z</time>
      </trkpt>
      <trkpt lat="43.92429" lon="7.24757">
        <ele>886.20001220703</ele>
        <time>2013-12-21T08:55:07.000Z</time>
      </trkpt>
      <trkpt lat="43.92432" lon="7.24756">
        <ele>886.59997558594</ele>
        <time>2013-12-21T08:55:10.000Z</time>
      </trkpt>
      <trkpt lat="43.92434" lon="7.24754">
        <ele>886.79998779297</ele>
        <time>2013-12-21T08:55:12.000Z</time>
      </trkpt>
      <trkpt lat="43.92434" lon="7.24754">
        <ele>886.79998779297</ele>
        <time>2013-12-21T08:55:13.000Z</time>
      </trkpt>
      <trkpt lat="43.92438" lon="7.24752">
        <ele>887</ele>
        <time>2013-12-21T08:55:17.000Z</time>
      </trkpt>
      <trkpt lat="43.92439" lon="7.24751">
        <ele>887</ele>
        <time>2013-12-21T08:55:19.000Z</time>
      </trkpt>
      <trkpt lat="43.92445" lon="7.24746">
        <ele>887.59997558594</ele>
        <time>2013-12-21T08:55:32.000Z</time>
      </trkpt>
      <trkpt lat="43.92451" lon="7.24742">
        <ele>887.79998779297</ele>
        <time>2013-12-21T08:55:38.000Z</time>
      </trkpt>
      <trkpt lat="43.92452" lon="7.24741">
        <ele>888</ele>
        <time>2013-12-21T08:55:39.000Z</time>
      </trkpt>
      <trkpt lat="43.92454" lon="7.24738">
        <ele>888</ele>
        <time>2013-12-21T08:55:42.000Z</time>
      </trkpt>
      <trkpt lat="43.92456" lon="7.24735">
        <ele>888.20001220703</ele>
        <time>2013-12-21T08:55:45.000Z</time>
      </trkpt>
      <trkpt lat="43.92456" lon="7.24734">
        <ele>888.40002441406</ele>
        <time>2013-12-21T08:55:46.000Z</time>
      </trkpt>
      <trkpt lat="43.9246" lon="7.24731">
        <ele>888.59997558594</ele>
        <time>2013-12-21T08:55:51.000Z</time>
      </trkpt>
      <trkpt lat="43.92462" lon="7.24729">
        <ele>888.59997558594</ele>
        <time>2013-12-21T08:55:53.000Z</time>
      </trkpt>
      <trkpt lat="43.92464" lon="7.24726">
        <ele>888.59997558594</ele>
        <time>2013-12-21T08:55:56.000Z</time>
      </trkpt>
      <trkpt lat="43.92465" lon="7.24723">
        <ele>888.79998779297</ele>
        <time>2013-12-21T08:55:58.000Z</time>
      </trkpt>
      <trkpt lat="43.92473" lon="7.24714">
        <ele>889.40002441406</ele>
        <time>2013-12-21T08:56:07.000Z</time>
      </trkpt>
      <trkpt lat="43.92481" lon="7.24708">
        <ele>891</ele>
        <time>2013-12-21T08:56:16.000Z</time>
      </trkpt>
      <trkpt lat="43.92487" lon="7.24701">
        <ele>892</ele>
        <time>2013-12-21T08:56:23.000Z</time>
      </trkpt>
      <trkpt lat="43.9249" lon="7.24699">
        <ele>892.79998779297</ele>
        <time>2013-12-21T08:56:29.000Z</time>
      </trkpt>
      <trkpt lat="43.92493" lon="7.24698">
        <ele>893.40002441406</ele>
        <time>2013-12-21T08:56:32.000Z</time>
      </trkpt>
      <trkpt lat="43.92496" lon="7.24698">
        <ele>893.79998779297</ele>
        <time>2013-12-21T08:56:35.000Z</time>
      </trkpt>
      <trkpt lat="43.92499" lon="7.24699">
        <ele>894.40002441406</ele>
        <time>2013-12-21T08:56:38.000Z</time>
      </trkpt>
      <trkpt lat="43.92502" lon="7.24697">
        <ele>894.40002441406</ele>
        <time>2013-12-21T08:56:43.000Z</time>
      </trkpt>
      <trkpt lat="43.92505" lon="7.24698">
        <ele>895</ele>
        <time>2013-12-21T08:56:48.000Z</time>
      </trkpt>
      <trkpt lat="43.92508" lon="7.24695">
        <ele>895.79998779297</ele>
        <time>2013-12-21T08:56:56.000Z</time>
      </trkpt>
      <trkpt lat="43.92512" lon="7.24693">
        <ele>896</ele>
        <time>2013-12-21T08:57:01.000Z</time>
      </trkpt>
      <trkpt lat="43.92515" lon="7.24692">
        <ele>896.20001220703</ele>
        <time>2013-12-21T08:57:07.000Z</time>
      </trkpt>
      <trkpt lat="43.92518" lon="7.24693">
        <ele>896.40002441406</ele>
        <time>2013-12-21T08:57:13.000Z</time>
      </trkpt>
      <trkpt lat="43.92523" lon="7.2469">
        <ele>896.40002441406</ele>
        <time>2013-12-21T08:57:18.000Z</time>
      </trkpt>
      <trkpt lat="43.92527" lon="7.24687">
        <ele>896.40002441406</ele>
        <time>2013-12-21T08:57:23.000Z</time>
      </trkpt>
      <trkpt lat="43.92534" lon="7.24683">
        <ele>896.20001220703</ele>
        <time>2013-12-21T08:57:29.000Z</time>
      </trkpt>
      <trkpt lat="43.92536" lon="7.24683">
        <ele>896.20001220703</ele>
        <time>2013-12-21T08:57:30.000Z</time>
      </trkpt>
      <trkpt lat="43.92541" lon="7.24684">
        <ele>896.20001220703</ele>
        <time>2013-12-21T08:57:35.000Z</time>
      </trkpt>
      <trkpt lat="43.92542" lon="7.24683">
        <ele>896.20001220703</ele>
        <time>2013-12-21T08:57:36.000Z</time>
      </trkpt>
      <trkpt lat="43.92548" lon="7.24686">
        <ele>896.40002441406</ele>
        <time>2013-12-21T08:57:43.000Z</time>
      </trkpt>
      <trkpt lat="43.92557" lon="7.24692">
        <ele>897.20001220703</ele>
        <time>2013-12-21T08:57:51.000Z</time>
      </trkpt>
      <trkpt lat="43.92562" lon="7.24692">
        <ele>898.20001220703</ele>
        <time>2013-12-21T08:57:55.000Z</time>
      </trkpt>
      <trkpt lat="43.92565" lon="7.24691">
        <ele>898.59997558594</ele>
        <time>2013-12-21T08:57:58.000Z</time>
      </trkpt>
      <trkpt lat="43.92566" lon="7.24691">
        <ele>899</ele>
        <time>2013-12-21T08:58:00.000Z</time>
      </trkpt>
      <trkpt lat="43.92571" lon="7.2469">
        <ele>899.59997558594</ele>
        <time>2013-12-21T08:58:04.000Z</time>
      </trkpt>
      <trkpt lat="43.92572" lon="7.24689">
        <ele>899.79998779297</ele>
        <time>2013-12-21T08:58:06.000Z</time>
      </trkpt>
      <trkpt lat="43.92575" lon="7.24686">
        <ele>900</ele>
        <time>2013-12-21T08:58:10.000Z</time>
      </trkpt>
      <trkpt lat="43.92578" lon="7.24684">
        <ele>900.20001220703</ele>
        <time>2013-12-21T08:58:14.000Z</time>
      </trkpt>
      <trkpt lat="43.92586" lon="7.24678">
        <ele>900</ele>
        <time>2013-12-21T08:58:25.000Z</time>
      </trkpt>
      <trkpt lat="43.9259" lon="7.24678">
        <ele>899.79998779297</ele>
        <time>2013-12-21T08:58:30.000Z</time>
      </trkpt>
      <trkpt lat="43.92591" lon="7.24679">
        <ele>899.79998779297</ele>
        <time>2013-12-21T08:58:31.000Z</time>
      </trkpt>
      <trkpt lat="43.92595" lon="7.24688">
        <ele>900.79998779297</ele>
        <time>2013-12-21T08:58:39.000Z</time>
      </trkpt>
      <trkpt lat="43.92596" lon="7.2469">
        <ele>901.20001220703</ele>
        <time>2013-12-21T08:58:41.000Z</time>
      </trkpt>
      <trkpt lat="43.92597" lon="7.24691">
        <ele>901.59997558594</ele>
        <time>2013-12-21T08:58:43.000Z</time>
      </trkpt>
      <trkpt lat="43.92597" lon="7.24694">
        <ele>902</ele>
        <time>2013-12-21T08:58:45.000Z</time>
      </trkpt>
      <trkpt lat="43.92598" lon="7.24696">
        <ele>902.40002441406</ele>
        <time>2013-12-21T08:58:47.000Z</time>
      </trkpt>
      <trkpt lat="43.92601" lon="7.24698">
        <ele>904.20001220703</ele>
        <time>2013-12-21T08:58:51.000Z</time>
      </trkpt>
      <trkpt lat="43.92603" lon="7.24695">
        <ele>906.79998779297</ele>
        <time>2013-12-21T08:58:58.000Z</time>
      </trkpt>
      <trkpt lat="43.92603" lon="7.24691">
        <ele>908.59997558594</ele>
        <time>2013-12-21T08:59:04.000Z</time>
      </trkpt>
      <trkpt lat="43.92604" lon="7.24689">
        <ele>910.20001220703</ele>
        <time>2013-12-21T08:59:09.000Z</time>
      </trkpt>
      <trkpt lat="43.92607" lon="7.24693">
        <ele>912</ele>
        <time>2013-12-21T08:59:16.000Z</time>
      </trkpt>
      <trkpt lat="43.9261" lon="7.24694">
        <ele>914</ele>
        <time>2013-12-21T08:59:22.000Z</time>
      </trkpt>
      <trkpt lat="43.92612" lon="7.24696">
        <ele>916.40002441406</ele>
        <time>2013-12-21T08:59:28.000Z</time>
      </trkpt>
      <trkpt lat="43.92614" lon="7.247">
        <ele>918</ele>
        <time>2013-12-21T08:59:32.000Z</time>
      </trkpt>
      <trkpt lat="43.92616" lon="7.24701">
        <ele>919</ele>
        <time>2013-12-21T08:59:35.000Z</time>
      </trkpt>
      <trkpt lat="43.92617" lon="7.24701">
        <ele>919.40002441406</ele>
        <time>2013-12-21T08:59:36.000Z</time>
      </trkpt>
      <trkpt lat="43.92622" lon="7.24703">
        <ele>921.79998779297</ele>
        <time>2013-12-21T08:59:43.000Z</time>
      </trkpt>
      <trkpt lat="43.92626" lon="7.24703">
        <ele>923.79998779297</ele>
        <time>2013-12-21T08:59:50.000Z</time>
      </trkpt>
      <trkpt lat="43.92628" lon="7.24708">
        <ele>925.40002441406</ele>
        <time>2013-12-21T08:59:55.000Z</time>
      </trkpt>
      <trkpt lat="43.92632" lon="7.24712">
        <ele>928.20001220703</ele>
        <time>2013-12-21T09:00:03.000Z</time>
      </trkpt>
      <trkpt lat="43.92635" lon="7.24711">
        <ele>930.20001220703</ele>
        <time>2013-12-21T09:00:09.000Z</time>
      </trkpt>
      <trkpt lat="43.92637" lon="7.24712">
        <ele>931.79998779297</ele>
        <time>2013-12-21T09:00:14.000Z</time>
      </trkpt>
      <trkpt lat="43.9264" lon="7.24718">
        <ele>934</ele>
        <time>2013-12-21T09:00:22.000Z</time>
      </trkpt>
      <trkpt lat="43.92641" lon="7.24722">
        <ele>935.20001220703</ele>
        <time>2013-12-21T09:00:27.000Z</time>
      </trkpt>
      <trkpt lat="43.92643" lon="7.2473">
        <ele>937</ele>
        <time>2013-12-21T09:00:34.000Z</time>
      </trkpt>
      <trkpt lat="43.92646" lon="7.24736">
        <ele>939.20001220703</ele>
        <time>2013-12-21T09:00:42.000Z</time>
      </trkpt>
      <trkpt lat="43.92648" lon="7.24733">
        <ele>940.40002441406</ele>
        <time>2013-12-21T09:00:47.000Z</time>
      </trkpt>
      <trkpt lat="43.92649" lon="7.24727">
        <ele>942.79998779297</ele>
        <time>2013-12-21T09:00:55.000Z</time>
      </trkpt>
      <trkpt lat="43.92652" lon="7.24731">
        <ele>945.20001220703</ele>
        <time>2013-12-21T09:01:03.000Z</time>
      </trkpt>
      <trkpt lat="43.92652" lon="7.24737">
        <ele>947.20001220703</ele>
        <time>2013-12-21T09:01:10.000Z</time>
      </trkpt>
      <trkpt lat="43.92652" lon="7.24743">
        <ele>949.20001220703</ele>
        <time>2013-12-21T09:01:17.000Z</time>
      </trkpt>
      <trkpt lat="43.92651" lon="7.2475">
        <ele>951.40002441406</ele>
        <time>2013-12-21T09:01:24.000Z</time>
      </trkpt>
      <trkpt lat="43.92651" lon="7.2475">
        <ele>953.59997558594</ele>
        <time>2013-12-21T09:01:33.000Z</time>
      </trkpt>
      <trkpt lat="43.92658" lon="7.24749">
        <ele>954.59997558594</ele>
        <time>2013-12-21T09:02:48.000Z</time>
      </trkpt>
      <trkpt lat="43.92651" lon="7.24754">
        <ele>953</ele>
        <time>2013-12-21T09:05:52.000Z</time>
      </trkpt>
      <trkpt lat="43.92653" lon="7.2476">
        <ele>953</ele>
        <time>2013-12-21T09:05:58.000Z</time>
      </trkpt>
      <trkpt lat="43.92654" lon="7.24767">
        <ele>953</ele>
        <time>2013-12-21T09:06:09.000Z</time>
      </trkpt>
      <trkpt lat="43.92657" lon="7.24771">
        <ele>953</ele>
        <time>2013-12-21T09:06:16.000Z</time>
      </trkpt>
      <trkpt lat="43.92659" lon="7.24778">
        <ele>953.40002441406</ele>
        <time>2013-12-21T09:06:25.000Z</time>
      </trkpt>
      <trkpt lat="43.9266" lon="7.24783">
        <ele>953.79998779297</ele>
        <time>2013-12-21T09:06:31.000Z</time>
      </trkpt>
      <trkpt lat="43.9266" lon="7.24789">
        <ele>954.20001220703</ele>
        <time>2013-12-21T09:06:36.000Z</time>
      </trkpt>
      <trkpt lat="43.92663" lon="7.24793">
        <ele>954.40002441406</ele>
        <time>2013-12-21T09:06:41.000Z</time>
      </trkpt>
      <trkpt lat="43.9267" lon="7.24801">
        <ele>954.20001220703</ele>
        <time>2013-12-21T09:06:46.000Z</time>
      </trkpt>
      <trkpt lat="43.9267" lon="7.24804">
        <ele>954.20001220703</ele>
        <time>2013-12-21T09:06:50.000Z</time>
      </trkpt>
      <trkpt lat="43.92674" lon="7.24806">
        <ele>954</ele>
        <time>2013-12-21T09:06:58.000Z</time>
      </trkpt>
      <trkpt lat="43.92679" lon="7.24807">
        <ele>953.79998779297</ele>
        <time>2013-12-21T09:07:04.000Z</time>
      </trkpt>
      <trkpt lat="43.92686" lon="7.24802">
        <ele>953.40002441406</ele>
        <time>2013-12-21T09:07:09.000Z</time>
      </trkpt>
      <trkpt lat="43.92687" lon="7.24801">
        <ele>953.40002441406</ele>
        <time>2013-12-21T09:07:10.000Z</time>
      </trkpt>
      <trkpt lat="43.92692" lon="7.24795">
        <ele>953.20001220703</ele>
        <time>2013-12-21T09:07:13.000Z</time>
      </trkpt>
      <trkpt lat="43.92702" lon="7.24785">
        <ele>952.59997558594</ele>
        <time>2013-12-21T09:07:18.000Z</time>
      </trkpt>
      <trkpt lat="43.92712" lon="7.2478">
        <ele>952</ele>
        <time>2013-12-21T09:07:23.000Z</time>
      </trkpt>
      <trkpt lat="43.92726" lon="7.24773">
        <ele>951.40002441406</ele>
        <time>2013-12-21T09:07:28.000Z</time>
      </trkpt>
      <trkpt lat="43.92738" lon="7.24769">
        <ele>950.79998779297</ele>
        <time>2013-12-21T09:07:33.000Z</time>
      </trkpt>
      <trkpt lat="43.92741" lon="7.24767">
        <ele>950.59997558594</ele>
        <time>2013-12-21T09:07:35.000Z</time>
      </trkpt>
      <trkpt lat="43.92744" lon="7.24765">
        <ele>950.40002441406</ele>
        <time>2013-12-21T09:07:37.000Z</time>
      </trkpt>
      <trkpt lat="43.92746" lon="7.24767">
        <ele>949.79998779297</ele>
        <time>2013-12-21T09:07:41.000Z</time>
      </trkpt>
      <trkpt lat="43.92748" lon="7.24774">
        <ele>949</ele>
        <time>2013-12-21T09:07:48.000Z</time>
      </trkpt>
      <trkpt lat="43.9275" lon="7.24775">
        <ele>948.79998779297</ele>
        <time>2013-12-21T09:07:51.000Z</time>
      </trkpt>
      <trkpt lat="43.92751" lon="7.24775">
        <ele>948.40002441406</ele>
        <time>2013-12-21T09:07:53.000Z</time>
      </trkpt>
      <trkpt lat="43.92754" lon="7.24777">
        <ele>947.59997558594</ele>
        <time>2013-12-21T09:08:00.000Z</time>
      </trkpt>
      <trkpt lat="43.9276" lon="7.2478">
        <ele>947</ele>
        <time>2013-12-21T09:08:04.000Z</time>
      </trkpt>
      <trkpt lat="43.92772" lon="7.24784">
        <ele>946.40002441406</ele>
        <time>2013-12-21T09:08:09.000Z</time>
      </trkpt>
      <trkpt lat="43.92779" lon="7.24782">
        <ele>945.79998779297</ele>
        <time>2013-12-21T09:08:14.000Z</time>
      </trkpt>
      <trkpt lat="43.92786" lon="7.24779">
        <ele>945</ele>
        <time>2013-12-21T09:08:20.000Z</time>
      </trkpt>
      <trkpt lat="43.92794" lon="7.24779">
        <ele>944.20001220703</ele>
        <time>2013-12-21T09:08:27.000Z</time>
      </trkpt>
      <trkpt lat="43.92796" lon="7.24778">
        <ele>944</ele>
        <time>2013-12-21T09:08:28.000Z</time>
      </trkpt>
      <trkpt lat="43.92801" lon="7.24773">
        <ele>943.59997558594</ele>
        <time>2013-12-21T09:08:33.000Z</time>
      </trkpt>
      <trkpt lat="43.92807" lon="7.24765">
        <ele>943</ele>
        <time>2013-12-21T09:08:39.000Z</time>
      </trkpt>
      <trkpt lat="43.92819" lon="7.24752">
        <ele>942.79998779297</ele>
        <time>2013-12-21T09:08:44.000Z</time>
      </trkpt>
      <trkpt lat="43.92829" lon="7.2475">
        <ele>942.59997558594</ele>
        <time>2013-12-21T09:08:48.000Z</time>
      </trkpt>
      <trkpt lat="43.92838" lon="7.24749">
        <ele>942.40002441406</ele>
        <time>2013-12-21T09:08:53.000Z</time>
      </trkpt>
      <trkpt lat="43.92849" lon="7.24746">
        <ele>942.20001220703</ele>
        <time>2013-12-21T09:08:59.000Z</time>
      </trkpt>
      <trkpt lat="43.92849" lon="7.24745">
        <ele>942.20001220703</ele>
        <time>2013-12-21T09:09:00.000Z</time>
      </trkpt>
      <trkpt lat="43.92852" lon="7.24743">
        <ele>942</ele>
        <time>2013-12-21T09:09:04.000Z</time>
      </trkpt>
      <trkpt lat="43.92855" lon="7.2474">
        <ele>941.59997558594</ele>
        <time>2013-12-21T09:09:09.000Z</time>
      </trkpt>
      <trkpt lat="43.92867" lon="7.24734">
        <ele>941.20001220703</ele>
        <time>2013-12-21T09:09:15.000Z</time>
      </trkpt>
      <trkpt lat="43.92877" lon="7.24725">
        <ele>940.79998779297</ele>
        <time>2013-12-21T09:09:21.000Z</time>
      </trkpt>
      <trkpt lat="43.92882" lon="7.24723">
        <ele>940.59997558594</ele>
        <time>2013-12-21T09:09:26.000Z</time>
      </trkpt>
      <trkpt lat="43.92882" lon="7.24723">
        <ele>940.40002441406</ele>
        <time>2013-12-21T09:09:27.000Z</time>
      </trkpt>
      <trkpt lat="43.92884" lon="7.24724">
        <ele>940.40002441406</ele>
        <time>2013-12-21T09:09:31.000Z</time>
      </trkpt>
      <trkpt lat="43.92886" lon="7.24728">
        <ele>940.20001220703</ele>
        <time>2013-12-21T09:09:39.000Z</time>
      </trkpt>
      <trkpt lat="43.92888" lon="7.24732">
        <ele>940.20001220703</ele>
        <time>2013-12-21T09:09:42.000Z</time>
      </trkpt>
      <trkpt lat="43.9289" lon="7.24733">
        <ele>940</ele>
        <time>2013-12-21T09:09:44.000Z</time>
      </trkpt>
      <trkpt lat="43.92896" lon="7.24733">
        <ele>940.40002441406</ele>
        <time>2013-12-21T09:09:50.000Z</time>
      </trkpt>
      <trkpt lat="43.92897" lon="7.24733">
        <ele>940.59997558594</ele>
        <time>2013-12-21T09:09:52.000Z</time>
      </trkpt>
      <trkpt lat="43.92898" lon="7.24733">
        <ele>940.59997558594</ele>
        <time>2013-12-21T09:09:53.000Z</time>
      </trkpt>
      <trkpt lat="43.929" lon="7.24733">
        <ele>940.59997558594</ele>
        <time>2013-12-21T09:09:56.000Z</time>
      </trkpt>
      <trkpt lat="43.92901" lon="7.24733">
        <ele>940.59997558594</ele>
        <time>2013-12-21T09:09:57.000Z</time>
      </trkpt>
      <trkpt lat="43.929" lon="7.24731">
        <ele>940.59997558594</ele>
        <time>2013-12-21T09:10:03.000Z</time>
      </trkpt>
      <trkpt lat="43.929" lon="7.24746">
        <ele>943</ele>
        <time>2013-12-21T09:10:09.000Z</time>
      </trkpt>
      <trkpt lat="43.92901" lon="7.24756">
        <ele>946</ele>
        <time>2013-12-21T09:10:17.000Z</time>
      </trkpt>
      <trkpt lat="43.92902" lon="7.24762">
        <ele>947.79998779297</ele>
        <time>2013-12-21T09:10:22.000Z</time>
      </trkpt>
      <trkpt lat="43.92903" lon="7.24768">
        <ele>949.40002441406</ele>
        <time>2013-12-21T09:10:30.000Z</time>
      </trkpt>
      <trkpt lat="43.92905" lon="7.2477">
        <ele>950</ele>
        <time>2013-12-21T09:10:36.000Z</time>
      </trkpt>
      <trkpt lat="43.92914" lon="7.24771">
        <ele>949.79998779297</ele>
        <time>2013-12-21T09:10:41.000Z</time>
      </trkpt>
      <trkpt lat="43.92925" lon="7.24782">
        <ele>949.79998779297</ele>
        <time>2013-12-21T09:10:45.000Z</time>
      </trkpt>
      <trkpt lat="43.92933" lon="7.24792">
        <ele>949.59997558594</ele>
        <time>2013-12-21T09:10:49.000Z</time>
      </trkpt>
      <trkpt lat="43.9294" lon="7.24797">
        <ele>949</ele>
        <time>2013-12-21T09:10:54.000Z</time>
      </trkpt>
      <trkpt lat="43.92951" lon="7.24797">
        <ele>948.20001220703</ele>
        <time>2013-12-21T09:10:58.000Z</time>
      </trkpt>
      <trkpt lat="43.92956" lon="7.24798">
        <ele>947.59997558594</ele>
        <time>2013-12-21T09:11:01.000Z</time>
      </trkpt>
      <trkpt lat="43.92957" lon="7.24797">
        <ele>947.40002441406</ele>
        <time>2013-12-21T09:11:02.000Z</time>
      </trkpt>
      <trkpt lat="43.92961" lon="7.248">
        <ele>946.40002441406</ele>
        <time>2013-12-21T09:11:06.000Z</time>
      </trkpt>
      <trkpt lat="43.9296" lon="7.24803">
        <ele>945.79998779297</ele>
        <time>2013-12-21T09:11:08.000Z</time>
      </trkpt>
      <trkpt lat="43.92961" lon="7.24812">
        <ele>945</ele>
        <time>2013-12-21T09:11:11.000Z</time>
      </trkpt>
      <trkpt lat="43.92964" lon="7.24833">
        <ele>944.20001220703</ele>
        <time>2013-12-21T09:11:16.000Z</time>
      </trkpt>
      <trkpt lat="43.92964" lon="7.24837">
        <ele>943.59997558594</ele>
        <time>2013-12-21T09:11:20.000Z</time>
      </trkpt>
      <trkpt lat="43.92967" lon="7.24841">
        <ele>943.40002441406</ele>
        <time>2013-12-21T09:11:23.000Z</time>
      </trkpt>
      <trkpt lat="43.92971" lon="7.24844">
        <ele>943</ele>
        <time>2013-12-21T09:11:26.000Z</time>
      </trkpt>
      <trkpt lat="43.92978" lon="7.24853">
        <ele>942.20001220703</ele>
        <time>2013-12-21T09:11:34.000Z</time>
      </trkpt>
      <trkpt lat="43.92979" lon="7.24857">
        <ele>941.79998779297</ele>
        <time>2013-12-21T09:11:40.000Z</time>
      </trkpt>
      <trkpt lat="43.92979" lon="7.2486">
        <ele>941.59997558594</ele>
        <time>2013-12-21T09:11:45.000Z</time>
      </trkpt>
      <trkpt lat="43.92982" lon="7.2486">
        <ele>941.20001220703</ele>
        <time>2013-12-21T09:11:52.000Z</time>
      </trkpt>
      <trkpt lat="43.92985" lon="7.24858">
        <ele>941</ele>
        <time>2013-12-21T09:11:57.000Z</time>
      </trkpt>
      <trkpt lat="43.9299" lon="7.24861">
        <ele>941</ele>
        <time>2013-12-21T09:12:00.000Z</time>
      </trkpt>
      <trkpt lat="43.92992" lon="7.24862">
        <ele>940.79998779297</ele>
        <time>2013-12-21T09:12:01.000Z</time>
      </trkpt>
      <trkpt lat="43.93007" lon="7.24863">
        <ele>940.40002441406</ele>
        <time>2013-12-21T09:12:06.000Z</time>
      </trkpt>
      <trkpt lat="43.93021" lon="7.24859">
        <ele>939.79998779297</ele>
        <time>2013-12-21T09:12:10.000Z</time>
      </trkpt>
      <trkpt lat="43.93035" lon="7.24857">
        <ele>939.20001220703</ele>
        <time>2013-12-21T09:12:14.000Z</time>
      </trkpt>
      <trkpt lat="43.93038" lon="7.24856">
        <ele>939</ele>
        <time>2013-12-21T09:12:15.000Z</time>
      </trkpt>
      <trkpt lat="43.93047" lon="7.24852">
        <ele>937.79998779297</ele>
        <time>2013-12-21T09:12:19.000Z</time>
      </trkpt>
      <trkpt lat="43.93049" lon="7.2485">
        <ele>937</ele>
        <time>2013-12-21T09:12:21.000Z</time>
      </trkpt>
      <trkpt lat="43.93052" lon="7.24849">
        <ele>935.59997558594</ele>
        <time>2013-12-21T09:12:26.000Z</time>
      </trkpt>
      <trkpt lat="43.9306" lon="7.24858">
        <ele>934.20001220703</ele>
        <time>2013-12-21T09:12:33.000Z</time>
      </trkpt>
      <trkpt lat="43.93066" lon="7.24864">
        <ele>933.59997558594</ele>
        <time>2013-12-21T09:12:38.000Z</time>
      </trkpt>
      <trkpt lat="43.93068" lon="7.24866">
        <ele>933.59997558594</ele>
        <time>2013-12-21T09:12:40.000Z</time>
      </trkpt>
      <trkpt lat="43.93073" lon="7.24869">
        <ele>933.20001220703</ele>
        <time>2013-12-21T09:12:46.000Z</time>
      </trkpt>
      <trkpt lat="43.93076" lon="7.24871">
        <ele>933</ele>
        <time>2013-12-21T09:12:52.000Z</time>
      </trkpt>
      <trkpt lat="43.93078" lon="7.24869">
        <ele>932.79998779297</ele>
        <time>2013-12-21T09:12:59.000Z</time>
      </trkpt>
      <trkpt lat="43.93088" lon="7.24865">
        <ele>932.40002441406</ele>
        <time>2013-12-21T09:13:06.000Z</time>
      </trkpt>
      <trkpt lat="43.93097" lon="7.2486">
        <ele>932</ele>
        <time>2013-12-21T09:13:14.000Z</time>
      </trkpt>
      <trkpt lat="43.93102" lon="7.24858">
        <ele>931.79998779297</ele>
        <time>2013-12-21T09:13:19.000Z</time>
      </trkpt>
      <trkpt lat="43.93104" lon="7.24858">
        <ele>931.79998779297</ele>
        <time>2013-12-21T09:13:21.000Z</time>
      </trkpt>
      <trkpt lat="43.93108" lon="7.2486">
        <ele>931.59997558594</ele>
        <time>2013-12-21T09:13:24.000Z</time>
      </trkpt>
      <trkpt lat="43.93111" lon="7.24865">
        <ele>931.59997558594</ele>
        <time>2013-12-21T09:13:28.000Z</time>
      </trkpt>
      <trkpt lat="43.93112" lon="7.24866">
        <ele>931.40002441406</ele>
        <time>2013-12-21T09:13:29.000Z</time>
      </trkpt>
      <trkpt lat="43.93115" lon="7.24867">
        <ele>931.59997558594</ele>
        <time>2013-12-21T09:13:33.000Z</time>
      </trkpt>
      <trkpt lat="43.93116" lon="7.24871">
        <ele>931.79998779297</ele>
        <time>2013-12-21T09:13:37.000Z</time>
      </trkpt>
      <trkpt lat="43.93119" lon="7.24872">
        <ele>932.20001220703</ele>
        <time>2013-12-21T09:13:42.000Z</time>
      </trkpt>
      <trkpt lat="43.93122" lon="7.24873">
        <ele>933.40002441406</ele>
        <time>2013-12-21T09:13:45.000Z</time>
      </trkpt>
      <trkpt lat="43.93126" lon="7.24872">
        <ele>934</ele>
        <time>2013-12-21T09:13:49.000Z</time>
      </trkpt>
      <trkpt lat="43.93128" lon="7.24873">
        <ele>934.79998779297</ele>
        <time>2013-12-21T09:13:53.000Z</time>
      </trkpt>
      <trkpt lat="43.93128" lon="7.24874">
        <ele>935</ele>
        <time>2013-12-21T09:13:55.000Z</time>
      </trkpt>
      <trkpt lat="43.93129" lon="7.24876">
        <ele>936.20001220703</ele>
        <time>2013-12-21T09:14:01.000Z</time>
      </trkpt>
      <trkpt lat="43.93133" lon="7.24879">
        <ele>937.59997558594</ele>
        <time>2013-12-21T09:14:09.000Z</time>
      </trkpt>
      <trkpt lat="43.93135" lon="7.24884">
        <ele>938.79998779297</ele>
        <time>2013-12-21T09:14:15.000Z</time>
      </trkpt>
      <trkpt lat="43.93138" lon="7.24887">
        <ele>939.79998779297</ele>
        <time>2013-12-21T09:14:20.000Z</time>
      </trkpt>
      <trkpt lat="43.93137" lon="7.2489">
        <ele>940.59997558594</ele>
        <time>2013-12-21T09:14:26.000Z</time>
      </trkpt>
      <trkpt lat="43.93137" lon="7.24893">
        <ele>941.40002441406</ele>
        <time>2013-12-21T09:14:32.000Z</time>
      </trkpt>
      <trkpt lat="43.93132" lon="7.24887">
        <ele>947</ele>
        <time>2013-12-21T09:17:15.000Z</time>
      </trkpt>
      <trkpt lat="43.93131" lon="7.2489">
        <ele>947.20001220703</ele>
        <time>2013-12-21T09:17:22.000Z</time>
      </trkpt>
      <trkpt lat="43.93132" lon="7.24891">
        <ele>947.59997558594</ele>
        <time>2013-12-21T09:17:28.000Z</time>
      </trkpt>
      <trkpt lat="43.93135" lon="7.249">
        <ele>947.40002441406</ele>
        <time>2013-12-21T09:17:35.000Z</time>
      </trkpt>
      <trkpt lat="43.93141" lon="7.24913">
        <ele>948</ele>
        <time>2013-12-21T09:17:44.000Z</time>
      </trkpt>
      <trkpt lat="43.93142" lon="7.24914">
        <ele>948</ele>
        <time>2013-12-21T09:17:45.000Z</time>
      </trkpt>
      <trkpt lat="43.93143" lon="7.24922">
        <ele>948.40002441406</ele>
        <time>2013-12-21T09:17:50.000Z</time>
      </trkpt>
      <trkpt lat="43.93144" lon="7.24925">
        <ele>948.40002441406</ele>
        <time>2013-12-21T09:17:52.000Z</time>
      </trkpt>
      <trkpt lat="43.93144" lon="7.24932">
        <ele>949</ele>
        <time>2013-12-21T09:17:57.000Z</time>
      </trkpt>
      <trkpt lat="43.93144" lon="7.24933">
        <ele>949.20001220703</ele>
        <time>2013-12-21T09:17:59.000Z</time>
      </trkpt>
      <trkpt lat="43.93145" lon="7.24943">
        <ele>950.59997558594</ele>
        <time>2013-12-21T09:18:08.000Z</time>
      </trkpt>
      <trkpt lat="43.93146" lon="7.24949">
        <ele>951.59997558594</ele>
        <time>2013-12-21T09:18:15.000Z</time>
      </trkpt>
      <trkpt lat="43.93146" lon="7.24954">
        <ele>953.59997558594</ele>
        <time>2013-12-21T09:18:23.000Z</time>
      </trkpt>
      <trkpt lat="43.93142" lon="7.2496">
        <ele>955.79998779297</ele>
        <time>2013-12-21T09:18:31.000Z</time>
      </trkpt>
      <trkpt lat="43.93139" lon="7.24968">
        <ele>957.20001220703</ele>
        <time>2013-12-21T09:18:39.000Z</time>
      </trkpt>
      <trkpt lat="43.93138" lon="7.24974">
        <ele>958.59997558594</ele>
        <time>2013-12-21T09:18:46.000Z</time>
      </trkpt>
      <trkpt lat="43.93141" lon="7.24976">
        <ele>959.20001220703</ele>
        <time>2013-12-21T09:18:51.000Z</time>
      </trkpt>
      <trkpt lat="43.93137" lon="7.24979">
        <ele>961.20001220703</ele>
        <time>2013-12-21T09:19:00.000Z</time>
      </trkpt>
      <trkpt lat="43.93133" lon="7.24979">
        <ele>963.20001220703</ele>
        <time>2013-12-21T09:19:07.000Z</time>
      </trkpt>
      <trkpt lat="43.93129" lon="7.24978">
        <ele>965.20001220703</ele>
        <time>2013-12-21T09:19:13.000Z</time>
      </trkpt>
      <trkpt lat="43.93125" lon="7.24981">
        <ele>967.40002441406</ele>
        <time>2013-12-21T09:19:21.000Z</time>
      </trkpt>
      <trkpt lat="43.93119" lon="7.24983">
        <ele>969.59997558594</ele>
        <time>2013-12-21T09:19:29.000Z</time>
      </trkpt>
      <trkpt lat="43.93115" lon="7.24987">
        <ele>971.79998779297</ele>
        <time>2013-12-21T09:19:38.000Z</time>
      </trkpt>
      <trkpt lat="43.93113" lon="7.24993">
        <ele>973.40002441406</ele>
        <time>2013-12-21T09:19:45.000Z</time>
      </trkpt>
      <trkpt lat="43.93119" lon="7.24991">
        <ele>974.79998779297</ele>
        <time>2013-12-21T09:19:51.000Z</time>
      </trkpt>
      <trkpt lat="43.93121" lon="7.2499">
        <ele>975.20001220703</ele>
        <time>2013-12-21T09:19:53.000Z</time>
      </trkpt>
      <trkpt lat="43.93126" lon="7.2499">
        <ele>976.20001220703</ele>
        <time>2013-12-21T09:19:59.000Z</time>
      </trkpt>
      <trkpt lat="43.93126" lon="7.2499">
        <ele>976.40002441406</ele>
        <time>2013-12-21T09:20:00.000Z</time>
      </trkpt>
      <trkpt lat="43.93125" lon="7.24994">
        <ele>977.20001220703</ele>
        <time>2013-12-21T09:20:05.000Z</time>
      </trkpt>
      <trkpt lat="43.93119" lon="7.24999">
        <ele>978.59997558594</ele>
        <time>2013-12-21T09:20:13.000Z</time>
      </trkpt>
      <trkpt lat="43.93119" lon="7.25001">
        <ele>979</ele>
        <time>2013-12-21T09:20:15.000Z</time>
      </trkpt>
      <trkpt lat="43.93118" lon="7.25006">
        <ele>980</ele>
        <time>2013-12-21T09:20:20.000Z</time>
      </trkpt>
      <trkpt lat="43.93119" lon="7.2501">
        <ele>981.20001220703</ele>
        <time>2013-12-21T09:20:26.000Z</time>
      </trkpt>
      <trkpt lat="43.93125" lon="7.25007">
        <ele>982.59997558594</ele>
        <time>2013-12-21T09:20:34.000Z</time>
      </trkpt>
      <trkpt lat="43.93132" lon="7.25008">
        <ele>983.79998779297</ele>
        <time>2013-12-21T09:20:43.000Z</time>
      </trkpt>
      <trkpt lat="43.93134" lon="7.2501">
        <ele>984.40002441406</ele>
        <time>2013-12-21T09:20:48.000Z</time>
      </trkpt>
      <trkpt lat="43.93136" lon="7.2501">
        <ele>986</ele>
        <time>2013-12-21T09:21:00.000Z</time>
      </trkpt>
      <trkpt lat="43.93141" lon="7.25012">
        <ele>987.79998779297</ele>
        <time>2013-12-21T09:21:08.000Z</time>
      </trkpt>
      <trkpt lat="43.93145" lon="7.25011">
        <ele>989</ele>
        <time>2013-12-21T09:21:13.000Z</time>
      </trkpt>
      <trkpt lat="43.93149" lon="7.25013">
        <ele>990.79998779297</ele>
        <time>2013-12-21T09:21:20.000Z</time>
      </trkpt>
      <trkpt lat="43.93151" lon="7.25012">
        <ele>993.20001220703</ele>
        <time>2013-12-21T09:21:29.000Z</time>
      </trkpt>
      <trkpt lat="43.93148" lon="7.25017">
        <ele>994.79998779297</ele>
        <time>2013-12-21T09:21:35.000Z</time>
      </trkpt>
      <trkpt lat="43.93143" lon="7.25023">
        <ele>997</ele>
        <time>2013-12-21T09:21:45.000Z</time>
      </trkpt>
      <trkpt lat="43.93139" lon="7.25027">
        <ele>998.59997558594</ele>
        <time>2013-12-21T09:21:53.000Z</time>
      </trkpt>
      <trkpt lat="43.93132" lon="7.25032">
        <ele>1000.799987793</ele>
        <time>2013-12-21T09:22:03.000Z</time>
      </trkpt>
      <trkpt lat="43.93126" lon="7.25039">
        <ele>1003.5999755859</ele>
        <time>2013-12-21T09:22:14.000Z</time>
      </trkpt>
      <trkpt lat="43.93129" lon="7.25039">
        <ele>1004.5999755859</ele>
        <time>2013-12-21T09:22:19.000Z</time>
      </trkpt>
      <trkpt lat="43.93131" lon="7.2504">
        <ele>1005.799987793</ele>
        <time>2013-12-21T09:22:26.000Z</time>
      </trkpt>
      <trkpt lat="43.93129" lon="7.25045">
        <ele>1007.200012207</ele>
        <time>2013-12-21T09:22:34.000Z</time>
      </trkpt>
      <trkpt lat="43.93127" lon="7.25049">
        <ele>1008.5999755859</ele>
        <time>2013-12-21T09:22:41.000Z</time>
      </trkpt>
      <trkpt lat="43.93126" lon="7.25052">
        <ele>1010</ele>
        <time>2013-12-21T09:22:49.000Z</time>
      </trkpt>
      <trkpt lat="43.93124" lon="7.25054">
        <ele>1010.799987793</ele>
        <time>2013-12-21T09:22:54.000Z</time>
      </trkpt>
      <trkpt lat="43.93125" lon="7.25058">
        <ele>1011</ele>
        <time>2013-12-21T09:22:58.000Z</time>
      </trkpt>
      <trkpt lat="43.93125" lon="7.25061">
        <ele>1011</ele>
        <time>2013-12-21T09:23:04.000Z</time>
      </trkpt>
      <trkpt lat="43.93126" lon="7.2507">
        <ele>1010.5999755859</ele>
        <time>2013-12-21T09:23:37.000Z</time>
      </trkpt>
      <trkpt lat="43.93129" lon="7.25078">
        <ele>1010.200012207</ele>
        <time>2013-12-21T09:23:43.000Z</time>
      </trkpt>
      <trkpt lat="43.93129" lon="7.25082">
        <ele>1009.799987793</ele>
        <time>2013-12-21T09:24:04.000Z</time>
      </trkpt>
      <trkpt lat="43.93135" lon="7.2509">
        <ele>1009.5999755859</ele>
        <time>2013-12-21T09:24:16.000Z</time>
      </trkpt>
      <trkpt lat="43.93137" lon="7.25099">
        <ele>1009.4000244141</ele>
        <time>2013-12-21T09:24:22.000Z</time>
      </trkpt>
      <trkpt lat="43.93137" lon="7.25102">
        <ele>1009.200012207</ele>
        <time>2013-12-21T09:24:24.000Z</time>
      </trkpt>
      <trkpt lat="43.93137" lon="7.25105">
        <ele>1009.200012207</ele>
        <time>2013-12-21T09:24:26.000Z</time>
      </trkpt>
      <trkpt lat="43.93138" lon="7.25112">
        <ele>1009</ele>
        <time>2013-12-21T09:24:31.000Z</time>
      </trkpt>
      <trkpt lat="43.93138" lon="7.25123">
        <ele>1008.799987793</ele>
        <time>2013-12-21T09:24:39.000Z</time>
      </trkpt>
      <trkpt lat="43.93135" lon="7.25134">
        <ele>1008.5999755859</ele>
        <time>2013-12-21T09:24:48.000Z</time>
      </trkpt>
      <trkpt lat="43.93131" lon="7.25144">
        <ele>1008.5999755859</ele>
        <time>2013-12-21T09:24:56.000Z</time>
      </trkpt>
      <trkpt lat="43.93131" lon="7.25156">
        <ele>1008.5999755859</ele>
        <time>2013-12-21T09:25:04.000Z</time>
      </trkpt>
      <trkpt lat="43.93133" lon="7.25168">
        <ele>1009.200012207</ele>
        <time>2013-12-21T09:25:12.000Z</time>
      </trkpt>
      <trkpt lat="43.93134" lon="7.25175">
        <ele>1009.4000244141</ele>
        <time>2013-12-21T09:25:17.000Z</time>
      </trkpt>
      <trkpt lat="43.93134" lon="7.25178">
        <ele>1009.4000244141</ele>
        <time>2013-12-21T09:25:19.000Z</time>
      </trkpt>
      <trkpt lat="43.93132" lon="7.25185">
        <ele>1010.200012207</ele>
        <time>2013-12-21T09:25:26.000Z</time>
      </trkpt>
      <trkpt lat="43.93129" lon="7.25194">
        <ele>1010.799987793</ele>
        <time>2013-12-21T09:25:33.000Z</time>
      </trkpt>
      <trkpt lat="43.93126" lon="7.25198">
        <ele>1011.5999755859</ele>
        <time>2013-12-21T09:25:38.000Z</time>
      </trkpt>
      <trkpt lat="43.93126" lon="7.25198">
        <ele>1011.799987793</ele>
        <time>2013-12-21T09:25:40.000Z</time>
      </trkpt>
      <trkpt lat="43.93123" lon="7.25206">
        <ele>1012.5999755859</ele>
        <time>2013-12-21T09:25:47.000Z</time>
      </trkpt>
      <trkpt lat="43.93118" lon="7.25225">
        <ele>1013</ele>
        <time>2013-12-21T09:25:51.000Z</time>
      </trkpt>
      <trkpt lat="43.9311" lon="7.25247">
        <ele>1013</ele>
        <time>2013-12-21T09:25:55.000Z</time>
      </trkpt>
      <trkpt lat="43.93103" lon="7.25256">
        <ele>1013.200012207</ele>
        <time>2013-12-21T09:25:59.000Z</time>
      </trkpt>
      <trkpt lat="43.93098" lon="7.25262">
        <ele>1013.200012207</ele>
        <time>2013-12-21T09:26:04.000Z</time>
      </trkpt>
      <trkpt lat="43.93092" lon="7.25263">
        <ele>1013.200012207</ele>
        <time>2013-12-21T09:26:08.000Z</time>
      </trkpt>
      <trkpt lat="43.93091" lon="7.25264">
        <ele>1013.200012207</ele>
        <time>2013-12-21T09:26:09.000Z</time>
      </trkpt>
      <trkpt lat="43.93089" lon="7.2527">
        <ele>1013.200012207</ele>
        <time>2013-12-21T09:26:12.000Z</time>
      </trkpt>
      <trkpt lat="43.93088" lon="7.25274">
        <ele>1013</ele>
        <time>2013-12-21T09:26:14.000Z</time>
      </trkpt>
      <trkpt lat="43.93087" lon="7.25281">
        <ele>1012.5999755859</ele>
        <time>2013-12-21T09:26:17.000Z</time>
      </trkpt>
      <trkpt lat="43.93086" lon="7.25289">
        <ele>1012.4000244141</ele>
        <time>2013-12-21T09:26:20.000Z</time>
      </trkpt>
      <trkpt lat="43.93085" lon="7.25291">
        <ele>1012.200012207</ele>
        <time>2013-12-21T09:26:21.000Z</time>
      </trkpt>
      <trkpt lat="43.93083" lon="7.25296">
        <ele>1011.799987793</ele>
        <time>2013-12-21T09:26:24.000Z</time>
      </trkpt>
      <trkpt lat="43.93082" lon="7.25302">
        <ele>1011.200012207</ele>
        <time>2013-12-21T09:26:28.000Z</time>
      </trkpt>
      <trkpt lat="43.93082" lon="7.25302">
        <ele>1009.5999755859</ele>
        <time>2013-12-21T09:26:38.000Z</time>
      </trkpt>
      <trkpt lat="43.9308" lon="7.25299">
        <ele>1003</ele>
        <time>2013-12-21T09:27:57.000Z</time>
      </trkpt>
      <trkpt lat="43.9308" lon="7.25297">
        <ele>1003</ele>
        <time>2013-12-21T09:27:58.000Z</time>
      </trkpt>
      <trkpt lat="43.93082" lon="7.25296">
        <ele>1003</ele>
        <time>2013-12-21T09:28:01.000Z</time>
      </trkpt>
      <trkpt lat="43.93082" lon="7.25292">
        <ele>1003.4000244141</ele>
        <time>2013-12-21T09:28:06.000Z</time>
      </trkpt>
      <trkpt lat="43.93084" lon="7.25288">
        <ele>1004.5999755859</ele>
        <time>2013-12-21T09:28:14.000Z</time>
      </trkpt>
      <trkpt lat="43.93085" lon="7.25284">
        <ele>1005.799987793</ele>
        <time>2013-12-21T09:28:23.000Z</time>
      </trkpt>
      <trkpt lat="43.93086" lon="7.25279">
        <ele>1007</ele>
        <time>2013-12-21T09:28:30.000Z</time>
      </trkpt>
      <trkpt lat="43.93089" lon="7.25273">
        <ele>1008.4000244141</ele>
        <time>2013-12-21T09:28:39.000Z</time>
      </trkpt>
      <trkpt lat="43.93092" lon="7.2527">
        <ele>1009.200012207</ele>
        <time>2013-12-21T09:28:45.000Z</time>
      </trkpt>
      <trkpt lat="43.93096" lon="7.2527">
        <ele>1010</ele>
        <time>2013-12-21T09:28:50.000Z</time>
      </trkpt>
      <trkpt lat="43.93098" lon="7.25272">
        <ele>1011.200012207</ele>
        <time>2013-12-21T09:28:57.000Z</time>
      </trkpt>
      <trkpt lat="43.93104" lon="7.25268">
        <ele>1011.5999755859</ele>
        <time>2013-12-21T09:29:02.000Z</time>
      </trkpt>
      <trkpt lat="43.93106" lon="7.25267">
        <ele>1011.799987793</ele>
        <time>2013-12-21T09:29:04.000Z</time>
      </trkpt>
      <trkpt lat="43.9311" lon="7.25267">
        <ele>1012</ele>
        <time>2013-12-21T09:29:07.000Z</time>
      </trkpt>
      <trkpt lat="43.93112" lon="7.25267">
        <ele>1012</ele>
        <time>2013-12-21T09:29:08.000Z</time>
      </trkpt>
      <trkpt lat="43.93114" lon="7.25267">
        <ele>1012.5999755859</ele>
        <time>2013-12-21T09:29:14.000Z</time>
      </trkpt>
      <trkpt lat="43.93119" lon="7.25262">
        <ele>1013</ele>
        <time>2013-12-21T09:29:22.000Z</time>
      </trkpt>
      <trkpt lat="43.9312" lon="7.25263">
        <ele>1013.4000244141</ele>
        <time>2013-12-21T09:29:30.000Z</time>
      </trkpt>
      <trkpt lat="43.93124" lon="7.25261">
        <ele>1014</ele>
        <time>2013-12-21T09:29:50.000Z</time>
      </trkpt>
      <trkpt lat="43.93129" lon="7.25256">
        <ele>1013.799987793</ele>
        <time>2013-12-21T09:30:07.000Z</time>
      </trkpt>
      <trkpt lat="43.9313" lon="7.25255">
        <ele>1013.799987793</ele>
        <time>2013-12-21T09:30:12.000Z</time>
      </trkpt>
      <trkpt lat="43.93131" lon="7.25256">
        <ele>1013.200012207</ele>
        <time>2013-12-21T09:30:24.000Z</time>
      </trkpt>
      <trkpt lat="43.93134" lon="7.25253">
        <ele>1012.799987793</ele>
        <time>2013-12-21T09:30:35.000Z</time>
      </trkpt>
      <trkpt lat="43.93135" lon="7.25254">
        <ele>1012.5999755859</ele>
        <time>2013-12-21T09:30:36.000Z</time>
      </trkpt>
      <trkpt lat="43.93142" lon="7.2525">
        <ele>1012.4000244141</ele>
        <time>2013-12-21T09:30:40.000Z</time>
      </trkpt>
      <trkpt lat="43.93142" lon="7.25249">
        <ele>1012.200012207</ele>
        <time>2013-12-21T09:30:41.000Z</time>
      </trkpt>
      <trkpt lat="43.93143" lon="7.2525">
        <ele>1011.5999755859</ele>
        <time>2013-12-21T09:30:47.000Z</time>
      </trkpt>
      <trkpt lat="43.93144" lon="7.25251">
        <ele>1011.200012207</ele>
        <time>2013-12-21T09:30:53.000Z</time>
      </trkpt>
      <trkpt lat="43.93147" lon="7.2525">
        <ele>1010.5999755859</ele>
        <time>2013-12-21T09:30:58.000Z</time>
      </trkpt>
      <trkpt lat="43.93152" lon="7.25248">
        <ele>1009.5999755859</ele>
        <time>2013-12-21T09:31:05.000Z</time>
      </trkpt>
      <trkpt lat="43.93153" lon="7.25248">
        <ele>1009.4000244141</ele>
        <time>2013-12-21T09:31:06.000Z</time>
      </trkpt>
      <trkpt lat="43.93162" lon="7.2525">
        <ele>1008.5999755859</ele>
        <time>2013-12-21T09:31:11.000Z</time>
      </trkpt>
      <trkpt lat="43.9317" lon="7.25254">
        <ele>1007.5999755859</ele>
        <time>2013-12-21T09:31:16.000Z</time>
      </trkpt>
      <trkpt lat="43.93177" lon="7.25255">
        <ele>1006.4000244141</ele>
        <time>2013-12-21T09:31:22.000Z</time>
      </trkpt>
      <trkpt lat="43.93181" lon="7.25254">
        <ele>1005.5999755859</ele>
        <time>2013-12-21T09:31:25.000Z</time>
      </trkpt>
      <trkpt lat="43.93185" lon="7.25253">
        <ele>1005</ele>
        <time>2013-12-21T09:31:28.000Z</time>
      </trkpt>
      <trkpt lat="43.93189" lon="7.25255">
        <ele>1004.4000244141</ele>
        <time>2013-12-21T09:31:30.000Z</time>
      </trkpt>
      <trkpt lat="43.93195" lon="7.25255">
        <ele>1003.5999755859</ele>
        <time>2013-12-21T09:31:33.000Z</time>
      </trkpt>
      <trkpt lat="43.93198" lon="7.25254">
        <ele>1002.5999755859</ele>
        <time>2013-12-21T09:31:37.000Z</time>
      </trkpt>
      <trkpt lat="43.93203" lon="7.25254">
        <ele>1000.4000244141</ele>
        <time>2013-12-21T09:31:45.000Z</time>
      </trkpt>
      <trkpt lat="43.93206" lon="7.25253">
        <ele>998.79998779297</ele>
        <time>2013-12-21T09:31:51.000Z</time>
      </trkpt>
      <trkpt lat="43.93208" lon="7.25253">
        <ele>997.59997558594</ele>
        <time>2013-12-21T09:31:56.000Z</time>
      </trkpt>
      <trkpt lat="43.93211" lon="7.25254">
        <ele>996.20001220703</ele>
        <time>2013-12-21T09:32:02.000Z</time>
      </trkpt>
      <trkpt lat="43.93213" lon="7.25257">
        <ele>994</ele>
        <time>2013-12-21T09:32:11.000Z</time>
      </trkpt>
      <trkpt lat="43.93213" lon="7.25263">
        <ele>992.59997558594</ele>
        <time>2013-12-21T09:32:18.000Z</time>
      </trkpt>
      <trkpt lat="43.93212" lon="7.25267">
        <ele>991.20001220703</ele>
        <time>2013-12-21T09:32:25.000Z</time>
      </trkpt>
      <trkpt lat="43.93209" lon="7.25271">
        <ele>990</ele>
        <time>2013-12-21T09:32:32.000Z</time>
      </trkpt>
      <trkpt lat="43.9321" lon="7.25274">
        <ele>988.59997558594</ele>
        <time>2013-12-21T09:32:38.000Z</time>
      </trkpt>
      <trkpt lat="43.93212" lon="7.25273">
        <ele>987.40002441406</ele>
        <time>2013-12-21T09:32:44.000Z</time>
      </trkpt>
      <trkpt lat="43.93215" lon="7.25271">
        <ele>986</ele>
        <time>2013-12-21T09:32:50.000Z</time>
      </trkpt>
      <trkpt lat="43.9322" lon="7.25268">
        <ele>984.59997558594</ele>
        <time>2013-12-21T09:32:56.000Z</time>
      </trkpt>
      <trkpt lat="43.93221" lon="7.25268">
        <ele>984.40002441406</ele>
        <time>2013-12-21T09:32:57.000Z</time>
      </trkpt>
      <trkpt lat="43.93225" lon="7.25267">
        <ele>983.40002441406</ele>
        <time>2013-12-21T09:33:01.000Z</time>
      </trkpt>
      <trkpt lat="43.93231" lon="7.25266">
        <ele>981.20001220703</ele>
        <time>2013-12-21T09:33:09.000Z</time>
      </trkpt>
      <trkpt lat="43.93235" lon="7.25266">
        <ele>979.59997558594</ele>
        <time>2013-12-21T09:33:15.000Z</time>
      </trkpt>
      <trkpt lat="43.93241" lon="7.25265">
        <ele>978</ele>
        <time>2013-12-21T09:33:21.000Z</time>
      </trkpt>
      <trkpt lat="43.93249" lon="7.25267">
        <ele>976.59997558594</ele>
        <time>2013-12-21T09:33:26.000Z</time>
      </trkpt>
      <trkpt lat="43.93255" lon="7.25268">
        <ele>975.59997558594</ele>
        <time>2013-12-21T09:33:30.000Z</time>
      </trkpt>
      <trkpt lat="43.93256" lon="7.25268">
        <ele>975.20001220703</ele>
        <time>2013-12-21T09:33:31.000Z</time>
      </trkpt>
      <trkpt lat="43.93265" lon="7.2527">
        <ele>973.59997558594</ele>
        <time>2013-12-21T09:33:36.000Z</time>
      </trkpt>
      <trkpt lat="43.93267" lon="7.25268">
        <ele>972.40002441406</ele>
        <time>2013-12-21T09:33:40.000Z</time>
      </trkpt>
      <trkpt lat="43.93269" lon="7.25268">
        <ele>971.40002441406</ele>
        <time>2013-12-21T09:33:43.000Z</time>
      </trkpt>
      <trkpt lat="43.9327" lon="7.25268">
        <ele>970.79998779297</ele>
        <time>2013-12-21T09:33:45.000Z</time>
      </trkpt>
      <trkpt lat="43.93274" lon="7.25269">
        <ele>969.59997558594</ele>
        <time>2013-12-21T09:33:49.000Z</time>
      </trkpt>
      <trkpt lat="43.93278" lon="7.2527">
        <ele>968.79998779297</ele>
        <time>2013-12-21T09:33:52.000Z</time>
      </trkpt>
      <trkpt lat="43.93279" lon="7.2527">
        <ele>968.40002441406</ele>
        <time>2013-12-21T09:33:53.000Z</time>
      </trkpt>
      <trkpt lat="43.93282" lon="7.25272">
        <ele>967</ele>
        <time>2013-12-21T09:33:58.000Z</time>
      </trkpt>
      <trkpt lat="43.93284" lon="7.25273">
        <ele>966.59997558594</ele>
        <time>2013-12-21T09:33:59.000Z</time>
      </trkpt>
      <trkpt lat="43.93287" lon="7.25274">
        <ele>965.20001220703</ele>
        <time>2013-12-21T09:34:04.000Z</time>
      </trkpt>
      <trkpt lat="43.93288" lon="7.25274">
        <ele>963.79998779297</ele>
        <time>2013-12-21T09:34:09.000Z</time>
      </trkpt>
      <trkpt lat="43.93295" lon="7.25276">
        <ele>962.20001220703</ele>
        <time>2013-12-21T09:34:15.000Z</time>
      </trkpt>
      <trkpt lat="43.933" lon="7.25275">
        <ele>960.79998779297</ele>
        <time>2013-12-21T09:34:20.000Z</time>
      </trkpt>
      <trkpt lat="43.93306" lon="7.25275">
        <ele>958.59997558594</ele>
        <time>2013-12-21T09:34:28.000Z</time>
      </trkpt>
      <trkpt lat="43.93309" lon="7.25276">
        <ele>957.40002441406</ele>
        <time>2013-12-21T09:34:32.000Z</time>
      </trkpt>
      <trkpt lat="43.9331" lon="7.25277">
        <ele>956.59997558594</ele>
        <time>2013-12-21T09:34:35.000Z</time>
      </trkpt>
      <trkpt lat="43.93317" lon="7.25281">
        <ele>952.40002441406</ele>
        <time>2013-12-21T09:34:52.000Z</time>
      </trkpt>
      <trkpt lat="43.93321" lon="7.25281">
        <ele>951</ele>
        <time>2013-12-21T09:34:59.000Z</time>
      </trkpt>
      <trkpt lat="43.93324" lon="7.25281">
        <ele>950</ele>
        <time>2013-12-21T09:35:04.000Z</time>
      </trkpt>
      <trkpt lat="43.93329" lon="7.25282">
        <ele>948.59997558594</ele>
        <time>2013-12-21T09:35:11.000Z</time>
      </trkpt>
      <trkpt lat="43.93332" lon="7.25281">
        <ele>947.20001220703</ele>
        <time>2013-12-21T09:35:17.000Z</time>
      </trkpt>
      <trkpt lat="43.93336" lon="7.25281">
        <ele>945.59997558594</ele>
        <time>2013-12-21T09:35:24.000Z</time>
      </trkpt>
      <trkpt lat="43.9334" lon="7.25282">
        <ele>944.59997558594</ele>
        <time>2013-12-21T09:35:29.000Z</time>
      </trkpt>
      <trkpt lat="43.93344" lon="7.2528">
        <ele>943.20001220703</ele>
        <time>2013-12-21T09:35:34.000Z</time>
      </trkpt>
      <trkpt lat="43.93355" lon="7.25281">
        <ele>941.79998779297</ele>
        <time>2013-12-21T09:35:40.000Z</time>
      </trkpt>
      <trkpt lat="43.93366" lon="7.25284">
        <ele>940.20001220703</ele>
        <time>2013-12-21T09:35:46.000Z</time>
      </trkpt>
      <trkpt lat="43.9337" lon="7.25286">
        <ele>939.20001220703</ele>
        <time>2013-12-21T09:35:50.000Z</time>
      </trkpt>
      <trkpt lat="43.93374" lon="7.25296">
        <ele>937.79998779297</ele>
        <time>2013-12-21T09:35:56.000Z</time>
      </trkpt>
      <trkpt lat="43.93377" lon="7.25302">
        <ele>936.59997558594</ele>
        <time>2013-12-21T09:36:02.000Z</time>
      </trkpt>
      <trkpt lat="43.93379" lon="7.25304">
        <ele>935.40002441406</ele>
        <time>2013-12-21T09:36:09.000Z</time>
      </trkpt>
      <trkpt lat="43.93379" lon="7.25306">
        <ele>934.40002441406</ele>
        <time>2013-12-21T09:36:15.000Z</time>
      </trkpt>
      <trkpt lat="43.93385" lon="7.25311">
        <ele>931.79998779297</ele>
        <time>2013-12-21T09:36:48.000Z</time>
      </trkpt>
      <trkpt lat="43.93392" lon="7.25308">
        <ele>931.40002441406</ele>
        <time>2013-12-21T09:36:53.000Z</time>
      </trkpt>
      <trkpt lat="43.93397" lon="7.25301">
        <ele>930.79998779297</ele>
        <time>2013-12-21T09:36:58.000Z</time>
      </trkpt>
      <trkpt lat="43.93399" lon="7.25301">
        <ele>930.40002441406</ele>
        <time>2013-12-21T09:37:02.000Z</time>
      </trkpt>
      <trkpt lat="43.93403" lon="7.25296">
        <ele>929.79998779297</ele>
        <time>2013-12-21T09:37:07.000Z</time>
      </trkpt>
      <trkpt lat="43.93405" lon="7.25294">
        <ele>929.59997558594</ele>
        <time>2013-12-21T09:37:09.000Z</time>
      </trkpt>
      <trkpt lat="43.93409" lon="7.2529">
        <ele>929</ele>
        <time>2013-12-21T09:37:13.000Z</time>
      </trkpt>
      <trkpt lat="43.93414" lon="7.25283">
        <ele>928.20001220703</ele>
        <time>2013-12-21T09:37:19.000Z</time>
      </trkpt>
      <trkpt lat="43.93416" lon="7.25279">
        <ele>927.79998779297</ele>
        <time>2013-12-21T09:37:22.000Z</time>
      </trkpt>
      <trkpt lat="43.93417" lon="7.25277">
        <ele>927.20001220703</ele>
        <time>2013-12-21T09:37:25.000Z</time>
      </trkpt>
      <trkpt lat="43.93421" lon="7.25271">
        <ele>926.40002441406</ele>
        <time>2013-12-21T09:37:31.000Z</time>
      </trkpt>
      <trkpt lat="43.93423" lon="7.25266">
        <ele>925.20001220703</ele>
        <time>2013-12-21T09:37:37.000Z</time>
      </trkpt>
      <trkpt lat="43.93426" lon="7.25264">
        <ele>924</ele>
        <time>2013-12-21T09:37:43.000Z</time>
      </trkpt>
      <trkpt lat="43.9343" lon="7.2526">
        <ele>921.59997558594</ele>
        <time>2013-12-21T09:37:52.000Z</time>
      </trkpt>
      <trkpt lat="43.93437" lon="7.25257">
        <ele>919.59997558594</ele>
        <time>2013-12-21T09:37:58.000Z</time>
      </trkpt>
      <trkpt lat="43.93441" lon="7.25257">
        <ele>917.79998779297</ele>
        <time>2013-12-21T09:38:06.000Z</time>
      </trkpt>
      <trkpt lat="43.93445" lon="7.25254">
        <ele>916</ele>
        <time>2013-12-21T09:38:13.000Z</time>
      </trkpt>
      <trkpt lat="43.93449" lon="7.25254">
        <ele>914.40002441406</ele>
        <time>2013-12-21T09:38:19.000Z</time>
      </trkpt>
      <trkpt lat="43.93453" lon="7.25256">
        <ele>913</ele>
        <time>2013-12-21T09:38:25.000Z</time>
      </trkpt>
      <trkpt lat="43.93456" lon="7.25256">
        <ele>912.59997558594</ele>
        <time>2013-12-21T09:38:27.000Z</time>
      </trkpt>
      <trkpt lat="43.93459" lon="7.25253">
        <ele>911.59997558594</ele>
        <time>2013-12-21T09:38:30.000Z</time>
      </trkpt>
      <trkpt lat="43.93466" lon="7.25251">
        <ele>910.59997558594</ele>
        <time>2013-12-21T09:38:34.000Z</time>
      </trkpt>
      <trkpt lat="43.93468" lon="7.25249">
        <ele>910.20001220703</ele>
        <time>2013-12-21T09:38:35.000Z</time>
      </trkpt>
      <trkpt lat="43.93475" lon="7.25245">
        <ele>908.59997558594</ele>
        <time>2013-12-21T09:38:40.000Z</time>
      </trkpt>
      <trkpt lat="43.93477" lon="7.25244">
        <ele>908</ele>
        <time>2013-12-21T09:38:42.000Z</time>
      </trkpt>
      <trkpt lat="43.93479" lon="7.25244">
        <ele>907.40002441406</ele>
        <time>2013-12-21T09:38:44.000Z</time>
      </trkpt>
      <trkpt lat="43.9348" lon="7.25244">
        <ele>905.59997558594</ele>
        <time>2013-12-21T09:38:49.000Z</time>
      </trkpt>
      <trkpt lat="43.93482" lon="7.25245">
        <ele>903.59997558594</ele>
        <time>2013-12-21T09:38:56.000Z</time>
      </trkpt>
      <trkpt lat="43.93486" lon="7.25246">
        <ele>901.40002441406</ele>
        <time>2013-12-21T09:39:05.000Z</time>
      </trkpt>
      <trkpt lat="43.9349" lon="7.25249">
        <ele>900.20001220703</ele>
        <time>2013-12-21T09:39:10.000Z</time>
      </trkpt>
      <trkpt lat="43.93494" lon="7.25256">
        <ele>899.20001220703</ele>
        <time>2013-12-21T09:39:16.000Z</time>
      </trkpt>
      <trkpt lat="43.93497" lon="7.25258">
        <ele>898.59997558594</ele>
        <time>2013-12-21T09:39:20.000Z</time>
      </trkpt>
      <trkpt lat="43.93497" lon="7.25259">
        <ele>898.20001220703</ele>
        <time>2013-12-21T09:39:22.000Z</time>
      </trkpt>
      <trkpt lat="43.93498" lon="7.25259">
        <ele>897.79998779297</ele>
        <time>2013-12-21T09:39:24.000Z</time>
      </trkpt>
      <trkpt lat="43.93503" lon="7.25261">
        <ele>896.59997558594</ele>
        <time>2013-12-21T09:39:29.000Z</time>
      </trkpt>
      <trkpt lat="43.93506" lon="7.25264">
        <ele>895.59997558594</ele>
        <time>2013-12-21T09:39:34.000Z</time>
      </trkpt>
      <trkpt lat="43.93507" lon="7.25266">
        <ele>895</ele>
        <time>2013-12-21T09:39:37.000Z</time>
      </trkpt>
      <trkpt lat="43.93509" lon="7.25267">
        <ele>894.20001220703</ele>
        <time>2013-12-21T09:39:41.000Z</time>
      </trkpt>
      <trkpt lat="43.93512" lon="7.25268">
        <ele>893</ele>
        <time>2013-12-21T09:39:48.000Z</time>
      </trkpt>
      <trkpt lat="43.93513" lon="7.2527">
        <ele>892</ele>
        <time>2013-12-21T09:39:53.000Z</time>
      </trkpt>
      <trkpt lat="43.93515" lon="7.25272">
        <ele>890.79998779297</ele>
        <time>2013-12-21T09:39:59.000Z</time>
      </trkpt>
      <trkpt lat="43.93518" lon="7.25271">
        <ele>890</ele>
        <time>2013-12-21T09:40:03.000Z</time>
      </trkpt>
      <trkpt lat="43.93522" lon="7.2527">
        <ele>888.59997558594</ele>
        <time>2013-12-21T09:40:09.000Z</time>
      </trkpt>
      <trkpt lat="43.93524" lon="7.2527">
        <ele>886.79998779297</ele>
        <time>2013-12-21T09:40:16.000Z</time>
      </trkpt>
      <trkpt lat="43.9353" lon="7.25269">
        <ele>885.79998779297</ele>
        <time>2013-12-21T09:40:20.000Z</time>
      </trkpt>
      <trkpt lat="43.93533" lon="7.25268">
        <ele>885</ele>
        <time>2013-12-21T09:40:23.000Z</time>
      </trkpt>
      <trkpt lat="43.93535" lon="7.25266">
        <ele>884.40002441406</ele>
        <time>2013-12-21T09:40:25.000Z</time>
      </trkpt>
      <trkpt lat="43.93537" lon="7.25266">
        <ele>883.59997558594</ele>
        <time>2013-12-21T09:40:28.000Z</time>
      </trkpt>
      <trkpt lat="43.9354" lon="7.25263">
        <ele>883</ele>
        <time>2013-12-21T09:40:30.000Z</time>
      </trkpt>
      <trkpt lat="43.93542" lon="7.2526">
        <ele>882.20001220703</ele>
        <time>2013-12-21T09:40:33.000Z</time>
      </trkpt>
      <trkpt lat="43.93544" lon="7.25259">
        <ele>881.59997558594</ele>
        <time>2013-12-21T09:40:35.000Z</time>
      </trkpt>
      <trkpt lat="43.93545" lon="7.25259">
        <ele>881.20001220703</ele>
        <time>2013-12-21T09:40:36.000Z</time>
      </trkpt>
      <trkpt lat="43.93546" lon="7.25259">
        <ele>880.20001220703</ele>
        <time>2013-12-21T09:40:40.000Z</time>
      </trkpt>
      <trkpt lat="43.93549" lon="7.25262">
        <ele>879.20001220703</ele>
        <time>2013-12-21T09:40:46.000Z</time>
      </trkpt>
      <trkpt lat="43.9355" lon="7.25265">
        <ele>878</ele>
        <time>2013-12-21T09:40:52.000Z</time>
      </trkpt>
      <trkpt lat="43.93551" lon="7.25269">
        <ele>876.79998779297</ele>
        <time>2013-12-21T09:40:58.000Z</time>
      </trkpt>
      <trkpt lat="43.93552" lon="7.2527">
        <ele>875.79998779297</ele>
        <time>2013-12-21T09:41:03.000Z</time>
      </trkpt>
      <trkpt lat="43.93555" lon="7.25267">
        <ele>874.40002441406</ele>
        <time>2013-12-21T09:41:09.000Z</time>
      </trkpt>
      <trkpt lat="43.93556" lon="7.25266">
        <ele>874.20001220703</ele>
        <time>2013-12-21T09:41:10.000Z</time>
      </trkpt>
      <trkpt lat="43.93557" lon="7.25264">
        <ele>873.59997558594</ele>
        <time>2013-12-21T09:41:13.000Z</time>
      </trkpt>
      <trkpt lat="43.93558" lon="7.25264">
        <ele>873.20001220703</ele>
        <time>2013-12-21T09:41:15.000Z</time>
      </trkpt>
      <trkpt lat="43.93559" lon="7.25267">
        <ele>870.79998779297</ele>
        <time>2013-12-21T09:41:26.000Z</time>
      </trkpt>
      <trkpt lat="43.93561" lon="7.2527">
        <ele>869.79998779297</ele>
        <time>2013-12-21T09:41:32.000Z</time>
      </trkpt>
      <trkpt lat="43.93564" lon="7.25262">
        <ele>869</ele>
        <time>2013-12-21T09:41:37.000Z</time>
      </trkpt>
      <trkpt lat="43.93572" lon="7.25254">
        <ele>868</ele>
        <time>2013-12-21T09:41:42.000Z</time>
      </trkpt>
      <trkpt lat="43.93577" lon="7.25247">
        <ele>867.20001220703</ele>
        <time>2013-12-21T09:41:46.000Z</time>
      </trkpt>
      <trkpt lat="43.93579" lon="7.25245">
        <ele>867</ele>
        <time>2013-12-21T09:41:47.000Z</time>
      </trkpt>
      <trkpt lat="43.93583" lon="7.25243">
        <ele>866.59997558594</ele>
        <time>2013-12-21T09:41:49.000Z</time>
      </trkpt>
      <trkpt lat="43.93586" lon="7.25239">
        <ele>866</ele>
        <time>2013-12-21T09:41:52.000Z</time>
      </trkpt>
      <trkpt lat="43.93588" lon="7.25238">
        <ele>865.59997558594</ele>
        <time>2013-12-21T09:41:54.000Z</time>
      </trkpt>
      <trkpt lat="43.93591" lon="7.25237">
        <ele>865</ele>
        <time>2013-12-21T09:41:56.000Z</time>
      </trkpt>
      <trkpt lat="43.93592" lon="7.25235">
        <ele>864.79998779297</ele>
        <time>2013-12-21T09:41:57.000Z</time>
      </trkpt>
      <trkpt lat="43.93601" lon="7.25225">
        <ele>863.79998779297</ele>
        <time>2013-12-21T09:42:01.000Z</time>
      </trkpt>
      <trkpt lat="43.9361" lon="7.25214">
        <ele>862.59997558594</ele>
        <time>2013-12-21T09:42:05.000Z</time>
      </trkpt>
      <trkpt lat="43.93614" lon="7.25216">
        <ele>861.79998779297</ele>
        <time>2013-12-21T09:42:09.000Z</time>
      </trkpt>
      <trkpt lat="43.93617" lon="7.25218">
        <ele>859.59997558594</ele>
        <time>2013-12-21T09:42:18.000Z</time>
      </trkpt>
      <trkpt lat="43.93612" lon="7.25201">
        <ele>838.59997558594</ele>
        <time>2013-12-21T09:44:27.000Z</time>
      </trkpt>
      <trkpt lat="43.93613" lon="7.25195">
        <ele>837.20001220703</ele>
        <time>2013-12-21T09:44:32.000Z</time>
      </trkpt>
      <trkpt lat="43.93614" lon="7.25191">
        <ele>833.20001220703</ele>
        <time>2013-12-21T09:44:47.000Z</time>
      </trkpt>
      <trkpt lat="43.93617" lon="7.2524">
        <ele>831.20001220703</ele>
        <time>2013-12-21T09:45:58.000Z</time>
      </trkpt>
      <trkpt lat="43.93617" lon="7.25245">
        <ele>834.59997558594</ele>
        <time>2013-12-21T09:46:02.000Z</time>
      </trkpt>
      <trkpt lat="43.93619" lon="7.25223">
        <ele>859.40002441406</ele>
        <time>2013-12-21T09:54:04.000Z</time>
      </trkpt>
      <trkpt lat="43.93621" lon="7.25222">
        <ele>859.40002441406</ele>
        <time>2013-12-21T09:54:05.000Z</time>
      </trkpt>
      <trkpt lat="43.93633" lon="7.25218">
        <ele>859</ele>
        <time>2013-12-21T09:54:08.000Z</time>
      </trkpt>
      <trkpt lat="43.93638" lon="7.25211">
        <ele>858.40002441406</ele>
        <time>2013-12-21T09:54:11.000Z</time>
      </trkpt>
      <trkpt lat="43.93643" lon="7.25197">
        <ele>857.59997558594</ele>
        <time>2013-12-21T09:54:16.000Z</time>
      </trkpt>
      <trkpt lat="43.93651" lon="7.25183">
        <ele>856.79998779297</ele>
        <time>2013-12-21T09:54:21.000Z</time>
      </trkpt>
      <trkpt lat="43.93654" lon="7.25177">
        <ele>855.79998779297</ele>
        <time>2013-12-21T09:54:26.000Z</time>
      </trkpt>
      <trkpt lat="43.93656" lon="7.25173">
        <ele>855.20001220703</ele>
        <time>2013-12-21T09:54:29.000Z</time>
      </trkpt>
      <trkpt lat="43.93657" lon="7.25172">
        <ele>854.59997558594</ele>
        <time>2013-12-21T09:54:32.000Z</time>
      </trkpt>
      <trkpt lat="43.93661" lon="7.2517">
        <ele>852.79998779297</ele>
        <time>2013-12-21T09:54:41.000Z</time>
      </trkpt>
      <trkpt lat="43.9366" lon="7.25167">
        <ele>852.40002441406</ele>
        <time>2013-12-21T09:54:43.000Z</time>
      </trkpt>
      <trkpt lat="43.93661" lon="7.25166">
        <ele>852.20001220703</ele>
        <time>2013-12-21T09:54:44.000Z</time>
      </trkpt>
      <trkpt lat="43.93663" lon="7.25162">
        <ele>851</ele>
        <time>2013-12-21T09:54:49.000Z</time>
      </trkpt>
      <trkpt lat="43.93664" lon="7.25161">
        <ele>848.59997558594</ele>
        <time>2013-12-21T09:55:00.000Z</time>
      </trkpt>
      <trkpt lat="43.93666" lon="7.25162">
        <ele>846.79998779297</ele>
        <time>2013-12-21T09:55:10.000Z</time>
      </trkpt>
      <trkpt lat="43.93668" lon="7.25167">
        <ele>845.20001220703</ele>
        <time>2013-12-21T09:55:20.000Z</time>
      </trkpt>
      <trkpt lat="43.93671" lon="7.25171">
        <ele>844.40002441406</ele>
        <time>2013-12-21T09:55:26.000Z</time>
      </trkpt>
      <trkpt lat="43.93674" lon="7.25179">
        <ele>843.59997558594</ele>
        <time>2013-12-21T09:55:31.000Z</time>
      </trkpt>
      <trkpt lat="43.93678" lon="7.25195">
        <ele>842.59997558594</ele>
        <time>2013-12-21T09:55:36.000Z</time>
      </trkpt>
      <trkpt lat="43.93678" lon="7.252">
        <ele>842</ele>
        <time>2013-12-21T09:55:38.000Z</time>
      </trkpt>
      <trkpt lat="43.93677" lon="7.25203">
        <ele>841.40002441406</ele>
        <time>2013-12-21T09:55:41.000Z</time>
      </trkpt>
      <trkpt lat="43.93675" lon="7.25213">
        <ele>840.40002441406</ele>
        <time>2013-12-21T09:55:46.000Z</time>
      </trkpt>
      <trkpt lat="43.9367" lon="7.25224">
        <ele>839.40002441406</ele>
        <time>2013-12-21T09:55:51.000Z</time>
      </trkpt>
      <trkpt lat="43.93668" lon="7.25233">
        <ele>838.20001220703</ele>
        <time>2013-12-21T09:55:56.000Z</time>
      </trkpt>
      <trkpt lat="43.93667" lon="7.25235">
        <ele>838.20001220703</ele>
        <time>2013-12-21T09:55:57.000Z</time>
      </trkpt>
      <trkpt lat="43.93664" lon="7.25243">
        <ele>837</ele>
        <time>2013-12-21T09:56:02.000Z</time>
      </trkpt>
      <trkpt lat="43.93663" lon="7.2525">
        <ele>836</ele>
        <time>2013-12-21T09:56:07.000Z</time>
      </trkpt>
      <trkpt lat="43.93665" lon="7.25256">
        <ele>835.40002441406</ele>
        <time>2013-12-21T09:56:10.000Z</time>
      </trkpt>
      <trkpt lat="43.93667" lon="7.25259">
        <ele>834.79998779297</ele>
        <time>2013-12-21T09:56:13.000Z</time>
      </trkpt>
      <trkpt lat="43.93668" lon="7.25269">
        <ele>833</ele>
        <time>2013-12-21T09:56:23.000Z</time>
      </trkpt>
      <trkpt lat="43.93668" lon="7.25272">
        <ele>832.59997558594</ele>
        <time>2013-12-21T09:56:24.000Z</time>
      </trkpt>
      <trkpt lat="43.93668" lon="7.2528">
        <ele>832</ele>
        <time>2013-12-21T09:56:27.000Z</time>
      </trkpt>
      <trkpt lat="43.93666" lon="7.25287">
        <ele>831.59997558594</ele>
        <time>2013-12-21T09:56:29.000Z</time>
      </trkpt>
      <trkpt lat="43.93667" lon="7.2529">
        <ele>831</ele>
        <time>2013-12-21T09:56:31.000Z</time>
      </trkpt>
      <trkpt lat="43.93668" lon="7.2529">
        <ele>830.79998779297</ele>
        <time>2013-12-21T09:56:32.000Z</time>
      </trkpt>
      <trkpt lat="43.93671" lon="7.25296">
        <ele>830.20001220703</ele>
        <time>2013-12-21T09:56:36.000Z</time>
      </trkpt>
      <trkpt lat="43.93673" lon="7.253">
        <ele>829.59997558594</ele>
        <time>2013-12-21T09:56:39.000Z</time>
      </trkpt>
      <trkpt lat="43.93674" lon="7.25305">
        <ele>829.20001220703</ele>
        <time>2013-12-21T09:56:42.000Z</time>
      </trkpt>
      <trkpt lat="43.93675" lon="7.2531">
        <ele>829</ele>
        <time>2013-12-21T09:56:43.000Z</time>
      </trkpt>
      <trkpt lat="43.93674" lon="7.25317">
        <ele>828.40002441406</ele>
        <time>2013-12-21T09:56:46.000Z</time>
      </trkpt>
      <trkpt lat="43.93675" lon="7.25323">
        <ele>827.59997558594</ele>
        <time>2013-12-21T09:56:50.000Z</time>
      </trkpt>
      <trkpt lat="43.93677" lon="7.25328">
        <ele>827</ele>
        <time>2013-12-21T09:56:53.000Z</time>
      </trkpt>
      <trkpt lat="43.93677" lon="7.25332">
        <ele>826.20001220703</ele>
        <time>2013-12-21T09:56:58.000Z</time>
      </trkpt>
      <trkpt lat="43.93677" lon="7.25332">
        <ele>826</ele>
        <time>2013-12-21T09:56:59.000Z</time>
      </trkpt>
      <trkpt lat="43.93676" lon="7.25335">
        <ele>824</ele>
        <time>2013-12-21T09:57:09.000Z</time>
      </trkpt>
      <trkpt lat="43.93673" lon="7.25339">
        <ele>822.79998779297</ele>
        <time>2013-12-21T09:57:18.000Z</time>
      </trkpt>
      <trkpt lat="43.93673" lon="7.25343">
        <ele>822</ele>
        <time>2013-12-21T09:57:24.000Z</time>
      </trkpt>
      <trkpt lat="43.93674" lon="7.25345">
        <ele>821.40002441406</ele>
        <time>2013-12-21T09:57:29.000Z</time>
      </trkpt>
      <trkpt lat="43.93674" lon="7.25349">
        <ele>820.59997558594</ele>
        <time>2013-12-21T09:57:35.000Z</time>
      </trkpt>
      <trkpt lat="43.93675" lon="7.25355">
        <ele>820</ele>
        <time>2013-12-21T09:57:42.000Z</time>
      </trkpt>
      <trkpt lat="43.93675" lon="7.25358">
        <ele>819.40002441406</ele>
        <time>2013-12-21T09:57:48.000Z</time>
      </trkpt>
      <trkpt lat="43.93675" lon="7.25364">
        <ele>818.59997558594</ele>
        <time>2013-12-21T09:57:56.000Z</time>
      </trkpt>
      <trkpt lat="43.93674" lon="7.2537">
        <ele>817.79998779297</ele>
        <time>2013-12-21T09:58:04.000Z</time>
      </trkpt>
      <trkpt lat="43.93672" lon="7.25374">
        <ele>817.20001220703</ele>
        <time>2013-12-21T09:58:08.000Z</time>
      </trkpt>
      <trkpt lat="43.93671" lon="7.25384">
        <ele>816.40002441406</ele>
        <time>2013-12-21T09:58:15.000Z</time>
      </trkpt>
      <trkpt lat="43.93674" lon="7.25393">
        <ele>816</ele>
        <time>2013-12-21T09:58:18.000Z</time>
      </trkpt>
      <trkpt lat="43.93675" lon="7.25394">
        <ele>815.79998779297</ele>
        <time>2013-12-21T09:58:19.000Z</time>
      </trkpt>
      <trkpt lat="43.93679" lon="7.25396">
        <ele>815.40002441406</ele>
        <time>2013-12-21T09:58:22.000Z</time>
      </trkpt>
      <trkpt lat="43.93683" lon="7.25399">
        <ele>814.79998779297</ele>
        <time>2013-12-21T09:58:25.000Z</time>
      </trkpt>
      <trkpt lat="43.93693" lon="7.25407">
        <ele>813.40002441406</ele>
        <time>2013-12-21T09:58:31.000Z</time>
      </trkpt>
      <trkpt lat="43.93694" lon="7.25412">
        <ele>812.59997558594</ele>
        <time>2013-12-21T09:58:36.000Z</time>
      </trkpt>
      <trkpt lat="43.93697" lon="7.25419">
        <ele>810.20001220703</ele>
        <time>2013-12-21T09:58:49.000Z</time>
      </trkpt>
      <trkpt lat="43.93698" lon="7.2542">
        <ele>810</ele>
        <time>2013-12-21T09:58:50.000Z</time>
      </trkpt>
      <trkpt lat="43.93702" lon="7.25427">
        <ele>809.20001220703</ele>
        <time>2013-12-21T09:58:54.000Z</time>
      </trkpt>
      <trkpt lat="43.93703" lon="7.25428">
        <ele>809</ele>
        <time>2013-12-21T09:58:55.000Z</time>
      </trkpt>
      <trkpt lat="43.93705" lon="7.2543">
        <ele>808.59997558594</ele>
        <time>2013-12-21T09:58:58.000Z</time>
      </trkpt>
      <trkpt lat="43.93706" lon="7.25429">
        <ele>808.40002441406</ele>
        <time>2013-12-21T09:58:59.000Z</time>
      </trkpt>
      <trkpt lat="43.93708" lon="7.25434">
        <ele>807.79998779297</ele>
        <time>2013-12-21T09:59:03.000Z</time>
      </trkpt>
      <trkpt lat="43.9371" lon="7.25438">
        <ele>807.20001220703</ele>
        <time>2013-12-21T09:59:07.000Z</time>
      </trkpt>
      <trkpt lat="43.9371" lon="7.2544">
        <ele>806.79998779297</ele>
        <time>2013-12-21T09:59:09.000Z</time>
      </trkpt>
      <trkpt lat="43.93713" lon="7.25445">
        <ele>806</ele>
        <time>2013-12-21T09:59:15.000Z</time>
      </trkpt>
      <trkpt lat="43.93718" lon="7.25451">
        <ele>804.79998779297</ele>
        <time>2013-12-21T09:59:22.000Z</time>
      </trkpt>
      <trkpt lat="43.93718" lon="7.25452">
        <ele>803.59997558594</ele>
        <time>2013-12-21T09:59:28.000Z</time>
      </trkpt>
      <trkpt lat="43.9372" lon="7.25465">
        <ele>802.79998779297</ele>
        <time>2013-12-21T09:59:35.000Z</time>
      </trkpt>
      <trkpt lat="43.93722" lon="7.25468">
        <ele>802.59997558594</ele>
        <time>2013-12-21T09:59:36.000Z</time>
      </trkpt>
      <trkpt lat="43.93726" lon="7.25473">
        <ele>802.20001220703</ele>
        <time>2013-12-21T09:59:39.000Z</time>
      </trkpt>
      <trkpt lat="43.93732" lon="7.25476">
        <ele>801.59997558594</ele>
        <time>2013-12-21T09:59:44.000Z</time>
      </trkpt>
      <trkpt lat="43.93734" lon="7.25478">
        <ele>801.40002441406</ele>
        <time>2013-12-21T09:59:46.000Z</time>
      </trkpt>
      <trkpt lat="43.93735" lon="7.25482">
        <ele>801</ele>
        <time>2013-12-21T09:59:50.000Z</time>
      </trkpt>
      <trkpt lat="43.93736" lon="7.25482">
        <ele>800.79998779297</ele>
        <time>2013-12-21T09:59:52.000Z</time>
      </trkpt>
      <trkpt lat="43.93737" lon="7.25483">
        <ele>800.79998779297</ele>
        <time>2013-12-21T09:59:53.000Z</time>
      </trkpt>
      <trkpt lat="43.93738" lon="7.25486">
        <ele>800.79998779297</ele>
        <time>2013-12-21T09:59:55.000Z</time>
      </trkpt>
      <trkpt lat="43.93739" lon="7.25487">
        <ele>800.59997558594</ele>
        <time>2013-12-21T09:59:57.000Z</time>
      </trkpt>
      <trkpt lat="43.9374" lon="7.25489">
        <ele>800.40002441406</ele>
        <time>2013-12-21T10:00:00.000Z</time>
      </trkpt>
      <trkpt lat="43.93743" lon="7.25492">
        <ele>800</ele>
        <time>2013-12-21T10:00:06.000Z</time>
      </trkpt>
      <trkpt lat="43.93744" lon="7.25495">
        <ele>799.79998779297</ele>
        <time>2013-12-21T10:00:11.000Z</time>
      </trkpt>
      <trkpt lat="43.93747" lon="7.25494">
        <ele>799.40002441406</ele>
        <time>2013-12-21T10:00:16.000Z</time>
      </trkpt>
      <trkpt lat="43.93747" lon="7.25496">
        <ele>799.20001220703</ele>
        <time>2013-12-21T10:00:23.000Z</time>
      </trkpt>
      <trkpt lat="43.93751" lon="7.25503">
        <ele>798.79998779297</ele>
        <time>2013-12-21T10:00:35.000Z</time>
      </trkpt>
      <trkpt lat="43.93752" lon="7.25503">
        <ele>798.79998779297</ele>
        <time>2013-12-21T10:00:36.000Z</time>
      </trkpt>
      <trkpt lat="43.93755" lon="7.25502">
        <ele>798.59997558594</ele>
        <time>2013-12-21T10:00:40.000Z</time>
      </trkpt>
      <trkpt lat="43.93757" lon="7.25502">
        <ele>798.59997558594</ele>
        <time>2013-12-21T10:00:41.000Z</time>
      </trkpt>
      <trkpt lat="43.93759" lon="7.25506">
        <ele>798.59997558594</ele>
        <time>2013-12-21T10:00:45.000Z</time>
      </trkpt>
      <trkpt lat="43.93759" lon="7.25508">
        <ele>798.79998779297</ele>
        <time>2013-12-21T10:00:46.000Z</time>
      </trkpt>
      <trkpt lat="43.9376" lon="7.2551">
        <ele>799</ele>
        <time>2013-12-21T10:00:48.000Z</time>
      </trkpt>
      <trkpt lat="43.93761" lon="7.25511">
        <ele>799</ele>
        <time>2013-12-21T10:00:49.000Z</time>
      </trkpt>
      <trkpt lat="43.93764" lon="7.25515">
        <ele>800</ele>
        <time>2013-12-21T10:00:54.000Z</time>
      </trkpt>
      <trkpt lat="43.93769" lon="7.25516">
        <ele>801.79998779297</ele>
        <time>2013-12-21T10:01:03.000Z</time>
      </trkpt>
      <trkpt lat="43.93773" lon="7.25515">
        <ele>802.79998779297</ele>
        <time>2013-12-21T10:01:08.000Z</time>
      </trkpt>
      <trkpt lat="43.93778" lon="7.25516">
        <ele>803.59997558594</ele>
        <time>2013-12-21T10:01:13.000Z</time>
      </trkpt>
      <trkpt lat="43.93779" lon="7.25515">
        <ele>804</ele>
        <time>2013-12-21T10:01:15.000Z</time>
      </trkpt>
      <trkpt lat="43.93782" lon="7.25516">
        <ele>804.59997558594</ele>
        <time>2013-12-21T10:01:20.000Z</time>
      </trkpt>
      <trkpt lat="43.93785" lon="7.25517">
        <ele>805.59997558594</ele>
        <time>2013-12-21T10:01:26.000Z</time>
      </trkpt>
      <trkpt lat="43.93789" lon="7.25518">
        <ele>805.40002441406</ele>
        <time>2013-12-21T10:01:34.000Z</time>
      </trkpt>
      <trkpt lat="43.93789" lon="7.25522">
        <ele>805.40002441406</ele>
        <time>2013-12-21T10:01:39.000Z</time>
      </trkpt>
      <trkpt lat="43.9379" lon="7.25527">
        <ele>805.40002441406</ele>
        <time>2013-12-21T10:01:45.000Z</time>
      </trkpt>
      <trkpt lat="43.93793" lon="7.25534">
        <ele>806</ele>
        <time>2013-12-21T10:01:52.000Z</time>
      </trkpt>
      <trkpt lat="43.93799" lon="7.25538">
        <ele>806</ele>
        <time>2013-12-21T10:02:01.000Z</time>
      </trkpt>
      <trkpt lat="43.93802" lon="7.25542">
        <ele>805.79998779297</ele>
        <time>2013-12-21T10:02:07.000Z</time>
      </trkpt>
      <trkpt lat="43.93806" lon="7.25545">
        <ele>805.59997558594</ele>
        <time>2013-12-21T10:02:15.000Z</time>
      </trkpt>
      <trkpt lat="43.93809" lon="7.25545">
        <ele>805.40002441406</ele>
        <time>2013-12-21T10:02:20.000Z</time>
      </trkpt>
      <trkpt lat="43.93809" lon="7.25548">
        <ele>805.20001220703</ele>
        <time>2013-12-21T10:02:28.000Z</time>
      </trkpt>
      <trkpt lat="43.93808" lon="7.25551">
        <ele>805.40002441406</ele>
        <time>2013-12-21T10:02:34.000Z</time>
      </trkpt>
      <trkpt lat="43.93809" lon="7.25557">
        <ele>806.20001220703</ele>
        <time>2013-12-21T10:02:40.000Z</time>
      </trkpt>
      <trkpt lat="43.93808" lon="7.25563">
        <ele>806.59997558594</ele>
        <time>2013-12-21T10:02:47.000Z</time>
      </trkpt>
      <trkpt lat="43.93807" lon="7.2557">
        <ele>807.59997558594</ele>
        <time>2013-12-21T10:02:55.000Z</time>
      </trkpt>
      <trkpt lat="43.93807" lon="7.25578">
        <ele>809.40002441406</ele>
        <time>2013-12-21T10:03:01.000Z</time>
      </trkpt>
      <trkpt lat="43.93807" lon="7.25581">
        <ele>810.40002441406</ele>
        <time>2013-12-21T10:03:04.000Z</time>
      </trkpt>
      <trkpt lat="43.93806" lon="7.25583">
        <ele>812.40002441406</ele>
        <time>2013-12-21T10:03:12.000Z</time>
      </trkpt>
      <trkpt lat="43.93804" lon="7.2558">
        <ele>813.79998779297</ele>
        <time>2013-12-21T10:03:21.000Z</time>
      </trkpt>
      <trkpt lat="43.938" lon="7.25581">
        <ele>820.40002441406</ele>
        <time>2013-12-21T10:06:20.000Z</time>
      </trkpt>
      <trkpt lat="43.93805" lon="7.25579">
        <ele>820</ele>
        <time>2013-12-21T10:06:26.000Z</time>
      </trkpt>
      <trkpt lat="43.93806" lon="7.25581">
        <ele>819.59997558594</ele>
        <time>2013-12-21T10:06:31.000Z</time>
      </trkpt>
      <trkpt lat="43.93808" lon="7.2558">
        <ele>819.20001220703</ele>
        <time>2013-12-21T10:06:37.000Z</time>
      </trkpt>
      <trkpt lat="43.93808" lon="7.25583">
        <ele>818.79998779297</ele>
        <time>2013-12-21T10:06:42.000Z</time>
      </trkpt>
      <trkpt lat="43.9381" lon="7.25583">
        <ele>817.40002441406</ele>
        <time>2013-12-21T10:06:55.000Z</time>
      </trkpt>
      <trkpt lat="43.9381" lon="7.25585">
        <ele>817.40002441406</ele>
        <time>2013-12-21T10:06:57.000Z</time>
      </trkpt>
      <trkpt lat="43.93811" lon="7.25586">
        <ele>817.20001220703</ele>
        <time>2013-12-21T10:06:59.000Z</time>
      </trkpt>
      <trkpt lat="43.93812" lon="7.25587">
        <ele>817</ele>
        <time>2013-12-21T10:07:03.000Z</time>
      </trkpt>
      <trkpt lat="43.93814" lon="7.25584">
        <ele>816.40002441406</ele>
        <time>2013-12-21T10:07:09.000Z</time>
      </trkpt>
      <trkpt lat="43.93817" lon="7.25586">
        <ele>816.20001220703</ele>
        <time>2013-12-21T10:07:14.000Z</time>
      </trkpt>
      <trkpt lat="43.93816" lon="7.25591">
        <ele>813.79998779297</ele>
        <time>2013-12-21T10:07:40.000Z</time>
      </trkpt>
      <trkpt lat="43.93816" lon="7.25593">
        <ele>813.20001220703</ele>
        <time>2013-12-21T10:07:47.000Z</time>
      </trkpt>
      <trkpt lat="43.9382" lon="7.25592">
        <ele>812.59997558594</ele>
        <time>2013-12-21T10:07:51.000Z</time>
      </trkpt>
      <trkpt lat="43.93821" lon="7.2559">
        <ele>812.40002441406</ele>
        <time>2013-12-21T10:07:52.000Z</time>
      </trkpt>
      <trkpt lat="43.93827" lon="7.2559">
        <ele>812.20001220703</ele>
        <time>2013-12-21T10:07:56.000Z</time>
      </trkpt>
      <trkpt lat="43.93827" lon="7.25589">
        <ele>812</ele>
        <time>2013-12-21T10:07:57.000Z</time>
      </trkpt>
      <trkpt lat="43.93832" lon="7.25589">
        <ele>811</ele>
        <time>2013-12-21T10:08:07.000Z</time>
      </trkpt>
      <trkpt lat="43.93837" lon="7.25586">
        <ele>810.20001220703</ele>
        <time>2013-12-21T10:08:15.000Z</time>
      </trkpt>
      <trkpt lat="43.9384" lon="7.25586">
        <ele>809.20001220703</ele>
        <time>2013-12-21T10:08:25.000Z</time>
      </trkpt>
      <trkpt lat="43.9385" lon="7.25584">
        <ele>809.40002441406</ele>
        <time>2013-12-21T10:08:40.000Z</time>
      </trkpt>
      <trkpt lat="43.93852" lon="7.25582">
        <ele>809.40002441406</ele>
        <time>2013-12-21T10:08:53.000Z</time>
      </trkpt>
      <trkpt lat="43.93854" lon="7.25578">
        <ele>809.20001220703</ele>
        <time>2013-12-21T10:08:59.000Z</time>
      </trkpt>
      <trkpt lat="43.93854" lon="7.25577">
        <ele>808.59997558594</ele>
        <time>2013-12-21T10:09:08.000Z</time>
      </trkpt>
      <trkpt lat="43.93856" lon="7.25576">
        <ele>807.79998779297</ele>
        <time>2013-12-21T10:09:19.000Z</time>
      </trkpt>
      <trkpt lat="43.93861" lon="7.25576">
        <ele>806</ele>
        <time>2013-12-21T10:09:39.000Z</time>
      </trkpt>
      <trkpt lat="43.93862" lon="7.25577">
        <ele>805.59997558594</ele>
        <time>2013-12-21T10:09:45.000Z</time>
      </trkpt>
      <trkpt lat="43.93862" lon="7.25585">
        <ele>804.79998779297</ele>
        <time>2013-12-21T10:10:02.000Z</time>
      </trkpt>
      <trkpt lat="43.93864" lon="7.25591">
        <ele>804.40002441406</ele>
        <time>2013-12-21T10:10:08.000Z</time>
      </trkpt>
      <trkpt lat="43.93866" lon="7.25592">
        <ele>804</ele>
        <time>2013-12-21T10:10:14.000Z</time>
      </trkpt>
      <trkpt lat="43.9387" lon="7.25594">
        <ele>804</ele>
        <time>2013-12-21T10:10:46.000Z</time>
      </trkpt>
      <trkpt lat="43.93873" lon="7.25591">
        <ele>803.20001220703</ele>
        <time>2013-12-21T10:10:51.000Z</time>
      </trkpt>
      <trkpt lat="43.93876" lon="7.25591">
        <ele>802.59997558594</ele>
        <time>2013-12-21T10:10:54.000Z</time>
      </trkpt>
      <trkpt lat="43.93878" lon="7.25595">
        <ele>801.20001220703</ele>
        <time>2013-12-21T10:11:01.000Z</time>
      </trkpt>
      <trkpt lat="43.93878" lon="7.25596">
        <ele>799.40002441406</ele>
        <time>2013-12-21T10:11:10.000Z</time>
      </trkpt>
      <trkpt lat="43.93878" lon="7.25601">
        <ele>798.40002441406</ele>
        <time>2013-12-21T10:11:16.000Z</time>
      </trkpt>
      <trkpt lat="43.93874" lon="7.25608">
        <ele>797.40002441406</ele>
        <time>2013-12-21T10:11:21.000Z</time>
      </trkpt>
      <trkpt lat="43.93866" lon="7.25623">
        <ele>796.40002441406</ele>
        <time>2013-12-21T10:11:27.000Z</time>
      </trkpt>
      <trkpt lat="43.93864" lon="7.25632">
        <ele>795.40002441406</ele>
        <time>2013-12-21T10:11:32.000Z</time>
      </trkpt>
      <trkpt lat="43.93861" lon="7.25639">
        <ele>794.20001220703</ele>
        <time>2013-12-21T10:11:40.000Z</time>
      </trkpt>
      <trkpt lat="43.9386" lon="7.25642">
        <ele>793</ele>
        <time>2013-12-21T10:11:46.000Z</time>
      </trkpt>
      <trkpt lat="43.93857" lon="7.25643">
        <ele>791.59997558594</ele>
        <time>2013-12-21T10:11:52.000Z</time>
      </trkpt>
      <trkpt lat="43.93856" lon="7.25646">
        <ele>791.20001220703</ele>
        <time>2013-12-21T10:11:54.000Z</time>
      </trkpt>
      <trkpt lat="43.93857" lon="7.25649">
        <ele>790.59997558594</ele>
        <time>2013-12-21T10:11:57.000Z</time>
      </trkpt>
      <trkpt lat="43.93854" lon="7.25652">
        <ele>789.40002441406</ele>
        <time>2013-12-21T10:12:03.000Z</time>
      </trkpt>
      <trkpt lat="43.93853" lon="7.2566">
        <ele>788.20001220703</ele>
        <time>2013-12-21T10:12:09.000Z</time>
      </trkpt>
      <trkpt lat="43.93852" lon="7.25661">
        <ele>788</ele>
        <time>2013-12-21T10:12:10.000Z</time>
      </trkpt>
      <trkpt lat="43.93851" lon="7.25666">
        <ele>787</ele>
        <time>2013-12-21T10:12:15.000Z</time>
      </trkpt>
      <trkpt lat="43.93847" lon="7.25673">
        <ele>786</ele>
        <time>2013-12-21T10:12:21.000Z</time>
      </trkpt>
      <trkpt lat="43.93844" lon="7.25676">
        <ele>785.59997558594</ele>
        <time>2013-12-21T10:12:24.000Z</time>
      </trkpt>
      <trkpt lat="43.93843" lon="7.25685">
        <ele>784.59997558594</ele>
        <time>2013-12-21T10:12:31.000Z</time>
      </trkpt>
      <trkpt lat="43.93842" lon="7.25687">
        <ele>783.79998779297</ele>
        <time>2013-12-21T10:12:36.000Z</time>
      </trkpt>
      <trkpt lat="43.93843" lon="7.25694">
        <ele>782.79998779297</ele>
        <time>2013-12-21T10:12:43.000Z</time>
      </trkpt>
      <trkpt lat="43.93846" lon="7.25706">
        <ele>782.20001220703</ele>
        <time>2013-12-21T10:12:47.000Z</time>
      </trkpt>
      <trkpt lat="43.93846" lon="7.25705">
        <ele>782</ele>
        <time>2013-12-21T10:12:48.000Z</time>
      </trkpt>
      <trkpt lat="43.93847" lon="7.25714">
        <ele>781.20001220703</ele>
        <time>2013-12-21T10:12:52.000Z</time>
      </trkpt>
      <trkpt lat="43.93849" lon="7.25718">
        <ele>780.40002441406</ele>
        <time>2013-12-21T10:12:56.000Z</time>
      </trkpt>
      <trkpt lat="43.9385" lon="7.2572">
        <ele>780.20001220703</ele>
        <time>2013-12-21T10:12:57.000Z</time>
      </trkpt>
      <trkpt lat="43.93852" lon="7.25726">
        <ele>779</ele>
        <time>2013-12-21T10:13:03.000Z</time>
      </trkpt>
      <trkpt lat="43.93853" lon="7.25727">
        <ele>778.79998779297</ele>
        <time>2013-12-21T10:13:04.000Z</time>
      </trkpt>
      <trkpt lat="43.93853" lon="7.25728">
        <ele>778.59997558594</ele>
        <time>2013-12-21T10:13:05.000Z</time>
      </trkpt>
      <trkpt lat="43.93852" lon="7.25732">
        <ele>777.59997558594</ele>
        <time>2013-12-21T10:13:10.000Z</time>
      </trkpt>
      <trkpt lat="43.93852" lon="7.25744">
        <ele>776.40002441406</ele>
        <time>2013-12-21T10:13:16.000Z</time>
      </trkpt>
      <trkpt lat="43.93852" lon="7.25746">
        <ele>775.59997558594</ele>
        <time>2013-12-21T10:13:20.000Z</time>
      </trkpt>
      <trkpt lat="43.93853" lon="7.25761">
        <ele>774.20001220703</ele>
        <time>2013-12-21T10:13:30.000Z</time>
      </trkpt>
      <trkpt lat="43.93853" lon="7.25765">
        <ele>774</ele>
        <time>2013-12-21T10:13:33.000Z</time>
      </trkpt>
      <trkpt lat="43.93852" lon="7.25769">
        <ele>773.59997558594</ele>
        <time>2013-12-21T10:13:36.000Z</time>
      </trkpt>
      <trkpt lat="43.93851" lon="7.25775">
        <ele>773</ele>
        <time>2013-12-21T10:13:42.000Z</time>
      </trkpt>
      <trkpt lat="43.93848" lon="7.2578">
        <ele>772.59997558594</ele>
        <time>2013-12-21T10:13:48.000Z</time>
      </trkpt>
      <trkpt lat="43.93847" lon="7.25791">
        <ele>772</ele>
        <time>2013-12-21T10:13:56.000Z</time>
      </trkpt>
      <trkpt lat="43.93849" lon="7.25801">
        <ele>771.40002441406</ele>
        <time>2013-12-21T10:14:02.000Z</time>
      </trkpt>
      <trkpt lat="43.93853" lon="7.25806">
        <ele>770.79998779297</ele>
        <time>2013-12-21T10:14:08.000Z</time>
      </trkpt>
      <trkpt lat="43.93854" lon="7.25807">
        <ele>770.40002441406</ele>
        <time>2013-12-21T10:14:10.000Z</time>
      </trkpt>
      <trkpt lat="43.93855" lon="7.25809">
        <ele>770</ele>
        <time>2013-12-21T10:14:13.000Z</time>
      </trkpt>
      <trkpt lat="43.93855" lon="7.2581">
        <ele>769.20001220703</ele>
        <time>2013-12-21T10:14:19.000Z</time>
      </trkpt>
      <trkpt lat="43.9386" lon="7.25814">
        <ele>768.40002441406</ele>
        <time>2013-12-21T10:14:24.000Z</time>
      </trkpt>
      <trkpt lat="43.93865" lon="7.25821">
        <ele>767.59997558594</ele>
        <time>2013-12-21T10:14:32.000Z</time>
      </trkpt>
      <trkpt lat="43.9387" lon="7.25827">
        <ele>766.59997558594</ele>
        <time>2013-12-21T10:14:40.000Z</time>
      </trkpt>
      <trkpt lat="43.93876" lon="7.25829">
        <ele>765.79998779297</ele>
        <time>2013-12-21T10:14:46.000Z</time>
      </trkpt>
      <trkpt lat="43.93879" lon="7.25832">
        <ele>765.20001220703</ele>
        <time>2013-12-21T10:14:51.000Z</time>
      </trkpt>
      <trkpt lat="43.93884" lon="7.25839">
        <ele>764.40002441406</ele>
        <time>2013-12-21T10:14:59.000Z</time>
      </trkpt>
      <trkpt lat="43.93888" lon="7.25845">
        <ele>764</ele>
        <time>2013-12-21T10:15:05.000Z</time>
      </trkpt>
      <trkpt lat="43.93891" lon="7.25847">
        <ele>763.40002441406</ele>
        <time>2013-12-21T10:15:11.000Z</time>
      </trkpt>
      <trkpt lat="43.93893" lon="7.25849">
        <ele>762.79998779297</ele>
        <time>2013-12-21T10:15:16.000Z</time>
      </trkpt>
      <trkpt lat="43.93895" lon="7.2585">
        <ele>762</ele>
        <time>2013-12-21T10:15:22.000Z</time>
      </trkpt>
      <trkpt lat="43.939" lon="7.25853">
        <ele>760.40002441406</ele>
        <time>2013-12-21T10:15:35.000Z</time>
      </trkpt>
      <trkpt lat="43.93903" lon="7.25856">
        <ele>759.40002441406</ele>
        <time>2013-12-21T10:15:41.000Z</time>
      </trkpt>
      <trkpt lat="43.93906" lon="7.25858">
        <ele>758.79998779297</ele>
        <time>2013-12-21T10:15:47.000Z</time>
      </trkpt>
      <trkpt lat="43.9391" lon="7.25858">
        <ele>758</ele>
        <time>2013-12-21T10:15:52.000Z</time>
      </trkpt>
      <trkpt lat="43.93913" lon="7.25861">
        <ele>757.40002441406</ele>
        <time>2013-12-21T10:15:58.000Z</time>
      </trkpt>
      <trkpt lat="43.93915" lon="7.25866">
        <ele>756.79998779297</ele>
        <time>2013-12-21T10:16:05.000Z</time>
      </trkpt>
      <trkpt lat="43.93915" lon="7.25871">
        <ele>756.59997558594</ele>
        <time>2013-12-21T10:16:11.000Z</time>
      </trkpt>
      <trkpt lat="43.93917" lon="7.25878">
        <ele>756.20001220703</ele>
        <time>2013-12-21T10:16:18.000Z</time>
      </trkpt>
      <trkpt lat="43.93919" lon="7.25887">
        <ele>756</ele>
        <time>2013-12-21T10:16:24.000Z</time>
      </trkpt>
      <trkpt lat="43.93922" lon="7.25892">
        <ele>755.59997558594</ele>
        <time>2013-12-21T10:16:30.000Z</time>
      </trkpt>
      <trkpt lat="43.93925" lon="7.25897">
        <ele>755.20001220703</ele>
        <time>2013-12-21T10:16:37.000Z</time>
      </trkpt>
      <trkpt lat="43.93927" lon="7.25898">
        <ele>754.59997558594</ele>
        <time>2013-12-21T10:16:42.000Z</time>
      </trkpt>
      <trkpt lat="43.9393" lon="7.25903">
        <ele>753.59997558594</ele>
        <time>2013-12-21T10:16:50.000Z</time>
      </trkpt>
      <trkpt lat="43.93932" lon="7.25908">
        <ele>753.20001220703</ele>
        <time>2013-12-21T10:16:53.000Z</time>
      </trkpt>
      <trkpt lat="43.93933" lon="7.2591">
        <ele>752.79998779297</ele>
        <time>2013-12-21T10:16:55.000Z</time>
      </trkpt>
      <trkpt lat="43.93933" lon="7.25912">
        <ele>752.40002441406</ele>
        <time>2013-12-21T10:16:57.000Z</time>
      </trkpt>
      <trkpt lat="43.93934" lon="7.25917">
        <ele>751.59997558594</ele>
        <time>2013-12-21T10:17:01.000Z</time>
      </trkpt>
      <trkpt lat="43.93934" lon="7.25922">
        <ele>750</ele>
        <time>2013-12-21T10:17:10.000Z</time>
      </trkpt>
      <trkpt lat="43.93938" lon="7.25926">
        <ele>748.59997558594</ele>
        <time>2013-12-21T10:17:16.000Z</time>
      </trkpt>
      <trkpt lat="43.93938" lon="7.2593">
        <ele>747.40002441406</ele>
        <time>2013-12-21T10:17:22.000Z</time>
      </trkpt>
      <trkpt lat="43.93938" lon="7.25936">
        <ele>746</ele>
        <time>2013-12-21T10:17:29.000Z</time>
      </trkpt>
      <trkpt lat="43.93939" lon="7.25942">
        <ele>744.79998779297</ele>
        <time>2013-12-21T10:17:35.000Z</time>
      </trkpt>
      <trkpt lat="43.93938" lon="7.25947">
        <ele>743.40002441406</ele>
        <time>2013-12-21T10:17:42.000Z</time>
      </trkpt>
      <trkpt lat="43.93939" lon="7.25955">
        <ele>742</ele>
        <time>2013-12-21T10:17:49.000Z</time>
      </trkpt>
      <trkpt lat="43.9394" lon="7.25958">
        <ele>741.40002441406</ele>
        <time>2013-12-21T10:17:53.000Z</time>
      </trkpt>
      <trkpt lat="43.93942" lon="7.25968">
        <ele>740.20001220703</ele>
        <time>2013-12-21T10:18:00.000Z</time>
      </trkpt>
      <trkpt lat="43.93943" lon="7.25973">
        <ele>739.59997558594</ele>
        <time>2013-12-21T10:18:04.000Z</time>
      </trkpt>
      <trkpt lat="43.93943" lon="7.25973">
        <ele>739.40002441406</ele>
        <time>2013-12-21T10:18:06.000Z</time>
      </trkpt>
      <trkpt lat="43.93943" lon="7.25976">
        <ele>739</ele>
        <time>2013-12-21T10:18:09.000Z</time>
      </trkpt>
      <trkpt lat="43.93945" lon="7.25977">
        <ele>738.59997558594</ele>
        <time>2013-12-21T10:18:12.000Z</time>
      </trkpt>
      <trkpt lat="43.93946" lon="7.25976">
        <ele>738.40002441406</ele>
        <time>2013-12-21T10:18:13.000Z</time>
      </trkpt>
      <trkpt lat="43.93947" lon="7.25977">
        <ele>738</ele>
        <time>2013-12-21T10:18:16.000Z</time>
      </trkpt>
      <trkpt lat="43.93951" lon="7.25978">
        <ele>737.40002441406</ele>
        <time>2013-12-21T10:18:22.000Z</time>
      </trkpt>
      <trkpt lat="43.93957" lon="7.25976">
        <ele>736.40002441406</ele>
        <time>2013-12-21T10:18:30.000Z</time>
      </trkpt>
      <trkpt lat="43.9396" lon="7.25976">
        <ele>735.79998779297</ele>
        <time>2013-12-21T10:18:36.000Z</time>
      </trkpt>
      <trkpt lat="43.93963" lon="7.25975">
        <ele>735</ele>
        <time>2013-12-21T10:18:43.000Z</time>
      </trkpt>
      <trkpt lat="43.9397" lon="7.25974">
        <ele>734.20001220703</ele>
        <time>2013-12-21T10:18:51.000Z</time>
      </trkpt>
      <trkpt lat="43.93973" lon="7.25972">
        <ele>734</ele>
        <time>2013-12-21T10:18:54.000Z</time>
      </trkpt>
      <trkpt lat="43.93975" lon="7.2597">
        <ele>733.59997558594</ele>
        <time>2013-12-21T10:18:58.000Z</time>
      </trkpt>
      <trkpt lat="43.93978" lon="7.25967">
        <ele>733</ele>
        <time>2013-12-21T10:19:06.000Z</time>
      </trkpt>
      <trkpt lat="43.93979" lon="7.25964">
        <ele>732.59997558594</ele>
        <time>2013-12-21T10:19:12.000Z</time>
      </trkpt>
      <trkpt lat="43.93985" lon="7.2596">
        <ele>732</ele>
        <time>2013-12-21T10:19:19.000Z</time>
      </trkpt>
      <trkpt lat="43.9399" lon="7.25956">
        <ele>731.20001220703</ele>
        <time>2013-12-21T10:19:27.000Z</time>
      </trkpt>
      <trkpt lat="43.9399" lon="7.25956">
        <ele>731.20001220703</ele>
        <time>2013-12-21T10:19:28.000Z</time>
      </trkpt>
      <trkpt lat="43.93994" lon="7.25954">
        <ele>730.79998779297</ele>
        <time>2013-12-21T10:19:33.000Z</time>
      </trkpt>
      <trkpt lat="43.93997" lon="7.25952">
        <ele>730.40002441406</ele>
        <time>2013-12-21T10:19:39.000Z</time>
      </trkpt>
      <trkpt lat="43.94" lon="7.25951">
        <ele>730</ele>
        <time>2013-12-21T10:19:46.000Z</time>
      </trkpt>
      <trkpt lat="43.94005" lon="7.25948">
        <ele>729.40002441406</ele>
        <time>2013-12-21T10:19:54.000Z</time>
      </trkpt>
      <trkpt lat="43.94009" lon="7.25946">
        <ele>729</ele>
        <time>2013-12-21T10:20:00.000Z</time>
      </trkpt>
      <trkpt lat="43.94013" lon="7.25941">
        <ele>728.40002441406</ele>
        <time>2013-12-21T10:20:06.000Z</time>
      </trkpt>
      <trkpt lat="43.94015" lon="7.25939">
        <ele>727.79998779297</ele>
        <time>2013-12-21T10:20:10.000Z</time>
      </trkpt>
      <trkpt lat="43.94018" lon="7.25938">
        <ele>727.59997558594</ele>
        <time>2013-12-21T10:20:14.000Z</time>
      </trkpt>
      <trkpt lat="43.9402" lon="7.25938">
        <ele>727.20001220703</ele>
        <time>2013-12-21T10:20:19.000Z</time>
      </trkpt>
      <trkpt lat="43.94025" lon="7.25936">
        <ele>726.20001220703</ele>
        <time>2013-12-21T10:20:33.000Z</time>
      </trkpt>
      <trkpt lat="43.94028" lon="7.25934">
        <ele>726</ele>
        <time>2013-12-21T10:20:35.000Z</time>
      </trkpt>
      <trkpt lat="43.94029" lon="7.25932">
        <ele>725.59997558594</ele>
        <time>2013-12-21T10:20:40.000Z</time>
      </trkpt>
      <trkpt lat="43.94034" lon="7.25932">
        <ele>725</ele>
        <time>2013-12-21T10:20:46.000Z</time>
      </trkpt>
      <trkpt lat="43.94037" lon="7.25928">
        <ele>724.20001220703</ele>
        <time>2013-12-21T10:20:54.000Z</time>
      </trkpt>
      <trkpt lat="43.9404" lon="7.25923">
        <ele>723.59997558594</ele>
        <time>2013-12-21T10:21:00.000Z</time>
      </trkpt>
      <trkpt lat="43.94042" lon="7.25919">
        <ele>723.20001220703</ele>
        <time>2013-12-21T10:21:04.000Z</time>
      </trkpt>
      <trkpt lat="43.94042" lon="7.25918">
        <ele>723</ele>
        <time>2013-12-21T10:21:05.000Z</time>
      </trkpt>
      <trkpt lat="43.94047" lon="7.25914">
        <ele>721.79998779297</ele>
        <time>2013-12-21T10:21:12.000Z</time>
      </trkpt>
      <trkpt lat="43.94047" lon="7.25909">
        <ele>720.59997558594</ele>
        <time>2013-12-21T10:21:18.000Z</time>
      </trkpt>
      <trkpt lat="43.94048" lon="7.25906">
        <ele>719.40002441406</ele>
        <time>2013-12-21T10:21:25.000Z</time>
      </trkpt>
      <trkpt lat="43.94049" lon="7.25903">
        <ele>718.20001220703</ele>
        <time>2013-12-21T10:21:31.000Z</time>
      </trkpt>
      <trkpt lat="43.94052" lon="7.25902">
        <ele>717</ele>
        <time>2013-12-21T10:21:40.000Z</time>
      </trkpt>
      <trkpt lat="43.94055" lon="7.25899">
        <ele>714</ele>
        <time>2013-12-21T10:22:01.000Z</time>
      </trkpt>
      <trkpt lat="43.94077" lon="7.25895">
        <ele>696.20001220703</ele>
        <time>2013-12-21T10:23:25.000Z</time>
      </trkpt>
      <trkpt lat="43.94079" lon="7.25895">
        <ele>695.79998779297</ele>
        <time>2013-12-21T10:23:30.000Z</time>
      </trkpt>
      <trkpt lat="43.94081" lon="7.25896">
        <ele>695.40002441406</ele>
        <time>2013-12-21T10:23:34.000Z</time>
      </trkpt>
      <trkpt lat="43.94083" lon="7.25899">
        <ele>695.20001220703</ele>
        <time>2013-12-21T10:23:37.000Z</time>
      </trkpt>
      <trkpt lat="43.94082" lon="7.25899">
        <ele>695</ele>
        <time>2013-12-21T10:23:39.000Z</time>
      </trkpt>
      <trkpt lat="43.94084" lon="7.25901">
        <ele>695.20001220703</ele>
        <time>2013-12-21T10:23:45.000Z</time>
      </trkpt>
      <trkpt lat="43.94082" lon="7.25901">
        <ele>695.40002441406</ele>
        <time>2013-12-21T10:23:54.000Z</time>
      </trkpt>
      <trkpt lat="43.94082" lon="7.25902">
        <ele>695.40002441406</ele>
        <time>2013-12-21T10:24:02.000Z</time>
      </trkpt>
      <trkpt lat="43.94083" lon="7.25903">
        <ele>695</ele>
        <time>2013-12-21T10:24:09.000Z</time>
      </trkpt>
      <trkpt lat="43.94083" lon="7.2591">
        <ele>694.40002441406</ele>
        <time>2013-12-21T10:24:28.000Z</time>
      </trkpt>
      <trkpt lat="43.94082" lon="7.25913">
        <ele>694</ele>
        <time>2013-12-21T10:24:35.000Z</time>
      </trkpt>
      <trkpt lat="43.94083" lon="7.25913">
        <ele>693.59997558594</ele>
        <time>2013-12-21T10:24:41.000Z</time>
      </trkpt>
      <trkpt lat="43.94083" lon="7.25914">
        <ele>692.79998779297</ele>
        <time>2013-12-21T10:24:50.000Z</time>
      </trkpt>
      <trkpt lat="43.94084" lon="7.25922">
        <ele>692</ele>
        <time>2013-12-21T10:25:17.000Z</time>
      </trkpt>
      <trkpt lat="43.94087" lon="7.2592">
        <ele>691.79998779297</ele>
        <time>2013-12-21T10:25:23.000Z</time>
      </trkpt>
      <trkpt lat="43.94088" lon="7.25919">
        <ele>691.59997558594</ele>
        <time>2013-12-21T10:25:25.000Z</time>
      </trkpt>
      <trkpt lat="43.94089" lon="7.25919">
        <ele>691.40002441406</ele>
        <time>2013-12-21T10:25:26.000Z</time>
      </trkpt>
      <trkpt lat="43.94091" lon="7.25918">
        <ele>691</ele>
        <time>2013-12-21T10:25:30.000Z</time>
      </trkpt>
      <trkpt lat="43.94094" lon="7.25915">
        <ele>689.79998779297</ele>
        <time>2013-12-21T10:25:38.000Z</time>
      </trkpt>
      <trkpt lat="43.94097" lon="7.25911">
        <ele>688.59997558594</ele>
        <time>2013-12-21T10:25:45.000Z</time>
      </trkpt>
      <trkpt lat="43.94098" lon="7.25911">
        <ele>687.40002441406</ele>
        <time>2013-12-21T10:25:52.000Z</time>
      </trkpt>
      <trkpt lat="43.941" lon="7.25915">
        <ele>683.40002441406</ele>
        <time>2013-12-21T10:26:36.000Z</time>
      </trkpt>
      <trkpt lat="43.941" lon="7.25925">
        <ele>685.20001220703</ele>
        <time>2013-12-21T10:26:48.000Z</time>
      </trkpt>
      <trkpt lat="43.94099" lon="7.25921">
        <ele>692.40002441406</ele>
        <time>2013-12-21T10:30:41.000Z</time>
      </trkpt>
      <trkpt lat="43.94094" lon="7.25913">
        <ele>689.40002441406</ele>
        <time>2013-12-21T10:31:42.000Z</time>
      </trkpt>
      <trkpt lat="43.94097" lon="7.25916">
        <ele>689.20001220703</ele>
        <time>2013-12-21T10:31:46.000Z</time>
      </trkpt>
      <trkpt lat="43.94093" lon="7.25928">
        <ele>694.79998779297</ele>
        <time>2013-12-21T10:32:17.000Z</time>
      </trkpt>
      <trkpt lat="43.94089" lon="7.25926">
        <ele>700.20001220703</ele>
        <time>2013-12-21T10:32:24.000Z</time>
      </trkpt>
      <trkpt lat="43.94087" lon="7.25926">
        <ele>707</ele>
        <time>2013-12-21T10:32:32.000Z</time>
      </trkpt>
      <trkpt lat="43.94088" lon="7.25929">
        <ele>708.59997558594</ele>
        <time>2013-12-21T10:32:34.000Z</time>
      </trkpt>
      <trkpt lat="43.94088" lon="7.25933">
        <ele>712</ele>
        <time>2013-12-21T10:32:40.000Z</time>
      </trkpt>
      <trkpt lat="43.94088" lon="7.2593">
        <ele>712.40002441406</ele>
        <time>2013-12-21T10:32:41.000Z</time>
      </trkpt>
      <trkpt lat="43.94094" lon="7.25923">
        <ele>711.59997558594</ele>
        <time>2013-12-21T10:32:47.000Z</time>
      </trkpt>
      <trkpt lat="43.94088" lon="7.25927">
        <ele>701</ele>
        <time>2013-12-21T10:33:33.000Z</time>
      </trkpt>
      <trkpt lat="43.94087" lon="7.2593">
        <ele>699.59997558594</ele>
        <time>2013-12-21T10:33:38.000Z</time>
      </trkpt>
      <trkpt lat="43.94086" lon="7.25931">
        <ele>698</ele>
        <time>2013-12-21T10:33:43.000Z</time>
      </trkpt>
      <trkpt lat="43.94079" lon="7.25931">
        <ele>693.40002441406</ele>
        <time>2013-12-21T10:34:00.000Z</time>
      </trkpt>
      <trkpt lat="43.94079" lon="7.25935">
        <ele>690</ele>
        <time>2013-12-21T10:34:11.000Z</time>
      </trkpt>
      <trkpt lat="43.94078" lon="7.25943">
        <ele>688</ele>
        <time>2013-12-21T10:34:21.000Z</time>
      </trkpt>
      <trkpt lat="43.94076" lon="7.25945">
        <ele>686</ele>
        <time>2013-12-21T10:34:31.000Z</time>
      </trkpt>
      <trkpt lat="43.94076" lon="7.25947">
        <ele>684.59997558594</ele>
        <time>2013-12-21T10:34:37.000Z</time>
      </trkpt>
      <trkpt lat="43.94075" lon="7.25946">
        <ele>679.40002441406</ele>
        <time>2013-12-21T10:34:56.000Z</time>
      </trkpt>
      <trkpt lat="43.94074" lon="7.25944">
        <ele>679</ele>
        <time>2013-12-21T10:34:57.000Z</time>
      </trkpt>
      <trkpt lat="43.94072" lon="7.25941">
        <ele>678.40002441406</ele>
        <time>2013-12-21T10:35:00.000Z</time>
      </trkpt>
      <trkpt lat="43.94065" lon="7.25945">
        <ele>674.59997558594</ele>
        <time>2013-12-21T10:35:19.000Z</time>
      </trkpt>
      <trkpt lat="43.94069" lon="7.25955">
        <ele>673</ele>
        <time>2013-12-21T10:35:28.000Z</time>
      </trkpt>
      <trkpt lat="43.94071" lon="7.25962">
        <ele>672.20001220703</ele>
        <time>2013-12-21T10:35:32.000Z</time>
      </trkpt>
      <trkpt lat="43.94068" lon="7.25965">
        <ele>671.40002441406</ele>
        <time>2013-12-21T10:35:38.000Z</time>
      </trkpt>
      <trkpt lat="43.94066" lon="7.25969">
        <ele>670.59997558594</ele>
        <time>2013-12-21T10:35:43.000Z</time>
      </trkpt>
      <trkpt lat="43.94064" lon="7.25967">
        <ele>670</ele>
        <time>2013-12-21T10:35:46.000Z</time>
      </trkpt>
      <trkpt lat="43.94063" lon="7.25966">
        <ele>669.79998779297</ele>
        <time>2013-12-21T10:35:47.000Z</time>
      </trkpt>
      <trkpt lat="43.94062" lon="7.25968">
        <ele>669</ele>
        <time>2013-12-21T10:35:52.000Z</time>
      </trkpt>
      <trkpt lat="43.94061" lon="7.25971">
        <ele>668.79998779297</ele>
        <time>2013-12-21T10:35:53.000Z</time>
      </trkpt>
      <trkpt lat="43.94058" lon="7.25982">
        <ele>668.40002441406</ele>
        <time>2013-12-21T10:35:57.000Z</time>
      </trkpt>
      <trkpt lat="43.94058" lon="7.25984">
        <ele>668.20001220703</ele>
        <time>2013-12-21T10:35:59.000Z</time>
      </trkpt>
      <trkpt lat="43.94057" lon="7.25989">
        <ele>668.20001220703</ele>
        <time>2013-12-21T10:36:03.000Z</time>
      </trkpt>
      <trkpt lat="43.94057" lon="7.25995">
        <ele>668</ele>
        <time>2013-12-21T10:36:06.000Z</time>
      </trkpt>
      <trkpt lat="43.94057" lon="7.25996">
        <ele>668</ele>
        <time>2013-12-21T10:36:07.000Z</time>
      </trkpt>
      <trkpt lat="43.94055" lon="7.25995">
        <ele>667.79998779297</ele>
        <time>2013-12-21T10:36:13.000Z</time>
      </trkpt>
      <trkpt lat="43.94051" lon="7.25993">
        <ele>667.20001220703</ele>
        <time>2013-12-21T10:36:23.000Z</time>
      </trkpt>
      <trkpt lat="43.94049" lon="7.2599">
        <ele>666.79998779297</ele>
        <time>2013-12-21T10:36:28.000Z</time>
      </trkpt>
      <trkpt lat="43.94046" lon="7.25993">
        <ele>666.40002441406</ele>
        <time>2013-12-21T10:36:32.000Z</time>
      </trkpt>
      <trkpt lat="43.94041" lon="7.26005">
        <ele>665.79998779297</ele>
        <time>2013-12-21T10:36:38.000Z</time>
      </trkpt>
      <trkpt lat="43.94039" lon="7.26008">
        <ele>665.59997558594</ele>
        <time>2013-12-21T10:36:41.000Z</time>
      </trkpt>
      <trkpt lat="43.94039" lon="7.26015">
        <ele>665.20001220703</ele>
        <time>2013-12-21T10:36:44.000Z</time>
      </trkpt>
      <trkpt lat="43.94036" lon="7.26021">
        <ele>664.59997558594</ele>
        <time>2013-12-21T10:36:49.000Z</time>
      </trkpt>
      <trkpt lat="43.9403" lon="7.26028">
        <ele>663.79998779297</ele>
        <time>2013-12-21T10:36:53.000Z</time>
      </trkpt>
      <trkpt lat="43.94028" lon="7.26037">
        <ele>662.79998779297</ele>
        <time>2013-12-21T10:36:58.000Z</time>
      </trkpt>
      <trkpt lat="43.94022" lon="7.26044">
        <ele>661.59997558594</ele>
        <time>2013-12-21T10:37:03.000Z</time>
      </trkpt>
      <trkpt lat="43.94017" lon="7.26052">
        <ele>660.59997558594</ele>
        <time>2013-12-21T10:37:08.000Z</time>
      </trkpt>
      <trkpt lat="43.9401" lon="7.26056">
        <ele>660</ele>
        <time>2013-12-21T10:37:13.000Z</time>
      </trkpt>
      <trkpt lat="43.9401" lon="7.26057">
        <ele>660</ele>
        <time>2013-12-21T10:37:14.000Z</time>
      </trkpt>
      <trkpt lat="43.93995" lon="7.26044">
        <ele>658</ele>
        <time>2013-12-21T10:37:32.000Z</time>
      </trkpt>
      <trkpt lat="43.93993" lon="7.26043">
        <ele>658</ele>
        <time>2013-12-21T10:37:36.000Z</time>
      </trkpt>
      <trkpt lat="43.93993" lon="7.26042">
        <ele>658</ele>
        <time>2013-12-21T10:37:37.000Z</time>
      </trkpt>
      <trkpt lat="43.9399" lon="7.26039">
        <ele>658</ele>
        <time>2013-12-21T10:37:43.000Z</time>
      </trkpt>
      <trkpt lat="43.93993" lon="7.26042">
        <ele>658.20001220703</ele>
        <time>2013-12-21T10:37:47.000Z</time>
      </trkpt>
      <trkpt lat="43.93994" lon="7.26043">
        <ele>658.20001220703</ele>
        <time>2013-12-21T10:37:48.000Z</time>
      </trkpt>
      <trkpt lat="43.93997" lon="7.26045">
        <ele>658.59997558594</ele>
        <time>2013-12-21T10:37:54.000Z</time>
      </trkpt>
      <trkpt lat="43.93997" lon="7.26039">
        <ele>658.40002441406</ele>
        <time>2013-12-21T10:38:07.000Z</time>
      </trkpt>
      <trkpt lat="43.93999" lon="7.26044">
        <ele>658.20001220703</ele>
        <time>2013-12-21T10:38:13.000Z</time>
      </trkpt>
      <trkpt lat="43.93993" lon="7.26037">
        <ele>657</ele>
        <time>2013-12-21T10:38:48.000Z</time>
      </trkpt>
      <trkpt lat="43.9399" lon="7.2603">
        <ele>657</ele>
        <time>2013-12-21T10:38:51.000Z</time>
      </trkpt>
      <trkpt lat="43.93989" lon="7.26029">
        <ele>656.79998779297</ele>
        <time>2013-12-21T10:38:56.000Z</time>
      </trkpt>
      <trkpt lat="43.93991" lon="7.26031">
        <ele>657</ele>
        <time>2013-12-21T10:38:57.000Z</time>
      </trkpt>
      <trkpt lat="43.93991" lon="7.26032">
        <ele>658</ele>
        <time>2013-12-21T10:39:01.000Z</time>
      </trkpt>
      <trkpt lat="43.93994" lon="7.2604">
        <ele>658.79998779297</ele>
        <time>2013-12-21T10:39:07.000Z</time>
      </trkpt>
      <trkpt lat="43.93994" lon="7.26038">
        <ele>657.79998779297</ele>
        <time>2013-12-21T10:39:20.000Z</time>
      </trkpt>
      <trkpt lat="43.93994" lon="7.26038">
        <ele>657.20001220703</ele>
        <time>2013-12-21T10:39:25.000Z</time>
      </trkpt>
      <trkpt lat="43.93995" lon="7.2604">
        <ele>656.79998779297</ele>
        <time>2013-12-21T10:39:28.000Z</time>
      </trkpt>
      <trkpt lat="43.93998" lon="7.26046">
        <ele>656.40002441406</ele>
        <time>2013-12-21T10:39:39.000Z</time>
      </trkpt>
      <trkpt lat="43.93996" lon="7.26049">
        <ele>659.79998779297</ele>
        <time>2013-12-21T10:39:55.000Z</time>
      </trkpt>
      <trkpt lat="43.93994" lon="7.26046">
        <ele>662.59997558594</ele>
        <time>2013-12-21T10:40:05.000Z</time>
      </trkpt>
      <trkpt lat="43.93995" lon="7.26048">
        <ele>664</ele>
        <time>2013-12-21T10:40:10.000Z</time>
      </trkpt>
      <trkpt lat="43.93992" lon="7.26039">
        <ele>665.40002441406</ele>
        <time>2013-12-21T10:40:21.000Z</time>
      </trkpt>
      <trkpt lat="43.93992" lon="7.2604">
        <ele>665.40002441406</ele>
        <time>2013-12-21T10:40:27.000Z</time>
      </trkpt>
      <trkpt lat="43.93991" lon="7.26042">
        <ele>666</ele>
        <time>2013-12-21T10:40:49.000Z</time>
      </trkpt>
      <trkpt lat="43.93993" lon="7.26052">
        <ele>668.59997558594</ele>
        <time>2013-12-21T10:40:56.000Z</time>
      </trkpt>
      <trkpt lat="43.93994" lon="7.26055">
        <ele>670.59997558594</ele>
        <time>2013-12-21T10:41:01.000Z</time>
      </trkpt>
      <trkpt lat="43.93995" lon="7.26056">
        <ele>673.40002441406</ele>
        <time>2013-12-21T10:41:09.000Z</time>
      </trkpt>
      <trkpt lat="43.93995" lon="7.26058">
        <ele>673.59997558594</ele>
        <time>2013-12-21T10:41:10.000Z</time>
      </trkpt>
      <trkpt lat="43.93998" lon="7.26062">
        <ele>675.59997558594</ele>
        <time>2013-12-21T10:41:17.000Z</time>
      </trkpt>
      <trkpt lat="43.93997" lon="7.2606">
        <ele>678</ele>
        <time>2013-12-21T10:41:25.000Z</time>
      </trkpt>
      <trkpt lat="43.93997" lon="7.2606">
        <ele>677.79998779297</ele>
        <time>2013-12-21T10:41:33.000Z</time>
      </trkpt>
      <trkpt lat="43.93997" lon="7.26058">
        <ele>677</ele>
        <time>2013-12-21T10:41:42.000Z</time>
      </trkpt>
      <trkpt lat="43.93995" lon="7.26055">
        <ele>676.79998779297</ele>
        <time>2013-12-21T10:41:45.000Z</time>
      </trkpt>
      <trkpt lat="43.93995" lon="7.26052">
        <ele>676.40002441406</ele>
        <time>2013-12-21T10:41:48.000Z</time>
      </trkpt>
      <trkpt lat="43.93994" lon="7.26039">
        <ele>669.79998779297</ele>
        <time>2013-12-21T10:42:13.000Z</time>
      </trkpt>
      <trkpt lat="43.93994" lon="7.26037">
        <ele>665.40002441406</ele>
        <time>2013-12-21T10:42:25.000Z</time>
      </trkpt>
      <trkpt lat="43.93992" lon="7.26033">
        <ele>661.20001220703</ele>
        <time>2013-12-21T10:42:39.000Z</time>
      </trkpt>
      <trkpt lat="43.93988" lon="7.26025">
        <ele>658.79998779297</ele>
        <time>2013-12-21T10:42:48.000Z</time>
      </trkpt>
      <trkpt lat="43.93983" lon="7.26012">
        <ele>656.20001220703</ele>
        <time>2013-12-21T10:42:57.000Z</time>
      </trkpt>
      <trkpt lat="43.93988" lon="7.26025">
        <ele>653.20001220703</ele>
        <time>2013-12-21T10:43:07.000Z</time>
      </trkpt>
      <trkpt lat="43.93989" lon="7.26027">
        <ele>652.59997558594</ele>
        <time>2013-12-21T10:43:10.000Z</time>
      </trkpt>
      <trkpt lat="43.93989" lon="7.26026">
        <ele>650</ele>
        <time>2013-12-21T10:43:21.000Z</time>
      </trkpt>
      <trkpt lat="43.93991" lon="7.26032">
        <ele>648.59997558594</ele>
        <time>2013-12-21T10:43:29.000Z</time>
      </trkpt>
      <trkpt lat="43.9399" lon="7.2603">
        <ele>647</ele>
        <time>2013-12-21T10:43:36.000Z</time>
      </trkpt>
      <trkpt lat="43.93986" lon="7.26017">
        <ele>644</ele>
        <time>2013-12-21T10:43:47.000Z</time>
      </trkpt>
      <trkpt lat="43.93986" lon="7.26021">
        <ele>640.79998779297</ele>
        <time>2013-12-21T10:44:00.000Z</time>
      </trkpt>
      <trkpt lat="43.93985" lon="7.26023">
        <ele>640.20001220703</ele>
        <time>2013-12-21T10:44:06.000Z</time>
      </trkpt>
      <trkpt lat="43.93982" lon="7.26031">
        <ele>640</ele>
        <time>2013-12-21T10:44:10.000Z</time>
      </trkpt>
      <trkpt lat="43.9398" lon="7.26039">
        <ele>640</ele>
        <time>2013-12-21T10:44:12.000Z</time>
      </trkpt>
      <trkpt lat="43.93981" lon="7.26059">
        <ele>640.40002441406</ele>
        <time>2013-12-21T10:44:17.000Z</time>
      </trkpt>
      <trkpt lat="43.93982" lon="7.26061">
        <ele>640.79998779297</ele>
        <time>2013-12-21T10:44:19.000Z</time>
      </trkpt>
      <trkpt lat="43.93984" lon="7.26064">
        <ele>642</ele>
        <time>2013-12-21T10:44:22.000Z</time>
      </trkpt>
      <trkpt lat="43.93987" lon="7.26063">
        <ele>642.40002441406</ele>
        <time>2013-12-21T10:44:25.000Z</time>
      </trkpt>
      <trkpt lat="43.93989" lon="7.26062">
        <ele>642.40002441406</ele>
        <time>2013-12-21T10:44:29.000Z</time>
      </trkpt>
      <trkpt lat="43.93986" lon="7.26061">
        <ele>641.40002441406</ele>
        <time>2013-12-21T10:44:39.000Z</time>
      </trkpt>
      <trkpt lat="43.93984" lon="7.26062">
        <ele>641.20001220703</ele>
        <time>2013-12-21T10:44:41.000Z</time>
      </trkpt>
      <trkpt lat="43.93985" lon="7.26064">
        <ele>641</ele>
        <time>2013-12-21T10:44:42.000Z</time>
      </trkpt>
      <trkpt lat="43.93984" lon="7.2607">
        <ele>640.79998779297</ele>
        <time>2013-12-21T10:44:46.000Z</time>
      </trkpt>
      <trkpt lat="43.93983" lon="7.26069">
        <ele>637.40002441406</ele>
        <time>2013-12-21T10:45:15.000Z</time>
      </trkpt>
      <trkpt lat="43.9398" lon="7.26074">
        <ele>636.79998779297</ele>
        <time>2013-12-21T10:45:23.000Z</time>
      </trkpt>
      <trkpt lat="43.93984" lon="7.26068">
        <ele>632.79998779297</ele>
        <time>2013-12-21T10:45:50.000Z</time>
      </trkpt>
      <trkpt lat="43.93985" lon="7.26064">
        <ele>632</ele>
        <time>2013-12-21T10:45:53.000Z</time>
      </trkpt>
      <trkpt lat="43.93982" lon="7.26067">
        <ele>630.79998779297</ele>
        <time>2013-12-21T10:46:00.000Z</time>
      </trkpt>
      <trkpt lat="43.93987" lon="7.26066">
        <ele>629</ele>
        <time>2013-12-21T10:46:10.000Z</time>
      </trkpt>
      <trkpt lat="43.93987" lon="7.26065">
        <ele>628.59997558594</ele>
        <time>2013-12-21T10:46:13.000Z</time>
      </trkpt>
      <trkpt lat="43.93987" lon="7.26064">
        <ele>627.79998779297</ele>
        <time>2013-12-21T10:46:19.000Z</time>
      </trkpt>
      <trkpt lat="43.93985" lon="7.26072">
        <ele>627.20001220703</ele>
        <time>2013-12-21T10:46:27.000Z</time>
      </trkpt>
      <trkpt lat="43.93985" lon="7.26078">
        <ele>627.20001220703</ele>
        <time>2013-12-21T10:46:30.000Z</time>
      </trkpt>
      <trkpt lat="43.93985" lon="7.2608">
        <ele>627.20001220703</ele>
        <time>2013-12-21T10:46:31.000Z</time>
      </trkpt>
      <trkpt lat="43.93984" lon="7.26085">
        <ele>628</ele>
        <time>2013-12-21T10:46:35.000Z</time>
      </trkpt>
      <trkpt lat="43.93983" lon="7.26084">
        <ele>629</ele>
        <time>2013-12-21T10:46:38.000Z</time>
      </trkpt>
      <trkpt lat="43.93985" lon="7.26083">
        <ele>629.59997558594</ele>
        <time>2013-12-21T10:46:41.000Z</time>
      </trkpt>
      <trkpt lat="43.93985" lon="7.2608">
        <ele>630.20001220703</ele>
        <time>2013-12-21T10:46:44.000Z</time>
      </trkpt>
      <trkpt lat="43.93984" lon="7.26079">
        <ele>631.40002441406</ele>
        <time>2013-12-21T10:46:48.000Z</time>
      </trkpt>
      <trkpt lat="43.93984" lon="7.2608">
        <ele>631.20001220703</ele>
        <time>2013-12-21T10:46:50.000Z</time>
      </trkpt>
      <trkpt lat="43.93983" lon="7.26091">
        <ele>630.79998779297</ele>
        <time>2013-12-21T10:46:53.000Z</time>
      </trkpt>
      <trkpt lat="43.93985" lon="7.26098">
        <ele>631</ele>
        <time>2013-12-21T10:46:55.000Z</time>
      </trkpt>
      <trkpt lat="43.93991" lon="7.26111">
        <ele>630.79998779297</ele>
        <time>2013-12-21T10:46:59.000Z</time>
      </trkpt>
      <trkpt lat="43.93996" lon="7.26112">
        <ele>630.20001220703</ele>
        <time>2013-12-21T10:47:05.000Z</time>
      </trkpt>
      <trkpt lat="43.93999" lon="7.26107">
        <ele>629.59997558594</ele>
        <time>2013-12-21T10:47:08.000Z</time>
      </trkpt>
      <trkpt lat="43.94" lon="7.26106">
        <ele>629.20001220703</ele>
        <time>2013-12-21T10:47:09.000Z</time>
      </trkpt>
      <trkpt lat="43.94002" lon="7.26106">
        <ele>628.79998779297</ele>
        <time>2013-12-21T10:47:11.000Z</time>
      </trkpt>
      <trkpt lat="43.94003" lon="7.26104">
        <ele>628.59997558594</ele>
        <time>2013-12-21T10:47:12.000Z</time>
      </trkpt>
      <trkpt lat="43.94007" lon="7.26111">
        <ele>626.59997558594</ele>
        <time>2013-12-21T10:47:20.000Z</time>
      </trkpt>
      <trkpt lat="43.94008" lon="7.26115">
        <ele>625.79998779297</ele>
        <time>2013-12-21T10:47:23.000Z</time>
      </trkpt>
      <trkpt lat="43.94009" lon="7.26116">
        <ele>624</ele>
        <time>2013-12-21T10:47:29.000Z</time>
      </trkpt>
      <trkpt lat="43.94009" lon="7.26112">
        <ele>623</ele>
        <time>2013-12-21T10:47:32.000Z</time>
      </trkpt>
      <trkpt lat="43.94014" lon="7.26121">
        <ele>614</ele>
        <time>2013-12-21T10:47:56.000Z</time>
      </trkpt>
      <trkpt lat="43.94012" lon="7.26131">
        <ele>613</ele>
        <time>2013-12-21T10:47:59.000Z</time>
      </trkpt>
      <trkpt lat="43.9401" lon="7.26135">
        <ele>612.40002441406</ele>
        <time>2013-12-21T10:48:01.000Z</time>
      </trkpt>
      <trkpt lat="43.94007" lon="7.26147">
        <ele>611</ele>
        <time>2013-12-21T10:48:05.000Z</time>
      </trkpt>
      <trkpt lat="43.94002" lon="7.26161">
        <ele>608.79998779297</ele>
        <time>2013-12-21T10:48:11.000Z</time>
      </trkpt>
      <trkpt lat="43.93995" lon="7.26169">
        <ele>606.40002441406</ele>
        <time>2013-12-21T10:48:17.000Z</time>
      </trkpt>
      <trkpt lat="43.93991" lon="7.26179">
        <ele>604.20001220703</ele>
        <time>2013-12-21T10:48:22.000Z</time>
      </trkpt>
      <trkpt lat="43.93977" lon="7.26187">
        <ele>601.40002441406</ele>
        <time>2013-12-21T10:48:29.000Z</time>
      </trkpt>
      <trkpt lat="43.9397" lon="7.26203">
        <ele>598.40002441406</ele>
        <time>2013-12-21T10:48:35.000Z</time>
      </trkpt>
      <trkpt lat="43.93964" lon="7.26212">
        <ele>596</ele>
        <time>2013-12-21T10:48:40.000Z</time>
      </trkpt>
      <trkpt lat="43.93963" lon="7.26223">
        <ele>590.40002441406</ele>
        <time>2013-12-21T10:48:52.000Z</time>
      </trkpt>
      <trkpt lat="43.93961" lon="7.26229">
        <ele>589</ele>
        <time>2013-12-21T10:48:55.000Z</time>
      </trkpt>
      <trkpt lat="43.93961" lon="7.26231">
        <ele>588.59997558594</ele>
        <time>2013-12-21T10:48:56.000Z</time>
      </trkpt>
      <trkpt lat="43.93961" lon="7.26235">
        <ele>586.79998779297</ele>
        <time>2013-12-21T10:49:00.000Z</time>
      </trkpt>
      <trkpt lat="43.93961" lon="7.26236">
        <ele>586.40002441406</ele>
        <time>2013-12-21T10:49:01.000Z</time>
      </trkpt>
      <trkpt lat="43.93961" lon="7.2624">
        <ele>584.79998779297</ele>
        <time>2013-12-21T10:49:05.000Z</time>
      </trkpt>
      <trkpt lat="43.9396" lon="7.26243">
        <ele>584.40002441406</ele>
        <time>2013-12-21T10:49:06.000Z</time>
      </trkpt>
      <trkpt lat="43.9396" lon="7.26246">
        <ele>582.79998779297</ele>
        <time>2013-12-21T10:49:10.000Z</time>
      </trkpt>
      <trkpt lat="43.93961" lon="7.26247">
        <ele>582</ele>
        <time>2013-12-21T10:49:12.000Z</time>
      </trkpt>
      <trkpt lat="43.93957" lon="7.2625">
        <ele>578.59997558594</ele>
        <time>2013-12-21T10:49:22.000Z</time>
      </trkpt>
      <trkpt lat="43.93954" lon="7.2625">
        <ele>577.20001220703</ele>
        <time>2013-12-21T10:49:26.000Z</time>
      </trkpt>
      <trkpt lat="43.9395" lon="7.26254">
        <ele>576</ele>
        <time>2013-12-21T10:49:30.000Z</time>
      </trkpt>
      <trkpt lat="43.93948" lon="7.26258">
        <ele>572.79998779297</ele>
        <time>2013-12-21T10:49:39.000Z</time>
      </trkpt>
      <trkpt lat="43.93944" lon="7.26261">
        <ele>570.20001220703</ele>
        <time>2013-12-21T10:49:47.000Z</time>
      </trkpt>
      <trkpt lat="43.93941" lon="7.26269">
        <ele>569.20001220703</ele>
        <time>2013-12-21T10:49:51.000Z</time>
      </trkpt>
      <trkpt lat="43.9394" lon="7.26273">
        <ele>568.79998779297</ele>
        <time>2013-12-21T10:49:53.000Z</time>
      </trkpt>
      <trkpt lat="43.93936" lon="7.26279">
        <ele>567.20001220703</ele>
        <time>2013-12-21T10:49:59.000Z</time>
      </trkpt>
      <trkpt lat="43.93935" lon="7.26282">
        <ele>566.79998779297</ele>
        <time>2013-12-21T10:50:01.000Z</time>
      </trkpt>
      <trkpt lat="43.93934" lon="7.26286">
        <ele>566.20001220703</ele>
        <time>2013-12-21T10:50:04.000Z</time>
      </trkpt>
      <trkpt lat="43.93933" lon="7.26291">
        <ele>564.79998779297</ele>
        <time>2013-12-21T10:50:10.000Z</time>
      </trkpt>
      <trkpt lat="43.93931" lon="7.26293">
        <ele>563.79998779297</ele>
        <time>2013-12-21T10:50:15.000Z</time>
      </trkpt>
      <trkpt lat="43.93926" lon="7.26299">
        <ele>562.79998779297</ele>
        <time>2013-12-21T10:50:21.000Z</time>
      </trkpt>
      <trkpt lat="43.93926" lon="7.26301">
        <ele>562.59997558594</ele>
        <time>2013-12-21T10:50:22.000Z</time>
      </trkpt>
      <trkpt lat="43.93925" lon="7.26306">
        <ele>561.79998779297</ele>
        <time>2013-12-21T10:50:26.000Z</time>
      </trkpt>
      <trkpt lat="43.93924" lon="7.26306">
        <ele>561.79998779297</ele>
        <time>2013-12-21T10:50:27.000Z</time>
      </trkpt>
      <trkpt lat="43.93922" lon="7.26308">
        <ele>561.20001220703</ele>
        <time>2013-12-21T10:50:30.000Z</time>
      </trkpt>
      <trkpt lat="43.93921" lon="7.26309">
        <ele>560.79998779297</ele>
        <time>2013-12-21T10:50:32.000Z</time>
      </trkpt>
      <trkpt lat="43.93919" lon="7.26312">
        <ele>559.79998779297</ele>
        <time>2013-12-21T10:50:37.000Z</time>
      </trkpt>
      <trkpt lat="43.93918" lon="7.26317">
        <ele>559</ele>
        <time>2013-12-21T10:50:42.000Z</time>
      </trkpt>
      <trkpt lat="43.93915" lon="7.2632">
        <ele>558.20001220703</ele>
        <time>2013-12-21T10:50:47.000Z</time>
      </trkpt>
      <trkpt lat="43.93913" lon="7.26329">
        <ele>557</ele>
        <time>2013-12-21T10:50:56.000Z</time>
      </trkpt>
      <trkpt lat="43.93913" lon="7.26332">
        <ele>556.79998779297</ele>
        <time>2013-12-21T10:50:58.000Z</time>
      </trkpt>
      <trkpt lat="43.93911" lon="7.26334">
        <ele>556.40002441406</ele>
        <time>2013-12-21T10:51:01.000Z</time>
      </trkpt>
      <trkpt lat="43.93912" lon="7.26334">
        <ele>555.59997558594</ele>
        <time>2013-12-21T10:51:08.000Z</time>
      </trkpt>
      <trkpt lat="43.9392" lon="7.26344">
        <ele>554.59997558594</ele>
        <time>2013-12-21T10:51:15.000Z</time>
      </trkpt>
      <trkpt lat="43.93921" lon="7.26348">
        <ele>554</ele>
        <time>2013-12-21T10:51:19.000Z</time>
      </trkpt>
      <trkpt lat="43.93921" lon="7.26348">
        <ele>553.79998779297</ele>
        <time>2013-12-21T10:51:20.000Z</time>
      </trkpt>
      <trkpt lat="43.93923" lon="7.26353">
        <ele>553.40002441406</ele>
        <time>2013-12-21T10:51:23.000Z</time>
      </trkpt>
      <trkpt lat="43.93926" lon="7.26358">
        <ele>553</ele>
        <time>2013-12-21T10:51:25.000Z</time>
      </trkpt>
      <trkpt lat="43.93931" lon="7.2637">
        <ele>552.20001220703</ele>
        <time>2013-12-21T10:51:29.000Z</time>
      </trkpt>
      <trkpt lat="43.93939" lon="7.2638">
        <ele>551.40002441406</ele>
        <time>2013-12-21T10:51:34.000Z</time>
      </trkpt>
      <trkpt lat="43.93954" lon="7.264">
        <ele>550.20001220703</ele>
        <time>2013-12-21T10:51:39.000Z</time>
      </trkpt>
      <trkpt lat="43.93963" lon="7.26415">
        <ele>549</ele>
        <time>2013-12-21T10:51:44.000Z</time>
      </trkpt>
      <trkpt lat="43.93964" lon="7.26413">
        <ele>547.40002441406</ele>
        <time>2013-12-21T10:51:50.000Z</time>
      </trkpt>
      <trkpt lat="43.93963" lon="7.26415">
        <ele>545.59997558594</ele>
        <time>2013-12-21T10:51:59.000Z</time>
      </trkpt>
      <trkpt lat="43.93962" lon="7.26419">
        <ele>544.20001220703</ele>
        <time>2013-12-21T10:52:07.000Z</time>
      </trkpt>
      <trkpt lat="43.93961" lon="7.26421">
        <ele>537.40002441406</ele>
        <time>2013-12-21T10:52:51.000Z</time>
      </trkpt>
      <trkpt lat="43.93956" lon="7.26429">
        <ele>532</ele>
        <time>2013-12-21T11:00:53.000Z</time>
      </trkpt>
      <trkpt lat="43.93955" lon="7.26431">
        <ele>532</ele>
        <time>2013-12-21T11:00:55.000Z</time>
      </trkpt>
      <trkpt lat="43.93954" lon="7.26433">
        <ele>532</ele>
        <time>2013-12-21T11:00:57.000Z</time>
      </trkpt>
      <trkpt lat="43.93953" lon="7.26432">
        <ele>531.79998779297</ele>
        <time>2013-12-21T11:00:58.000Z</time>
      </trkpt>
      <trkpt lat="43.9395" lon="7.26433">
        <ele>531.59997558594</ele>
        <time>2013-12-21T11:01:01.000Z</time>
      </trkpt>
      <trkpt lat="43.93942" lon="7.26434">
        <ele>531.40002441406</ele>
        <time>2013-12-21T11:01:05.000Z</time>
      </trkpt>
      <trkpt lat="43.93939" lon="7.26435">
        <ele>531.40002441406</ele>
        <time>2013-12-21T11:01:07.000Z</time>
      </trkpt>
      <trkpt lat="43.93938" lon="7.26435">
        <ele>531</ele>
        <time>2013-12-21T11:01:09.000Z</time>
      </trkpt>
      <trkpt lat="43.93933" lon="7.26433">
        <ele>530.59997558594</ele>
        <time>2013-12-21T11:01:11.000Z</time>
      </trkpt>
      <trkpt lat="43.93923" lon="7.26437">
        <ele>530.20001220703</ele>
        <time>2013-12-21T11:01:14.000Z</time>
      </trkpt>
      <trkpt lat="43.9392" lon="7.26439">
        <ele>530</ele>
        <time>2013-12-21T11:01:15.000Z</time>
      </trkpt>
      <trkpt lat="43.93911" lon="7.26445">
        <ele>529.20001220703</ele>
        <time>2013-12-21T11:01:19.000Z</time>
      </trkpt>
      <trkpt lat="43.93909" lon="7.26444">
        <ele>528.79998779297</ele>
        <time>2013-12-21T11:01:21.000Z</time>
      </trkpt>
      <trkpt lat="43.93905" lon="7.26439">
        <ele>528.40002441406</ele>
        <time>2013-12-21T11:01:23.000Z</time>
      </trkpt>
      <trkpt lat="43.93898" lon="7.26431">
        <ele>527.40002441406</ele>
        <time>2013-12-21T11:01:27.000Z</time>
      </trkpt>
      <trkpt lat="43.93892" lon="7.26434">
        <ele>526.20001220703</ele>
        <time>2013-12-21T11:01:31.000Z</time>
      </trkpt>
      <trkpt lat="43.93889" lon="7.26436">
        <ele>525.20001220703</ele>
        <time>2013-12-21T11:01:34.000Z</time>
      </trkpt>
      <trkpt lat="43.93889" lon="7.26438">
        <ele>525</ele>
        <time>2013-12-21T11:01:35.000Z</time>
      </trkpt>
      <trkpt lat="43.93887" lon="7.26443">
        <ele>523.40002441406</ele>
        <time>2013-12-21T11:01:40.000Z</time>
      </trkpt>
      <trkpt lat="43.93882" lon="7.26441">
        <ele>520.79998779297</ele>
        <time>2013-12-21T11:01:48.000Z</time>
      </trkpt>
      <trkpt lat="43.93874" lon="7.26431">
        <ele>519</ele>
        <time>2013-12-21T11:01:53.000Z</time>
      </trkpt>
      <trkpt lat="43.93871" lon="7.2643">
        <ele>518.79998779297</ele>
        <time>2013-12-21T11:01:54.000Z</time>
      </trkpt>
      <trkpt lat="43.93868" lon="7.26432">
        <ele>518</ele>
        <time>2013-12-21T11:01:56.000Z</time>
      </trkpt>
      <trkpt lat="43.93864" lon="7.26439">
        <ele>517</ele>
        <time>2013-12-21T11:01:59.000Z</time>
      </trkpt>
      <trkpt lat="43.93859" lon="7.26442">
        <ele>515.79998779297</ele>
        <time>2013-12-21T11:02:03.000Z</time>
      </trkpt>
      <trkpt lat="43.93858" lon="7.26447">
        <ele>515</ele>
        <time>2013-12-21T11:02:05.000Z</time>
      </trkpt>
      <trkpt lat="43.93856" lon="7.2645">
        <ele>514.79998779297</ele>
        <time>2013-12-21T11:02:06.000Z</time>
      </trkpt>
      <trkpt lat="43.93855" lon="7.26451">
        <ele>514.40002441406</ele>
        <time>2013-12-21T11:02:07.000Z</time>
      </trkpt>
      <trkpt lat="43.93851" lon="7.26442">
        <ele>513.59997558594</ele>
        <time>2013-12-21T11:02:10.000Z</time>
      </trkpt>
      <trkpt lat="43.93845" lon="7.26425">
        <ele>512.59997558594</ele>
        <time>2013-12-21T11:02:13.000Z</time>
      </trkpt>
      <trkpt lat="43.93837" lon="7.26421">
        <ele>511.60000610352</ele>
        <time>2013-12-21T11:02:17.000Z</time>
      </trkpt>
      <trkpt lat="43.9383" lon="7.26434">
        <ele>510.79998779297</ele>
        <time>2013-12-21T11:02:20.000Z</time>
      </trkpt>
      <trkpt lat="43.93819" lon="7.26465">
        <ele>509.39999389648</ele>
        <time>2013-12-21T11:02:25.000Z</time>
      </trkpt>
      <trkpt lat="43.93813" lon="7.26482">
        <ele>508.20001220703</ele>
        <time>2013-12-21T11:02:29.000Z</time>
      </trkpt>
      <trkpt lat="43.93809" lon="7.26483">
        <ele>507.20001220703</ele>
        <time>2013-12-21T11:02:32.000Z</time>
      </trkpt>
      <trkpt lat="43.93808" lon="7.26487">
        <ele>505.20001220703</ele>
        <time>2013-12-21T11:02:37.000Z</time>
      </trkpt>
      <trkpt lat="43.93809" lon="7.26492">
        <ele>504.39999389648</ele>
        <time>2013-12-21T11:02:39.000Z</time>
      </trkpt>
      <trkpt lat="43.93812" lon="7.265">
        <ele>503.20001220703</ele>
        <time>2013-12-21T11:02:42.000Z</time>
      </trkpt>
      <trkpt lat="43.93814" lon="7.26513">
        <ele>501.20001220703</ele>
        <time>2013-12-21T11:02:47.000Z</time>
      </trkpt>
      <trkpt lat="43.93815" lon="7.26542">
        <ele>499.79998779297</ele>
        <time>2013-12-21T11:02:52.000Z</time>
      </trkpt>
      <trkpt lat="43.93811" lon="7.26588">
        <ele>497.79998779297</ele>
        <time>2013-12-21T11:02:59.000Z</time>
      </trkpt>
      <trkpt lat="43.9381" lon="7.26602">
        <ele>497.39999389648</ele>
        <time>2013-12-21T11:03:01.000Z</time>
      </trkpt>
      <trkpt lat="43.93812" lon="7.26622">
        <ele>496.60000610352</ele>
        <time>2013-12-21T11:03:04.000Z</time>
      </trkpt>
      <trkpt lat="43.93813" lon="7.26649">
        <ele>495.60000610352</ele>
        <time>2013-12-21T11:03:09.000Z</time>
      </trkpt>
      <trkpt lat="43.93816" lon="7.26661">
        <ele>494.60000610352</ele>
        <time>2013-12-21T11:03:12.000Z</time>
      </trkpt>
      <trkpt lat="43.93818" lon="7.26662">
        <ele>494.20001220703</ele>
        <time>2013-12-21T11:03:13.000Z</time>
      </trkpt>
      <trkpt lat="43.93821" lon="7.26665">
        <ele>492</ele>
        <time>2013-12-21T11:03:20.000Z</time>
      </trkpt>
      <trkpt lat="43.9382" lon="7.26657">
        <ele>490.60000610352</ele>
        <time>2013-12-21T11:03:25.000Z</time>
      </trkpt>
      <trkpt lat="43.93819" lon="7.26637">
        <ele>489.20001220703</ele>
        <time>2013-12-21T11:03:30.000Z</time>
      </trkpt>
      <trkpt lat="43.93817" lon="7.26611">
        <ele>488</ele>
        <time>2013-12-21T11:03:35.000Z</time>
      </trkpt>
      <trkpt lat="43.9382" lon="7.26592">
        <ele>486.79998779297</ele>
        <time>2013-12-21T11:03:39.000Z</time>
      </trkpt>
      <trkpt lat="43.93821" lon="7.26573">
        <ele>485.39999389648</ele>
        <time>2013-12-21T11:03:44.000Z</time>
      </trkpt>
      <trkpt lat="43.93822" lon="7.26552">
        <ele>483.60000610352</ele>
        <time>2013-12-21T11:03:50.000Z</time>
      </trkpt>
      <trkpt lat="43.93823" lon="7.26543">
        <ele>481.79998779297</ele>
        <time>2013-12-21T11:03:57.000Z</time>
      </trkpt>
      <trkpt lat="43.93824" lon="7.26549">
        <ele>478.60000610352</ele>
        <time>2013-12-21T11:04:11.000Z</time>
      </trkpt>
      <trkpt lat="43.93822" lon="7.26569">
        <ele>477.79998779297</ele>
        <time>2013-12-21T11:04:15.000Z</time>
      </trkpt>
      <trkpt lat="43.93819" lon="7.26607">
        <ele>477</ele>
        <time>2013-12-21T11:04:20.000Z</time>
      </trkpt>
      <trkpt lat="43.93821" lon="7.26669">
        <ele>476.20001220703</ele>
        <time>2013-12-21T11:04:26.000Z</time>
      </trkpt>
      <trkpt lat="43.93819" lon="7.26714">
        <ele>475.60000610352</ele>
        <time>2013-12-21T11:04:31.000Z</time>
      </trkpt>
      <trkpt lat="43.93819" lon="7.26752">
        <ele>474.79998779297</ele>
        <time>2013-12-21T11:04:35.000Z</time>
      </trkpt>
      <trkpt lat="43.93823" lon="7.26773">
        <ele>474.20001220703</ele>
        <time>2013-12-21T11:04:37.000Z</time>
      </trkpt>
      <trkpt lat="43.93827" lon="7.26791">
        <ele>473.79998779297</ele>
        <time>2013-12-21T11:04:39.000Z</time>
      </trkpt>
      <trkpt lat="43.93833" lon="7.26818">
        <ele>472.79998779297</ele>
        <time>2013-12-21T11:04:42.000Z</time>
      </trkpt>
      <trkpt lat="43.93836" lon="7.26864">
        <ele>471</ele>
        <time>2013-12-21T11:04:48.000Z</time>
      </trkpt>
      <trkpt lat="43.93844" lon="7.26877">
        <ele>470.20001220703</ele>
        <time>2013-12-21T11:04:51.000Z</time>
      </trkpt>
      <trkpt lat="43.93854" lon="7.26885">
        <ele>469.60000610352</ele>
        <time>2013-12-21T11:04:53.000Z</time>
      </trkpt>
      <trkpt lat="43.93868" lon="7.26899">
        <ele>469</ele>
        <time>2013-12-21T11:04:56.000Z</time>
      </trkpt>
      <trkpt lat="43.93883" lon="7.26912">
        <ele>468.39999389648</ele>
        <time>2013-12-21T11:04:59.000Z</time>
      </trkpt>
      <trkpt lat="43.93899" lon="7.26926">
        <ele>467.79998779297</ele>
        <time>2013-12-21T11:05:02.000Z</time>
      </trkpt>
      <trkpt lat="43.93927" lon="7.26955">
        <ele>467</ele>
        <time>2013-12-21T11:05:07.000Z</time>
      </trkpt>
      <trkpt lat="43.93932" lon="7.26961">
        <ele>467</ele>
        <time>2013-12-21T11:05:08.000Z</time>
      </trkpt>
      <trkpt lat="43.93948" lon="7.26983">
        <ele>466.20001220703</ele>
        <time>2013-12-21T11:05:12.000Z</time>
      </trkpt>
      <trkpt lat="43.93965" lon="7.27027">
        <ele>465.20001220703</ele>
        <time>2013-12-21T11:05:18.000Z</time>
      </trkpt>
      <trkpt lat="43.93972" lon="7.27072">
        <ele>464</ele>
        <time>2013-12-21T11:05:23.000Z</time>
      </trkpt>
      <trkpt lat="43.93975" lon="7.27095">
        <ele>463.20001220703</ele>
        <time>2013-12-21T11:05:26.000Z</time>
      </trkpt>
      <trkpt lat="43.9398" lon="7.27107">
        <ele>462.60000610352</ele>
        <time>2013-12-21T11:05:28.000Z</time>
      </trkpt>
      <trkpt lat="43.93998" lon="7.27151">
        <ele>461.39999389648</ele>
        <time>2013-12-21T11:05:34.000Z</time>
      </trkpt>
      <trkpt lat="43.94034" lon="7.27194">
        <ele>460.20001220703</ele>
        <time>2013-12-21T11:05:41.000Z</time>
      </trkpt>
      <trkpt lat="43.9404" lon="7.27198">
        <ele>460</ele>
        <time>2013-12-21T11:05:42.000Z</time>
      </trkpt>
      <trkpt lat="43.94058" lon="7.2721">
        <ele>459.60000610352</ele>
        <time>2013-12-21T11:05:45.000Z</time>
      </trkpt>
      <trkpt lat="43.94064" lon="7.27214">
        <ele>459.20001220703</ele>
        <time>2013-12-21T11:05:46.000Z</time>
      </trkpt>
      <trkpt lat="43.94081" lon="7.27233">
        <ele>458.79998779297</ele>
        <time>2013-12-21T11:05:49.000Z</time>
      </trkpt>
      <trkpt lat="43.94094" lon="7.27266">
        <ele>458.20001220703</ele>
        <time>2013-12-21T11:05:53.000Z</time>
      </trkpt>
      <trkpt lat="43.94098" lon="7.27292">
        <ele>457.79998779297</ele>
        <time>2013-12-21T11:05:56.000Z</time>
      </trkpt>
      <trkpt lat="43.94101" lon="7.27309">
        <ele>457.39999389648</ele>
        <time>2013-12-21T11:05:58.000Z</time>
      </trkpt>
      <trkpt lat="43.94103" lon="7.27316">
        <ele>457.20001220703</ele>
        <time>2013-12-21T11:05:59.000Z</time>
      </trkpt>
      <trkpt lat="43.94112" lon="7.27335">
        <ele>456.79998779297</ele>
        <time>2013-12-21T11:06:02.000Z</time>
      </trkpt>
      <trkpt lat="43.94123" lon="7.27342">
        <ele>456.20001220703</ele>
        <time>2013-12-21T11:06:05.000Z</time>
      </trkpt>
      <trkpt lat="43.94134" lon="7.27344">
        <ele>455.79998779297</ele>
        <time>2013-12-21T11:06:08.000Z</time>
      </trkpt>
      <trkpt lat="43.94139" lon="7.27345">
        <ele>455.39999389648</ele>
        <time>2013-12-21T11:06:10.000Z</time>
      </trkpt>
      <trkpt lat="43.9416" lon="7.27346">
        <ele>454.20001220703</ele>
        <time>2013-12-21T11:06:18.000Z</time>
      </trkpt>
      <trkpt lat="43.94177" lon="7.27355">
        <ele>453</ele>
        <time>2013-12-21T11:06:25.000Z</time>
      </trkpt>
      <trkpt lat="43.94189" lon="7.27365">
        <ele>452.39999389648</ele>
        <time>2013-12-21T11:06:30.000Z</time>
      </trkpt>
      <trkpt lat="43.94202" lon="7.27394">
        <ele>451.20001220703</ele>
        <time>2013-12-21T11:06:39.000Z</time>
      </trkpt>
      <trkpt lat="43.94213" lon="7.27414">
        <ele>450.39999389648</ele>
        <time>2013-12-21T11:06:46.000Z</time>
      </trkpt>
      <trkpt lat="43.94222" lon="7.2743">
        <ele>450.20001220703</ele>
        <time>2013-12-21T11:06:52.000Z</time>
      </trkpt>
      <trkpt lat="43.94241" lon="7.27459">
        <ele>449.79998779297</ele>
        <time>2013-12-21T11:07:01.000Z</time>
      </trkpt>
      <trkpt lat="43.94252" lon="7.27477">
        <ele>449.79998779297</ele>
        <time>2013-12-21T11:07:08.000Z</time>
      </trkpt>
      <trkpt lat="43.94253" lon="7.27478">
        <ele>449.79998779297</ele>
        <time>2013-12-21T11:07:10.000Z</time>
      </trkpt>
      <trkpt lat="43.94253" lon="7.27478">
        <ele>449.79998779297</ele>
        <time>2013-12-21T11:07:14.000Z</time>
      </trkpt>
      <trkpt lat="43.94259" lon="7.27483">
        <ele>450</ele>
        <time>2013-12-21T11:07:24.000Z</time>
      </trkpt>
      <trkpt lat="43.94265" lon="7.27496">
        <ele>450</ele>
        <time>2013-12-21T11:07:28.000Z</time>
      </trkpt>
      <trkpt lat="43.94278" lon="7.27521">
        <ele>449.60000610352</ele>
        <time>2013-12-21T11:07:35.000Z</time>
      </trkpt>
      <trkpt lat="43.94294" lon="7.27535">
        <ele>449</ele>
        <time>2013-12-21T11:07:40.000Z</time>
      </trkpt>
      <trkpt lat="43.94302" lon="7.27546">
        <ele>448.79998779297</ele>
        <time>2013-12-21T11:07:43.000Z</time>
      </trkpt>
      <trkpt lat="43.94306" lon="7.27552">
        <ele>448.79998779297</ele>
        <time>2013-12-21T11:07:45.000Z</time>
      </trkpt>
      <trkpt lat="43.94316" lon="7.27545">
        <ele>448.20001220703</ele>
        <time>2013-12-21T11:07:48.000Z</time>
      </trkpt>
      <trkpt lat="43.94323" lon="7.27542">
        <ele>448</ele>
        <time>2013-12-21T11:07:50.000Z</time>
      </trkpt>
      <trkpt lat="43.94326" lon="7.27541">
        <ele>447.60000610352</ele>
        <time>2013-12-21T11:07:53.000Z</time>
      </trkpt>
      <trkpt lat="43.94339" lon="7.27542">
        <ele>446.79998779297</ele>
        <time>2013-12-21T11:07:57.000Z</time>
      </trkpt>
      <trkpt lat="43.94361" lon="7.27542">
        <ele>446</ele>
        <time>2013-12-21T11:08:02.000Z</time>
      </trkpt>
      <trkpt lat="43.94373" lon="7.27541">
        <ele>445.20001220703</ele>
        <time>2013-12-21T11:08:07.000Z</time>
      </trkpt>
      <trkpt lat="43.94382" lon="7.27547">
        <ele>444.39999389648</ele>
        <time>2013-12-21T11:08:11.000Z</time>
      </trkpt>
      <trkpt lat="43.94385" lon="7.27547">
        <ele>444.20001220703</ele>
        <time>2013-12-21T11:08:12.000Z</time>
      </trkpt>
      <trkpt lat="43.94398" lon="7.27542">
        <ele>443.60000610352</ele>
        <time>2013-12-21T11:08:15.000Z</time>
      </trkpt>
      <trkpt lat="43.94414" lon="7.27537">
        <ele>442.60000610352</ele>
        <time>2013-12-21T11:08:19.000Z</time>
      </trkpt>
      <trkpt lat="43.94423" lon="7.27525">
        <ele>442</ele>
        <time>2013-12-21T11:08:21.000Z</time>
      </trkpt>
      <trkpt lat="43.94425" lon="7.27522">
        <ele>441.79998779297</ele>
        <time>2013-12-21T11:08:22.000Z</time>
      </trkpt>
      <trkpt lat="43.94436" lon="7.27517">
        <ele>441</ele>
        <time>2013-12-21T11:08:25.000Z</time>
      </trkpt>
      <trkpt lat="43.94439" lon="7.27514">
        <ele>440.79998779297</ele>
        <time>2013-12-21T11:08:26.000Z</time>
      </trkpt>
      <trkpt lat="43.94449" lon="7.27506">
        <ele>439.60000610352</ele>
        <time>2013-12-21T11:08:30.000Z</time>
      </trkpt>
      <trkpt lat="43.94457" lon="7.27504">
        <ele>438.79998779297</ele>
        <time>2013-12-21T11:08:33.000Z</time>
      </trkpt>
      <trkpt lat="43.9446" lon="7.27503">
        <ele>438</ele>
        <time>2013-12-21T11:08:35.000Z</time>
      </trkpt>
      <trkpt lat="43.9446" lon="7.27504">
        <ele>437.79998779297</ele>
        <time>2013-12-21T11:08:36.000Z</time>
      </trkpt>
      <trkpt lat="43.94457" lon="7.27508">
        <ele>437.20001220703</ele>
        <time>2013-12-21T11:08:38.000Z</time>
      </trkpt>
      <trkpt lat="43.94457" lon="7.27511">
        <ele>436.20001220703</ele>
        <time>2013-12-21T11:08:42.000Z</time>
      </trkpt>
      <trkpt lat="43.94464" lon="7.27511">
        <ele>435.20001220703</ele>
        <time>2013-12-21T11:08:46.000Z</time>
      </trkpt>
      <trkpt lat="43.94473" lon="7.27511">
        <ele>433.60000610352</ele>
        <time>2013-12-21T11:08:52.000Z</time>
      </trkpt>
      <trkpt lat="43.94475" lon="7.27514">
        <ele>433.20001220703</ele>
        <time>2013-12-21T11:08:54.000Z</time>
      </trkpt>
      <trkpt lat="43.94481" lon="7.27513">
        <ele>432.60000610352</ele>
        <time>2013-12-21T11:08:56.000Z</time>
      </trkpt>
      <trkpt lat="43.94498" lon="7.27503">
        <ele>431.39999389648</ele>
        <time>2013-12-21T11:09:00.000Z</time>
      </trkpt>
      <trkpt lat="43.94526" lon="7.27486">
        <ele>429.79998779297</ele>
        <time>2013-12-21T11:09:05.000Z</time>
      </trkpt>
      <trkpt lat="43.94551" lon="7.27466">
        <ele>428.39999389648</ele>
        <time>2013-12-21T11:09:09.000Z</time>
      </trkpt>
      <trkpt lat="43.94556" lon="7.27459">
        <ele>428</ele>
        <time>2013-12-21T11:09:10.000Z</time>
      </trkpt>
      <trkpt lat="43.94572" lon="7.27442">
        <ele>427</ele>
        <time>2013-12-21T11:09:13.000Z</time>
      </trkpt>
      <trkpt lat="43.94579" lon="7.27426">
        <ele>426.20001220703</ele>
        <time>2013-12-21T11:09:15.000Z</time>
      </trkpt>
      <trkpt lat="43.94589" lon="7.2741">
        <ele>425.39999389648</ele>
        <time>2013-12-21T11:09:17.000Z</time>
      </trkpt>
      <trkpt lat="43.94596" lon="7.27408">
        <ele>425</ele>
        <time>2013-12-21T11:09:18.000Z</time>
      </trkpt>
      <trkpt lat="43.94605" lon="7.27412">
        <ele>424.60000610352</ele>
        <time>2013-12-21T11:09:19.000Z</time>
      </trkpt>
      <trkpt lat="43.94629" lon="7.27425">
        <ele>423.60000610352</ele>
        <time>2013-12-21T11:09:22.000Z</time>
      </trkpt>
      <trkpt lat="43.94644" lon="7.27433">
        <ele>422</ele>
        <time>2013-12-21T11:09:26.000Z</time>
      </trkpt>
      <trkpt lat="43.94649" lon="7.27438">
        <ele>420.60000610352</ele>
        <time>2013-12-21T11:09:30.000Z</time>
      </trkpt>
      <trkpt lat="43.94649" lon="7.27443">
        <ele>419.60000610352</ele>
        <time>2013-12-21T11:09:33.000Z</time>
      </trkpt>
      <trkpt lat="43.9465" lon="7.27447">
        <ele>418.79998779297</ele>
        <time>2013-12-21T11:09:36.000Z</time>
      </trkpt>
      <trkpt lat="43.94651" lon="7.27448">
        <ele>417.20001220703</ele>
        <time>2013-12-21T11:09:42.000Z</time>
      </trkpt>
      <trkpt lat="43.94657" lon="7.27451">
        <ele>408.79998779297</ele>
        <time>2013-12-21T11:10:13.000Z</time>
      </trkpt>
      <trkpt lat="43.94662" lon="7.27463">
        <ele>407.79998779297</ele>
        <time>2013-12-21T11:10:17.000Z</time>
      </trkpt>
      <trkpt lat="43.94666" lon="7.27485">
        <ele>406.79998779297</ele>
        <time>2013-12-21T11:10:22.000Z</time>
      </trkpt>
      <trkpt lat="43.9466" lon="7.27516">
        <ele>405.79998779297</ele>
        <time>2013-12-21T11:10:27.000Z</time>
      </trkpt>
      <trkpt lat="43.94648" lon="7.27544">
        <ele>405</ele>
        <time>2013-12-21T11:10:31.000Z</time>
      </trkpt>
      <trkpt lat="43.94624" lon="7.27596">
        <ele>403.60000610352</ele>
        <time>2013-12-21T11:10:38.000Z</time>
      </trkpt>
      <trkpt lat="43.94621" lon="7.27604">
        <ele>403.39999389648</ele>
        <time>2013-12-21T11:10:39.000Z</time>
      </trkpt>
      <trkpt lat="43.94613" lon="7.27618">
        <ele>403</ele>
        <time>2013-12-21T11:10:41.000Z</time>
      </trkpt>
      <trkpt lat="43.94608" lon="7.27622">
        <ele>402.79998779297</ele>
        <time>2013-12-21T11:10:42.000Z</time>
      </trkpt>
      <trkpt lat="43.94573" lon="7.27664">
        <ele>401</ele>
        <time>2013-12-21T11:10:49.000Z</time>
      </trkpt>
      <trkpt lat="43.94552" lon="7.27689">
        <ele>399.79998779297</ele>
        <time>2013-12-21T11:10:53.000Z</time>
      </trkpt>
      <trkpt lat="43.94541" lon="7.27702">
        <ele>399</ele>
        <time>2013-12-21T11:10:55.000Z</time>
      </trkpt>
      <trkpt lat="43.94517" lon="7.27722">
        <ele>398</ele>
        <time>2013-12-21T11:10:59.000Z</time>
      </trkpt>
      <trkpt lat="43.94505" lon="7.27731">
        <ele>397.39999389648</ele>
        <time>2013-12-21T11:11:01.000Z</time>
      </trkpt>
      <trkpt lat="43.94488" lon="7.27767">
        <ele>396.20001220703</ele>
        <time>2013-12-21T11:11:05.000Z</time>
      </trkpt>
      <trkpt lat="43.94483" lon="7.27775">
        <ele>396</ele>
        <time>2013-12-21T11:11:06.000Z</time>
      </trkpt>
      <trkpt lat="43.94443" lon="7.27841">
        <ele>393.39999389648</ele>
        <time>2013-12-21T11:11:14.000Z</time>
      </trkpt>
      <trkpt lat="43.9442" lon="7.27888">
        <ele>391.79998779297</ele>
        <time>2013-12-21T11:11:19.000Z</time>
      </trkpt>
      <trkpt lat="43.94394" lon="7.27929">
        <ele>390.20001220703</ele>
        <time>2013-12-21T11:11:24.000Z</time>
      </trkpt>
      <trkpt lat="43.94371" lon="7.27958">
        <ele>389</ele>
        <time>2013-12-21T11:11:28.000Z</time>
      </trkpt>
      <trkpt lat="43.94361" lon="7.27974">
        <ele>388.39999389648</ele>
        <time>2013-12-21T11:11:30.000Z</time>
      </trkpt>
      <trkpt lat="43.94353" lon="7.27994">
        <ele>387.60000610352</ele>
        <time>2013-12-21T11:11:32.000Z</time>
      </trkpt>
      <trkpt lat="43.94346" lon="7.28019">
        <ele>387</ele>
        <time>2013-12-21T11:11:34.000Z</time>
      </trkpt>
      <trkpt lat="43.94339" lon="7.28037">
        <ele>386.39999389648</ele>
        <time>2013-12-21T11:11:36.000Z</time>
      </trkpt>
      <trkpt lat="43.94333" lon="7.28053">
        <ele>386</ele>
        <time>2013-12-21T11:11:38.000Z</time>
      </trkpt>
      <trkpt lat="43.94329" lon="7.28108">
        <ele>384</ele>
        <time>2013-12-21T11:11:43.000Z</time>
      </trkpt>
      <trkpt lat="43.94321" lon="7.2817">
        <ele>382</ele>
        <time>2013-12-21T11:11:49.000Z</time>
      </trkpt>
      <trkpt lat="43.94319" lon="7.28191">
        <ele>381.20001220703</ele>
        <time>2013-12-21T11:11:51.000Z</time>
      </trkpt>
      <trkpt lat="43.9432" lon="7.28214">
        <ele>380.39999389648</ele>
        <time>2013-12-21T11:11:53.000Z</time>
      </trkpt>
      <trkpt lat="43.94331" lon="7.28242">
        <ele>379.20001220703</ele>
        <time>2013-12-21T11:11:56.000Z</time>
      </trkpt>
      <trkpt lat="43.94335" lon="7.2825">
        <ele>379</ele>
        <time>2013-12-21T11:11:57.000Z</time>
      </trkpt>
      <trkpt lat="43.94339" lon="7.28265">
        <ele>378.20001220703</ele>
        <time>2013-12-21T11:11:59.000Z</time>
      </trkpt>
      <trkpt lat="43.94339" lon="7.28271">
        <ele>377.79998779297</ele>
        <time>2013-12-21T11:12:00.000Z</time>
      </trkpt>
      <trkpt lat="43.94337" lon="7.28279">
        <ele>376.60000610352</ele>
        <time>2013-12-21T11:12:03.000Z</time>
      </trkpt>
      <trkpt lat="43.94339" lon="7.28278">
        <ele>374.60000610352</ele>
        <time>2013-12-21T11:12:08.000Z</time>
      </trkpt>
      <trkpt lat="43.94341" lon="7.28297">
        <ele>346</ele>
        <time>2013-12-21T11:14:29.000Z</time>
      </trkpt>
      <trkpt lat="43.94354" lon="7.28304">
        <ele>345.79998779297</ele>
        <time>2013-12-21T11:14:34.000Z</time>
      </trkpt>
      <trkpt lat="43.94369" lon="7.28313">
        <ele>345.60000610352</ele>
        <time>2013-12-21T11:14:40.000Z</time>
      </trkpt>
      <trkpt lat="43.94393" lon="7.28325">
        <ele>345</ele>
        <time>2013-12-21T11:14:48.000Z</time>
      </trkpt>
      <trkpt lat="43.94415" lon="7.28336">
        <ele>344.60000610352</ele>
        <time>2013-12-21T11:14:55.000Z</time>
      </trkpt>
      <trkpt lat="43.94445" lon="7.28349">
        <ele>344.20001220703</ele>
        <time>2013-12-21T11:15:05.000Z</time>
      </trkpt>
      <trkpt lat="43.94466" lon="7.28361">
        <ele>343.79998779297</ele>
        <time>2013-12-21T11:15:12.000Z</time>
      </trkpt>
      <trkpt lat="43.94494" lon="7.28373">
        <ele>343.79998779297</ele>
        <time>2013-12-21T11:15:20.000Z</time>
      </trkpt>
      <trkpt lat="43.94523" lon="7.28387">
        <ele>343.60000610352</ele>
        <time>2013-12-21T11:15:29.000Z</time>
      </trkpt>
      <trkpt lat="43.9455" lon="7.28398">
        <ele>344</ele>
        <time>2013-12-21T11:15:37.000Z</time>
      </trkpt>
      <trkpt lat="43.94581" lon="7.28411">
        <ele>344.39999389648</ele>
        <time>2013-12-21T11:15:46.000Z</time>
      </trkpt>
      <trkpt lat="43.94604" lon="7.28418">
        <ele>345.20001220703</ele>
        <time>2013-12-21T11:15:53.000Z</time>
      </trkpt>
      <trkpt lat="43.94631" lon="7.28429">
        <ele>345.79998779297</ele>
        <time>2013-12-21T11:16:01.000Z</time>
      </trkpt>
      <trkpt lat="43.94648" lon="7.2844">
        <ele>346.20001220703</ele>
        <time>2013-12-21T11:16:06.000Z</time>
      </trkpt>
      <trkpt lat="43.94676" lon="7.28461">
        <ele>346.79998779297</ele>
        <time>2013-12-21T11:16:14.000Z</time>
      </trkpt>
      <trkpt lat="43.94697" lon="7.28486">
        <ele>347.39999389648</ele>
        <time>2013-12-21T11:16:21.000Z</time>
      </trkpt>
      <trkpt lat="43.94712" lon="7.28513">
        <ele>348.60000610352</ele>
        <time>2013-12-21T11:16:28.000Z</time>
      </trkpt>
      <trkpt lat="43.94726" lon="7.28549">
        <ele>351</ele>
        <time>2013-12-21T11:16:36.000Z</time>
      </trkpt>
      <trkpt lat="43.94737" lon="7.28579">
        <ele>353.20001220703</ele>
        <time>2013-12-21T11:16:43.000Z</time>
      </trkpt>
      <trkpt lat="43.94751" lon="7.28613">
        <ele>355.60000610352</ele>
        <time>2013-12-21T11:16:50.000Z</time>
      </trkpt>
      <trkpt lat="43.94762" lon="7.28644">
        <ele>357.20001220703</ele>
        <time>2013-12-21T11:16:57.000Z</time>
      </trkpt>
      <trkpt lat="43.94773" lon="7.28678">
        <ele>359</ele>
        <time>2013-12-21T11:17:05.000Z</time>
      </trkpt>
      <trkpt lat="43.94787" lon="7.28709">
        <ele>360.79998779297</ele>
        <time>2013-12-21T11:17:13.000Z</time>
      </trkpt>
      <trkpt lat="43.94806" lon="7.28731">
        <ele>361.79998779297</ele>
        <time>2013-12-21T11:17:21.000Z</time>
      </trkpt>
      <trkpt lat="43.94837" lon="7.28751">
        <ele>362.60000610352</ele>
        <time>2013-12-21T11:17:31.000Z</time>
      </trkpt>
      <trkpt lat="43.94856" lon="7.28768">
        <ele>363.39999389648</ele>
        <time>2013-12-21T11:17:37.000Z</time>
      </trkpt>
      <trkpt lat="43.94872" lon="7.28793">
        <ele>363.60000610352</ele>
        <time>2013-12-21T11:17:44.000Z</time>
      </trkpt>
      <trkpt lat="43.94892" lon="7.28816">
        <ele>364</ele>
        <time>2013-12-21T11:17:51.000Z</time>
      </trkpt>
      <trkpt lat="43.94909" lon="7.28841">
        <ele>365.20001220703</ele>
        <time>2013-12-21T11:17:58.000Z</time>
      </trkpt>
      <trkpt lat="43.94914" lon="7.28866">
        <ele>367.20001220703</ele>
        <time>2013-12-21T11:18:04.000Z</time>
      </trkpt>
      <trkpt lat="43.94917" lon="7.28894">
        <ele>369.39999389648</ele>
        <time>2013-12-21T11:18:10.000Z</time>
      </trkpt>
      <trkpt lat="43.94922" lon="7.2893">
        <ele>372.20001220703</ele>
        <time>2013-12-21T11:18:17.000Z</time>
      </trkpt>
      <trkpt lat="43.94927" lon="7.2896">
        <ele>374.20001220703</ele>
        <time>2013-12-21T11:18:24.000Z</time>
      </trkpt>
      <trkpt lat="43.94933" lon="7.28993">
        <ele>377</ele>
        <time>2013-12-21T11:18:32.000Z</time>
      </trkpt>
      <trkpt lat="43.9494" lon="7.29022">
        <ele>379.39999389648</ele>
        <time>2013-12-21T11:18:40.000Z</time>
      </trkpt>
      <trkpt lat="43.94946" lon="7.29047">
        <ele>381.39999389648</ele>
        <time>2013-12-21T11:18:47.000Z</time>
      </trkpt>
      <trkpt lat="43.94955" lon="7.29071">
        <ele>383</ele>
        <time>2013-12-21T11:18:55.000Z</time>
      </trkpt>
      <trkpt lat="43.95071" lon="7.2918">
        <ele>387.79998779297</ele>
        <time>2013-12-21T11:19:36.000Z</time>
      </trkpt>
      <trkpt lat="43.95072" lon="7.29207">
        <ele>387.79998779297</ele>
        <time>2013-12-21T11:19:43.000Z</time>
      </trkpt>
      <trkpt lat="43.95074" lon="7.29221">
        <ele>387.60000610352</ele>
        <time>2013-12-21T11:19:47.000Z</time>
      </trkpt>
      <trkpt lat="43.95079" lon="7.29233">
        <ele>387.39999389648</ele>
        <time>2013-12-21T11:19:51.000Z</time>
      </trkpt>
      <trkpt lat="43.95086" lon="7.29253">
        <ele>386.79998779297</ele>
        <time>2013-12-21T11:19:58.000Z</time>
      </trkpt>
      <trkpt lat="43.95098" lon="7.29268">
        <ele>386.39999389648</ele>
        <time>2013-12-21T11:20:05.000Z</time>
      </trkpt>
      <trkpt lat="43.9511" lon="7.29287">
        <ele>386</ele>
        <time>2013-12-21T11:20:13.000Z</time>
      </trkpt>
      <trkpt lat="43.95117" lon="7.2931">
        <ele>386</ele>
        <time>2013-12-21T11:20:21.000Z</time>
      </trkpt>
      <trkpt lat="43.95124" lon="7.2934">
        <ele>386.39999389648</ele>
        <time>2013-12-21T11:20:29.000Z</time>
      </trkpt>
      <trkpt lat="43.9513" lon="7.29363">
        <ele>386.79998779297</ele>
        <time>2013-12-21T11:20:35.000Z</time>
      </trkpt>
      <trkpt lat="43.95135" lon="7.29385">
        <ele>387.20001220703</ele>
        <time>2013-12-21T11:20:41.000Z</time>
      </trkpt>
      <trkpt lat="43.95142" lon="7.29408">
        <ele>388</ele>
        <time>2013-12-21T11:20:48.000Z</time>
      </trkpt>
      <trkpt lat="43.95148" lon="7.29421">
        <ele>388.39999389648</ele>
        <time>2013-12-21T11:20:52.000Z</time>
      </trkpt>
      <trkpt lat="43.9516" lon="7.29432">
        <ele>388.39999389648</ele>
        <time>2013-12-21T11:20:57.000Z</time>
      </trkpt>
      <trkpt lat="43.95181" lon="7.29453">
        <ele>388.60000610352</ele>
        <time>2013-12-21T11:21:05.000Z</time>
      </trkpt>
      <trkpt lat="43.95197" lon="7.29475">
        <ele>388.79998779297</ele>
        <time>2013-12-21T11:21:12.000Z</time>
      </trkpt>
      <trkpt lat="43.9521" lon="7.29495">
        <ele>389.20001220703</ele>
        <time>2013-12-21T11:21:18.000Z</time>
      </trkpt>
      <trkpt lat="43.95228" lon="7.29523">
        <ele>390</ele>
        <time>2013-12-21T11:21:26.000Z</time>
      </trkpt>
      <trkpt lat="43.95246" lon="7.29539">
        <ele>391.20001220703</ele>
        <time>2013-12-21T11:21:34.000Z</time>
      </trkpt>
      <trkpt lat="43.95269" lon="7.29547">
        <ele>392.39999389648</ele>
        <time>2013-12-21T11:21:42.000Z</time>
      </trkpt>
      <trkpt lat="43.95283" lon="7.29551">
        <ele>393.20001220703</ele>
        <time>2013-12-21T11:21:47.000Z</time>
      </trkpt>
      <trkpt lat="43.95307" lon="7.29567">
        <ele>395</ele>
        <time>2013-12-21T11:21:56.000Z</time>
      </trkpt>
      <trkpt lat="43.95331" lon="7.29583">
        <ele>396.60000610352</ele>
        <time>2013-12-21T11:22:05.000Z</time>
      </trkpt>
      <trkpt lat="43.95348" lon="7.29592">
        <ele>398.39999389648</ele>
        <time>2013-12-21T11:22:12.000Z</time>
      </trkpt>
      <trkpt lat="43.95366" lon="7.29599">
        <ele>400</ele>
        <time>2013-12-21T11:22:18.000Z</time>
      </trkpt>
      <trkpt lat="43.95385" lon="7.29611">
        <ele>401.39999389648</ele>
        <time>2013-12-21T11:22:24.000Z</time>
      </trkpt>
      <trkpt lat="43.95401" lon="7.29633">
        <ele>403</ele>
        <time>2013-12-21T11:22:31.000Z</time>
      </trkpt>
      <trkpt lat="43.9542" lon="7.29658">
        <ele>404.20001220703</ele>
        <time>2013-12-21T11:22:39.000Z</time>
      </trkpt>
      <trkpt lat="43.95433" lon="7.29682">
        <ele>404.79998779297</ele>
        <time>2013-12-21T11:22:46.000Z</time>
      </trkpt>
      <trkpt lat="43.95447" lon="7.29709">
        <ele>405.20001220703</ele>
        <time>2013-12-21T11:22:54.000Z</time>
      </trkpt>
      <trkpt lat="43.95459" lon="7.29735">
        <ele>405.39999389648</ele>
        <time>2013-12-21T11:23:02.000Z</time>
      </trkpt>
      <trkpt lat="43.95478" lon="7.29762">
        <ele>405.79998779297</ele>
        <time>2013-12-21T11:23:12.000Z</time>
      </trkpt>
      <trkpt lat="43.955" lon="7.29768">
        <ele>406.39999389648</ele>
        <time>2013-12-21T11:23:19.000Z</time>
      </trkpt>
      <trkpt lat="43.95517" lon="7.29767">
        <ele>408.39999389648</ele>
        <time>2013-12-21T11:23:25.000Z</time>
      </trkpt>
      <trkpt lat="43.95541" lon="7.29762">
        <ele>410.20001220703</ele>
        <time>2013-12-21T11:23:33.000Z</time>
      </trkpt>
      <trkpt lat="43.95563" lon="7.29763">
        <ele>411.79998779297</ele>
        <time>2013-12-21T11:23:40.000Z</time>
      </trkpt>
      <trkpt lat="43.95581" lon="7.29769">
        <ele>412.60000610352</ele>
        <time>2013-12-21T11:23:46.000Z</time>
      </trkpt>
      <trkpt lat="43.95606" lon="7.29783">
        <ele>413.60000610352</ele>
        <time>2013-12-21T11:23:55.000Z</time>
      </trkpt>
      <trkpt lat="43.95621" lon="7.29793">
        <ele>414.20001220703</ele>
        <time>2013-12-21T11:24:01.000Z</time>
      </trkpt>
      <trkpt lat="43.95643" lon="7.29813">
        <ele>415.20001220703</ele>
        <time>2013-12-21T11:24:09.000Z</time>
      </trkpt>
      <trkpt lat="43.95666" lon="7.2984">
        <ele>416</ele>
        <time>2013-12-21T11:24:18.000Z</time>
      </trkpt>
      <trkpt lat="43.95685" lon="7.29866">
        <ele>416.60000610352</ele>
        <time>2013-12-21T11:24:26.000Z</time>
      </trkpt>
      <trkpt lat="43.95699" lon="7.29887">
        <ele>416.60000610352</ele>
        <time>2013-12-21T11:24:33.000Z</time>
      </trkpt>
      <trkpt lat="43.95724" lon="7.29915">
        <ele>416.79998779297</ele>
        <time>2013-12-21T11:24:42.000Z</time>
      </trkpt>
      <trkpt lat="43.95744" lon="7.29925">
        <ele>417.20001220703</ele>
        <time>2013-12-21T11:24:48.000Z</time>
      </trkpt>
      <trkpt lat="43.95771" lon="7.29923">
        <ele>417.60000610352</ele>
        <time>2013-12-21T11:24:54.000Z</time>
      </trkpt>
      <trkpt lat="43.95793" lon="7.29923">
        <ele>417.79998779297</ele>
        <time>2013-12-21T11:24:58.000Z</time>
      </trkpt>
      <trkpt lat="43.95802" lon="7.2993">
        <ele>418</ele>
        <time>2013-12-21T11:25:00.000Z</time>
      </trkpt>
      <trkpt lat="43.95811" lon="7.2994">
        <ele>418.20001220703</ele>
        <time>2013-12-21T11:25:02.000Z</time>
      </trkpt>
      <trkpt lat="43.95819" lon="7.2995">
        <ele>418.39999389648</ele>
        <time>2013-12-21T11:25:04.000Z</time>
      </trkpt>
      <trkpt lat="43.95822" lon="7.29956">
        <ele>418.39999389648</ele>
        <time>2013-12-21T11:25:05.000Z</time>
      </trkpt>
      <trkpt lat="43.95829" lon="7.29972">
        <ele>419</ele>
        <time>2013-12-21T11:25:08.000Z</time>
      </trkpt>
      <trkpt lat="43.95834" lon="7.29983">
        <ele>419.20001220703</ele>
        <time>2013-12-21T11:25:10.000Z</time>
      </trkpt>
      <trkpt lat="43.95835" lon="7.29988">
        <ele>419.39999389648</ele>
        <time>2013-12-21T11:25:11.000Z</time>
      </trkpt>
      <trkpt lat="43.95841" lon="7.30005">
        <ele>420</ele>
        <time>2013-12-21T11:25:14.000Z</time>
      </trkpt>
      <trkpt lat="43.95847" lon="7.30017">
        <ele>420.39999389648</ele>
        <time>2013-12-21T11:25:16.000Z</time>
      </trkpt>
      <trkpt lat="43.95852" lon="7.3003">
        <ele>421.20001220703</ele>
        <time>2013-12-21T11:25:18.000Z</time>
      </trkpt>
      <trkpt lat="43.95863" lon="7.30056">
        <ele>422.39999389648</ele>
        <time>2013-12-21T11:25:22.000Z</time>
      </trkpt>
      <trkpt lat="43.95874" lon="7.30094">
        <ele>423.20001220703</ele>
        <time>2013-12-21T11:25:27.000Z</time>
      </trkpt>
      <trkpt lat="43.95874" lon="7.30101">
        <ele>423.60000610352</ele>
        <time>2013-12-21T11:25:28.000Z</time>
      </trkpt>
      <trkpt lat="43.95879" lon="7.30154">
        <ele>426.20001220703</ele>
        <time>2013-12-21T11:25:35.000Z</time>
      </trkpt>
      <trkpt lat="43.95887" lon="7.30222">
        <ele>429</ele>
        <time>2013-12-21T11:25:44.000Z</time>
      </trkpt>
      <trkpt lat="43.95892" lon="7.30242">
        <ele>429.79998779297</ele>
        <time>2013-12-21T11:25:47.000Z</time>
      </trkpt>
      <trkpt lat="43.95897" lon="7.30255">
        <ele>429.60000610352</ele>
        <time>2013-12-21T11:25:49.000Z</time>
      </trkpt>
      <trkpt lat="43.95902" lon="7.30267">
        <ele>429.39999389648</ele>
        <time>2013-12-21T11:25:51.000Z</time>
      </trkpt>
      <trkpt lat="43.95914" lon="7.30277">
        <ele>429.39999389648</ele>
        <time>2013-12-21T11:25:54.000Z</time>
      </trkpt>
      <trkpt lat="43.9594" lon="7.30279">
        <ele>429.20001220703</ele>
        <time>2013-12-21T11:25:58.000Z</time>
      </trkpt>
      <trkpt lat="43.95953" lon="7.30277">
        <ele>429</ele>
        <time>2013-12-21T11:26:00.000Z</time>
      </trkpt>
      <trkpt lat="43.95976" lon="7.30268">
        <ele>428.60000610352</ele>
        <time>2013-12-21T11:26:04.000Z</time>
      </trkpt>
      <trkpt lat="43.95992" lon="7.30261">
        <ele>428.20001220703</ele>
        <time>2013-12-21T11:26:07.000Z</time>
      </trkpt>
      <trkpt lat="43.96002" lon="7.30261">
        <ele>428.20001220703</ele>
        <time>2013-12-21T11:26:09.000Z</time>
      </trkpt>
      <trkpt lat="43.96033" lon="7.30258">
        <ele>427.79998779297</ele>
        <time>2013-12-21T11:26:15.000Z</time>
      </trkpt>
      <trkpt lat="43.96065" lon="7.30272">
        <ele>427.60000610352</ele>
        <time>2013-12-21T11:26:21.000Z</time>
      </trkpt>
      <trkpt lat="43.96095" lon="7.30283">
        <ele>427.39999389648</ele>
        <time>2013-12-21T11:26:27.000Z</time>
      </trkpt>
      <trkpt lat="43.961" lon="7.30285">
        <ele>427.20001220703</ele>
        <time>2013-12-21T11:26:28.000Z</time>
      </trkpt>
      <trkpt lat="43.96105" lon="7.30287">
        <ele>427.20001220703</ele>
        <time>2013-12-21T11:26:29.000Z</time>
      </trkpt>
      <trkpt lat="43.96125" lon="7.30302">
        <ele>427</ele>
        <time>2013-12-21T11:26:33.000Z</time>
      </trkpt>
      <trkpt lat="43.96155" lon="7.30313">
        <ele>426.79998779297</ele>
        <time>2013-12-21T11:26:39.000Z</time>
      </trkpt>
      <trkpt lat="43.96185" lon="7.30311">
        <ele>426.39999389648</ele>
        <time>2013-12-21T11:26:44.000Z</time>
      </trkpt>
      <trkpt lat="43.9623" lon="7.3031">
        <ele>426.20001220703</ele>
        <time>2013-12-21T11:26:51.000Z</time>
      </trkpt>
      <trkpt lat="43.96268" lon="7.30308">
        <ele>425.39999389648</ele>
        <time>2013-12-21T11:26:58.000Z</time>
      </trkpt>
      <trkpt lat="43.96287" lon="7.30289">
        <ele>425</ele>
        <time>2013-12-21T11:27:03.000Z</time>
      </trkpt>
      <trkpt lat="43.96316" lon="7.30251">
        <ele>424.39999389648</ele>
        <time>2013-12-21T11:27:10.000Z</time>
      </trkpt>
      <trkpt lat="43.96344" lon="7.3023">
        <ele>423.79998779297</ele>
        <time>2013-12-21T11:27:16.000Z</time>
      </trkpt>
      <trkpt lat="43.96358" lon="7.30227">
        <ele>423.39999389648</ele>
        <time>2013-12-21T11:27:19.000Z</time>
      </trkpt>
      <trkpt lat="43.9637" lon="7.30221">
        <ele>423.20001220703</ele>
        <time>2013-12-21T11:27:22.000Z</time>
      </trkpt>
      <trkpt lat="43.96374" lon="7.3022">
        <ele>423</ele>
        <time>2013-12-21T11:27:23.000Z</time>
      </trkpt>
      <trkpt lat="43.964" lon="7.30212">
        <ele>422.60000610352</ele>
        <time>2013-12-21T11:27:29.000Z</time>
      </trkpt>
      <trkpt lat="43.96404" lon="7.30213">
        <ele>422.60000610352</ele>
        <time>2013-12-21T11:27:30.000Z</time>
      </trkpt>
      <trkpt lat="43.96421" lon="7.3022">
        <ele>422.20001220703</ele>
        <time>2013-12-21T11:27:34.000Z</time>
      </trkpt>
      <trkpt lat="43.96428" lon="7.30225">
        <ele>422</ele>
        <time>2013-12-21T11:27:36.000Z</time>
      </trkpt>
      <trkpt lat="43.96464" lon="7.30245">
        <ele>421.39999389648</ele>
        <time>2013-12-21T11:27:45.000Z</time>
      </trkpt>
      <trkpt lat="43.9649" lon="7.30258">
        <ele>420.60000610352</ele>
        <time>2013-12-21T11:27:52.000Z</time>
      </trkpt>
      <trkpt lat="43.96516" lon="7.30285">
        <ele>420</ele>
        <time>2013-12-21T11:28:00.000Z</time>
      </trkpt>
      <trkpt lat="43.96545" lon="7.30325">
        <ele>419.20001220703</ele>
        <time>2013-12-21T11:28:10.000Z</time>
      </trkpt>
      <trkpt lat="43.96558" lon="7.30353">
        <ele>418.79998779297</ele>
        <time>2013-12-21T11:28:16.000Z</time>
      </trkpt>
      <trkpt lat="43.96561" lon="7.30358">
        <ele>418.79998779297</ele>
        <time>2013-12-21T11:28:17.000Z</time>
      </trkpt>
      <trkpt lat="43.96567" lon="7.30365">
        <ele>418.79998779297</ele>
        <time>2013-12-21T11:28:19.000Z</time>
      </trkpt>
      <trkpt lat="43.96581" lon="7.30375">
        <ele>418.60000610352</ele>
        <time>2013-12-21T11:28:23.000Z</time>
      </trkpt>
      <trkpt lat="43.96607" lon="7.30396">
        <ele>418.20001220703</ele>
        <time>2013-12-21T11:28:31.000Z</time>
      </trkpt>
      <trkpt lat="43.96638" lon="7.30422">
        <ele>417.79998779297</ele>
        <time>2013-12-21T11:28:40.000Z</time>
      </trkpt>
      <trkpt lat="43.96664" lon="7.30438">
        <ele>417.39999389648</ele>
        <time>2013-12-21T11:28:47.000Z</time>
      </trkpt>
      <trkpt lat="43.96672" lon="7.30441">
        <ele>417.39999389648</ele>
        <time>2013-12-21T11:28:49.000Z</time>
      </trkpt>
      <trkpt lat="43.96692" lon="7.30443">
        <ele>417.39999389648</ele>
        <time>2013-12-21T11:28:54.000Z</time>
      </trkpt>
      <trkpt lat="43.96707" lon="7.30457">
        <ele>417.20001220703</ele>
        <time>2013-12-21T11:28:59.000Z</time>
      </trkpt>
      <trkpt lat="43.96727" lon="7.30476">
        <ele>417.20001220703</ele>
        <time>2013-12-21T11:29:05.000Z</time>
      </trkpt>
      <trkpt lat="43.96754" lon="7.30496">
        <ele>417.20001220703</ele>
        <time>2013-12-21T11:29:13.000Z</time>
      </trkpt>
      <trkpt lat="43.96783" lon="7.30522">
        <ele>417.20001220703</ele>
        <time>2013-12-21T11:29:22.000Z</time>
      </trkpt>
      <trkpt lat="43.96812" lon="7.30536">
        <ele>417.79998779297</ele>
        <time>2013-12-21T11:29:30.000Z</time>
      </trkpt>
      <trkpt lat="43.96839" lon="7.30549">
        <ele>418.60000610352</ele>
        <time>2013-12-21T11:29:37.000Z</time>
      </trkpt>
      <trkpt lat="43.96858" lon="7.30565">
        <ele>418.79998779297</ele>
        <time>2013-12-21T11:29:43.000Z</time>
      </trkpt>
      <trkpt lat="43.96875" lon="7.30589">
        <ele>418.79998779297</ele>
        <time>2013-12-21T11:29:49.000Z</time>
      </trkpt>
      <trkpt lat="43.96903" lon="7.3063">
        <ele>418.79998779297</ele>
        <time>2013-12-21T11:29:58.000Z</time>
      </trkpt>
      <trkpt lat="43.96917" lon="7.30658">
        <ele>419</ele>
        <time>2013-12-21T11:30:04.000Z</time>
      </trkpt>
      <trkpt lat="43.96927" lon="7.30696">
        <ele>419.20001220703</ele>
        <time>2013-12-21T11:30:11.000Z</time>
      </trkpt>
      <trkpt lat="43.96935" lon="7.30734">
        <ele>420.39999389648</ele>
        <time>2013-12-21T11:30:18.000Z</time>
      </trkpt>
      <trkpt lat="43.96947" lon="7.30753">
        <ele>420.79998779297</ele>
        <time>2013-12-21T11:30:22.000Z</time>
      </trkpt>
      <trkpt lat="43.9695" lon="7.30757">
        <ele>420.79998779297</ele>
        <time>2013-12-21T11:30:23.000Z</time>
      </trkpt>
      <trkpt lat="43.96952" lon="7.30761">
        <ele>420.79998779297</ele>
        <time>2013-12-21T11:30:24.000Z</time>
      </trkpt>
      <trkpt lat="43.9696" lon="7.30773">
        <ele>421.20001220703</ele>
        <time>2013-12-21T11:30:27.000Z</time>
      </trkpt>
      <trkpt lat="43.96962" lon="7.30778">
        <ele>421.39999389648</ele>
        <time>2013-12-21T11:30:28.000Z</time>
      </trkpt>
      <trkpt lat="43.9696" lon="7.30801">
        <ele>422.60000610352</ele>
        <time>2013-12-21T11:30:32.000Z</time>
      </trkpt>
      <trkpt lat="43.96958" lon="7.30827">
        <ele>424.20001220703</ele>
        <time>2013-12-21T11:30:36.000Z</time>
      </trkpt>
      <trkpt lat="43.96954" lon="7.30862">
        <ele>426.39999389648</ele>
        <time>2013-12-21T11:30:42.000Z</time>
      </trkpt>
      <trkpt lat="43.96944" lon="7.30883">
        <ele>427.60000610352</ele>
        <time>2013-12-21T11:30:47.000Z</time>
      </trkpt>
      <trkpt lat="43.96938" lon="7.30905">
        <ele>428.60000610352</ele>
        <time>2013-12-21T11:30:51.000Z</time>
      </trkpt>
      <trkpt lat="43.96938" lon="7.30912">
        <ele>428.79998779297</ele>
        <time>2013-12-21T11:30:52.000Z</time>
      </trkpt>
      <trkpt lat="43.96945" lon="7.30935">
        <ele>429</ele>
        <time>2013-12-21T11:30:56.000Z</time>
      </trkpt>
      <trkpt lat="43.96949" lon="7.30945">
        <ele>429.20001220703</ele>
        <time>2013-12-21T11:30:58.000Z</time>
      </trkpt>
      <trkpt lat="43.96951" lon="7.3095">
        <ele>429.39999389648</ele>
        <time>2013-12-21T11:30:59.000Z</time>
      </trkpt>
      <trkpt lat="43.96961" lon="7.30964">
        <ele>429.60000610352</ele>
        <time>2013-12-21T11:31:03.000Z</time>
      </trkpt>
      <trkpt lat="43.96972" lon="7.30984">
        <ele>429.60000610352</ele>
        <time>2013-12-21T11:31:09.000Z</time>
      </trkpt>
      <trkpt lat="43.9697" lon="7.3099">
        <ele>429.60000610352</ele>
        <time>2013-12-21T11:31:11.000Z</time>
      </trkpt>
      <trkpt lat="43.96967" lon="7.30995">
        <ele>429.60000610352</ele>
        <time>2013-12-21T11:31:13.000Z</time>
      </trkpt>
      <trkpt lat="43.96958" lon="7.31013">
        <ele>429.60000610352</ele>
        <time>2013-12-21T11:31:21.000Z</time>
      </trkpt>
      <trkpt lat="43.96953" lon="7.31017">
        <ele>429.60000610352</ele>
        <time>2013-12-21T11:31:27.000Z</time>
      </trkpt>
      <trkpt lat="43.96951" lon="7.31018">
        <ele>429.60000610352</ele>
        <time>2013-12-21T11:31:32.000Z</time>
      </trkpt>
      <trkpt lat="43.96952" lon="7.31018">
        <ele>431</ele>
        <time>2013-12-21T11:31:42.000Z</time>
      </trkpt>
      <trkpt lat="43.96953" lon="7.31022">
        <ele>429.60000610352</ele>
        <time>2013-12-21T11:32:19.000Z</time>
      </trkpt>
      <trkpt lat="43.96952" lon="7.31024">
        <ele>429.60000610352</ele>
        <time>2013-12-21T11:32:28.000Z</time>
      </trkpt>
      <trkpt lat="43.96948" lon="7.31023">
        <ele>429</ele>
        <time>2013-12-21T11:32:45.000Z</time>
      </trkpt>
      <trkpt lat="43.9695" lon="7.31025">
        <ele>428.79998779297</ele>
        <time>2013-12-21T11:32:48.000Z</time>
      </trkpt>
      <trkpt lat="43.96954" lon="7.3101">
        <ele>441</ele>
        <time>2013-12-21T11:33:48.000Z</time>
      </trkpt>
      <trkpt lat="43.96953" lon="7.31014">
        <ele>441.39999389648</ele>
        <time>2013-12-21T11:33:53.000Z</time>
      </trkpt>
      <trkpt lat="43.96948" lon="7.31013">
        <ele>441.60000610352</ele>
        <time>2013-12-21T11:33:56.000Z</time>
      </trkpt>
      <trkpt lat="43.96942" lon="7.31011">
        <ele>441.39999389648</ele>
        <time>2013-12-21T11:33:58.000Z</time>
      </trkpt>
      <trkpt lat="43.96932" lon="7.31008">
        <ele>441.20001220703</ele>
        <time>2013-12-21T11:34:02.000Z</time>
      </trkpt>
      <trkpt lat="43.96909" lon="7.30992">
        <ele>440.79998779297</ele>
        <time>2013-12-21T11:34:11.000Z</time>
      </trkpt>
      <trkpt lat="43.9689" lon="7.30983">
        <ele>440.20001220703</ele>
        <time>2013-12-21T11:34:18.000Z</time>
      </trkpt>
      <trkpt lat="43.96868" lon="7.30968">
        <ele>439.39999389648</ele>
        <time>2013-12-21T11:34:26.000Z</time>
      </trkpt>
      <trkpt lat="43.96853" lon="7.30958">
        <ele>439</ele>
        <time>2013-12-21T11:34:32.000Z</time>
      </trkpt>
      <trkpt lat="43.96839" lon="7.30943">
        <ele>438.60000610352</ele>
        <time>2013-12-21T11:34:38.000Z</time>
      </trkpt>
      <trkpt lat="43.96821" lon="7.30929">
        <ele>438</ele>
        <time>2013-12-21T11:34:46.000Z</time>
      </trkpt>
      <trkpt lat="43.96798" lon="7.30918">
        <ele>437.39999389648</ele>
        <time>2013-12-21T11:34:54.000Z</time>
      </trkpt>
      <trkpt lat="43.96777" lon="7.30903">
        <ele>436.79998779297</ele>
        <time>2013-12-21T11:35:02.000Z</time>
      </trkpt>
      <trkpt lat="43.96761" lon="7.30884">
        <ele>436.60000610352</ele>
        <time>2013-12-21T11:35:10.000Z</time>
      </trkpt>
      <trkpt lat="43.96744" lon="7.30866">
        <ele>436.79998779297</ele>
        <time>2013-12-21T11:35:17.000Z</time>
      </trkpt>
      <trkpt lat="43.96725" lon="7.30852">
        <ele>437</ele>
        <time>2013-12-21T11:35:25.000Z</time>
      </trkpt>
      <trkpt lat="43.9671" lon="7.30837">
        <ele>438.20001220703</ele>
        <time>2013-12-21T11:35:32.000Z</time>
      </trkpt>
      <trkpt lat="43.96688" lon="7.30821">
        <ele>439.20001220703</ele>
        <time>2013-12-21T11:35:41.000Z</time>
      </trkpt>
      <trkpt lat="43.96676" lon="7.30818">
        <ele>439.60000610352</ele>
        <time>2013-12-21T11:35:46.000Z</time>
      </trkpt>
      <trkpt lat="43.96674" lon="7.30821">
        <ele>439.79998779297</ele>
        <time>2013-12-21T11:35:47.000Z</time>
      </trkpt>
      <trkpt lat="43.96669" lon="7.30835">
        <ele>439.79998779297</ele>
        <time>2013-12-21T11:35:51.000Z</time>
      </trkpt>
      <trkpt lat="43.96669" lon="7.30844">
        <ele>439.79998779297</ele>
        <time>2013-12-21T11:35:53.000Z</time>
      </trkpt>
      <trkpt lat="43.96672" lon="7.30859">
        <ele>441.79998779297</ele>
        <time>2013-12-21T11:35:58.000Z</time>
      </trkpt>
      <trkpt lat="43.96663" lon="7.30873">
        <ele>444.39999389648</ele>
        <time>2013-12-21T11:36:03.000Z</time>
      </trkpt>
      <trkpt lat="43.96653" lon="7.30882">
        <ele>446.60000610352</ele>
        <time>2013-12-21T11:36:08.000Z</time>
      </trkpt>
      <trkpt lat="43.96636" lon="7.30887">
        <ele>448.39999389648</ele>
        <time>2013-12-21T11:36:15.000Z</time>
      </trkpt>
      <trkpt lat="43.96618" lon="7.309">
        <ele>449</ele>
        <time>2013-12-21T11:36:22.000Z</time>
      </trkpt>
      <trkpt lat="43.96602" lon="7.30917">
        <ele>449</ele>
        <time>2013-12-21T11:36:29.000Z</time>
      </trkpt>
      <trkpt lat="43.96583" lon="7.30937">
        <ele>448.60000610352</ele>
        <time>2013-12-21T11:36:37.000Z</time>
      </trkpt>
      <trkpt lat="43.96567" lon="7.30944">
        <ele>448.60000610352</ele>
        <time>2013-12-21T11:36:43.000Z</time>
      </trkpt>
      <trkpt lat="43.96546" lon="7.30952">
        <ele>448</ele>
        <time>2013-12-21T11:36:49.000Z</time>
      </trkpt>
      <trkpt lat="43.96519" lon="7.30957">
        <ele>447.39999389648</ele>
        <time>2013-12-21T11:36:58.000Z</time>
      </trkpt>
      <trkpt lat="43.96499" lon="7.30949">
        <ele>446.39999389648</ele>
        <time>2013-12-21T11:37:06.000Z</time>
      </trkpt>
      <trkpt lat="43.96496" lon="7.30937">
        <ele>446</ele>
        <time>2013-12-21T11:37:10.000Z</time>
      </trkpt>
      <trkpt lat="43.96504" lon="7.30929">
        <ele>445.60000610352</ele>
        <time>2013-12-21T11:37:14.000Z</time>
      </trkpt>
      <trkpt lat="43.96522" lon="7.30923">
        <ele>445.39999389648</ele>
        <time>2013-12-21T11:37:20.000Z</time>
      </trkpt>
      <trkpt lat="43.96532" lon="7.30923">
        <ele>445.20001220703</ele>
        <time>2013-12-21T11:37:23.000Z</time>
      </trkpt>
      <trkpt lat="43.96532" lon="7.30896">
        <ele>446.79998779297</ele>
        <time>2013-12-21T11:37:26.000Z</time>
      </trkpt>
      <trkpt lat="43.96539" lon="7.30875">
        <ele>448.20001220703</ele>
        <time>2013-12-21T11:37:31.000Z</time>
      </trkpt>
      <trkpt lat="43.9654" lon="7.30867">
        <ele>448.79998779297</ele>
        <time>2013-12-21T11:37:33.000Z</time>
      </trkpt>
      <trkpt lat="43.96538" lon="7.3085">
        <ele>449.60000610352</ele>
        <time>2013-12-21T11:37:37.000Z</time>
      </trkpt>
      <trkpt lat="43.96537" lon="7.30846">
        <ele>449.79998779297</ele>
        <time>2013-12-21T11:37:38.000Z</time>
      </trkpt>
      <trkpt lat="43.96525" lon="7.30817">
        <ele>451.39999389648</ele>
        <time>2013-12-21T11:37:46.000Z</time>
      </trkpt>
      <trkpt lat="43.96515" lon="7.30798">
        <ele>452.39999389648</ele>
        <time>2013-12-21T11:37:52.000Z</time>
      </trkpt>
      <trkpt lat="43.96507" lon="7.30796">
        <ele>452.60000610352</ele>
        <time>2013-12-21T11:37:55.000Z</time>
      </trkpt>
      <trkpt lat="43.96502" lon="7.308">
        <ele>452.39999389648</ele>
        <time>2013-12-21T11:37:57.000Z</time>
      </trkpt>
      <trkpt lat="43.96506" lon="7.3081">
        <ele>452.60000610352</ele>
        <time>2013-12-21T11:38:00.000Z</time>
      </trkpt>
      <trkpt lat="43.96515" lon="7.30819">
        <ele>453</ele>
        <time>2013-12-21T11:38:03.000Z</time>
      </trkpt>
      <trkpt lat="43.9652" lon="7.30825">
        <ele>453.39999389648</ele>
        <time>2013-12-21T11:38:05.000Z</time>
      </trkpt>
      <trkpt lat="43.96528" lon="7.30846">
        <ele>454</ele>
        <time>2013-12-21T11:38:11.000Z</time>
      </trkpt>
      <trkpt lat="43.96526" lon="7.30865">
        <ele>455.20001220703</ele>
        <time>2013-12-21T11:38:17.000Z</time>
      </trkpt>
      <trkpt lat="43.9652" lon="7.30881">
        <ele>456.20001220703</ele>
        <time>2013-12-21T11:38:23.000Z</time>
      </trkpt>
      <trkpt lat="43.96508" lon="7.30893">
        <ele>456.79998779297</ele>
        <time>2013-12-21T11:38:29.000Z</time>
      </trkpt>
      <trkpt lat="43.96501" lon="7.30897">
        <ele>457.20001220703</ele>
        <time>2013-12-21T11:38:32.000Z</time>
      </trkpt>
      <trkpt lat="43.96495" lon="7.30899">
        <ele>457.39999389648</ele>
        <time>2013-12-21T11:38:34.000Z</time>
      </trkpt>
      <trkpt lat="43.96488" lon="7.30905">
        <ele>457.39999389648</ele>
        <time>2013-12-21T11:38:37.000Z</time>
      </trkpt>
      <trkpt lat="43.96486" lon="7.30908">
        <ele>457.79998779297</ele>
        <time>2013-12-21T11:38:40.000Z</time>
      </trkpt>
      <trkpt lat="43.96475" lon="7.30913">
        <ele>458.20001220703</ele>
        <time>2013-12-21T11:38:45.000Z</time>
      </trkpt>
      <trkpt lat="43.96464" lon="7.30915">
        <ele>458.39999389648</ele>
        <time>2013-12-21T11:38:50.000Z</time>
      </trkpt>
      <trkpt lat="43.96462" lon="7.30927">
        <ele>458.60000610352</ele>
        <time>2013-12-21T11:38:52.000Z</time>
      </trkpt>
      <trkpt lat="43.96463" lon="7.30945">
        <ele>458.60000610352</ele>
        <time>2013-12-21T11:38:54.000Z</time>
      </trkpt>
      <trkpt lat="43.96457" lon="7.30981">
        <ele>458.60000610352</ele>
        <time>2013-12-21T11:39:02.000Z</time>
      </trkpt>
      <trkpt lat="43.96449" lon="7.30996">
        <ele>458.79998779297</ele>
        <time>2013-12-21T11:39:07.000Z</time>
      </trkpt>
      <trkpt lat="43.9644" lon="7.31006">
        <ele>459.39999389648</ele>
        <time>2013-12-21T11:39:12.000Z</time>
      </trkpt>
      <trkpt lat="43.96441" lon="7.31015">
        <ele>459</ele>
        <time>2013-12-21T11:39:13.000Z</time>
      </trkpt>
      <trkpt lat="43.9644" lon="7.31025">
        <ele>459</ele>
        <time>2013-12-21T11:39:16.000Z</time>
      </trkpt>
      <trkpt lat="43.96443" lon="7.31045">
        <ele>459.39999389648</ele>
        <time>2013-12-21T11:39:22.000Z</time>
      </trkpt>
      <trkpt lat="43.96447" lon="7.31072">
        <ele>459.60000610352</ele>
        <time>2013-12-21T11:39:30.000Z</time>
      </trkpt>
      <trkpt lat="43.96448" lon="7.31092">
        <ele>460</ele>
        <time>2013-12-21T11:39:36.000Z</time>
      </trkpt>
      <trkpt lat="43.96444" lon="7.31123">
        <ele>460.39999389648</ele>
        <time>2013-12-21T11:39:44.000Z</time>
      </trkpt>
      <trkpt lat="43.9644" lon="7.31139">
        <ele>460.79998779297</ele>
        <time>2013-12-21T11:39:49.000Z</time>
      </trkpt>
      <trkpt lat="43.96437" lon="7.31168">
        <ele>462.60000610352</ele>
        <time>2013-12-21T11:39:57.000Z</time>
      </trkpt>
      <trkpt lat="43.96432" lon="7.31186">
        <ele>463.39999389648</ele>
        <time>2013-12-21T11:40:02.000Z</time>
      </trkpt>
      <trkpt lat="43.96423" lon="7.31205">
        <ele>464.39999389648</ele>
        <time>2013-12-21T11:40:07.000Z</time>
      </trkpt>
      <trkpt lat="43.96413" lon="7.31222">
        <ele>465.39999389648</ele>
        <time>2013-12-21T11:40:12.000Z</time>
      </trkpt>
      <trkpt lat="43.96401" lon="7.31243">
        <ele>468</ele>
        <time>2013-12-21T11:40:18.000Z</time>
      </trkpt>
      <trkpt lat="43.96392" lon="7.31281">
        <ele>474.79998779297</ele>
        <time>2013-12-21T11:40:25.000Z</time>
      </trkpt>
      <trkpt lat="43.96369" lon="7.31264">
        <ele>479.79998779297</ele>
        <time>2013-12-21T11:40:30.000Z</time>
      </trkpt>
      <trkpt lat="43.96366" lon="7.31262">
        <ele>480.39999389648</ele>
        <time>2013-12-21T11:40:31.000Z</time>
      </trkpt>
      <trkpt lat="43.96354" lon="7.31258">
        <ele>482.60000610352</ele>
        <time>2013-12-21T11:40:34.000Z</time>
      </trkpt>
      <trkpt lat="43.9635" lon="7.31257">
        <ele>483.60000610352</ele>
        <time>2013-12-21T11:40:35.000Z</time>
      </trkpt>
      <trkpt lat="43.96346" lon="7.31256">
        <ele>484.60000610352</ele>
        <time>2013-12-21T11:40:36.000Z</time>
      </trkpt>
      <trkpt lat="43.96333" lon="7.31249">
        <ele>487.79998779297</ele>
        <time>2013-12-21T11:40:40.000Z</time>
      </trkpt>
      <trkpt lat="43.96323" lon="7.31242">
        <ele>490.39999389648</ele>
        <time>2013-12-21T11:40:43.000Z</time>
      </trkpt>
      <trkpt lat="43.96314" lon="7.31233">
        <ele>493.20001220703</ele>
        <time>2013-12-21T11:40:46.000Z</time>
      </trkpt>
      <trkpt lat="43.96298" lon="7.31208">
        <ele>499.20001220703</ele>
        <time>2013-12-21T11:40:53.000Z</time>
      </trkpt>
      <trkpt lat="43.96279" lon="7.31187">
        <ele>505.60000610352</ele>
        <time>2013-12-21T11:41:01.000Z</time>
      </trkpt>
      <trkpt lat="43.96261" lon="7.31163">
        <ele>512</ele>
        <time>2013-12-21T11:41:09.000Z</time>
      </trkpt>
      <trkpt lat="43.96259" lon="7.31144">
        <ele>515</ele>
        <time>2013-12-21T11:41:14.000Z</time>
      </trkpt>
      <trkpt lat="43.96251" lon="7.31122">
        <ele>517.79998779297</ele>
        <time>2013-12-21T11:41:20.000Z</time>
      </trkpt>
      <trkpt lat="43.96239" lon="7.31105">
        <ele>519.79998779297</ele>
        <time>2013-12-21T11:41:26.000Z</time>
      </trkpt>
      <trkpt lat="43.96221" lon="7.31087">
        <ele>522.40002441406</ele>
        <time>2013-12-21T11:41:34.000Z</time>
      </trkpt>
      <trkpt lat="43.96218" lon="7.31087">
        <ele>520.79998779297</ele>
        <time>2013-12-21T11:41:40.000Z</time>
      </trkpt>
      <trkpt lat="43.96208" lon="7.31104">
        <ele>520.59997558594</ele>
        <time>2013-12-21T11:41:44.000Z</time>
      </trkpt>
      <trkpt lat="43.96207" lon="7.31134">
        <ele>519.59997558594</ele>
        <time>2013-12-21T11:41:49.000Z</time>
      </trkpt>
      <trkpt lat="43.96214" lon="7.31148">
        <ele>519.40002441406</ele>
        <time>2013-12-21T11:41:53.000Z</time>
      </trkpt>
      <trkpt lat="43.96226" lon="7.31164">
        <ele>518.79998779297</ele>
        <time>2013-12-21T11:41:59.000Z</time>
      </trkpt>
      <trkpt lat="43.96231" lon="7.3119">
        <ele>518.59997558594</ele>
        <time>2013-12-21T11:42:06.000Z</time>
      </trkpt>
      <trkpt lat="43.96236" lon="7.31221">
        <ele>519.59997558594</ele>
        <time>2013-12-21T11:42:15.000Z</time>
      </trkpt>
      <trkpt lat="43.96241" lon="7.31242">
        <ele>522.40002441406</ele>
        <time>2013-12-21T11:42:22.000Z</time>
      </trkpt>
      <trkpt lat="43.96249" lon="7.3126">
        <ele>525.40002441406</ele>
        <time>2013-12-21T11:42:29.000Z</time>
      </trkpt>
      <trkpt lat="43.96271" lon="7.31269">
        <ele>525.79998779297</ele>
        <time>2013-12-21T11:42:35.000Z</time>
      </trkpt>
      <trkpt lat="43.96292" lon="7.31287">
        <ele>524.59997558594</ele>
        <time>2013-12-21T11:42:43.000Z</time>
      </trkpt>
      <trkpt lat="43.96306" lon="7.31311">
        <ele>523</ele>
        <time>2013-12-21T11:42:50.000Z</time>
      </trkpt>
      <trkpt lat="43.96319" lon="7.31326">
        <ele>521.59997558594</ele>
        <time>2013-12-21T11:42:56.000Z</time>
      </trkpt>
      <trkpt lat="43.96325" lon="7.3134">
        <ele>520.40002441406</ele>
        <time>2013-12-21T11:43:01.000Z</time>
      </trkpt>
      <trkpt lat="43.9632" lon="7.31335">
        <ele>520</ele>
        <time>2013-12-21T11:43:03.000Z</time>
      </trkpt>
      <trkpt lat="43.96317" lon="7.31332">
        <ele>520</ele>
        <time>2013-12-21T11:43:04.000Z</time>
      </trkpt>
      <trkpt lat="43.96301" lon="7.31316">
        <ele>518.59997558594</ele>
        <time>2013-12-21T11:43:12.000Z</time>
      </trkpt>
      <trkpt lat="43.96285" lon="7.31296">
        <ele>517.20001220703</ele>
        <time>2013-12-21T11:43:19.000Z</time>
      </trkpt>
      <trkpt lat="43.96272" lon="7.31286">
        <ele>516.20001220703</ele>
        <time>2013-12-21T11:43:25.000Z</time>
      </trkpt>
      <trkpt lat="43.96258" lon="7.31281">
        <ele>515.40002441406</ele>
        <time>2013-12-21T11:43:31.000Z</time>
      </trkpt>
      <trkpt lat="43.96246" lon="7.31273">
        <ele>514.40002441406</ele>
        <time>2013-12-21T11:43:37.000Z</time>
      </trkpt>
      <trkpt lat="43.96235" lon="7.31257">
        <ele>513.59997558594</ele>
        <time>2013-12-21T11:43:43.000Z</time>
      </trkpt>
      <trkpt lat="43.96226" lon="7.31242">
        <ele>513</ele>
        <time>2013-12-21T11:43:48.000Z</time>
      </trkpt>
      <trkpt lat="43.96215" lon="7.31217">
        <ele>512.79998779297</ele>
        <time>2013-12-21T11:43:55.000Z</time>
      </trkpt>
      <trkpt lat="43.96209" lon="7.31207">
        <ele>514.20001220703</ele>
        <time>2013-12-21T11:43:59.000Z</time>
      </trkpt>
      <trkpt lat="43.96208" lon="7.31209">
        <ele>514.20001220703</ele>
        <time>2013-12-21T11:44:00.000Z</time>
      </trkpt>
      <trkpt lat="43.96208" lon="7.31222">
        <ele>515</ele>
        <time>2013-12-21T11:44:03.000Z</time>
      </trkpt>
      <trkpt lat="43.96216" lon="7.31232">
        <ele>515.40002441406</ele>
        <time>2013-12-21T11:44:07.000Z</time>
      </trkpt>
      <trkpt lat="43.96221" lon="7.31242">
        <ele>515.40002441406</ele>
        <time>2013-12-21T11:44:10.000Z</time>
      </trkpt>
      <trkpt lat="43.96224" lon="7.3125">
        <ele>515.59997558594</ele>
        <time>2013-12-21T11:44:13.000Z</time>
      </trkpt>
      <trkpt lat="43.96234" lon="7.31275">
        <ele>515.40002441406</ele>
        <time>2013-12-21T11:44:22.000Z</time>
      </trkpt>
      <trkpt lat="43.96247" lon="7.31289">
        <ele>515.20001220703</ele>
        <time>2013-12-21T11:44:30.000Z</time>
      </trkpt>
      <trkpt lat="43.96261" lon="7.313">
        <ele>515</ele>
        <time>2013-12-21T11:44:36.000Z</time>
      </trkpt>
      <trkpt lat="43.96275" lon="7.3132">
        <ele>515.59997558594</ele>
        <time>2013-12-21T11:44:43.000Z</time>
      </trkpt>
      <trkpt lat="43.96286" lon="7.31342">
        <ele>516.40002441406</ele>
        <time>2013-12-21T11:44:50.000Z</time>
      </trkpt>
      <trkpt lat="43.96301" lon="7.31355">
        <ele>517.20001220703</ele>
        <time>2013-12-21T11:44:56.000Z</time>
      </trkpt>
      <trkpt lat="43.96318" lon="7.31371">
        <ele>518.79998779297</ele>
        <time>2013-12-21T11:45:03.000Z</time>
      </trkpt>
      <trkpt lat="43.96334" lon="7.31374">
        <ele>520</ele>
        <time>2013-12-21T11:45:09.000Z</time>
      </trkpt>
      <trkpt lat="43.96352" lon="7.31361">
        <ele>521.40002441406</ele>
        <time>2013-12-21T11:45:15.000Z</time>
      </trkpt>
      <trkpt lat="43.96361" lon="7.31356">
        <ele>522.40002441406</ele>
        <time>2013-12-21T11:45:19.000Z</time>
      </trkpt>
      <trkpt lat="43.96364" lon="7.31361">
        <ele>522.59997558594</ele>
        <time>2013-12-21T11:45:21.000Z</time>
      </trkpt>
      <trkpt lat="43.96359" lon="7.31369">
        <ele>523</ele>
        <time>2013-12-21T11:45:24.000Z</time>
      </trkpt>
      <trkpt lat="43.96349" lon="7.31377">
        <ele>523.40002441406</ele>
        <time>2013-12-21T11:45:28.000Z</time>
      </trkpt>
      <trkpt lat="43.96343" lon="7.3138">
        <ele>523.20001220703</ele>
        <time>2013-12-21T11:45:30.000Z</time>
      </trkpt>
      <trkpt lat="43.96323" lon="7.31384">
        <ele>523.40002441406</ele>
        <time>2013-12-21T11:45:37.000Z</time>
      </trkpt>
      <trkpt lat="43.96313" lon="7.31375">
        <ele>523.40002441406</ele>
        <time>2013-12-21T11:45:41.000Z</time>
      </trkpt>
      <trkpt lat="43.96295" lon="7.31368">
        <ele>523</ele>
        <time>2013-12-21T11:45:46.000Z</time>
      </trkpt>
      <trkpt lat="43.96274" lon="7.31361">
        <ele>522.20001220703</ele>
        <time>2013-12-21T11:45:53.000Z</time>
      </trkpt>
      <trkpt lat="43.96258" lon="7.31345">
        <ele>521.59997558594</ele>
        <time>2013-12-21T11:46:00.000Z</time>
      </trkpt>
      <trkpt lat="43.96241" lon="7.31327">
        <ele>521.20001220703</ele>
        <time>2013-12-21T11:46:08.000Z</time>
      </trkpt>
      <trkpt lat="43.9623" lon="7.31325">
        <ele>521.20001220703</ele>
        <time>2013-12-21T11:46:14.000Z</time>
      </trkpt>
      <trkpt lat="43.96216" lon="7.31315">
        <ele>523.40002441406</ele>
        <time>2013-12-21T11:46:21.000Z</time>
      </trkpt>
      <trkpt lat="43.96204" lon="7.31308">
        <ele>525.59997558594</ele>
        <time>2013-12-21T11:46:26.000Z</time>
      </trkpt>
      <trkpt lat="43.96191" lon="7.31297">
        <ele>528</ele>
        <time>2013-12-21T11:46:31.000Z</time>
      </trkpt>
      <trkpt lat="43.96182" lon="7.31278">
        <ele>531</ele>
        <time>2013-12-21T11:46:36.000Z</time>
      </trkpt>
      <trkpt lat="43.96173" lon="7.31255">
        <ele>534</ele>
        <time>2013-12-21T11:46:42.000Z</time>
      </trkpt>
      <trkpt lat="43.96157" lon="7.31244">
        <ele>535.79998779297</ele>
        <time>2013-12-21T11:46:47.000Z</time>
      </trkpt>
      <trkpt lat="43.96129" lon="7.31228">
        <ele>538.59997558594</ele>
        <time>2013-12-21T11:46:56.000Z</time>
      </trkpt>
      <trkpt lat="43.96109" lon="7.31227">
        <ele>540</ele>
        <time>2013-12-21T11:47:03.000Z</time>
      </trkpt>
      <trkpt lat="43.96089" lon="7.31232">
        <ele>541</ele>
        <time>2013-12-21T11:47:10.000Z</time>
      </trkpt>
      <trkpt lat="43.96075" lon="7.3125">
        <ele>541.79998779297</ele>
        <time>2013-12-21T11:47:16.000Z</time>
      </trkpt>
      <trkpt lat="43.96058" lon="7.31274">
        <ele>543.20001220703</ele>
        <time>2013-12-21T11:47:24.000Z</time>
      </trkpt>
      <trkpt lat="43.96045" lon="7.31282">
        <ele>543.59997558594</ele>
        <time>2013-12-21T11:47:29.000Z</time>
      </trkpt>
      <trkpt lat="43.96031" lon="7.31299">
        <ele>544.59997558594</ele>
        <time>2013-12-21T11:47:35.000Z</time>
      </trkpt>
      <trkpt lat="43.96014" lon="7.31328">
        <ele>546.20001220703</ele>
        <time>2013-12-21T11:47:44.000Z</time>
      </trkpt>
      <trkpt lat="43.96013" lon="7.31353">
        <ele>547.20001220703</ele>
        <time>2013-12-21T11:47:50.000Z</time>
      </trkpt>
      <trkpt lat="43.96018" lon="7.31376">
        <ele>548.40002441406</ele>
        <time>2013-12-21T11:47:56.000Z</time>
      </trkpt>
      <trkpt lat="43.96016" lon="7.314">
        <ele>549.20001220703</ele>
        <time>2013-12-21T11:48:02.000Z</time>
      </trkpt>
      <trkpt lat="43.96006" lon="7.31433">
        <ele>550</ele>
        <time>2013-12-21T11:48:11.000Z</time>
      </trkpt>
      <trkpt lat="43.9599" lon="7.31468">
        <ele>552</ele>
        <time>2013-12-21T11:48:21.000Z</time>
      </trkpt>
      <trkpt lat="43.95979" lon="7.315">
        <ele>553.59997558594</ele>
        <time>2013-12-21T11:48:30.000Z</time>
      </trkpt>
      <trkpt lat="43.95976" lon="7.31522">
        <ele>554.40002441406</ele>
        <time>2013-12-21T11:48:36.000Z</time>
      </trkpt>
      <trkpt lat="43.95978" lon="7.3154">
        <ele>554.79998779297</ele>
        <time>2013-12-21T11:48:42.000Z</time>
      </trkpt>
      <trkpt lat="43.9599" lon="7.31555">
        <ele>554.79998779297</ele>
        <time>2013-12-21T11:48:47.000Z</time>
      </trkpt>
      <trkpt lat="43.96" lon="7.31564">
        <ele>555.40002441406</ele>
        <time>2013-12-21T11:48:52.000Z</time>
      </trkpt>
      <trkpt lat="43.96014" lon="7.31566">
        <ele>556.59997558594</ele>
        <time>2013-12-21T11:48:58.000Z</time>
      </trkpt>
      <trkpt lat="43.96023" lon="7.31573">
        <ele>557.40002441406</ele>
        <time>2013-12-21T11:49:03.000Z</time>
      </trkpt>
      <trkpt lat="43.96034" lon="7.31589">
        <ele>558.79998779297</ele>
        <time>2013-12-21T11:49:09.000Z</time>
      </trkpt>
      <trkpt lat="43.9604" lon="7.31602">
        <ele>559.79998779297</ele>
        <time>2013-12-21T11:49:14.000Z</time>
      </trkpt>
      <trkpt lat="43.96043" lon="7.31625">
        <ele>560.79998779297</ele>
        <time>2013-12-21T11:49:21.000Z</time>
      </trkpt>
      <trkpt lat="43.96051" lon="7.31645">
        <ele>561.79998779297</ele>
        <time>2013-12-21T11:49:26.000Z</time>
      </trkpt>
      <trkpt lat="43.96065" lon="7.31652">
        <ele>562.59997558594</ele>
        <time>2013-12-21T11:49:31.000Z</time>
      </trkpt>
      <trkpt lat="43.96085" lon="7.31662">
        <ele>563.59997558594</ele>
        <time>2013-12-21T11:49:38.000Z</time>
      </trkpt>
      <trkpt lat="43.96095" lon="7.31682">
        <ele>564.20001220703</ele>
        <time>2013-12-21T11:49:44.000Z</time>
      </trkpt>
      <trkpt lat="43.96109" lon="7.31709">
        <ele>564.59997558594</ele>
        <time>2013-12-21T11:49:52.000Z</time>
      </trkpt>
      <trkpt lat="43.96121" lon="7.31735">
        <ele>565</ele>
        <time>2013-12-21T11:49:59.000Z</time>
      </trkpt>
      <trkpt lat="43.96119" lon="7.3176">
        <ele>567.79998779297</ele>
        <time>2013-12-21T11:50:05.000Z</time>
      </trkpt>
      <trkpt lat="43.96108" lon="7.31773">
        <ele>570.59997558594</ele>
        <time>2013-12-21T11:50:10.000Z</time>
      </trkpt>
      <trkpt lat="43.96091" lon="7.31778">
        <ele>574.79998779297</ele>
        <time>2013-12-21T11:50:16.000Z</time>
      </trkpt>
      <trkpt lat="43.96073" lon="7.3178">
        <ele>580.20001220703</ele>
        <time>2013-12-21T11:50:23.000Z</time>
      </trkpt>
      <trkpt lat="43.96065" lon="7.31783">
        <ele>584</ele>
        <time>2013-12-21T11:50:27.000Z</time>
      </trkpt>
      <trkpt lat="43.96045" lon="7.31784">
        <ele>587.79998779297</ele>
        <time>2013-12-21T11:50:32.000Z</time>
      </trkpt>
      <trkpt lat="43.96037" lon="7.31791">
        <ele>589.79998779297</ele>
        <time>2013-12-21T11:50:37.000Z</time>
      </trkpt>
      <trkpt lat="43.96036" lon="7.31799">
        <ele>591</ele>
        <time>2013-12-21T11:50:39.000Z</time>
      </trkpt>
      <trkpt lat="43.96037" lon="7.31803">
        <ele>591.40002441406</ele>
        <time>2013-12-21T11:50:40.000Z</time>
      </trkpt>
      <trkpt lat="43.96042" lon="7.31815">
        <ele>592</ele>
        <time>2013-12-21T11:50:43.000Z</time>
      </trkpt>
      <trkpt lat="43.96044" lon="7.31819">
        <ele>592.20001220703</ele>
        <time>2013-12-21T11:50:44.000Z</time>
      </trkpt>
      <trkpt lat="43.96055" lon="7.31839">
        <ele>594.20001220703</ele>
        <time>2013-12-21T11:50:51.000Z</time>
      </trkpt>
      <trkpt lat="43.9607" lon="7.31868">
        <ele>596.20001220703</ele>
        <time>2013-12-21T11:51:00.000Z</time>
      </trkpt>
      <trkpt lat="43.9608" lon="7.31898">
        <ele>597</ele>
        <time>2013-12-21T11:51:08.000Z</time>
      </trkpt>
      <trkpt lat="43.96086" lon="7.31942">
        <ele>597.20001220703</ele>
        <time>2013-12-21T11:51:18.000Z</time>
      </trkpt>
      <trkpt lat="43.96082" lon="7.31969">
        <ele>597</ele>
        <time>2013-12-21T11:51:25.000Z</time>
      </trkpt>
      <trkpt lat="43.96065" lon="7.3198">
        <ele>597.59997558594</ele>
        <time>2013-12-21T11:51:31.000Z</time>
      </trkpt>
      <trkpt lat="43.96053" lon="7.31974">
        <ele>600</ele>
        <time>2013-12-21T11:51:35.000Z</time>
      </trkpt>
      <trkpt lat="43.96054" lon="7.31971">
        <ele>600.20001220703</ele>
        <time>2013-12-21T11:51:36.000Z</time>
      </trkpt>
      <trkpt lat="43.96054" lon="7.31964">
        <ele>600.79998779297</ele>
        <time>2013-12-21T11:51:38.000Z</time>
      </trkpt>
      <trkpt lat="43.96055" lon="7.31961">
        <ele>601</ele>
        <time>2013-12-21T11:51:39.000Z</time>
      </trkpt>
      <trkpt lat="43.96054" lon="7.31951">
        <ele>601.40002441406</ele>
        <time>2013-12-21T11:51:42.000Z</time>
      </trkpt>
      <trkpt lat="43.96052" lon="7.31941">
        <ele>601.59997558594</ele>
        <time>2013-12-21T11:51:45.000Z</time>
      </trkpt>
      <trkpt lat="43.96043" lon="7.31917">
        <ele>602</ele>
        <time>2013-12-21T11:51:53.000Z</time>
      </trkpt>
      <trkpt lat="43.96034" lon="7.31906">
        <ele>602</ele>
        <time>2013-12-21T11:51:59.000Z</time>
      </trkpt>
      <trkpt lat="43.9602" lon="7.31892">
        <ele>602</ele>
        <time>2013-12-21T11:52:06.000Z</time>
      </trkpt>
      <trkpt lat="43.96005" lon="7.31881">
        <ele>601.59997558594</ele>
        <time>2013-12-21T11:52:12.000Z</time>
      </trkpt>
      <trkpt lat="43.95988" lon="7.31866">
        <ele>601.40002441406</ele>
        <time>2013-12-21T11:52:19.000Z</time>
      </trkpt>
      <trkpt lat="43.95975" lon="7.31846">
        <ele>601.20001220703</ele>
        <time>2013-12-21T11:52:26.000Z</time>
      </trkpt>
      <trkpt lat="43.95964" lon="7.3183">
        <ele>601</ele>
        <time>2013-12-21T11:52:32.000Z</time>
      </trkpt>
      <trkpt lat="43.95965" lon="7.3181">
        <ele>601.40002441406</ele>
        <time>2013-12-21T11:52:37.000Z</time>
      </trkpt>
      <trkpt lat="43.95974" lon="7.3179">
        <ele>602</ele>
        <time>2013-12-21T11:52:43.000Z</time>
      </trkpt>
      <trkpt lat="43.95982" lon="7.31767">
        <ele>603</ele>
        <time>2013-12-21T11:52:49.000Z</time>
      </trkpt>
      <trkpt lat="43.95993" lon="7.31749">
        <ele>603.40002441406</ele>
        <time>2013-12-21T11:52:56.000Z</time>
      </trkpt>
      <trkpt lat="43.96002" lon="7.31727">
        <ele>603.40002441406</ele>
        <time>2013-12-21T11:53:03.000Z</time>
      </trkpt>
      <trkpt lat="43.96001" lon="7.31716">
        <ele>603.40002441406</ele>
        <time>2013-12-21T11:53:06.000Z</time>
      </trkpt>
      <trkpt lat="43.95999" lon="7.31714">
        <ele>603.40002441406</ele>
        <time>2013-12-21T11:53:07.000Z</time>
      </trkpt>
      <trkpt lat="43.95988" lon="7.31712">
        <ele>603.59997558594</ele>
        <time>2013-12-21T11:53:11.000Z</time>
      </trkpt>
      <trkpt lat="43.95975" lon="7.31706">
        <ele>604.79998779297</ele>
        <time>2013-12-21T11:53:17.000Z</time>
      </trkpt>
      <trkpt lat="43.95972" lon="7.31703">
        <ele>605</ele>
        <time>2013-12-21T11:53:18.000Z</time>
      </trkpt>
      <trkpt lat="43.95961" lon="7.31685">
        <ele>606</ele>
        <time>2013-12-21T11:53:24.000Z</time>
      </trkpt>
      <trkpt lat="43.95947" lon="7.31677">
        <ele>606.79998779297</ele>
        <time>2013-12-21T11:53:29.000Z</time>
      </trkpt>
      <trkpt lat="43.95932" lon="7.31673">
        <ele>607.40002441406</ele>
        <time>2013-12-21T11:53:35.000Z</time>
      </trkpt>
      <trkpt lat="43.95916" lon="7.31664">
        <ele>607</ele>
        <time>2013-12-21T11:53:41.000Z</time>
      </trkpt>
      <trkpt lat="43.95901" lon="7.31637">
        <ele>608.20001220703</ele>
        <time>2013-12-21T11:53:50.000Z</time>
      </trkpt>
      <trkpt lat="43.95893" lon="7.31617">
        <ele>609.40002441406</ele>
        <time>2013-12-21T11:53:56.000Z</time>
      </trkpt>
      <trkpt lat="43.95883" lon="7.31596">
        <ele>612.59997558594</ele>
        <time>2013-12-21T11:54:03.000Z</time>
      </trkpt>
      <trkpt lat="43.95868" lon="7.31583">
        <ele>614.79998779297</ele>
        <time>2013-12-21T11:54:09.000Z</time>
      </trkpt>
      <trkpt lat="43.95857" lon="7.31556">
        <ele>617.40002441406</ele>
        <time>2013-12-21T11:54:17.000Z</time>
      </trkpt>
      <trkpt lat="43.9586" lon="7.31533">
        <ele>619.20001220703</ele>
        <time>2013-12-21T11:54:23.000Z</time>
      </trkpt>
      <trkpt lat="43.95869" lon="7.31508">
        <ele>620.40002441406</ele>
        <time>2013-12-21T11:54:31.000Z</time>
      </trkpt>
      <trkpt lat="43.95876" lon="7.31478">
        <ele>621.40002441406</ele>
        <time>2013-12-21T11:54:40.000Z</time>
      </trkpt>
      <trkpt lat="43.95885" lon="7.31457">
        <ele>623.20001220703</ele>
        <time>2013-12-21T11:54:46.000Z</time>
      </trkpt>
      <trkpt lat="43.95904" lon="7.31436">
        <ele>625.40002441406</ele>
        <time>2013-12-21T11:54:56.000Z</time>
      </trkpt>
      <trkpt lat="43.959" lon="7.31421">
        <ele>626.20001220703</ele>
        <time>2013-12-21T11:55:01.000Z</time>
      </trkpt>
      <trkpt lat="43.9589" lon="7.31407">
        <ele>627.59997558594</ele>
        <time>2013-12-21T11:55:07.000Z</time>
      </trkpt>
      <trkpt lat="43.95876" lon="7.31393">
        <ele>629.59997558594</ele>
        <time>2013-12-21T11:55:15.000Z</time>
      </trkpt>
      <trkpt lat="43.95861" lon="7.31393">
        <ele>630.59997558594</ele>
        <time>2013-12-21T11:55:22.000Z</time>
      </trkpt>
      <trkpt lat="43.95848" lon="7.31408">
        <ele>631.79998779297</ele>
        <time>2013-12-21T11:55:29.000Z</time>
      </trkpt>
      <trkpt lat="43.95845" lon="7.31425">
        <ele>632.59997558594</ele>
        <time>2013-12-21T11:55:35.000Z</time>
      </trkpt>
      <trkpt lat="43.95842" lon="7.31442">
        <ele>633</ele>
        <time>2013-12-21T11:55:40.000Z</time>
      </trkpt>
      <trkpt lat="43.95837" lon="7.31453">
        <ele>632.79998779297</ele>
        <time>2013-12-21T11:55:43.000Z</time>
      </trkpt>
      <trkpt lat="43.95832" lon="7.31455">
        <ele>633.40002441406</ele>
        <time>2013-12-21T11:55:44.000Z</time>
      </trkpt>
      <trkpt lat="43.95817" lon="7.31464">
        <ele>634.20001220703</ele>
        <time>2013-12-21T11:55:50.000Z</time>
      </trkpt>
      <trkpt lat="43.95807" lon="7.31475">
        <ele>634.59997558594</ele>
        <time>2013-12-21T11:55:55.000Z</time>
      </trkpt>
      <trkpt lat="43.95797" lon="7.31487">
        <ele>634.79998779297</ele>
        <time>2013-12-21T11:56:00.000Z</time>
      </trkpt>
      <trkpt lat="43.95782" lon="7.31488">
        <ele>635.79998779297</ele>
        <time>2013-12-21T11:56:05.000Z</time>
      </trkpt>
      <trkpt lat="43.9576" lon="7.31492">
        <ele>637.59997558594</ele>
        <time>2013-12-21T11:56:13.000Z</time>
      </trkpt>
      <trkpt lat="43.95748" lon="7.31509">
        <ele>639.20001220703</ele>
        <time>2013-12-21T11:56:20.000Z</time>
      </trkpt>
      <trkpt lat="43.95749" lon="7.31526">
        <ele>640.40002441406</ele>
        <time>2013-12-21T11:56:25.000Z</time>
      </trkpt>
      <trkpt lat="43.95751" lon="7.31549">
        <ele>641.20001220703</ele>
        <time>2013-12-21T11:56:31.000Z</time>
      </trkpt>
      <trkpt lat="43.95746" lon="7.31568">
        <ele>641.79998779297</ele>
        <time>2013-12-21T11:56:36.000Z</time>
      </trkpt>
      <trkpt lat="43.95734" lon="7.31588">
        <ele>643.40002441406</ele>
        <time>2013-12-21T11:56:43.000Z</time>
      </trkpt>
      <trkpt lat="43.95717" lon="7.31615">
        <ele>646.40002441406</ele>
        <time>2013-12-21T11:56:53.000Z</time>
      </trkpt>
      <trkpt lat="43.95699" lon="7.3163">
        <ele>648.20001220703</ele>
        <time>2013-12-21T11:57:00.000Z</time>
      </trkpt>
      <trkpt lat="43.9568" lon="7.31645">
        <ele>649.59997558594</ele>
        <time>2013-12-21T11:57:08.000Z</time>
      </trkpt>
      <trkpt lat="43.95658" lon="7.31659">
        <ele>650.40002441406</ele>
        <time>2013-12-21T11:57:17.000Z</time>
      </trkpt>
      <trkpt lat="43.95633" lon="7.31673">
        <ele>651.40002441406</ele>
        <time>2013-12-21T11:57:27.000Z</time>
      </trkpt>
      <trkpt lat="43.95618" lon="7.31688">
        <ele>652.20001220703</ele>
        <time>2013-12-21T11:57:34.000Z</time>
      </trkpt>
      <trkpt lat="43.95616" lon="7.31704">
        <ele>653.20001220703</ele>
        <time>2013-12-21T11:57:39.000Z</time>
      </trkpt>
      <trkpt lat="43.95619" lon="7.31731">
        <ele>654.40002441406</ele>
        <time>2013-12-21T11:57:46.000Z</time>
      </trkpt>
      <trkpt lat="43.95615" lon="7.31752">
        <ele>655.20001220703</ele>
        <time>2013-12-21T11:57:52.000Z</time>
      </trkpt>
      <trkpt lat="43.95622" lon="7.31776">
        <ele>655.79998779297</ele>
        <time>2013-12-21T11:57:59.000Z</time>
      </trkpt>
      <trkpt lat="43.95626" lon="7.31798">
        <ele>656.79998779297</ele>
        <time>2013-12-21T11:58:05.000Z</time>
      </trkpt>
      <trkpt lat="43.9562" lon="7.31817">
        <ele>657.59997558594</ele>
        <time>2013-12-21T11:58:10.000Z</time>
      </trkpt>
      <trkpt lat="43.95623" lon="7.31834">
        <ele>658.59997558594</ele>
        <time>2013-12-21T11:58:15.000Z</time>
      </trkpt>
      <trkpt lat="43.95632" lon="7.31859">
        <ele>660</ele>
        <time>2013-12-21T11:58:22.000Z</time>
      </trkpt>
      <trkpt lat="43.9563" lon="7.31863">
        <ele>660.20001220703</ele>
        <time>2013-12-21T11:58:23.000Z</time>
      </trkpt>
      <trkpt lat="43.95625" lon="7.31875">
        <ele>660.79998779297</ele>
        <time>2013-12-21T11:58:26.000Z</time>
      </trkpt>
      <trkpt lat="43.95621" lon="7.31881">
        <ele>661.40002441406</ele>
        <time>2013-12-21T11:58:28.000Z</time>
      </trkpt>
      <trkpt lat="43.95614" lon="7.31899">
        <ele>662</ele>
        <time>2013-12-21T11:58:33.000Z</time>
      </trkpt>
      <trkpt lat="43.95609" lon="7.31927">
        <ele>663.40002441406</ele>
        <time>2013-12-21T11:58:40.000Z</time>
      </trkpt>
      <trkpt lat="43.95608" lon="7.31962">
        <ele>665.20001220703</ele>
        <time>2013-12-21T11:58:49.000Z</time>
      </trkpt>
      <trkpt lat="43.95608" lon="7.31976">
        <ele>666.20001220703</ele>
        <time>2013-12-21T11:58:55.000Z</time>
      </trkpt>
      <trkpt lat="43.95608" lon="7.3198">
        <ele>666.59997558594</ele>
        <time>2013-12-21T11:58:58.000Z</time>
      </trkpt>
      <trkpt lat="43.95607" lon="7.31979">
        <ele>667.40002441406</ele>
        <time>2013-12-21T11:59:00.000Z</time>
      </trkpt>
      <trkpt lat="43.95609" lon="7.31972">
        <ele>668.40002441406</ele>
        <time>2013-12-21T11:59:05.000Z</time>
      </trkpt>
      <trkpt lat="43.95609" lon="7.3197">
        <ele>668.59997558594</ele>
        <time>2013-12-21T11:59:06.000Z</time>
      </trkpt>
      <trkpt lat="43.95608" lon="7.31971">
        <ele>669.20001220703</ele>
        <time>2013-12-21T11:59:09.000Z</time>
      </trkpt>
      <trkpt lat="43.95603" lon="7.31967">
        <ele>673.20001220703</ele>
        <time>2013-12-21T11:59:53.000Z</time>
      </trkpt>
      <trkpt lat="43.956" lon="7.31965">
        <ele>679.20001220703</ele>
        <time>2013-12-21T12:00:21.000Z</time>
      </trkpt>
      <trkpt lat="43.95601" lon="7.31967">
        <ele>679</ele>
        <time>2013-12-21T12:00:24.000Z</time>
      </trkpt>
      <trkpt lat="43.95601" lon="7.31968">
        <ele>679</ele>
        <time>2013-12-21T12:00:25.000Z</time>
      </trkpt>
      <trkpt lat="43.95602" lon="7.31971">
        <ele>678.59997558594</ele>
        <time>2013-12-21T12:00:32.000Z</time>
      </trkpt>
      <trkpt lat="43.95603" lon="7.31977">
        <ele>676.79998779297</ele>
        <time>2013-12-21T12:00:50.000Z</time>
      </trkpt>
      <trkpt lat="43.956" lon="7.31983">
        <ele>676.40002441406</ele>
        <time>2013-12-21T12:00:53.000Z</time>
      </trkpt>
      <trkpt lat="43.95597" lon="7.31989">
        <ele>676.20001220703</ele>
        <time>2013-12-21T12:00:55.000Z</time>
      </trkpt>
      <trkpt lat="43.95591" lon="7.32004">
        <ele>675.59997558594</ele>
        <time>2013-12-21T12:01:00.000Z</time>
      </trkpt>
      <trkpt lat="43.95589" lon="7.32028">
        <ele>675.40002441406</ele>
        <time>2013-12-21T12:01:06.000Z</time>
      </trkpt>
      <trkpt lat="43.95591" lon="7.32056">
        <ele>675</ele>
        <time>2013-12-21T12:01:13.000Z</time>
      </trkpt>
      <trkpt lat="43.95596" lon="7.32079">
        <ele>674.59997558594</ele>
        <time>2013-12-21T12:01:19.000Z</time>
      </trkpt>
      <trkpt lat="43.95606" lon="7.32102">
        <ele>674</ele>
        <time>2013-12-21T12:01:26.000Z</time>
      </trkpt>
      <trkpt lat="43.95621" lon="7.32133">
        <ele>673.20001220703</ele>
        <time>2013-12-21T12:01:36.000Z</time>
      </trkpt>
      <trkpt lat="43.95637" lon="7.32169">
        <ele>672.20001220703</ele>
        <time>2013-12-21T12:01:48.000Z</time>
      </trkpt>
      <trkpt lat="43.95652" lon="7.32195">
        <ele>671.59997558594</ele>
        <time>2013-12-21T12:01:58.000Z</time>
      </trkpt>
      <trkpt lat="43.95667" lon="7.32227">
        <ele>671.40002441406</ele>
        <time>2013-12-21T12:02:10.000Z</time>
      </trkpt>
      <trkpt lat="43.95666" lon="7.32241">
        <ele>672</ele>
        <time>2013-12-21T12:02:14.000Z</time>
      </trkpt>
      <trkpt lat="43.95664" lon="7.32243">
        <ele>672.20001220703</ele>
        <time>2013-12-21T12:02:15.000Z</time>
      </trkpt>
      <trkpt lat="43.9565" lon="7.32245">
        <ele>673.79998779297</ele>
        <time>2013-12-21T12:02:20.000Z</time>
      </trkpt>
      <trkpt lat="43.95647" lon="7.32245">
        <ele>674</ele>
        <time>2013-12-21T12:02:21.000Z</time>
      </trkpt>
      <trkpt lat="43.9563" lon="7.32238">
        <ele>676.40002441406</ele>
        <time>2013-12-21T12:02:28.000Z</time>
      </trkpt>
      <trkpt lat="43.9561" lon="7.32232">
        <ele>678.79998779297</ele>
        <time>2013-12-21T12:02:36.000Z</time>
      </trkpt>
      <trkpt lat="43.95589" lon="7.32223">
        <ele>682.79998779297</ele>
        <time>2013-12-21T12:02:44.000Z</time>
      </trkpt>
      <trkpt lat="43.95571" lon="7.3221">
        <ele>686.20001220703</ele>
        <time>2013-12-21T12:02:51.000Z</time>
      </trkpt>
      <trkpt lat="43.95551" lon="7.32204">
        <ele>688.59997558594</ele>
        <time>2013-12-21T12:02:59.000Z</time>
      </trkpt>
      <trkpt lat="43.95535" lon="7.32214">
        <ele>690.20001220703</ele>
        <time>2013-12-21T12:03:06.000Z</time>
      </trkpt>
      <trkpt lat="43.95525" lon="7.32233">
        <ele>692</ele>
        <time>2013-12-21T12:03:12.000Z</time>
      </trkpt>
      <trkpt lat="43.95515" lon="7.32262">
        <ele>694.40002441406</ele>
        <time>2013-12-21T12:03:20.000Z</time>
      </trkpt>
      <trkpt lat="43.95506" lon="7.32301">
        <ele>697.40002441406</ele>
        <time>2013-12-21T12:03:31.000Z</time>
      </trkpt>
      <trkpt lat="43.95506" lon="7.32327">
        <ele>698.59997558594</ele>
        <time>2013-12-21T12:03:38.000Z</time>
      </trkpt>
      <trkpt lat="43.95511" lon="7.32348">
        <ele>699.59997558594</ele>
        <time>2013-12-21T12:03:44.000Z</time>
      </trkpt>
      <trkpt lat="43.95518" lon="7.32377">
        <ele>701</ele>
        <time>2013-12-21T12:03:52.000Z</time>
      </trkpt>
      <trkpt lat="43.95515" lon="7.32396">
        <ele>701.40002441406</ele>
        <time>2013-12-21T12:03:57.000Z</time>
      </trkpt>
      <trkpt lat="43.95503" lon="7.32402">
        <ele>701.79998779297</ele>
        <time>2013-12-21T12:04:02.000Z</time>
      </trkpt>
      <trkpt lat="43.95486" lon="7.32406">
        <ele>701.40002441406</ele>
        <time>2013-12-21T12:04:09.000Z</time>
      </trkpt>
      <trkpt lat="43.95465" lon="7.32412">
        <ele>701.20001220703</ele>
        <time>2013-12-21T12:04:17.000Z</time>
      </trkpt>
      <trkpt lat="43.95449" lon="7.32427">
        <ele>702.59997558594</ele>
        <time>2013-12-21T12:04:24.000Z</time>
      </trkpt>
      <trkpt lat="43.95434" lon="7.32446">
        <ele>704.40002441406</ele>
        <time>2013-12-21T12:04:32.000Z</time>
      </trkpt>
      <trkpt lat="43.95413" lon="7.32472">
        <ele>706.59997558594</ele>
        <time>2013-12-21T12:04:42.000Z</time>
      </trkpt>
      <trkpt lat="43.95406" lon="7.32487">
        <ele>707.79998779297</ele>
        <time>2013-12-21T12:04:49.000Z</time>
      </trkpt>
      <trkpt lat="43.95404" lon="7.32491">
        <ele>708.20001220703</ele>
        <time>2013-12-21T12:04:52.000Z</time>
      </trkpt>
      <trkpt lat="43.95403" lon="7.32494">
        <ele>708.59997558594</ele>
        <time>2013-12-21T12:04:55.000Z</time>
      </trkpt>
      <trkpt lat="43.95405" lon="7.32496">
        <ele>709.59997558594</ele>
        <time>2013-12-21T12:05:00.000Z</time>
      </trkpt>
      <trkpt lat="43.95406" lon="7.325">
        <ele>709.79998779297</ele>
        <time>2013-12-21T12:05:03.000Z</time>
      </trkpt>
      <trkpt lat="43.95406" lon="7.32501">
        <ele>710</ele>
        <time>2013-12-21T12:05:04.000Z</time>
      </trkpt>
      <trkpt lat="43.95405" lon="7.32508">
        <ele>710.40002441406</ele>
        <time>2013-12-21T12:05:07.000Z</time>
      </trkpt>
      <trkpt lat="43.95404" lon="7.32512">
        <ele>710.40002441406</ele>
        <time>2013-12-21T12:05:09.000Z</time>
      </trkpt>
      <trkpt lat="43.95406" lon="7.32517">
        <ele>710.79998779297</ele>
        <time>2013-12-21T12:05:12.000Z</time>
      </trkpt>
      <trkpt lat="43.95408" lon="7.32516">
        <ele>711</ele>
        <time>2013-12-21T12:05:14.000Z</time>
      </trkpt>
      <trkpt lat="43.95407" lon="7.3251">
        <ele>711.20001220703</ele>
        <time>2013-12-21T12:05:16.000Z</time>
      </trkpt>
      <trkpt lat="43.95406" lon="7.32506">
        <ele>711.20001220703</ele>
        <time>2013-12-21T12:05:18.000Z</time>
      </trkpt>
      <trkpt lat="43.95404" lon="7.32503">
        <ele>711.79998779297</ele>
        <time>2013-12-21T12:05:24.000Z</time>
      </trkpt>
      <trkpt lat="43.95405" lon="7.32495">
        <ele>713.20001220703</ele>
        <time>2013-12-21T12:05:36.000Z</time>
      </trkpt>
      <trkpt lat="43.95403" lon="7.32492">
        <ele>713.40002441406</ele>
        <time>2013-12-21T12:05:37.000Z</time>
      </trkpt>
      <trkpt lat="43.954" lon="7.32498">
        <ele>713.40002441406</ele>
        <time>2013-12-21T12:05:40.000Z</time>
      </trkpt>
      <trkpt lat="43.954" lon="7.325">
        <ele>713.20001220703</ele>
        <time>2013-12-21T12:05:42.000Z</time>
      </trkpt>
      <trkpt lat="43.95399" lon="7.32504">
        <ele>713.59997558594</ele>
        <time>2013-12-21T12:05:45.000Z</time>
      </trkpt>
      <trkpt lat="43.95399" lon="7.32505">
        <ele>713.40002441406</ele>
        <time>2013-12-21T12:05:46.000Z</time>
      </trkpt>
      <trkpt lat="43.95399" lon="7.325">
        <ele>713.59997558594</ele>
        <time>2013-12-21T12:05:50.000Z</time>
      </trkpt>
      <trkpt lat="43.95397" lon="7.32491">
        <ele>713.59997558594</ele>
        <time>2013-12-21T12:05:53.000Z</time>
      </trkpt>
      <trkpt lat="43.95389" lon="7.32466">
        <ele>714.59997558594</ele>
        <time>2013-12-21T12:05:59.000Z</time>
      </trkpt>
      <trkpt lat="43.95388" lon="7.32446">
        <ele>714.20001220703</ele>
        <time>2013-12-21T12:06:04.000Z</time>
      </trkpt>
      <trkpt lat="43.95393" lon="7.32438">
        <ele>713.79998779297</ele>
        <time>2013-12-21T12:06:08.000Z</time>
      </trkpt>
      <trkpt lat="43.95392" lon="7.32436">
        <ele>713.79998779297</ele>
        <time>2013-12-21T12:06:09.000Z</time>
      </trkpt>
      <trkpt lat="43.95389" lon="7.32427">
        <ele>713.20001220703</ele>
        <time>2013-12-21T12:06:13.000Z</time>
      </trkpt>
      <trkpt lat="43.9539" lon="7.32426">
        <ele>713.20001220703</ele>
        <time>2013-12-21T12:06:14.000Z</time>
      </trkpt>
      <trkpt lat="43.95391" lon="7.32421">
        <ele>712.79998779297</ele>
        <time>2013-12-21T12:06:17.000Z</time>
      </trkpt>
      <trkpt lat="43.9539" lon="7.32422">
        <ele>712.59997558594</ele>
        <time>2013-12-21T12:06:18.000Z</time>
      </trkpt>
      <trkpt lat="43.95385" lon="7.32422">
        <ele>712.20001220703</ele>
        <time>2013-12-21T12:06:21.000Z</time>
      </trkpt>
      <trkpt lat="43.95379" lon="7.32422">
        <ele>711.79998779297</ele>
        <time>2013-12-21T12:06:23.000Z</time>
      </trkpt>
      <trkpt lat="43.95368" lon="7.32424">
        <ele>711.40002441406</ele>
        <time>2013-12-21T12:06:26.000Z</time>
      </trkpt>
      <trkpt lat="43.95356" lon="7.32426">
        <ele>710.59997558594</ele>
        <time>2013-12-21T12:06:30.000Z</time>
      </trkpt>
      <trkpt lat="43.95354" lon="7.32422">
        <ele>709.40002441406</ele>
        <time>2013-12-21T12:06:35.000Z</time>
      </trkpt>
      <trkpt lat="43.95354" lon="7.32416">
        <ele>708.59997558594</ele>
        <time>2013-12-21T12:06:40.000Z</time>
      </trkpt>
      <trkpt lat="43.95353" lon="7.32415">
        <ele>708.40002441406</ele>
        <time>2013-12-21T12:06:41.000Z</time>
      </trkpt>
      <trkpt lat="43.95341" lon="7.32398">
        <ele>691.59997558594</ele>
        <time>2013-12-21T12:14:21.000Z</time>
      </trkpt>
      <trkpt lat="43.95347" lon="7.32416">
        <ele>706.59997558594</ele>
        <time>2013-12-21T12:27:38.000Z</time>
      </trkpt>
      <trkpt lat="43.95347" lon="7.32418">
        <ele>706.59997558594</ele>
        <time>2013-12-21T12:27:39.000Z</time>
      </trkpt>
      <trkpt lat="43.9535" lon="7.3242">
        <ele>706.79998779297</ele>
        <time>2013-12-21T12:27:42.000Z</time>
      </trkpt>
      <trkpt lat="43.95358" lon="7.32419">
        <ele>707.20001220703</ele>
        <time>2013-12-21T12:27:48.000Z</time>
      </trkpt>
      <trkpt lat="43.9537" lon="7.32415">
        <ele>708.59997558594</ele>
        <time>2013-12-21T12:27:55.000Z</time>
      </trkpt>
      <trkpt lat="43.95379" lon="7.32414">
        <ele>709.59997558594</ele>
        <time>2013-12-21T12:28:01.000Z</time>
      </trkpt>
      <trkpt lat="43.95381" lon="7.32413">
        <ele>710</ele>
        <time>2013-12-21T12:28:02.000Z</time>
      </trkpt>
      <trkpt lat="43.95387" lon="7.32409">
        <ele>711</ele>
        <time>2013-12-21T12:28:07.000Z</time>
      </trkpt>
      <trkpt lat="43.95388" lon="7.32407">
        <ele>711.40002441406</ele>
        <time>2013-12-21T12:28:09.000Z</time>
      </trkpt>
      <trkpt lat="43.95394" lon="7.32406">
        <ele>711.79998779297</ele>
        <time>2013-12-21T12:28:12.000Z</time>
      </trkpt>
      <trkpt lat="43.95411" lon="7.324">
        <ele>713.40002441406</ele>
        <time>2013-12-21T12:28:20.000Z</time>
      </trkpt>
      <trkpt lat="43.95424" lon="7.32396">
        <ele>716.20001220703</ele>
        <time>2013-12-21T12:28:29.000Z</time>
      </trkpt>
      <trkpt lat="43.95436" lon="7.3239">
        <ele>718.20001220703</ele>
        <time>2013-12-21T12:28:37.000Z</time>
      </trkpt>
      <trkpt lat="43.95446" lon="7.32387">
        <ele>719.20001220703</ele>
        <time>2013-12-21T12:28:43.000Z</time>
      </trkpt>
      <trkpt lat="43.95456" lon="7.32386">
        <ele>720.20001220703</ele>
        <time>2013-12-21T12:28:48.000Z</time>
      </trkpt>
      <trkpt lat="43.95469" lon="7.32387">
        <ele>721.20001220703</ele>
        <time>2013-12-21T12:28:54.000Z</time>
      </trkpt>
      <trkpt lat="43.95479" lon="7.32388">
        <ele>722.59997558594</ele>
        <time>2013-12-21T12:28:59.000Z</time>
      </trkpt>
      <trkpt lat="43.95491" lon="7.32388">
        <ele>724.59997558594</ele>
        <time>2013-12-21T12:29:05.000Z</time>
      </trkpt>
      <trkpt lat="43.95497" lon="7.32389">
        <ele>725.79998779297</ele>
        <time>2013-12-21T12:29:09.000Z</time>
      </trkpt>
      <trkpt lat="43.95497" lon="7.32393">
        <ele>725.79998779297</ele>
        <time>2013-12-21T12:29:11.000Z</time>
      </trkpt>
      <trkpt lat="43.95491" lon="7.32393">
        <ele>726.20001220703</ele>
        <time>2013-12-21T12:29:15.000Z</time>
      </trkpt>
      <trkpt lat="43.9549" lon="7.32392">
        <ele>726</ele>
        <time>2013-12-21T12:29:16.000Z</time>
      </trkpt>
      <trkpt lat="43.95479" lon="7.32396">
        <ele>725.79998779297</ele>
        <time>2013-12-21T12:29:22.000Z</time>
      </trkpt>
      <trkpt lat="43.95465" lon="7.32403">
        <ele>725.79998779297</ele>
        <time>2013-12-21T12:29:29.000Z</time>
      </trkpt>
      <trkpt lat="43.95454" lon="7.32415">
        <ele>725.79998779297</ele>
        <time>2013-12-21T12:29:37.000Z</time>
      </trkpt>
      <trkpt lat="43.95441" lon="7.32433">
        <ele>726</ele>
        <time>2013-12-21T12:29:45.000Z</time>
      </trkpt>
      <trkpt lat="43.95426" lon="7.32452">
        <ele>726.20001220703</ele>
        <time>2013-12-21T12:29:55.000Z</time>
      </trkpt>
      <trkpt lat="43.95414" lon="7.32469">
        <ele>726.20001220703</ele>
        <time>2013-12-21T12:30:04.000Z</time>
      </trkpt>
      <trkpt lat="43.95404" lon="7.32488">
        <ele>726.79998779297</ele>
        <time>2013-12-21T12:30:12.000Z</time>
      </trkpt>
      <trkpt lat="43.95402" lon="7.32514">
        <ele>728.59997558594</ele>
        <time>2013-12-21T12:30:21.000Z</time>
      </trkpt>
      <trkpt lat="43.954" lon="7.3254">
        <ele>730.59997558594</ele>
        <time>2013-12-21T12:30:30.000Z</time>
      </trkpt>
      <trkpt lat="43.95405" lon="7.32561">
        <ele>731.79998779297</ele>
        <time>2013-12-21T12:30:38.000Z</time>
      </trkpt>
      <trkpt lat="43.95411" lon="7.32578">
        <ele>732.40002441406</ele>
        <time>2013-12-21T12:30:45.000Z</time>
      </trkpt>
      <trkpt lat="43.95418" lon="7.32597">
        <ele>732.20001220703</ele>
        <time>2013-12-21T12:30:53.000Z</time>
      </trkpt>
      <trkpt lat="43.95425" lon="7.32613">
        <ele>732.40002441406</ele>
        <time>2013-12-21T12:30:59.000Z</time>
      </trkpt>
      <trkpt lat="43.95434" lon="7.32635">
        <ele>732.20001220703</ele>
        <time>2013-12-21T12:31:08.000Z</time>
      </trkpt>
      <trkpt lat="43.95445" lon="7.32657">
        <ele>732.20001220703</ele>
        <time>2013-12-21T12:31:17.000Z</time>
      </trkpt>
      <trkpt lat="43.95452" lon="7.32676">
        <ele>732.20001220703</ele>
        <time>2013-12-21T12:31:26.000Z</time>
      </trkpt>
      <trkpt lat="43.95451" lon="7.32683">
        <ele>733</ele>
        <time>2013-12-21T12:31:34.000Z</time>
      </trkpt>
      <trkpt lat="43.95452" lon="7.32685">
        <ele>733</ele>
        <time>2013-12-21T12:31:35.000Z</time>
      </trkpt>
      <trkpt lat="43.95453" lon="7.32697">
        <ele>733</ele>
        <time>2013-12-21T12:31:38.000Z</time>
      </trkpt>
      <trkpt lat="43.9546" lon="7.32723">
        <ele>733</ele>
        <time>2013-12-21T12:31:42.000Z</time>
      </trkpt>
      <trkpt lat="43.95467" lon="7.3275">
        <ele>732.59997558594</ele>
        <time>2013-12-21T12:31:46.000Z</time>
      </trkpt>
      <trkpt lat="43.95473" lon="7.32784">
        <ele>732.20001220703</ele>
        <time>2013-12-21T12:31:50.000Z</time>
      </trkpt>
      <trkpt lat="43.95474" lon="7.32791">
        <ele>732.20001220703</ele>
        <time>2013-12-21T12:31:51.000Z</time>
      </trkpt>
      <trkpt lat="43.95474" lon="7.32803">
        <ele>731.79998779297</ele>
        <time>2013-12-21T12:31:53.000Z</time>
      </trkpt>
      <trkpt lat="43.95474" lon="7.32834">
        <ele>731.40002441406</ele>
        <time>2013-12-21T12:31:57.000Z</time>
      </trkpt>
      <trkpt lat="43.95474" lon="7.32849">
        <ele>731.20001220703</ele>
        <time>2013-12-21T12:31:59.000Z</time>
      </trkpt>
      <trkpt lat="43.95473" lon="7.32856">
        <ele>731</ele>
        <time>2013-12-21T12:32:00.000Z</time>
      </trkpt>
      <trkpt lat="43.95475" lon="7.32862">
        <ele>731</ele>
        <time>2013-12-21T12:32:01.000Z</time>
      </trkpt>
      <trkpt lat="43.95473" lon="7.3288">
        <ele>730.40002441406</ele>
        <time>2013-12-21T12:32:04.000Z</time>
      </trkpt>
      <trkpt lat="43.95471" lon="7.32886">
        <ele>730.20001220703</ele>
        <time>2013-12-21T12:32:05.000Z</time>
      </trkpt>
      <trkpt lat="43.95469" lon="7.32892">
        <ele>730.20001220703</ele>
        <time>2013-12-21T12:32:06.000Z</time>
      </trkpt>
      <trkpt lat="43.95465" lon="7.32905">
        <ele>729.79998779297</ele>
        <time>2013-12-21T12:32:08.000Z</time>
      </trkpt>
      <trkpt lat="43.95453" lon="7.32938">
        <ele>728.79998779297</ele>
        <time>2013-12-21T12:32:13.000Z</time>
      </trkpt>
      <trkpt lat="43.95447" lon="7.32951">
        <ele>728</ele>
        <time>2013-12-21T12:32:16.000Z</time>
      </trkpt>
      <trkpt lat="43.9544" lon="7.32973">
        <ele>727.20001220703</ele>
        <time>2013-12-21T12:32:20.000Z</time>
      </trkpt>
      <trkpt lat="43.95439" lon="7.32994">
        <ele>726.20001220703</ele>
        <time>2013-12-21T12:32:24.000Z</time>
      </trkpt>
      <trkpt lat="43.95433" lon="7.33007">
        <ele>725.20001220703</ele>
        <time>2013-12-21T12:32:28.000Z</time>
      </trkpt>
      <trkpt lat="43.95429" lon="7.33009">
        <ele>724.40002441406</ele>
        <time>2013-12-21T12:32:31.000Z</time>
      </trkpt>
      <trkpt lat="43.95429" lon="7.33009">
        <ele>724.20001220703</ele>
        <time>2013-12-21T12:32:32.000Z</time>
      </trkpt>
      <trkpt lat="43.95429" lon="7.33012">
        <ele>721</ele>
        <time>2013-12-21T12:32:51.000Z</time>
      </trkpt>
      <trkpt lat="43.95429" lon="7.33009">
        <ele>717.59997558594</ele>
        <time>2013-12-21T12:33:25.000Z</time>
      </trkpt>
      <trkpt lat="43.95423" lon="7.33007">
        <ele>717.40002441406</ele>
        <time>2013-12-21T12:33:29.000Z</time>
      </trkpt>
      <trkpt lat="43.95421" lon="7.33006">
        <ele>717.40002441406</ele>
        <time>2013-12-21T12:33:31.000Z</time>
      </trkpt>
      <trkpt lat="43.95421" lon="7.33004">
        <ele>717.40002441406</ele>
        <time>2013-12-21T12:33:33.000Z</time>
      </trkpt>
      <trkpt lat="43.9542" lon="7.32997">
        <ele>717.79998779297</ele>
        <time>2013-12-21T12:33:37.000Z</time>
      </trkpt>
      <trkpt lat="43.95419" lon="7.32992">
        <ele>718.59997558594</ele>
        <time>2013-12-21T12:33:40.000Z</time>
      </trkpt>
      <trkpt lat="43.95417" lon="7.3299">
        <ele>718.79998779297</ele>
        <time>2013-12-21T12:33:42.000Z</time>
      </trkpt>
      <trkpt lat="43.95417" lon="7.32986">
        <ele>719.40002441406</ele>
        <time>2013-12-21T12:33:48.000Z</time>
      </trkpt>
      <trkpt lat="43.95414" lon="7.32981">
        <ele>719.40002441406</ele>
        <time>2013-12-21T12:33:53.000Z</time>
      </trkpt>
      <trkpt lat="43.95415" lon="7.32975">
        <ele>719.40002441406</ele>
        <time>2013-12-21T12:34:00.000Z</time>
      </trkpt>
      <trkpt lat="43.95413" lon="7.32973">
        <ele>719.20001220703</ele>
        <time>2013-12-21T12:34:06.000Z</time>
      </trkpt>
      <trkpt lat="43.95412" lon="7.32968">
        <ele>718.79998779297</ele>
        <time>2013-12-21T12:34:12.000Z</time>
      </trkpt>
      <trkpt lat="43.9541" lon="7.32961">
        <ele>718.40002441406</ele>
        <time>2013-12-21T12:34:20.000Z</time>
      </trkpt>
      <trkpt lat="43.95412" lon="7.32953">
        <ele>718</ele>
        <time>2013-12-21T12:34:29.000Z</time>
      </trkpt>
      <trkpt lat="43.95413" lon="7.32948">
        <ele>717.79998779297</ele>
        <time>2013-12-21T12:34:34.000Z</time>
      </trkpt>
      <trkpt lat="43.95411" lon="7.32939">
        <ele>717.79998779297</ele>
        <time>2013-12-21T12:34:42.000Z</time>
      </trkpt>
      <trkpt lat="43.95409" lon="7.32933">
        <ele>718.79998779297</ele>
        <time>2013-12-21T12:34:49.000Z</time>
      </trkpt>
      <trkpt lat="43.95407" lon="7.32927">
        <ele>719.79998779297</ele>
        <time>2013-12-21T12:34:55.000Z</time>
      </trkpt>
      <trkpt lat="43.95405" lon="7.32922">
        <ele>720.40002441406</ele>
        <time>2013-12-21T12:35:01.000Z</time>
      </trkpt>
      <trkpt lat="43.95404" lon="7.32917">
        <ele>720.40002441406</ele>
        <time>2013-12-21T12:35:08.000Z</time>
      </trkpt>
      <trkpt lat="43.95402" lon="7.32911">
        <ele>720.40002441406</ele>
        <time>2013-12-21T12:35:14.000Z</time>
      </trkpt>
      <trkpt lat="43.95401" lon="7.32908">
        <ele>720.20001220703</ele>
        <time>2013-12-21T12:35:20.000Z</time>
      </trkpt>
      <trkpt lat="43.954" lon="7.32902">
        <ele>720.40002441406</ele>
        <time>2013-12-21T12:35:30.000Z</time>
      </trkpt>
      <trkpt lat="43.95395" lon="7.32896">
        <ele>722.20001220703</ele>
        <time>2013-12-21T12:35:40.000Z</time>
      </trkpt>
      <trkpt lat="43.95395" lon="7.32894">
        <ele>724</ele>
        <time>2013-12-21T12:35:47.000Z</time>
      </trkpt>
      <trkpt lat="43.95393" lon="7.32891">
        <ele>725.20001220703</ele>
        <time>2013-12-21T12:36:01.000Z</time>
      </trkpt>
      <trkpt lat="43.95381" lon="7.32883">
        <ele>725.20001220703</ele>
        <time>2013-12-21T12:36:06.000Z</time>
      </trkpt>
      <trkpt lat="43.95365" lon="7.32873">
        <ele>725.20001220703</ele>
        <time>2013-12-21T12:36:11.000Z</time>
      </trkpt>
      <trkpt lat="43.9535" lon="7.32874">
        <ele>725</ele>
        <time>2013-12-21T12:36:16.000Z</time>
      </trkpt>
      <trkpt lat="43.95347" lon="7.32875">
        <ele>725.20001220703</ele>
        <time>2013-12-21T12:36:20.000Z</time>
      </trkpt>
      <trkpt lat="43.95341" lon="7.32875">
        <ele>725.40002441406</ele>
        <time>2013-12-21T12:36:31.000Z</time>
      </trkpt>
      <trkpt lat="43.95338" lon="7.32877">
        <ele>726.59997558594</ele>
        <time>2013-12-21T12:36:37.000Z</time>
      </trkpt>
      <trkpt lat="43.95337" lon="7.32876">
        <ele>727.59997558594</ele>
        <time>2013-12-21T12:36:39.000Z</time>
      </trkpt>
      <trkpt lat="43.95334" lon="7.32875">
        <ele>728.40002441406</ele>
        <time>2013-12-21T12:36:43.000Z</time>
      </trkpt>
      <trkpt lat="43.95336" lon="7.32874">
        <ele>730.79998779297</ele>
        <time>2013-12-21T12:36:58.000Z</time>
      </trkpt>
      <trkpt lat="43.95332" lon="7.32875">
        <ele>731.40002441406</ele>
        <time>2013-12-21T12:37:01.000Z</time>
      </trkpt>
      <trkpt lat="43.9532" lon="7.32873">
        <ele>731.20001220703</ele>
        <time>2013-12-21T12:37:05.000Z</time>
      </trkpt>
      <trkpt lat="43.95303" lon="7.32877">
        <ele>731.20001220703</ele>
        <time>2013-12-21T12:37:10.000Z</time>
      </trkpt>
      <trkpt lat="43.95295" lon="7.32878">
        <ele>731</ele>
        <time>2013-12-21T12:37:15.000Z</time>
      </trkpt>
      <trkpt lat="43.95284" lon="7.32881">
        <ele>730.79998779297</ele>
        <time>2013-12-21T12:37:21.000Z</time>
      </trkpt>
      <trkpt lat="43.95272" lon="7.32884">
        <ele>731.20001220703</ele>
        <time>2013-12-21T12:37:27.000Z</time>
      </trkpt>
      <trkpt lat="43.95268" lon="7.32888">
        <ele>731</ele>
        <time>2013-12-21T12:37:31.000Z</time>
      </trkpt>
      <trkpt lat="43.95266" lon="7.32891">
        <ele>730</ele>
        <time>2013-12-21T12:37:44.000Z</time>
      </trkpt>
      <trkpt lat="43.95265" lon="7.32889">
        <ele>729.40002441406</ele>
        <time>2013-12-21T12:37:52.000Z</time>
      </trkpt>
      <trkpt lat="43.95257" lon="7.32883">
        <ele>727.40002441406</ele>
        <time>2013-12-21T12:39:32.000Z</time>
      </trkpt>
      <trkpt lat="43.95252" lon="7.32891">
        <ele>727.59997558594</ele>
        <time>2013-12-21T12:39:38.000Z</time>
      </trkpt>
      <trkpt lat="43.95252" lon="7.32895">
        <ele>728</ele>
        <time>2013-12-21T12:39:44.000Z</time>
      </trkpt>
      <trkpt lat="43.95255" lon="7.32897">
        <ele>729.59997558594</ele>
        <time>2013-12-21T12:39:55.000Z</time>
      </trkpt>
      <trkpt lat="43.95256" lon="7.32899">
        <ele>731.79998779297</ele>
        <time>2013-12-21T12:40:02.000Z</time>
      </trkpt>
      <trkpt lat="43.95252" lon="7.32908">
        <ele>736</ele>
        <time>2013-12-21T12:40:13.000Z</time>
      </trkpt>
      <trkpt lat="43.95245" lon="7.32915">
        <ele>739</ele>
        <time>2013-12-21T12:40:23.000Z</time>
      </trkpt>
      <trkpt lat="43.95243" lon="7.32917">
        <ele>740.59997558594</ele>
        <time>2013-12-21T12:40:30.000Z</time>
      </trkpt>
      <trkpt lat="43.95235" lon="7.3292">
        <ele>742.20001220703</ele>
        <time>2013-12-21T12:40:39.000Z</time>
      </trkpt>
      <trkpt lat="43.95228" lon="7.32926">
        <ele>743.40002441406</ele>
        <time>2013-12-21T12:40:49.000Z</time>
      </trkpt>
      <trkpt lat="43.95226" lon="7.32932">
        <ele>744</ele>
        <time>2013-12-21T12:40:56.000Z</time>
      </trkpt>
      <trkpt lat="43.95221" lon="7.32937">
        <ele>744.59997558594</ele>
        <time>2013-12-21T12:41:02.000Z</time>
      </trkpt>
      <trkpt lat="43.9522" lon="7.32939">
        <ele>744.40002441406</ele>
        <time>2013-12-21T12:41:04.000Z</time>
      </trkpt>
      <trkpt lat="43.95216" lon="7.32946">
        <ele>744</ele>
        <time>2013-12-21T12:41:13.000Z</time>
      </trkpt>
      <trkpt lat="43.95216" lon="7.32949">
        <ele>744</ele>
        <time>2013-12-21T12:41:17.000Z</time>
      </trkpt>
      <trkpt lat="43.95216" lon="7.32953">
        <ele>743.59997558594</ele>
        <time>2013-12-21T12:41:21.000Z</time>
      </trkpt>
      <trkpt lat="43.95215" lon="7.32958">
        <ele>743.40002441406</ele>
        <time>2013-12-21T12:41:26.000Z</time>
      </trkpt>
      <trkpt lat="43.95212" lon="7.32961">
        <ele>742.79998779297</ele>
        <time>2013-12-21T12:41:31.000Z</time>
      </trkpt>
      <trkpt lat="43.95207" lon="7.32965">
        <ele>742.40002441406</ele>
        <time>2013-12-21T12:41:39.000Z</time>
      </trkpt>
      <trkpt lat="43.95202" lon="7.3297">
        <ele>742.20001220703</ele>
        <time>2013-12-21T12:41:46.000Z</time>
      </trkpt>
      <trkpt lat="43.95199" lon="7.32975">
        <ele>742.20001220703</ele>
        <time>2013-12-21T12:41:51.000Z</time>
      </trkpt>
      <trkpt lat="43.95198" lon="7.32976">
        <ele>742</ele>
        <time>2013-12-21T12:41:53.000Z</time>
      </trkpt>
      <trkpt lat="43.95193" lon="7.3298">
        <ele>741.59997558594</ele>
        <time>2013-12-21T12:42:00.000Z</time>
      </trkpt>
      <trkpt lat="43.95192" lon="7.3298">
        <ele>741.59997558594</ele>
        <time>2013-12-21T12:42:01.000Z</time>
      </trkpt>
      <trkpt lat="43.95187" lon="7.32983">
        <ele>741.59997558594</ele>
        <time>2013-12-21T12:42:07.000Z</time>
      </trkpt>
      <trkpt lat="43.95185" lon="7.32984">
        <ele>741.59997558594</ele>
        <time>2013-12-21T12:42:10.000Z</time>
      </trkpt>
      <trkpt lat="43.95182" lon="7.32986">
        <ele>742.20001220703</ele>
        <time>2013-12-21T12:42:16.000Z</time>
      </trkpt>
      <trkpt lat="43.95178" lon="7.32985">
        <ele>743.59997558594</ele>
        <time>2013-12-21T12:42:24.000Z</time>
      </trkpt>
      <trkpt lat="43.95175" lon="7.32987">
        <ele>744.40002441406</ele>
        <time>2013-12-21T12:42:31.000Z</time>
      </trkpt>
      <trkpt lat="43.95172" lon="7.32988">
        <ele>745.79998779297</ele>
        <time>2013-12-21T12:42:37.000Z</time>
      </trkpt>
      <trkpt lat="43.95165" lon="7.32991">
        <ele>748.20001220703</ele>
        <time>2013-12-21T12:42:46.000Z</time>
      </trkpt>
      <trkpt lat="43.95161" lon="7.32993">
        <ele>750.59997558594</ele>
        <time>2013-12-21T12:42:54.000Z</time>
      </trkpt>
      <trkpt lat="43.95156" lon="7.32994">
        <ele>752.59997558594</ele>
        <time>2013-12-21T12:43:01.000Z</time>
      </trkpt>
      <trkpt lat="43.95151" lon="7.32996">
        <ele>754.40002441406</ele>
        <time>2013-12-21T12:43:09.000Z</time>
      </trkpt>
      <trkpt lat="43.95146" lon="7.32998">
        <ele>756</ele>
        <time>2013-12-21T12:43:16.000Z</time>
      </trkpt>
      <trkpt lat="43.95143" lon="7.33003">
        <ele>757.79998779297</ele>
        <time>2013-12-21T12:43:23.000Z</time>
      </trkpt>
      <trkpt lat="43.95147" lon="7.33004">
        <ele>759.20001220703</ele>
        <time>2013-12-21T12:43:30.000Z</time>
      </trkpt>
      <trkpt lat="43.95153" lon="7.33005">
        <ele>760.40002441406</ele>
        <time>2013-12-21T12:43:37.000Z</time>
      </trkpt>
      <trkpt lat="43.95163" lon="7.33007">
        <ele>762</ele>
        <time>2013-12-21T12:43:48.000Z</time>
      </trkpt>
      <trkpt lat="43.95171" lon="7.33007">
        <ele>763.20001220703</ele>
        <time>2013-12-21T12:43:57.000Z</time>
      </trkpt>
      <trkpt lat="43.95173" lon="7.33007">
        <ele>763.59997558594</ele>
        <time>2013-12-21T12:44:00.000Z</time>
      </trkpt>
      <trkpt lat="43.95175" lon="7.33009">
        <ele>764.20001220703</ele>
        <time>2013-12-21T12:44:04.000Z</time>
      </trkpt>
      <trkpt lat="43.9517" lon="7.3301">
        <ele>765.20001220703</ele>
        <time>2013-12-21T12:44:10.000Z</time>
      </trkpt>
      <trkpt lat="43.95167" lon="7.33014">
        <ele>765.40002441406</ele>
        <time>2013-12-21T12:44:14.000Z</time>
      </trkpt>
      <trkpt lat="43.95165" lon="7.33014">
        <ele>765.59997558594</ele>
        <time>2013-12-21T12:44:18.000Z</time>
      </trkpt>
      <trkpt lat="43.95161" lon="7.33016">
        <ele>766.20001220703</ele>
        <time>2013-12-21T12:44:26.000Z</time>
      </trkpt>
      <trkpt lat="43.95157" lon="7.33019">
        <ele>767.59997558594</ele>
        <time>2013-12-21T12:44:34.000Z</time>
      </trkpt>
      <trkpt lat="43.95153" lon="7.33021">
        <ele>769.20001220703</ele>
        <time>2013-12-21T12:44:41.000Z</time>
      </trkpt>
      <trkpt lat="43.9515" lon="7.33023">
        <ele>772</ele>
        <time>2013-12-21T12:44:47.000Z</time>
      </trkpt>
      <trkpt lat="43.95144" lon="7.3303">
        <ele>776.59997558594</ele>
        <time>2013-12-21T12:44:55.000Z</time>
      </trkpt>
      <trkpt lat="43.95141" lon="7.33033">
        <ele>779.79998779297</ele>
        <time>2013-12-21T12:45:00.000Z</time>
      </trkpt>
      <trkpt lat="43.95139" lon="7.33034">
        <ele>781.20001220703</ele>
        <time>2013-12-21T12:45:03.000Z</time>
      </trkpt>
      <trkpt lat="43.95136" lon="7.33037">
        <ele>783.20001220703</ele>
        <time>2013-12-21T12:45:10.000Z</time>
      </trkpt>
      <trkpt lat="43.95137" lon="7.3304">
        <ele>784.59997558594</ele>
        <time>2013-12-21T12:45:16.000Z</time>
      </trkpt>
      <trkpt lat="43.95142" lon="7.33039">
        <ele>785.40002441406</ele>
        <time>2013-12-21T12:45:23.000Z</time>
      </trkpt>
      <trkpt lat="43.95147" lon="7.33038">
        <ele>785.40002441406</ele>
        <time>2013-12-21T12:45:31.000Z</time>
      </trkpt>
      <trkpt lat="43.95156" lon="7.33039">
        <ele>785.59997558594</ele>
        <time>2013-12-21T12:45:43.000Z</time>
      </trkpt>
      <trkpt lat="43.95163" lon="7.3304">
        <ele>786</ele>
        <time>2013-12-21T12:45:51.000Z</time>
      </trkpt>
      <trkpt lat="43.95165" lon="7.33041">
        <ele>786</ele>
        <time>2013-12-21T12:45:54.000Z</time>
      </trkpt>
      <trkpt lat="43.95164" lon="7.33043">
        <ele>786.20001220703</ele>
        <time>2013-12-21T12:45:57.000Z</time>
      </trkpt>
      <trkpt lat="43.95158" lon="7.33045">
        <ele>787.40002441406</ele>
        <time>2013-12-21T12:46:06.000Z</time>
      </trkpt>
      <trkpt lat="43.95151" lon="7.3305">
        <ele>789.59997558594</ele>
        <time>2013-12-21T12:46:15.000Z</time>
      </trkpt>
      <trkpt lat="43.95146" lon="7.33056">
        <ele>791.59997558594</ele>
        <time>2013-12-21T12:46:22.000Z</time>
      </trkpt>
      <trkpt lat="43.95141" lon="7.33065">
        <ele>793.79998779297</ele>
        <time>2013-12-21T12:46:31.000Z</time>
      </trkpt>
      <trkpt lat="43.95139" lon="7.33069">
        <ele>795</ele>
        <time>2013-12-21T12:46:36.000Z</time>
      </trkpt>
      <trkpt lat="43.95135" lon="7.33069">
        <ele>795.79998779297</ele>
        <time>2013-12-21T12:46:39.000Z</time>
      </trkpt>
      <trkpt lat="43.95129" lon="7.33069">
        <ele>797.79998779297</ele>
        <time>2013-12-21T12:46:45.000Z</time>
      </trkpt>
      <trkpt lat="43.95122" lon="7.3307">
        <ele>801.40002441406</ele>
        <time>2013-12-21T12:46:53.000Z</time>
      </trkpt>
      <trkpt lat="43.95116" lon="7.3307">
        <ele>805</ele>
        <time>2013-12-21T12:47:01.000Z</time>
      </trkpt>
      <trkpt lat="43.95113" lon="7.33071">
        <ele>806</ele>
        <time>2013-12-21T12:47:04.000Z</time>
      </trkpt>
      <trkpt lat="43.95111" lon="7.33072">
        <ele>807.59997558594</ele>
        <time>2013-12-21T12:47:08.000Z</time>
      </trkpt>
      <trkpt lat="43.95109" lon="7.33073">
        <ele>808.59997558594</ele>
        <time>2013-12-21T12:47:11.000Z</time>
      </trkpt>
      <trkpt lat="43.9511" lon="7.33075">
        <ele>809.20001220703</ele>
        <time>2013-12-21T12:47:13.000Z</time>
      </trkpt>
      <trkpt lat="43.95112" lon="7.33075">
        <ele>810.79998779297</ele>
        <time>2013-12-21T12:47:19.000Z</time>
      </trkpt>
      <trkpt lat="43.95117" lon="7.33074">
        <ele>813.40002441406</ele>
        <time>2013-12-21T12:47:27.000Z</time>
      </trkpt>
      <trkpt lat="43.9512" lon="7.33078">
        <ele>814.59997558594</ele>
        <time>2013-12-21T12:47:33.000Z</time>
      </trkpt>
      <trkpt lat="43.95115" lon="7.33078">
        <ele>816.40002441406</ele>
        <time>2013-12-21T12:47:42.000Z</time>
      </trkpt>
      <trkpt lat="43.95112" lon="7.33081">
        <ele>817.40002441406</ele>
        <time>2013-12-21T12:47:46.000Z</time>
      </trkpt>
      <trkpt lat="43.9511" lon="7.33082">
        <ele>817.79998779297</ele>
        <time>2013-12-21T12:47:48.000Z</time>
      </trkpt>
      <trkpt lat="43.95105" lon="7.33083">
        <ele>819.59997558594</ele>
        <time>2013-12-21T12:47:53.000Z</time>
      </trkpt>
      <trkpt lat="43.95104" lon="7.33082">
        <ele>819.79998779297</ele>
        <time>2013-12-21T12:47:54.000Z</time>
      </trkpt>
      <trkpt lat="43.95102" lon="7.33079">
        <ele>821</ele>
        <time>2013-12-21T12:47:58.000Z</time>
      </trkpt>
      <trkpt lat="43.95101" lon="7.33078">
        <ele>821.40002441406</ele>
        <time>2013-12-21T12:47:59.000Z</time>
      </trkpt>
      <trkpt lat="43.95098" lon="7.33076">
        <ele>822.59997558594</ele>
        <time>2013-12-21T12:48:03.000Z</time>
      </trkpt>
      <trkpt lat="43.95098" lon="7.33077">
        <ele>822.79998779297</ele>
        <time>2013-12-21T12:48:04.000Z</time>
      </trkpt>
      <trkpt lat="43.95095" lon="7.33076">
        <ele>823.59997558594</ele>
        <time>2013-12-21T12:48:08.000Z</time>
      </trkpt>
      <trkpt lat="43.95094" lon="7.33075">
        <ele>824.20001220703</ele>
        <time>2013-12-21T12:48:10.000Z</time>
      </trkpt>
      <trkpt lat="43.95091" lon="7.33075">
        <ele>825.40002441406</ele>
        <time>2013-12-21T12:48:14.000Z</time>
      </trkpt>
      <trkpt lat="43.95088" lon="7.33074">
        <ele>826.59997558594</ele>
        <time>2013-12-21T12:48:17.000Z</time>
      </trkpt>
      <trkpt lat="43.95085" lon="7.33074">
        <ele>827.79998779297</ele>
        <time>2013-12-21T12:48:21.000Z</time>
      </trkpt>
      <trkpt lat="43.9508" lon="7.33075">
        <ele>829</ele>
        <time>2013-12-21T12:48:28.000Z</time>
      </trkpt>
      <trkpt lat="43.95079" lon="7.33073">
        <ele>829.20001220703</ele>
        <time>2013-12-21T12:48:30.000Z</time>
      </trkpt>
      <trkpt lat="43.95076" lon="7.3307">
        <ele>830</ele>
        <time>2013-12-21T12:48:33.000Z</time>
      </trkpt>
      <trkpt lat="43.95074" lon="7.33071">
        <ele>830.20001220703</ele>
        <time>2013-12-21T12:48:36.000Z</time>
      </trkpt>
      <trkpt lat="43.95074" lon="7.3307">
        <ele>830</ele>
        <time>2013-12-21T12:48:37.000Z</time>
      </trkpt>
      <trkpt lat="43.95074" lon="7.33069">
        <ele>830</ele>
        <time>2013-12-21T12:48:38.000Z</time>
      </trkpt>
      <trkpt lat="43.95072" lon="7.33067">
        <ele>830.40002441406</ele>
        <time>2013-12-21T12:48:40.000Z</time>
      </trkpt>
      <trkpt lat="43.95069" lon="7.33064">
        <ele>831</ele>
        <time>2013-12-21T12:48:44.000Z</time>
      </trkpt>
      <trkpt lat="43.95067" lon="7.33063">
        <ele>831.40002441406</ele>
        <time>2013-12-21T12:48:49.000Z</time>
      </trkpt>
      <trkpt lat="43.95063" lon="7.33061">
        <ele>832.20001220703</ele>
        <time>2013-12-21T12:48:57.000Z</time>
      </trkpt>
      <trkpt lat="43.9506" lon="7.33058">
        <ele>832.79998779297</ele>
        <time>2013-12-21T12:49:03.000Z</time>
      </trkpt>
      <trkpt lat="43.95056" lon="7.33055">
        <ele>833.59997558594</ele>
        <time>2013-12-21T12:49:11.000Z</time>
      </trkpt>
      <trkpt lat="43.9505" lon="7.33052">
        <ele>834.40002441406</ele>
        <time>2013-12-21T12:49:17.000Z</time>
      </trkpt>
      <trkpt lat="43.95044" lon="7.33048">
        <ele>835</ele>
        <time>2013-12-21T12:49:23.000Z</time>
      </trkpt>
      <trkpt lat="43.95037" lon="7.33045">
        <ele>835.79998779297</ele>
        <time>2013-12-21T12:49:31.000Z</time>
      </trkpt>
      <trkpt lat="43.95029" lon="7.33043">
        <ele>836.59997558594</ele>
        <time>2013-12-21T12:49:39.000Z</time>
      </trkpt>
      <trkpt lat="43.95022" lon="7.33044">
        <ele>837.40002441406</ele>
        <time>2013-12-21T12:49:47.000Z</time>
      </trkpt>
      <trkpt lat="43.95012" lon="7.33043">
        <ele>838.40002441406</ele>
        <time>2013-12-21T12:49:56.000Z</time>
      </trkpt>
      <trkpt lat="43.95002" lon="7.33041">
        <ele>839.40002441406</ele>
        <time>2013-12-21T12:50:05.000Z</time>
      </trkpt>
      <trkpt lat="43.94993" lon="7.33036">
        <ele>840.20001220703</ele>
        <time>2013-12-21T12:50:14.000Z</time>
      </trkpt>
      <trkpt lat="43.94985" lon="7.33033">
        <ele>841.20001220703</ele>
        <time>2013-12-21T12:50:22.000Z</time>
      </trkpt>
      <trkpt lat="43.94983" lon="7.33033">
        <ele>841.79998779297</ele>
        <time>2013-12-21T12:50:25.000Z</time>
      </trkpt>
      <trkpt lat="43.94979" lon="7.33034">
        <ele>842.59997558594</ele>
        <time>2013-12-21T12:50:30.000Z</time>
      </trkpt>
      <trkpt lat="43.94973" lon="7.33037">
        <ele>843.79998779297</ele>
        <time>2013-12-21T12:50:37.000Z</time>
      </trkpt>
      <trkpt lat="43.94965" lon="7.3304">
        <ele>844.40002441406</ele>
        <time>2013-12-21T12:50:45.000Z</time>
      </trkpt>
      <trkpt lat="43.94961" lon="7.33044">
        <ele>844.20001220703</ele>
        <time>2013-12-21T12:50:52.000Z</time>
      </trkpt>
      <trkpt lat="43.9496" lon="7.33045">
        <ele>844.20001220703</ele>
        <time>2013-12-21T12:50:53.000Z</time>
      </trkpt>
      <trkpt lat="43.94954" lon="7.33052">
        <ele>844</ele>
        <time>2013-12-21T12:51:02.000Z</time>
      </trkpt>
      <trkpt lat="43.94953" lon="7.33052">
        <ele>844</ele>
        <time>2013-12-21T12:51:03.000Z</time>
      </trkpt>
      <trkpt lat="43.9495" lon="7.33049">
        <ele>844</ele>
        <time>2013-12-21T12:51:07.000Z</time>
      </trkpt>
      <trkpt lat="43.94949" lon="7.33048">
        <ele>844</ele>
        <time>2013-12-21T12:51:08.000Z</time>
      </trkpt>
      <trkpt lat="43.94944" lon="7.33044">
        <ele>843.79998779297</ele>
        <time>2013-12-21T12:51:12.000Z</time>
      </trkpt>
      <trkpt lat="43.94944" lon="7.33045">
        <ele>843.79998779297</ele>
        <time>2013-12-21T12:51:14.000Z</time>
      </trkpt>
      <trkpt lat="43.94943" lon="7.33046">
        <ele>843.79998779297</ele>
        <time>2013-12-21T12:51:16.000Z</time>
      </trkpt>
      <trkpt lat="43.94941" lon="7.33049">
        <ele>844.20001220703</ele>
        <time>2013-12-21T12:51:22.000Z</time>
      </trkpt>
      <trkpt lat="43.94938" lon="7.33056">
        <ele>844.59997558594</ele>
        <time>2013-12-21T12:51:29.000Z</time>
      </trkpt>
      <trkpt lat="43.94937" lon="7.3306">
        <ele>844.79998779297</ele>
        <time>2013-12-21T12:51:32.000Z</time>
      </trkpt>
      <trkpt lat="43.94936" lon="7.33064">
        <ele>845</ele>
        <time>2013-12-21T12:51:36.000Z</time>
      </trkpt>
      <trkpt lat="43.94936" lon="7.33065">
        <ele>845.20001220703</ele>
        <time>2013-12-21T12:51:37.000Z</time>
      </trkpt>
      <trkpt lat="43.94933" lon="7.33073">
        <ele>846.59997558594</ele>
        <time>2013-12-21T12:51:44.000Z</time>
      </trkpt>
      <trkpt lat="43.94933" lon="7.33076">
        <ele>848</ele>
        <time>2013-12-21T12:51:51.000Z</time>
      </trkpt>
      <trkpt lat="43.94927" lon="7.33082">
        <ele>850</ele>
        <time>2013-12-21T12:52:00.000Z</time>
      </trkpt>
      <trkpt lat="43.94921" lon="7.33091">
        <ele>851.40002441406</ele>
        <time>2013-12-21T12:52:06.000Z</time>
      </trkpt>
      <trkpt lat="43.94918" lon="7.33095">
        <ele>852.20001220703</ele>
        <time>2013-12-21T12:52:10.000Z</time>
      </trkpt>
      <trkpt lat="43.94916" lon="7.33095">
        <ele>852.59997558594</ele>
        <time>2013-12-21T12:52:11.000Z</time>
      </trkpt>
      <trkpt lat="43.94914" lon="7.33096">
        <ele>852.79998779297</ele>
        <time>2013-12-21T12:52:12.000Z</time>
      </trkpt>
      <trkpt lat="43.94913" lon="7.33098">
        <ele>853.59997558594</ele>
        <time>2013-12-21T12:52:14.000Z</time>
      </trkpt>
      <trkpt lat="43.94908" lon="7.33102">
        <ele>854.40002441406</ele>
        <time>2013-12-21T12:52:17.000Z</time>
      </trkpt>
      <trkpt lat="43.949" lon="7.3311">
        <ele>856</ele>
        <time>2013-12-21T12:52:24.000Z</time>
      </trkpt>
      <trkpt lat="43.94898" lon="7.3311">
        <ele>856.79998779297</ele>
        <time>2013-12-21T12:52:26.000Z</time>
      </trkpt>
      <trkpt lat="43.94898" lon="7.33111">
        <ele>857</ele>
        <time>2013-12-21T12:52:27.000Z</time>
      </trkpt>
      <trkpt lat="43.94896" lon="7.33112">
        <ele>857.79998779297</ele>
        <time>2013-12-21T12:52:29.000Z</time>
      </trkpt>
      <trkpt lat="43.94895" lon="7.33114">
        <ele>858.59997558594</ele>
        <time>2013-12-21T12:52:31.000Z</time>
      </trkpt>
      <trkpt lat="43.94893" lon="7.33116">
        <ele>859.59997558594</ele>
        <time>2013-12-21T12:52:34.000Z</time>
      </trkpt>
      <trkpt lat="43.94885" lon="7.33121">
        <ele>860.79998779297</ele>
        <time>2013-12-21T12:52:41.000Z</time>
      </trkpt>
      <trkpt lat="43.94881" lon="7.33128">
        <ele>861.79998779297</ele>
        <time>2013-12-21T12:52:46.000Z</time>
      </trkpt>
      <trkpt lat="43.94881" lon="7.3313">
        <ele>861.79998779297</ele>
        <time>2013-12-21T12:52:48.000Z</time>
      </trkpt>
      <trkpt lat="43.9488" lon="7.33132">
        <ele>861.59997558594</ele>
        <time>2013-12-21T12:52:52.000Z</time>
      </trkpt>
      <trkpt lat="43.94877" lon="7.33133">
        <ele>861.59997558594</ele>
        <time>2013-12-21T12:52:58.000Z</time>
      </trkpt>
      <trkpt lat="43.94873" lon="7.33137">
        <ele>861.40002441406</ele>
        <time>2013-12-21T12:53:05.000Z</time>
      </trkpt>
      <trkpt lat="43.9487" lon="7.33138">
        <ele>861.20001220703</ele>
        <time>2013-12-21T12:53:10.000Z</time>
      </trkpt>
      <trkpt lat="43.94866" lon="7.3314">
        <ele>861</ele>
        <time>2013-12-21T12:53:16.000Z</time>
      </trkpt>
      <trkpt lat="43.94865" lon="7.33141">
        <ele>861</ele>
        <time>2013-12-21T12:53:17.000Z</time>
      </trkpt>
      <trkpt lat="43.94862" lon="7.33144">
        <ele>860.79998779297</ele>
        <time>2013-12-21T12:53:20.000Z</time>
      </trkpt>
      <trkpt lat="43.94861" lon="7.33144">
        <ele>860.79998779297</ele>
        <time>2013-12-21T12:53:22.000Z</time>
      </trkpt>
      <trkpt lat="43.94855" lon="7.3315">
        <ele>861.40002441406</ele>
        <time>2013-12-21T12:53:35.000Z</time>
      </trkpt>
      <trkpt lat="43.94849" lon="7.33152">
        <ele>863.59997558594</ele>
        <time>2013-12-21T12:53:44.000Z</time>
      </trkpt>
      <trkpt lat="43.94847" lon="7.33153">
        <ele>864.20001220703</ele>
        <time>2013-12-21T12:53:46.000Z</time>
      </trkpt>
      <trkpt lat="43.94846" lon="7.33153">
        <ele>864.79998779297</ele>
        <time>2013-12-21T12:53:48.000Z</time>
      </trkpt>
      <trkpt lat="43.94843" lon="7.33159">
        <ele>866.40002441406</ele>
        <time>2013-12-21T12:53:54.000Z</time>
      </trkpt>
      <trkpt lat="43.94842" lon="7.33161">
        <ele>867.20001220703</ele>
        <time>2013-12-21T12:53:57.000Z</time>
      </trkpt>
      <trkpt lat="43.94843" lon="7.33164">
        <ele>867.79998779297</ele>
        <time>2013-12-21T12:54:00.000Z</time>
      </trkpt>
      <trkpt lat="43.94844" lon="7.33164">
        <ele>868.59997558594</ele>
        <time>2013-12-21T12:54:02.000Z</time>
      </trkpt>
      <trkpt lat="43.94844" lon="7.33165">
        <ele>869.40002441406</ele>
        <time>2013-12-21T12:54:05.000Z</time>
      </trkpt>
      <trkpt lat="43.94843" lon="7.33165">
        <ele>869.79998779297</ele>
        <time>2013-12-21T12:54:06.000Z</time>
      </trkpt>
      <trkpt lat="43.9484" lon="7.33164">
        <ele>871</ele>
        <time>2013-12-21T12:54:12.000Z</time>
      </trkpt>
      <trkpt lat="43.94836" lon="7.33163">
        <ele>871.79998779297</ele>
        <time>2013-12-21T12:54:18.000Z</time>
      </trkpt>
      <trkpt lat="43.94834" lon="7.33162">
        <ele>872.20001220703</ele>
        <time>2013-12-21T12:54:20.000Z</time>
      </trkpt>
      <trkpt lat="43.94832" lon="7.3316">
        <ele>873</ele>
        <time>2013-12-21T12:54:24.000Z</time>
      </trkpt>
      <trkpt lat="43.94828" lon="7.33159">
        <ele>874.40002441406</ele>
        <time>2013-12-21T12:54:30.000Z</time>
      </trkpt>
      <trkpt lat="43.94826" lon="7.33161">
        <ele>875.79998779297</ele>
        <time>2013-12-21T12:54:37.000Z</time>
      </trkpt>
      <trkpt lat="43.94826" lon="7.33163">
        <ele>877</ele>
        <time>2013-12-21T12:54:43.000Z</time>
      </trkpt>
      <trkpt lat="43.94826" lon="7.33166">
        <ele>877</ele>
        <time>2013-12-21T12:54:47.000Z</time>
      </trkpt>
      <trkpt lat="43.94827" lon="7.3317">
        <ele>878</ele>
        <time>2013-12-21T12:54:53.000Z</time>
      </trkpt>
      <trkpt lat="43.94828" lon="7.3318">
        <ele>879</ele>
        <time>2013-12-21T12:54:59.000Z</time>
      </trkpt>
      <trkpt lat="43.94828" lon="7.33181">
        <ele>879.20001220703</ele>
        <time>2013-12-21T12:55:00.000Z</time>
      </trkpt>
      <trkpt lat="43.94827" lon="7.33185">
        <ele>880.20001220703</ele>
        <time>2013-12-21T12:55:05.000Z</time>
      </trkpt>
      <trkpt lat="43.94824" lon="7.33186">
        <ele>881.59997558594</ele>
        <time>2013-12-21T12:55:11.000Z</time>
      </trkpt>
      <trkpt lat="43.94822" lon="7.33182">
        <ele>882.20001220703</ele>
        <time>2013-12-21T12:55:16.000Z</time>
      </trkpt>
      <trkpt lat="43.94816" lon="7.33177">
        <ele>883.40002441406</ele>
        <time>2013-12-21T12:55:23.000Z</time>
      </trkpt>
      <trkpt lat="43.94814" lon="7.33176">
        <ele>883.59997558594</ele>
        <time>2013-12-21T12:55:25.000Z</time>
      </trkpt>
      <trkpt lat="43.9481" lon="7.33175">
        <ele>884.40002441406</ele>
        <time>2013-12-21T12:55:30.000Z</time>
      </trkpt>
      <trkpt lat="43.94809" lon="7.33174">
        <ele>884.40002441406</ele>
        <time>2013-12-21T12:55:31.000Z</time>
      </trkpt>
      <trkpt lat="43.94804" lon="7.33172">
        <ele>884.79998779297</ele>
        <time>2013-12-21T12:55:39.000Z</time>
      </trkpt>
      <trkpt lat="43.948" lon="7.33169">
        <ele>885.20001220703</ele>
        <time>2013-12-21T12:55:46.000Z</time>
      </trkpt>
      <trkpt lat="43.94796" lon="7.33168">
        <ele>885.79998779297</ele>
        <time>2013-12-21T12:55:53.000Z</time>
      </trkpt>
      <trkpt lat="43.94794" lon="7.33169">
        <ele>886</ele>
        <time>2013-12-21T12:56:02.000Z</time>
      </trkpt>
      <trkpt lat="43.94787" lon="7.33168">
        <ele>885.79998779297</ele>
        <time>2013-12-21T12:56:14.000Z</time>
      </trkpt>
      <trkpt lat="43.94787" lon="7.33169">
        <ele>885.59997558594</ele>
        <time>2013-12-21T12:56:23.000Z</time>
      </trkpt>
      <trkpt lat="43.94788" lon="7.33172">
        <ele>888.59997558594</ele>
        <time>2013-12-21T13:01:57.000Z</time>
      </trkpt>
      <trkpt lat="43.94781" lon="7.33177">
        <ele>888.59997558594</ele>
        <time>2013-12-21T13:02:01.000Z</time>
      </trkpt>
      <trkpt lat="43.94778" lon="7.3319">
        <ele>888.40002441406</ele>
        <time>2013-12-21T13:02:05.000Z</time>
      </trkpt>
      <trkpt lat="43.94781" lon="7.33203">
        <ele>888.20001220703</ele>
        <time>2013-12-21T13:02:08.000Z</time>
      </trkpt>
      <trkpt lat="43.94784" lon="7.33212">
        <ele>888</ele>
        <time>2013-12-21T13:02:10.000Z</time>
      </trkpt>
      <trkpt lat="43.94789" lon="7.3323">
        <ele>887.40002441406</ele>
        <time>2013-12-21T13:02:15.000Z</time>
      </trkpt>
      <trkpt lat="43.94792" lon="7.33248">
        <ele>886.79998779297</ele>
        <time>2013-12-21T13:02:19.000Z</time>
      </trkpt>
      <trkpt lat="43.94794" lon="7.33269">
        <ele>886.20001220703</ele>
        <time>2013-12-21T13:02:22.000Z</time>
      </trkpt>
      <trkpt lat="43.94792" lon="7.33288">
        <ele>885.79998779297</ele>
        <time>2013-12-21T13:02:25.000Z</time>
      </trkpt>
      <trkpt lat="43.948" lon="7.33305">
        <ele>885.20001220703</ele>
        <time>2013-12-21T13:02:28.000Z</time>
      </trkpt>
      <trkpt lat="43.94802" lon="7.33312">
        <ele>885</ele>
        <time>2013-12-21T13:02:29.000Z</time>
      </trkpt>
      <trkpt lat="43.94808" lon="7.33318">
        <ele>884.79998779297</ele>
        <time>2013-12-21T13:02:30.000Z</time>
      </trkpt>
      <trkpt lat="43.94811" lon="7.33332">
        <ele>884.40002441406</ele>
        <time>2013-12-21T13:02:32.000Z</time>
      </trkpt>
      <trkpt lat="43.94809" lon="7.33337">
        <ele>883.79998779297</ele>
        <time>2013-12-21T13:02:35.000Z</time>
      </trkpt>
      <trkpt lat="43.94804" lon="7.33355">
        <ele>882.79998779297</ele>
        <time>2013-12-21T13:02:39.000Z</time>
      </trkpt>
      <trkpt lat="43.94808" lon="7.33373">
        <ele>882</ele>
        <time>2013-12-21T13:02:42.000Z</time>
      </trkpt>
      <trkpt lat="43.94812" lon="7.3338">
        <ele>881.79998779297</ele>
        <time>2013-12-21T13:02:43.000Z</time>
      </trkpt>
      <trkpt lat="43.94818" lon="7.33396">
        <ele>880.79998779297</ele>
        <time>2013-12-21T13:02:46.000Z</time>
      </trkpt>
      <trkpt lat="43.94817" lon="7.33401">
        <ele>880.59997558594</ele>
        <time>2013-12-21T13:02:47.000Z</time>
      </trkpt>
      <trkpt lat="43.9481" lon="7.33405">
        <ele>879.79998779297</ele>
        <time>2013-12-21T13:02:50.000Z</time>
      </trkpt>
      <trkpt lat="43.94805" lon="7.33404">
        <ele>879.20001220703</ele>
        <time>2013-12-21T13:02:52.000Z</time>
      </trkpt>
      <trkpt lat="43.94795" lon="7.33402">
        <ele>878.59997558594</ele>
        <time>2013-12-21T13:02:55.000Z</time>
      </trkpt>
      <trkpt lat="43.94791" lon="7.33403">
        <ele>878.40002441406</ele>
        <time>2013-12-21T13:02:56.000Z</time>
      </trkpt>
      <trkpt lat="43.94778" lon="7.33399">
        <ele>877.59997558594</ele>
        <time>2013-12-21T13:03:00.000Z</time>
      </trkpt>
      <trkpt lat="43.94759" lon="7.33393">
        <ele>876.79998779297</ele>
        <time>2013-12-21T13:03:04.000Z</time>
      </trkpt>
      <trkpt lat="43.94755" lon="7.33393">
        <ele>876.59997558594</ele>
        <time>2013-12-21T13:03:05.000Z</time>
      </trkpt>
      <trkpt lat="43.9475" lon="7.33391">
        <ele>876.40002441406</ele>
        <time>2013-12-21T13:03:06.000Z</time>
      </trkpt>
      <trkpt lat="43.94743" lon="7.33386">
        <ele>876.20001220703</ele>
        <time>2013-12-21T13:03:08.000Z</time>
      </trkpt>
      <trkpt lat="43.94739" lon="7.33384">
        <ele>876</ele>
        <time>2013-12-21T13:03:09.000Z</time>
      </trkpt>
      <trkpt lat="43.94731" lon="7.3338">
        <ele>875.79998779297</ele>
        <time>2013-12-21T13:03:11.000Z</time>
      </trkpt>
      <trkpt lat="43.94723" lon="7.33378">
        <ele>875.59997558594</ele>
        <time>2013-12-21T13:03:13.000Z</time>
      </trkpt>
      <trkpt lat="43.94704" lon="7.33379">
        <ele>874.79998779297</ele>
        <time>2013-12-21T13:03:19.000Z</time>
      </trkpt>
      <trkpt lat="43.94694" lon="7.33395">
        <ele>874.40002441406</ele>
        <time>2013-12-21T13:03:22.000Z</time>
      </trkpt>
      <trkpt lat="43.94686" lon="7.334">
        <ele>874.20001220703</ele>
        <time>2013-12-21T13:03:24.000Z</time>
      </trkpt>
      <trkpt lat="43.94682" lon="7.33402">
        <ele>874</ele>
        <time>2013-12-21T13:03:25.000Z</time>
      </trkpt>
      <trkpt lat="43.94677" lon="7.33402">
        <ele>874</ele>
        <time>2013-12-21T13:03:26.000Z</time>
      </trkpt>
      <trkpt lat="43.94663" lon="7.33404">
        <ele>873.59997558594</ele>
        <time>2013-12-21T13:03:29.000Z</time>
      </trkpt>
      <trkpt lat="43.94652" lon="7.33415">
        <ele>873</ele>
        <time>2013-12-21T13:03:33.000Z</time>
      </trkpt>
      <trkpt lat="43.94655" lon="7.33422">
        <ele>872.40002441406</ele>
        <time>2013-12-21T13:03:36.000Z</time>
      </trkpt>
      <trkpt lat="43.94658" lon="7.33426">
        <ele>872.40002441406</ele>
        <time>2013-12-21T13:03:37.000Z</time>
      </trkpt>
      <trkpt lat="43.94666" lon="7.33437">
        <ele>871.79998779297</ele>
        <time>2013-12-21T13:03:40.000Z</time>
      </trkpt>
      <trkpt lat="43.94686" lon="7.33457">
        <ele>871</ele>
        <time>2013-12-21T13:03:45.000Z</time>
      </trkpt>
      <trkpt lat="43.94693" lon="7.33465">
        <ele>870.59997558594</ele>
        <time>2013-12-21T13:03:47.000Z</time>
      </trkpt>
      <trkpt lat="43.94704" lon="7.33476">
        <ele>870</ele>
        <time>2013-12-21T13:03:50.000Z</time>
      </trkpt>
      <trkpt lat="43.94705" lon="7.33481">
        <ele>869.79998779297</ele>
        <time>2013-12-21T13:03:51.000Z</time>
      </trkpt>
      <trkpt lat="43.94702" lon="7.33496">
        <ele>869.20001220703</ele>
        <time>2013-12-21T13:03:54.000Z</time>
      </trkpt>
      <trkpt lat="43.94699" lon="7.33509">
        <ele>868.40002441406</ele>
        <time>2013-12-21T13:03:57.000Z</time>
      </trkpt>
      <trkpt lat="43.94697" lon="7.33513">
        <ele>868.20001220703</ele>
        <time>2013-12-21T13:03:58.000Z</time>
      </trkpt>
      <trkpt lat="43.94691" lon="7.33528">
        <ele>867.40002441406</ele>
        <time>2013-12-21T13:04:01.000Z</time>
      </trkpt>
      <trkpt lat="43.94685" lon="7.33533">
        <ele>867</ele>
        <time>2013-12-21T13:04:03.000Z</time>
      </trkpt>
      <trkpt lat="43.94681" lon="7.33535">
        <ele>866.59997558594</ele>
        <time>2013-12-21T13:04:04.000Z</time>
      </trkpt>
      <trkpt lat="43.94666" lon="7.3353">
        <ele>865.79998779297</ele>
        <time>2013-12-21T13:04:08.000Z</time>
      </trkpt>
      <trkpt lat="43.94655" lon="7.33533">
        <ele>864.79998779297</ele>
        <time>2013-12-21T13:04:12.000Z</time>
      </trkpt>
      <trkpt lat="43.94648" lon="7.33549">
        <ele>863.59997558594</ele>
        <time>2013-12-21T13:04:16.000Z</time>
      </trkpt>
      <trkpt lat="43.94645" lon="7.33562">
        <ele>862.79998779297</ele>
        <time>2013-12-21T13:04:19.000Z</time>
      </trkpt>
      <trkpt lat="43.94647" lon="7.33568">
        <ele>862.59997558594</ele>
        <time>2013-12-21T13:04:20.000Z</time>
      </trkpt>
      <trkpt lat="43.94651" lon="7.33593">
        <ele>861.40002441406</ele>
        <time>2013-12-21T13:04:24.000Z</time>
      </trkpt>
      <trkpt lat="43.94643" lon="7.33607">
        <ele>860.59997558594</ele>
        <time>2013-12-21T13:04:27.000Z</time>
      </trkpt>
      <trkpt lat="43.94641" lon="7.33611">
        <ele>860.40002441406</ele>
        <time>2013-12-21T13:04:28.000Z</time>
      </trkpt>
      <trkpt lat="43.9463" lon="7.33617">
        <ele>859.79998779297</ele>
        <time>2013-12-21T13:04:31.000Z</time>
      </trkpt>
      <trkpt lat="43.94623" lon="7.33615">
        <ele>859.20001220703</ele>
        <time>2013-12-21T13:04:35.000Z</time>
      </trkpt>
      <trkpt lat="43.94614" lon="7.33604">
        <ele>858.59997558594</ele>
        <time>2013-12-21T13:04:41.000Z</time>
      </trkpt>
      <trkpt lat="43.94613" lon="7.33601">
        <ele>858.59997558594</ele>
        <time>2013-12-21T13:04:42.000Z</time>
      </trkpt>
      <trkpt lat="43.94604" lon="7.33591">
        <ele>858.20001220703</ele>
        <time>2013-12-21T13:04:45.000Z</time>
      </trkpt>
      <trkpt lat="43.94586" lon="7.33578">
        <ele>857.40002441406</ele>
        <time>2013-12-21T13:04:50.000Z</time>
      </trkpt>
      <trkpt lat="43.94572" lon="7.33568">
        <ele>856.79998779297</ele>
        <time>2013-12-21T13:04:54.000Z</time>
      </trkpt>
      <trkpt lat="43.94557" lon="7.33568">
        <ele>855.79998779297</ele>
        <time>2013-12-21T13:05:00.000Z</time>
      </trkpt>
      <trkpt lat="43.94552" lon="7.3357">
        <ele>855.59997558594</ele>
        <time>2013-12-21T13:05:02.000Z</time>
      </trkpt>
      <trkpt lat="43.94546" lon="7.33576">
        <ele>855.20001220703</ele>
        <time>2013-12-21T13:05:05.000Z</time>
      </trkpt>
      <trkpt lat="43.94545" lon="7.33577">
        <ele>855</ele>
        <time>2013-12-21T13:05:06.000Z</time>
      </trkpt>
      <trkpt lat="43.94538" lon="7.3358">
        <ele>854.59997558594</ele>
        <time>2013-12-21T13:05:11.000Z</time>
      </trkpt>
      <trkpt lat="43.9453" lon="7.33586">
        <ele>854.20001220703</ele>
        <time>2013-12-21T13:05:17.000Z</time>
      </trkpt>
      <trkpt lat="43.94521" lon="7.33592">
        <ele>853.79998779297</ele>
        <time>2013-12-21T13:05:22.000Z</time>
      </trkpt>
      <trkpt lat="43.94514" lon="7.336">
        <ele>853.59997558594</ele>
        <time>2013-12-21T13:05:27.000Z</time>
      </trkpt>
      <trkpt lat="43.94512" lon="7.33603">
        <ele>853.40002441406</ele>
        <time>2013-12-21T13:05:30.000Z</time>
      </trkpt>
      <trkpt lat="43.94511" lon="7.33602">
        <ele>853.20001220703</ele>
        <time>2013-12-21T13:05:32.000Z</time>
      </trkpt>
      <trkpt lat="43.94507" lon="7.33593">
        <ele>853.20001220703</ele>
        <time>2013-12-21T13:05:38.000Z</time>
      </trkpt>
      <trkpt lat="43.94508" lon="7.33591">
        <ele>853.40002441406</ele>
        <time>2013-12-21T13:05:39.000Z</time>
      </trkpt>
      <trkpt lat="43.94507" lon="7.33593">
        <ele>853.20001220703</ele>
        <time>2013-12-21T13:05:45.000Z</time>
      </trkpt>
      <trkpt lat="43.94501" lon="7.33605">
        <ele>853</ele>
        <time>2013-12-21T13:05:49.000Z</time>
      </trkpt>
      <trkpt lat="43.945" lon="7.33606">
        <ele>853</ele>
        <time>2013-12-21T13:05:51.000Z</time>
      </trkpt>
      <trkpt lat="43.94498" lon="7.33605">
        <ele>853</ele>
        <time>2013-12-21T13:05:53.000Z</time>
      </trkpt>
      <trkpt lat="43.94496" lon="7.33606">
        <ele>852.79998779297</ele>
        <time>2013-12-21T13:05:55.000Z</time>
      </trkpt>
      <trkpt lat="43.94495" lon="7.33605">
        <ele>852.79998779297</ele>
        <time>2013-12-21T13:05:56.000Z</time>
      </trkpt>
      <trkpt lat="43.94494" lon="7.33604">
        <ele>852.79998779297</ele>
        <time>2013-12-21T13:05:57.000Z</time>
      </trkpt>
      <trkpt lat="43.94493" lon="7.33601">
        <ele>852.59997558594</ele>
        <time>2013-12-21T13:06:00.000Z</time>
      </trkpt>
      <trkpt lat="43.9449" lon="7.33596">
        <ele>852.40002441406</ele>
        <time>2013-12-21T13:06:02.000Z</time>
      </trkpt>
      <trkpt lat="43.94487" lon="7.33591">
        <ele>852.20001220703</ele>
        <time>2013-12-21T13:06:06.000Z</time>
      </trkpt>
      <trkpt lat="43.94479" lon="7.33576">
        <ele>852.59997558594</ele>
        <time>2013-12-21T13:06:20.000Z</time>
      </trkpt>
      <trkpt lat="43.94475" lon="7.33559">
        <ele>852.40002441406</ele>
        <time>2013-12-21T13:06:25.000Z</time>
      </trkpt>
      <trkpt lat="43.94469" lon="7.33544">
        <ele>852.40002441406</ele>
        <time>2013-12-21T13:06:28.000Z</time>
      </trkpt>
      <trkpt lat="43.94468" lon="7.33542">
        <ele>852.40002441406</ele>
        <time>2013-12-21T13:06:29.000Z</time>
      </trkpt>
      <trkpt lat="43.94465" lon="7.33532">
        <ele>852.40002441406</ele>
        <time>2013-12-21T13:06:33.000Z</time>
      </trkpt>
      <trkpt lat="43.94464" lon="7.33535">
        <ele>852.20001220703</ele>
        <time>2013-12-21T13:06:45.000Z</time>
      </trkpt>
      <trkpt lat="43.94463" lon="7.33534">
        <ele>850</ele>
        <time>2013-12-21T13:07:10.000Z</time>
      </trkpt>
      <trkpt lat="43.94459" lon="7.3352">
        <ele>849.40002441406</ele>
        <time>2013-12-21T13:07:14.000Z</time>
      </trkpt>
      <trkpt lat="43.94451" lon="7.33508">
        <ele>849</ele>
        <time>2013-12-21T13:07:17.000Z</time>
      </trkpt>
      <trkpt lat="43.94448" lon="7.33507">
        <ele>849</ele>
        <time>2013-12-21T13:07:18.000Z</time>
      </trkpt>
      <trkpt lat="43.94425" lon="7.33499">
        <ele>848.20001220703</ele>
        <time>2013-12-21T13:07:23.000Z</time>
      </trkpt>
      <trkpt lat="43.94422" lon="7.33496">
        <ele>848</ele>
        <time>2013-12-21T13:07:24.000Z</time>
      </trkpt>
      <trkpt lat="43.94414" lon="7.33481">
        <ele>847.59997558594</ele>
        <time>2013-12-21T13:07:27.000Z</time>
      </trkpt>
      <trkpt lat="43.94411" lon="7.33469">
        <ele>847.40002441406</ele>
        <time>2013-12-21T13:07:29.000Z</time>
      </trkpt>
      <trkpt lat="43.94406" lon="7.3345">
        <ele>847</ele>
        <time>2013-12-21T13:07:32.000Z</time>
      </trkpt>
      <trkpt lat="43.94404" lon="7.33445">
        <ele>847</ele>
        <time>2013-12-21T13:07:33.000Z</time>
      </trkpt>
      <trkpt lat="43.94398" lon="7.33436">
        <ele>846.79998779297</ele>
        <time>2013-12-21T13:07:36.000Z</time>
      </trkpt>
      <trkpt lat="43.9439" lon="7.33432">
        <ele>846.40002441406</ele>
        <time>2013-12-21T13:07:40.000Z</time>
      </trkpt>
      <trkpt lat="43.94387" lon="7.33429">
        <ele>846.40002441406</ele>
        <time>2013-12-21T13:07:42.000Z</time>
      </trkpt>
      <trkpt lat="43.94375" lon="7.33425">
        <ele>846.20001220703</ele>
        <time>2013-12-21T13:07:47.000Z</time>
      </trkpt>
      <trkpt lat="43.94363" lon="7.33423">
        <ele>846.20001220703</ele>
        <time>2013-12-21T13:07:53.000Z</time>
      </trkpt>
      <trkpt lat="43.94357" lon="7.33425">
        <ele>846</ele>
        <time>2013-12-21T13:07:59.000Z</time>
      </trkpt>
      <trkpt lat="43.9436" lon="7.33416">
        <ele>856.40002441406</ele>
        <time>2013-12-21T13:09:10.000Z</time>
      </trkpt>
      <trkpt lat="43.94355" lon="7.33422">
        <ele>856.79998779297</ele>
        <time>2013-12-21T13:09:13.000Z</time>
      </trkpt>
      <trkpt lat="43.94352" lon="7.33425">
        <ele>856.59997558594</ele>
        <time>2013-12-21T13:09:14.000Z</time>
      </trkpt>
      <trkpt lat="43.94339" lon="7.33432">
        <ele>856.40002441406</ele>
        <time>2013-12-21T13:09:17.000Z</time>
      </trkpt>
      <trkpt lat="43.94316" lon="7.33452">
        <ele>856.20001220703</ele>
        <time>2013-12-21T13:09:22.000Z</time>
      </trkpt>
      <trkpt lat="43.94299" lon="7.3346">
        <ele>856</ele>
        <time>2013-12-21T13:09:25.000Z</time>
      </trkpt>
      <trkpt lat="43.94289" lon="7.33483">
        <ele>855.59997558594</ele>
        <time>2013-12-21T13:09:28.000Z</time>
      </trkpt>
      <trkpt lat="43.94279" lon="7.33498">
        <ele>855.40002441406</ele>
        <time>2013-12-21T13:09:31.000Z</time>
      </trkpt>
      <trkpt lat="43.94269" lon="7.33504">
        <ele>855</ele>
        <time>2013-12-21T13:09:33.000Z</time>
      </trkpt>
      <trkpt lat="43.94259" lon="7.33511">
        <ele>854.79998779297</ele>
        <time>2013-12-21T13:09:35.000Z</time>
      </trkpt>
      <trkpt lat="43.94248" lon="7.3352">
        <ele>854.40002441406</ele>
        <time>2013-12-21T13:09:37.000Z</time>
      </trkpt>
      <trkpt lat="43.94236" lon="7.33523">
        <ele>854.20001220703</ele>
        <time>2013-12-21T13:09:39.000Z</time>
      </trkpt>
      <trkpt lat="43.94219" lon="7.3353">
        <ele>853.79998779297</ele>
        <time>2013-12-21T13:09:42.000Z</time>
      </trkpt>
      <trkpt lat="43.94202" lon="7.33551">
        <ele>853.20001220703</ele>
        <time>2013-12-21T13:09:46.000Z</time>
      </trkpt>
      <trkpt lat="43.94188" lon="7.33563">
        <ele>852.59997558594</ele>
        <time>2013-12-21T13:09:49.000Z</time>
      </trkpt>
      <trkpt lat="43.94179" lon="7.33565">
        <ele>852.40002441406</ele>
        <time>2013-12-21T13:09:51.000Z</time>
      </trkpt>
      <trkpt lat="43.94177" lon="7.33566">
        <ele>852.40002441406</ele>
        <time>2013-12-21T13:09:52.000Z</time>
      </trkpt>
      <trkpt lat="43.94171" lon="7.33569">
        <ele>851.79998779297</ele>
        <time>2013-12-21T13:09:55.000Z</time>
      </trkpt>
      <trkpt lat="43.94168" lon="7.33574">
        <ele>851.59997558594</ele>
        <time>2013-12-21T13:09:57.000Z</time>
      </trkpt>
      <trkpt lat="43.94166" lon="7.33593">
        <ele>851</ele>
        <time>2013-12-21T13:10:01.000Z</time>
      </trkpt>
      <trkpt lat="43.94157" lon="7.33616">
        <ele>850.40002441406</ele>
        <time>2013-12-21T13:10:05.000Z</time>
      </trkpt>
      <trkpt lat="43.94157" lon="7.33622">
        <ele>850.20001220703</ele>
        <time>2013-12-21T13:10:06.000Z</time>
      </trkpt>
      <trkpt lat="43.94154" lon="7.33638">
        <ele>850</ele>
        <time>2013-12-21T13:10:08.000Z</time>
      </trkpt>
      <trkpt lat="43.94154" lon="7.33647">
        <ele>849.79998779297</ele>
        <time>2013-12-21T13:10:09.000Z</time>
      </trkpt>
      <trkpt lat="43.94153" lon="7.33658">
        <ele>849.59997558594</ele>
        <time>2013-12-21T13:10:11.000Z</time>
      </trkpt>
      <trkpt lat="43.94155" lon="7.33668">
        <ele>849.20001220703</ele>
        <time>2013-12-21T13:10:13.000Z</time>
      </trkpt>
      <trkpt lat="43.94157" lon="7.33675">
        <ele>849</ele>
        <time>2013-12-21T13:10:15.000Z</time>
      </trkpt>
      <trkpt lat="43.94167" lon="7.33697">
        <ele>848.20001220703</ele>
        <time>2013-12-21T13:10:20.000Z</time>
      </trkpt>
      <trkpt lat="43.9418" lon="7.33717">
        <ele>847.20001220703</ele>
        <time>2013-12-21T13:10:24.000Z</time>
      </trkpt>
      <trkpt lat="43.9418" lon="7.33724">
        <ele>847</ele>
        <time>2013-12-21T13:10:25.000Z</time>
      </trkpt>
      <trkpt lat="43.94177" lon="7.33738">
        <ele>846.59997558594</ele>
        <time>2013-12-21T13:10:27.000Z</time>
      </trkpt>
      <trkpt lat="43.94174" lon="7.33752">
        <ele>846.20001220703</ele>
        <time>2013-12-21T13:10:29.000Z</time>
      </trkpt>
      <trkpt lat="43.94169" lon="7.33767">
        <ele>845.79998779297</ele>
        <time>2013-12-21T13:10:31.000Z</time>
      </trkpt>
      <trkpt lat="43.94158" lon="7.33799">
        <ele>845</ele>
        <time>2013-12-21T13:10:35.000Z</time>
      </trkpt>
      <trkpt lat="43.94155" lon="7.33805">
        <ele>844.79998779297</ele>
        <time>2013-12-21T13:10:36.000Z</time>
      </trkpt>
      <trkpt lat="43.94152" lon="7.33809">
        <ele>844.40002441406</ele>
        <time>2013-12-21T13:10:37.000Z</time>
      </trkpt>
      <trkpt lat="43.94149" lon="7.33812">
        <ele>844.20001220703</ele>
        <time>2013-12-21T13:10:38.000Z</time>
      </trkpt>
      <trkpt lat="43.94147" lon="7.33814">
        <ele>844</ele>
        <time>2013-12-21T13:10:39.000Z</time>
      </trkpt>
      <trkpt lat="43.9414" lon="7.33818">
        <ele>843.59997558594</ele>
        <time>2013-12-21T13:10:41.000Z</time>
      </trkpt>
      <trkpt lat="43.94137" lon="7.33819">
        <ele>843.59997558594</ele>
        <time>2013-12-21T13:10:42.000Z</time>
      </trkpt>
      <trkpt lat="43.94121" lon="7.33817">
        <ele>842.59997558594</ele>
        <time>2013-12-21T13:10:46.000Z</time>
      </trkpt>
      <trkpt lat="43.94099" lon="7.33817">
        <ele>842</ele>
        <time>2013-12-21T13:10:51.000Z</time>
      </trkpt>
      <trkpt lat="43.94093" lon="7.33818">
        <ele>841.79998779297</ele>
        <time>2013-12-21T13:10:52.000Z</time>
      </trkpt>
      <trkpt lat="43.94082" lon="7.3382">
        <ele>841.40002441406</ele>
        <time>2013-12-21T13:10:54.000Z</time>
      </trkpt>
      <trkpt lat="43.94077" lon="7.33823">
        <ele>841.20001220703</ele>
        <time>2013-12-21T13:10:55.000Z</time>
      </trkpt>
      <trkpt lat="43.94064" lon="7.33841">
        <ele>840.59997558594</ele>
        <time>2013-12-21T13:10:59.000Z</time>
      </trkpt>
      <trkpt lat="43.94066" lon="7.33862">
        <ele>840</ele>
        <time>2013-12-21T13:11:03.000Z</time>
      </trkpt>
      <trkpt lat="43.94072" lon="7.33876">
        <ele>839.59997558594</ele>
        <time>2013-12-21T13:11:05.000Z</time>
      </trkpt>
      <trkpt lat="43.94076" lon="7.33887">
        <ele>839.40002441406</ele>
        <time>2013-12-21T13:11:07.000Z</time>
      </trkpt>
      <trkpt lat="43.94079" lon="7.33902">
        <ele>838.59997558594</ele>
        <time>2013-12-21T13:11:11.000Z</time>
      </trkpt>
      <trkpt lat="43.94079" lon="7.33923">
        <ele>837.79998779297</ele>
        <time>2013-12-21T13:11:15.000Z</time>
      </trkpt>
      <trkpt lat="43.9408" lon="7.33935">
        <ele>837.40002441406</ele>
        <time>2013-12-21T13:11:17.000Z</time>
      </trkpt>
      <trkpt lat="43.94082" lon="7.33941">
        <ele>837</ele>
        <time>2013-12-21T13:11:19.000Z</time>
      </trkpt>
      <trkpt lat="43.94081" lon="7.33941">
        <ele>836.40002441406</ele>
        <time>2013-12-21T13:11:23.000Z</time>
      </trkpt>
      <trkpt lat="43.94081" lon="7.33944">
        <ele>835.40002441406</ele>
        <time>2013-12-21T13:11:29.000Z</time>
      </trkpt>
      <trkpt lat="43.94079" lon="7.33945">
        <ele>835.20001220703</ele>
        <time>2013-12-21T13:11:30.000Z</time>
      </trkpt>
      <trkpt lat="43.94074" lon="7.33942">
        <ele>834.40002441406</ele>
        <time>2013-12-21T13:11:35.000Z</time>
      </trkpt>
      <trkpt lat="43.94074" lon="7.33942">
        <ele>834.40002441406</ele>
        <time>2013-12-21T13:11:36.000Z</time>
      </trkpt>
      <trkpt lat="43.94068" lon="7.33939">
        <ele>833.79998779297</ele>
        <time>2013-12-21T13:11:41.000Z</time>
      </trkpt>
      <trkpt lat="43.94063" lon="7.33936">
        <ele>833.20001220703</ele>
        <time>2013-12-21T13:11:47.000Z</time>
      </trkpt>
      <trkpt lat="43.94057" lon="7.33934">
        <ele>832.59997558594</ele>
        <time>2013-12-21T13:11:56.000Z</time>
      </trkpt>
      <trkpt lat="43.94053" lon="7.33935">
        <ele>832.40002441406</ele>
        <time>2013-12-21T13:12:01.000Z</time>
      </trkpt>
      <trkpt lat="43.94049" lon="7.33936">
        <ele>832.20001220703</ele>
        <time>2013-12-21T13:12:05.000Z</time>
      </trkpt>
      <trkpt lat="43.94047" lon="7.33937">
        <ele>832</ele>
        <time>2013-12-21T13:12:07.000Z</time>
      </trkpt>
      <trkpt lat="43.94043" lon="7.33938">
        <ele>832</ele>
        <time>2013-12-21T13:12:13.000Z</time>
      </trkpt>
      <trkpt lat="43.94037" lon="7.33939">
        <ele>831.79998779297</ele>
        <time>2013-12-21T13:12:21.000Z</time>
      </trkpt>
      <trkpt lat="43.94031" lon="7.3394">
        <ele>831.59997558594</ele>
        <time>2013-12-21T13:12:28.000Z</time>
      </trkpt>
      <trkpt lat="43.94026" lon="7.33939">
        <ele>831.59997558594</ele>
        <time>2013-12-21T13:12:34.000Z</time>
      </trkpt>
      <trkpt lat="43.94022" lon="7.33936">
        <ele>831.40002441406</ele>
        <time>2013-12-21T13:12:40.000Z</time>
      </trkpt>
      <trkpt lat="43.94018" lon="7.33934">
        <ele>831.20001220703</ele>
        <time>2013-12-21T13:12:45.000Z</time>
      </trkpt>
      <trkpt lat="43.94013" lon="7.33936">
        <ele>831</ele>
        <time>2013-12-21T13:12:50.000Z</time>
      </trkpt>
      <trkpt lat="43.94006" lon="7.33935">
        <ele>830.59997558594</ele>
        <time>2013-12-21T13:12:57.000Z</time>
      </trkpt>
      <trkpt lat="43.94001" lon="7.33935">
        <ele>830.20001220703</ele>
        <time>2013-12-21T13:13:03.000Z</time>
      </trkpt>
      <trkpt lat="43.93991" lon="7.3393">
        <ele>830</ele>
        <time>2013-12-21T13:13:09.000Z</time>
      </trkpt>
      <trkpt lat="43.93983" lon="7.33921">
        <ele>829.79998779297</ele>
        <time>2013-12-21T13:13:15.000Z</time>
      </trkpt>
      <trkpt lat="43.93976" lon="7.33916">
        <ele>829.79998779297</ele>
        <time>2013-12-21T13:13:21.000Z</time>
      </trkpt>
      <trkpt lat="43.93975" lon="7.33915">
        <ele>829.79998779297</ele>
        <time>2013-12-21T13:13:23.000Z</time>
      </trkpt>
      <trkpt lat="43.93974" lon="7.33913">
        <ele>830</ele>
        <time>2013-12-21T13:13:26.000Z</time>
      </trkpt>
      <trkpt lat="43.93971" lon="7.33912">
        <ele>830</ele>
        <time>2013-12-21T13:13:31.000Z</time>
      </trkpt>
      <trkpt lat="43.93969" lon="7.33912">
        <ele>830</ele>
        <time>2013-12-21T13:13:32.000Z</time>
      </trkpt>
      <trkpt lat="43.93965" lon="7.3391">
        <ele>830</ele>
        <time>2013-12-21T13:13:36.000Z</time>
      </trkpt>
      <trkpt lat="43.93961" lon="7.33907">
        <ele>830.20001220703</ele>
        <time>2013-12-21T13:13:38.000Z</time>
      </trkpt>
      <trkpt lat="43.93957" lon="7.33907">
        <ele>830.40002441406</ele>
        <time>2013-12-21T13:13:40.000Z</time>
      </trkpt>
      <trkpt lat="43.9395" lon="7.33905">
        <ele>830.59997558594</ele>
        <time>2013-12-21T13:13:46.000Z</time>
      </trkpt>
      <trkpt lat="43.93942" lon="7.33898">
        <ele>830.59997558594</ele>
        <time>2013-12-21T13:13:51.000Z</time>
      </trkpt>
      <trkpt lat="43.9393" lon="7.33893">
        <ele>831.40002441406</ele>
        <time>2013-12-21T13:13:58.000Z</time>
      </trkpt>
      <trkpt lat="43.93923" lon="7.33894">
        <ele>832</ele>
        <time>2013-12-21T13:14:04.000Z</time>
      </trkpt>
      <trkpt lat="43.93916" lon="7.33899">
        <ele>832.59997558594</ele>
        <time>2013-12-21T13:14:12.000Z</time>
      </trkpt>
      <trkpt lat="43.93909" lon="7.33913">
        <ele>832.79998779297</ele>
        <time>2013-12-21T13:14:17.000Z</time>
      </trkpt>
      <trkpt lat="43.93897" lon="7.33941">
        <ele>833.20001220703</ele>
        <time>2013-12-21T13:14:22.000Z</time>
      </trkpt>
      <trkpt lat="43.93882" lon="7.33964">
        <ele>833</ele>
        <time>2013-12-21T13:14:26.000Z</time>
      </trkpt>
      <trkpt lat="43.93874" lon="7.33989">
        <ele>833.40002441406</ele>
        <time>2013-12-21T13:14:30.000Z</time>
      </trkpt>
      <trkpt lat="43.93861" lon="7.34009">
        <ele>833.40002441406</ele>
        <time>2013-12-21T13:14:34.000Z</time>
      </trkpt>
      <trkpt lat="43.93851" lon="7.3403">
        <ele>833.79998779297</ele>
        <time>2013-12-21T13:14:37.000Z</time>
      </trkpt>
      <trkpt lat="43.93844" lon="7.3404">
        <ele>834</ele>
        <time>2013-12-21T13:14:39.000Z</time>
      </trkpt>
      <trkpt lat="43.93837" lon="7.34043">
        <ele>834.40002441406</ele>
        <time>2013-12-21T13:14:41.000Z</time>
      </trkpt>
      <trkpt lat="43.93827" lon="7.34051">
        <ele>834.79998779297</ele>
        <time>2013-12-21T13:14:44.000Z</time>
      </trkpt>
      <trkpt lat="43.93817" lon="7.34077">
        <ele>835</ele>
        <time>2013-12-21T13:14:48.000Z</time>
      </trkpt>
      <trkpt lat="43.93815" lon="7.34086">
        <ele>835</ele>
        <time>2013-12-21T13:14:49.000Z</time>
      </trkpt>
      <trkpt lat="43.93814" lon="7.34094">
        <ele>835.20001220703</ele>
        <time>2013-12-21T13:14:50.000Z</time>
      </trkpt>
      <trkpt lat="43.93816" lon="7.34109">
        <ele>835.20001220703</ele>
        <time>2013-12-21T13:14:52.000Z</time>
      </trkpt>
      <trkpt lat="43.93817" lon="7.34135">
        <ele>835.40002441406</ele>
        <time>2013-12-21T13:14:56.000Z</time>
      </trkpt>
      <trkpt lat="43.93802" lon="7.3415">
        <ele>835.59997558594</ele>
        <time>2013-12-21T13:15:00.000Z</time>
      </trkpt>
      <trkpt lat="43.93787" lon="7.34155">
        <ele>836.40002441406</ele>
        <time>2013-12-21T13:15:03.000Z</time>
      </trkpt>
      <trkpt lat="43.93778" lon="7.34173">
        <ele>836.40002441406</ele>
        <time>2013-12-21T13:15:06.000Z</time>
      </trkpt>
      <trkpt lat="43.93771" lon="7.34197">
        <ele>836</ele>
        <time>2013-12-21T13:15:09.000Z</time>
      </trkpt>
      <trkpt lat="43.93765" lon="7.34214">
        <ele>836</ele>
        <time>2013-12-21T13:15:11.000Z</time>
      </trkpt>
      <trkpt lat="43.9376" lon="7.34229">
        <ele>836</ele>
        <time>2013-12-21T13:15:13.000Z</time>
      </trkpt>
      <trkpt lat="43.93755" lon="7.34236">
        <ele>835.79998779297</ele>
        <time>2013-12-21T13:15:15.000Z</time>
      </trkpt>
      <trkpt lat="43.93742" lon="7.34243">
        <ele>835.59997558594</ele>
        <time>2013-12-21T13:15:20.000Z</time>
      </trkpt>
      <trkpt lat="43.93739" lon="7.34241">
        <ele>835.40002441406</ele>
        <time>2013-12-21T13:15:22.000Z</time>
      </trkpt>
      <trkpt lat="43.93737" lon="7.3424">
        <ele>835.40002441406</ele>
        <time>2013-12-21T13:15:23.000Z</time>
      </trkpt>
      <trkpt lat="43.93735" lon="7.3424">
        <ele>835.40002441406</ele>
        <time>2013-12-21T13:15:24.000Z</time>
      </trkpt>
      <trkpt lat="43.93733" lon="7.34242">
        <ele>834.59997558594</ele>
        <time>2013-12-21T13:15:30.000Z</time>
      </trkpt>
      <trkpt lat="43.93735" lon="7.34243">
        <ele>833.79998779297</ele>
        <time>2013-12-21T13:15:37.000Z</time>
      </trkpt>
      <trkpt lat="43.93735" lon="7.34243">
        <ele>833</ele>
        <time>2013-12-21T13:15:43.000Z</time>
      </trkpt>
      <trkpt lat="43.93737" lon="7.34242">
        <ele>832</ele>
        <time>2013-12-21T13:15:53.000Z</time>
      </trkpt>
      <trkpt lat="43.93731" lon="7.34237">
        <ele>829.59997558594</ele>
        <time>2013-12-21T13:16:12.000Z</time>
      </trkpt>
      <trkpt lat="43.93731" lon="7.34235">
        <ele>829</ele>
        <time>2013-12-21T13:16:17.000Z</time>
      </trkpt>
      <trkpt lat="43.93729" lon="7.34235">
        <ele>828.20001220703</ele>
        <time>2013-12-21T13:16:25.000Z</time>
      </trkpt>
      <trkpt lat="43.93721" lon="7.3423">
        <ele>824.59997558594</ele>
        <time>2013-12-21T13:19:52.000Z</time>
      </trkpt>
      <trkpt lat="43.93722" lon="7.3423">
        <ele>824.79998779297</ele>
        <time>2013-12-21T13:20:02.000Z</time>
      </trkpt>
      <trkpt lat="43.93722" lon="7.34232">
        <ele>824.20001220703</ele>
        <time>2013-12-21T13:20:11.000Z</time>
      </trkpt>
      <trkpt lat="43.93716" lon="7.34223">
        <ele>823.79998779297</ele>
        <time>2013-12-21T13:21:18.000Z</time>
      </trkpt>
      <trkpt lat="43.93717" lon="7.34222">
        <ele>824</ele>
        <time>2013-12-21T13:21:32.000Z</time>
      </trkpt>
      <trkpt lat="43.93719" lon="7.34222">
        <ele>823.79998779297</ele>
        <time>2013-12-21T13:21:45.000Z</time>
      </trkpt>
      <trkpt lat="43.93719" lon="7.34223">
        <ele>823.59997558594</ele>
        <time>2013-12-21T13:21:54.000Z</time>
      </trkpt>
      <trkpt lat="43.93716" lon="7.34223">
        <ele>823.40002441406</ele>
        <time>2013-12-21T13:21:58.000Z</time>
      </trkpt>
      <trkpt lat="43.93712" lon="7.34215">
        <ele>823</ele>
        <time>2013-12-21T13:22:05.000Z</time>
      </trkpt>
      <trkpt lat="43.93708" lon="7.34213">
        <ele>822.79998779297</ele>
        <time>2013-12-21T13:22:11.000Z</time>
      </trkpt>
      <trkpt lat="43.93704" lon="7.34213">
        <ele>822.59997558594</ele>
        <time>2013-12-21T13:22:17.000Z</time>
      </trkpt>
      <trkpt lat="43.93703" lon="7.34212">
        <ele>822.59997558594</ele>
        <time>2013-12-21T13:22:23.000Z</time>
      </trkpt>
      <trkpt lat="43.93703" lon="7.34211">
        <ele>823</ele>
        <time>2013-12-21T13:22:32.000Z</time>
      </trkpt>
      <trkpt lat="43.93701" lon="7.34191">
        <ele>842.59997558594</ele>
        <time>2013-12-21T13:24:13.000Z</time>
      </trkpt>
      <trkpt lat="43.93699" lon="7.34191">
        <ele>842.40002441406</ele>
        <time>2013-12-21T13:24:14.000Z</time>
      </trkpt>
      <trkpt lat="43.93689" lon="7.34182">
        <ele>842.20001220703</ele>
        <time>2013-12-21T13:24:19.000Z</time>
      </trkpt>
      <trkpt lat="43.93688" lon="7.34179">
        <ele>841.79998779297</ele>
        <time>2013-12-21T13:24:21.000Z</time>
      </trkpt>
      <trkpt lat="43.93689" lon="7.34176">
        <ele>841.59997558594</ele>
        <time>2013-12-21T13:24:23.000Z</time>
      </trkpt>
      <trkpt lat="43.93691" lon="7.34169">
        <ele>841.20001220703</ele>
        <time>2013-12-21T13:24:26.000Z</time>
      </trkpt>
      <trkpt lat="43.93692" lon="7.34164">
        <ele>841</ele>
        <time>2013-12-21T13:24:28.000Z</time>
      </trkpt>
      <trkpt lat="43.93692" lon="7.34157">
        <ele>840.59997558594</ele>
        <time>2013-12-21T13:24:31.000Z</time>
      </trkpt>
      <trkpt lat="43.93692" lon="7.34155">
        <ele>840.40002441406</ele>
        <time>2013-12-21T13:24:32.000Z</time>
      </trkpt>
      <trkpt lat="43.93691" lon="7.34152">
        <ele>840.40002441406</ele>
        <time>2013-12-21T13:24:33.000Z</time>
      </trkpt>
      <trkpt lat="43.9369" lon="7.34142">
        <ele>840</ele>
        <time>2013-12-21T13:24:36.000Z</time>
      </trkpt>
      <trkpt lat="43.93689" lon="7.3414">
        <ele>839.79998779297</ele>
        <time>2013-12-21T13:24:37.000Z</time>
      </trkpt>
      <trkpt lat="43.93688" lon="7.34134">
        <ele>839.20001220703</ele>
        <time>2013-12-21T13:24:40.000Z</time>
      </trkpt>
      <trkpt lat="43.93687" lon="7.34131">
        <ele>838.79998779297</ele>
        <time>2013-12-21T13:24:42.000Z</time>
      </trkpt>
      <trkpt lat="43.93685" lon="7.34119">
        <ele>837.79998779297</ele>
        <time>2013-12-21T13:24:48.000Z</time>
      </trkpt>
      <trkpt lat="43.93683" lon="7.34107">
        <ele>837</ele>
        <time>2013-12-21T13:24:53.000Z</time>
      </trkpt>
      <trkpt lat="43.93682" lon="7.34103">
        <ele>836.59997558594</ele>
        <time>2013-12-21T13:24:55.000Z</time>
      </trkpt>
      <trkpt lat="43.93681" lon="7.34093">
        <ele>836</ele>
        <time>2013-12-21T13:24:59.000Z</time>
      </trkpt>
      <trkpt lat="43.93681" lon="7.34091">
        <ele>836</ele>
        <time>2013-12-21T13:25:00.000Z</time>
      </trkpt>
      <trkpt lat="43.93679" lon="7.34073">
        <ele>835.20001220703</ele>
        <time>2013-12-21T13:25:06.000Z</time>
      </trkpt>
      <trkpt lat="43.93673" lon="7.34066">
        <ele>834.59997558594</ele>
        <time>2013-12-21T13:25:11.000Z</time>
      </trkpt>
      <trkpt lat="43.93665" lon="7.34057">
        <ele>834.40002441406</ele>
        <time>2013-12-21T13:25:19.000Z</time>
      </trkpt>
      <trkpt lat="43.93664" lon="7.34055">
        <ele>834.40002441406</ele>
        <time>2013-12-21T13:25:21.000Z</time>
      </trkpt>
      <trkpt lat="43.93661" lon="7.34052">
        <ele>834.40002441406</ele>
        <time>2013-12-21T13:25:24.000Z</time>
      </trkpt>
      <trkpt lat="43.9366" lon="7.3405">
        <ele>834.59997558594</ele>
        <time>2013-12-21T13:25:25.000Z</time>
      </trkpt>
      <trkpt lat="43.93654" lon="7.34043">
        <ele>835.59997558594</ele>
        <time>2013-12-21T13:25:30.000Z</time>
      </trkpt>
      <trkpt lat="43.93646" lon="7.34033">
        <ele>837.59997558594</ele>
        <time>2013-12-21T13:25:36.000Z</time>
      </trkpt>
      <trkpt lat="43.93644" lon="7.34031">
        <ele>840.59997558594</ele>
        <time>2013-12-21T13:25:44.000Z</time>
      </trkpt>
      <trkpt lat="43.9364" lon="7.3403">
        <ele>843.59997558594</ele>
        <time>2013-12-21T13:25:58.000Z</time>
      </trkpt>
      <trkpt lat="43.93638" lon="7.34028">
        <ele>844.40002441406</ele>
        <time>2013-12-21T13:26:02.000Z</time>
      </trkpt>
      <trkpt lat="43.93636" lon="7.34029">
        <ele>844.59997558594</ele>
        <time>2013-12-21T13:26:05.000Z</time>
      </trkpt>
      <trkpt lat="43.93634" lon="7.3403">
        <ele>844.40002441406</ele>
        <time>2013-12-21T13:26:07.000Z</time>
      </trkpt>
      <trkpt lat="43.93634" lon="7.34031">
        <ele>844.20001220703</ele>
        <time>2013-12-21T13:26:08.000Z</time>
      </trkpt>
      <trkpt lat="43.93633" lon="7.3403">
        <ele>844.20001220703</ele>
        <time>2013-12-21T13:26:10.000Z</time>
      </trkpt>
      <trkpt lat="43.93632" lon="7.34029">
        <ele>844.20001220703</ele>
        <time>2013-12-21T13:26:13.000Z</time>
      </trkpt>
      <trkpt lat="43.93635" lon="7.34026">
        <ele>844</ele>
        <time>2013-12-21T13:26:16.000Z</time>
      </trkpt>
      <trkpt lat="43.93635" lon="7.34024">
        <ele>844</ele>
        <time>2013-12-21T13:26:18.000Z</time>
      </trkpt>
      <trkpt lat="43.93637" lon="7.34023">
        <ele>843.79998779297</ele>
        <time>2013-12-21T13:26:19.000Z</time>
      </trkpt>
      <trkpt lat="43.9364" lon="7.34017">
        <ele>843.79998779297</ele>
        <time>2013-12-21T13:26:23.000Z</time>
      </trkpt>
      <trkpt lat="43.93641" lon="7.34015">
        <ele>843.79998779297</ele>
        <time>2013-12-21T13:26:24.000Z</time>
      </trkpt>
      <trkpt lat="43.9364" lon="7.34014">
        <ele>843.59997558594</ele>
        <time>2013-12-21T13:26:26.000Z</time>
      </trkpt>
      <trkpt lat="43.93642" lon="7.34008">
        <ele>843.59997558594</ele>
        <time>2013-12-21T13:26:31.000Z</time>
      </trkpt>
      <trkpt lat="43.93644" lon="7.34002">
        <ele>843.59997558594</ele>
        <time>2013-12-21T13:26:37.000Z</time>
      </trkpt>
      <trkpt lat="43.93644" lon="7.34001">
        <ele>843.59997558594</ele>
        <time>2013-12-21T13:26:38.000Z</time>
      </trkpt>
      <trkpt lat="43.93647" lon="7.33994">
        <ele>843.59997558594</ele>
        <time>2013-12-21T13:26:42.000Z</time>
      </trkpt>
      <trkpt lat="43.93648" lon="7.33987">
        <ele>843.79998779297</ele>
        <time>2013-12-21T13:26:47.000Z</time>
      </trkpt>
      <trkpt lat="43.93648" lon="7.33985">
        <ele>843.79998779297</ele>
        <time>2013-12-21T13:26:49.000Z</time>
      </trkpt>
      <trkpt lat="43.93648" lon="7.33983">
        <ele>843.79998779297</ele>
        <time>2013-12-21T13:26:52.000Z</time>
      </trkpt>
      <trkpt lat="43.93649" lon="7.3398">
        <ele>844</ele>
        <time>2013-12-21T13:26:54.000Z</time>
      </trkpt>
      <trkpt lat="43.9365" lon="7.33972">
        <ele>844.40002441406</ele>
        <time>2013-12-21T13:27:01.000Z</time>
      </trkpt>
      <trkpt lat="43.93651" lon="7.33971">
        <ele>844.59997558594</ele>
        <time>2013-12-21T13:27:03.000Z</time>
      </trkpt>
      <trkpt lat="43.93652" lon="7.33967">
        <ele>845</ele>
        <time>2013-12-21T13:27:06.000Z</time>
      </trkpt>
      <trkpt lat="43.93653" lon="7.33965">
        <ele>845.40002441406</ele>
        <time>2013-12-21T13:27:09.000Z</time>
      </trkpt>
      <trkpt lat="43.93655" lon="7.33959">
        <ele>847.20001220703</ele>
        <time>2013-12-21T13:27:17.000Z</time>
      </trkpt>
      <trkpt lat="43.93656" lon="7.33953">
        <ele>848</ele>
        <time>2013-12-21T13:27:21.000Z</time>
      </trkpt>
      <trkpt lat="43.93657" lon="7.33948">
        <ele>849.40002441406</ele>
        <time>2013-12-21T13:27:28.000Z</time>
      </trkpt>
      <trkpt lat="43.93657" lon="7.33941">
        <ele>851</ele>
        <time>2013-12-21T13:27:35.000Z</time>
      </trkpt>
      <trkpt lat="43.93655" lon="7.33938">
        <ele>851.59997558594</ele>
        <time>2013-12-21T13:27:40.000Z</time>
      </trkpt>
      <trkpt lat="43.93653" lon="7.3393">
        <ele>852.40002441406</ele>
        <time>2013-12-21T13:27:48.000Z</time>
      </trkpt>
      <trkpt lat="43.93655" lon="7.33925">
        <ele>853.20001220703</ele>
        <time>2013-12-21T13:27:54.000Z</time>
      </trkpt>
      <trkpt lat="43.93657" lon="7.33918">
        <ele>854.40002441406</ele>
        <time>2013-12-21T13:28:00.000Z</time>
      </trkpt>
      <trkpt lat="43.93657" lon="7.33916">
        <ele>854.59997558594</ele>
        <time>2013-12-21T13:28:01.000Z</time>
      </trkpt>
      <trkpt lat="43.93657" lon="7.33908">
        <ele>855.20001220703</ele>
        <time>2013-12-21T13:28:07.000Z</time>
      </trkpt>
      <trkpt lat="43.93658" lon="7.33905">
        <ele>855.59997558594</ele>
        <time>2013-12-21T13:28:10.000Z</time>
      </trkpt>
      <trkpt lat="43.93657" lon="7.33902">
        <ele>856.40002441406</ele>
        <time>2013-12-21T13:28:13.000Z</time>
      </trkpt>
      <trkpt lat="43.93656" lon="7.339">
        <ele>856.40002441406</ele>
        <time>2013-12-21T13:28:14.000Z</time>
      </trkpt>
      <trkpt lat="43.93656" lon="7.33899">
        <ele>856.40002441406</ele>
        <time>2013-12-21T13:28:15.000Z</time>
      </trkpt>
      <trkpt lat="43.93656" lon="7.33893">
        <ele>856.79998779297</ele>
        <time>2013-12-21T13:28:19.000Z</time>
      </trkpt>
      <trkpt lat="43.93656" lon="7.33893">
        <ele>857</ele>
        <time>2013-12-21T13:28:20.000Z</time>
      </trkpt>
      <trkpt lat="43.93656" lon="7.33892">
        <ele>857.20001220703</ele>
        <time>2013-12-21T13:28:21.000Z</time>
      </trkpt>
      <trkpt lat="43.93655" lon="7.33887">
        <ele>857.79998779297</ele>
        <time>2013-12-21T13:28:26.000Z</time>
      </trkpt>
      <trkpt lat="43.93654" lon="7.33885">
        <ele>858</ele>
        <time>2013-12-21T13:28:28.000Z</time>
      </trkpt>
      <trkpt lat="43.93654" lon="7.3388">
        <ele>859</ele>
        <time>2013-12-21T13:28:34.000Z</time>
      </trkpt>
      <trkpt lat="43.93654" lon="7.33879">
        <ele>859.20001220703</ele>
        <time>2013-12-21T13:28:35.000Z</time>
      </trkpt>
      <trkpt lat="43.93651" lon="7.33873">
        <ele>860.40002441406</ele>
        <time>2013-12-21T13:28:41.000Z</time>
      </trkpt>
      <trkpt lat="43.9365" lon="7.3387">
        <ele>861</ele>
        <time>2013-12-21T13:28:44.000Z</time>
      </trkpt>
      <trkpt lat="43.9365" lon="7.33869">
        <ele>861.79998779297</ele>
        <time>2013-12-21T13:28:47.000Z</time>
      </trkpt>
      <trkpt lat="43.93648" lon="7.3387">
        <ele>862.20001220703</ele>
        <time>2013-12-21T13:28:49.000Z</time>
      </trkpt>
      <trkpt lat="43.93646" lon="7.33874">
        <ele>863</ele>
        <time>2013-12-21T13:28:54.000Z</time>
      </trkpt>
      <trkpt lat="43.93642" lon="7.33878">
        <ele>863.79998779297</ele>
        <time>2013-12-21T13:29:00.000Z</time>
      </trkpt>
      <trkpt lat="43.93637" lon="7.33886">
        <ele>865.40002441406</ele>
        <time>2013-12-21T13:29:08.000Z</time>
      </trkpt>
      <trkpt lat="43.93635" lon="7.33891">
        <ele>866.20001220703</ele>
        <time>2013-12-21T13:29:12.000Z</time>
      </trkpt>
      <trkpt lat="43.93633" lon="7.33892">
        <ele>866.59997558594</ele>
        <time>2013-12-21T13:29:14.000Z</time>
      </trkpt>
      <trkpt lat="43.93632" lon="7.33893">
        <ele>867</ele>
        <time>2013-12-21T13:29:16.000Z</time>
      </trkpt>
      <trkpt lat="43.93629" lon="7.33898">
        <ele>867.79998779297</ele>
        <time>2013-12-21T13:29:21.000Z</time>
      </trkpt>
      <trkpt lat="43.93623" lon="7.33903">
        <ele>869</ele>
        <time>2013-12-21T13:29:28.000Z</time>
      </trkpt>
      <trkpt lat="43.93619" lon="7.33906">
        <ele>870</ele>
        <time>2013-12-21T13:29:35.000Z</time>
      </trkpt>
      <trkpt lat="43.93619" lon="7.33904">
        <ele>870.79998779297</ele>
        <time>2013-12-21T13:29:42.000Z</time>
      </trkpt>
      <trkpt lat="43.93618" lon="7.33901">
        <ele>872.20001220703</ele>
        <time>2013-12-21T13:29:48.000Z</time>
      </trkpt>
      <trkpt lat="43.93615" lon="7.33898">
        <ele>873.20001220703</ele>
        <time>2013-12-21T13:29:58.000Z</time>
      </trkpt>
      <trkpt lat="43.93615" lon="7.33896">
        <ele>873.59997558594</ele>
        <time>2013-12-21T13:30:03.000Z</time>
      </trkpt>
      <trkpt lat="43.93614" lon="7.33892">
        <ele>874</ele>
        <time>2013-12-21T13:30:09.000Z</time>
      </trkpt>
      <trkpt lat="43.93612" lon="7.33889">
        <ele>874.59997558594</ele>
        <time>2013-12-21T13:30:13.000Z</time>
      </trkpt>
      <trkpt lat="43.93611" lon="7.33888">
        <ele>874.79998779297</ele>
        <time>2013-12-21T13:30:17.000Z</time>
      </trkpt>
      <trkpt lat="43.93608" lon="7.33886">
        <ele>875.59997558594</ele>
        <time>2013-12-21T13:30:24.000Z</time>
      </trkpt>
      <trkpt lat="43.93604" lon="7.33883">
        <ele>876.79998779297</ele>
        <time>2013-12-21T13:30:31.000Z</time>
      </trkpt>
      <trkpt lat="43.936" lon="7.33883">
        <ele>878</ele>
        <time>2013-12-21T13:30:42.000Z</time>
      </trkpt>
      <trkpt lat="43.93597" lon="7.33889">
        <ele>879</ele>
        <time>2013-12-21T13:30:48.000Z</time>
      </trkpt>
      <trkpt lat="43.93599" lon="7.33891">
        <ele>882.20001220703</ele>
        <time>2013-12-21T13:30:56.000Z</time>
      </trkpt>
      <trkpt lat="43.93591" lon="7.33895">
        <ele>884.20001220703</ele>
        <time>2013-12-21T13:31:04.000Z</time>
      </trkpt>
      <trkpt lat="43.93591" lon="7.33895">
        <ele>884.59997558594</ele>
        <time>2013-12-21T13:31:05.000Z</time>
      </trkpt>
      <trkpt lat="43.93587" lon="7.33901">
        <ele>886.40002441406</ele>
        <time>2013-12-21T13:31:11.000Z</time>
      </trkpt>
      <trkpt lat="43.93586" lon="7.33903">
        <ele>887.40002441406</ele>
        <time>2013-12-21T13:31:13.000Z</time>
      </trkpt>
      <trkpt lat="43.93582" lon="7.33905">
        <ele>888.79998779297</ele>
        <time>2013-12-21T13:31:17.000Z</time>
      </trkpt>
      <trkpt lat="43.9358" lon="7.33906">
        <ele>889.40002441406</ele>
        <time>2013-12-21T13:31:19.000Z</time>
      </trkpt>
      <trkpt lat="43.93578" lon="7.33905">
        <ele>890</ele>
        <time>2013-12-21T13:31:21.000Z</time>
      </trkpt>
      <trkpt lat="43.93576" lon="7.33902">
        <ele>891.20001220703</ele>
        <time>2013-12-21T13:31:24.000Z</time>
      </trkpt>
      <trkpt lat="43.93574" lon="7.33901">
        <ele>892.59997558594</ele>
        <time>2013-12-21T13:31:28.000Z</time>
      </trkpt>
      <trkpt lat="43.93573" lon="7.33901">
        <ele>893.40002441406</ele>
        <time>2013-12-21T13:31:30.000Z</time>
      </trkpt>
      <trkpt lat="43.93571" lon="7.339">
        <ele>894</ele>
        <time>2013-12-21T13:31:32.000Z</time>
      </trkpt>
      <trkpt lat="43.93563" lon="7.33902">
        <ele>896.79998779297</ele>
        <time>2013-12-21T13:31:40.000Z</time>
      </trkpt>
      <trkpt lat="43.93554" lon="7.339">
        <ele>899.40002441406</ele>
        <time>2013-12-21T13:31:49.000Z</time>
      </trkpt>
      <trkpt lat="43.93546" lon="7.33889">
        <ele>902.40002441406</ele>
        <time>2013-12-21T13:31:58.000Z</time>
      </trkpt>
      <trkpt lat="43.93536" lon="7.33883">
        <ele>906.40002441406</ele>
        <time>2013-12-21T13:32:08.000Z</time>
      </trkpt>
      <trkpt lat="43.93531" lon="7.33882">
        <ele>908.79998779297</ele>
        <time>2013-12-21T13:32:15.000Z</time>
      </trkpt>
      <trkpt lat="43.9353" lon="7.33881">
        <ele>909.20001220703</ele>
        <time>2013-12-21T13:32:16.000Z</time>
      </trkpt>
      <trkpt lat="43.93528" lon="7.33876">
        <ele>910.79998779297</ele>
        <time>2013-12-21T13:32:20.000Z</time>
      </trkpt>
      <trkpt lat="43.93529" lon="7.33875">
        <ele>911.20001220703</ele>
        <time>2013-12-21T13:32:21.000Z</time>
      </trkpt>
      <trkpt lat="43.93528" lon="7.33874">
        <ele>911.79998779297</ele>
        <time>2013-12-21T13:32:23.000Z</time>
      </trkpt>
      <trkpt lat="43.93529" lon="7.33871">
        <ele>913.20001220703</ele>
        <time>2013-12-21T13:32:27.000Z</time>
      </trkpt>
      <trkpt lat="43.93529" lon="7.3387">
        <ele>914</ele>
        <time>2013-12-21T13:32:31.000Z</time>
      </trkpt>
      <trkpt lat="43.93527" lon="7.33873">
        <ele>914.59997558594</ele>
        <time>2013-12-21T13:32:35.000Z</time>
      </trkpt>
      <trkpt lat="43.93524" lon="7.33874">
        <ele>914.40002441406</ele>
        <time>2013-12-21T13:32:36.000Z</time>
      </trkpt>
      <trkpt lat="43.93526" lon="7.33872">
        <ele>914.40002441406</ele>
        <time>2013-12-21T13:32:41.000Z</time>
      </trkpt>
      <trkpt lat="43.93516" lon="7.3387">
        <ele>922</ele>
        <time>2013-12-21T13:33:32.000Z</time>
      </trkpt>
      <trkpt lat="43.93518" lon="7.33872">
        <ele>920</ele>
        <time>2013-12-21T13:33:39.000Z</time>
      </trkpt>
      <trkpt lat="43.93527" lon="7.33867">
        <ele>915.59997558594</ele>
        <time>2013-12-21T13:34:19.000Z</time>
      </trkpt>
      <trkpt lat="43.93524" lon="7.33865">
        <ele>915.59997558594</ele>
        <time>2013-12-21T13:34:22.000Z</time>
      </trkpt>
      <trkpt lat="43.93516" lon="7.33861">
        <ele>915.40002441406</ele>
        <time>2013-12-21T13:34:28.000Z</time>
      </trkpt>
      <trkpt lat="43.93511" lon="7.33854">
        <ele>915</ele>
        <time>2013-12-21T13:34:33.000Z</time>
      </trkpt>
      <trkpt lat="43.93512" lon="7.33847">
        <ele>914.59997558594</ele>
        <time>2013-12-21T13:34:38.000Z</time>
      </trkpt>
      <trkpt lat="43.93509" lon="7.33838">
        <ele>914.20001220703</ele>
        <time>2013-12-21T13:34:42.000Z</time>
      </trkpt>
      <trkpt lat="43.93508" lon="7.33835">
        <ele>914</ele>
        <time>2013-12-21T13:34:43.000Z</time>
      </trkpt>
      <trkpt lat="43.93504" lon="7.33822">
        <ele>913.59997558594</ele>
        <time>2013-12-21T13:34:49.000Z</time>
      </trkpt>
      <trkpt lat="43.93501" lon="7.33816">
        <ele>913.40002441406</ele>
        <time>2013-12-21T13:34:52.000Z</time>
      </trkpt>
      <trkpt lat="43.935" lon="7.33815">
        <ele>913.40002441406</ele>
        <time>2013-12-21T13:34:53.000Z</time>
      </trkpt>
      <trkpt lat="43.93494" lon="7.33804">
        <ele>913</ele>
        <time>2013-12-21T13:35:00.000Z</time>
      </trkpt>
      <trkpt lat="43.93492" lon="7.33803">
        <ele>913</ele>
        <time>2013-12-21T13:35:01.000Z</time>
      </trkpt>
      <trkpt lat="43.93485" lon="7.33797">
        <ele>913</ele>
        <time>2013-12-21T13:35:08.000Z</time>
      </trkpt>
      <trkpt lat="43.93482" lon="7.33795">
        <ele>912.79998779297</ele>
        <time>2013-12-21T13:35:12.000Z</time>
      </trkpt>
      <trkpt lat="43.93481" lon="7.33794">
        <ele>912.79998779297</ele>
        <time>2013-12-21T13:35:14.000Z</time>
      </trkpt>
      <trkpt lat="43.93481" lon="7.33794">
        <ele>912.79998779297</ele>
        <time>2013-12-21T13:35:15.000Z</time>
      </trkpt>
      <trkpt lat="43.93477" lon="7.33793">
        <ele>912.79998779297</ele>
        <time>2013-12-21T13:35:19.000Z</time>
      </trkpt>
      <trkpt lat="43.9347" lon="7.33789">
        <ele>913.79998779297</ele>
        <time>2013-12-21T13:35:25.000Z</time>
      </trkpt>
      <trkpt lat="43.93461" lon="7.33791">
        <ele>914</ele>
        <time>2013-12-21T13:35:31.000Z</time>
      </trkpt>
      <trkpt lat="43.93454" lon="7.3379">
        <ele>914.79998779297</ele>
        <time>2013-12-21T13:35:36.000Z</time>
      </trkpt>
      <trkpt lat="43.93454" lon="7.33788">
        <ele>914.79998779297</ele>
        <time>2013-12-21T13:35:37.000Z</time>
      </trkpt>
      <trkpt lat="43.93449" lon="7.33778">
        <ele>915.40002441406</ele>
        <time>2013-12-21T13:35:42.000Z</time>
      </trkpt>
      <trkpt lat="43.9345" lon="7.33771">
        <ele>915.59997558594</ele>
        <time>2013-12-21T13:35:47.000Z</time>
      </trkpt>
      <trkpt lat="43.9345" lon="7.33765">
        <ele>915.59997558594</ele>
        <time>2013-12-21T13:35:49.000Z</time>
      </trkpt>
      <trkpt lat="43.93449" lon="7.33763">
        <ele>915.79998779297</ele>
        <time>2013-12-21T13:35:50.000Z</time>
      </trkpt>
      <trkpt lat="43.93448" lon="7.33759">
        <ele>915.79998779297</ele>
        <time>2013-12-21T13:35:52.000Z</time>
      </trkpt>
      <trkpt lat="43.93443" lon="7.33754">
        <ele>915.79998779297</ele>
        <time>2013-12-21T13:35:55.000Z</time>
      </trkpt>
      <trkpt lat="43.9344" lon="7.33753">
        <ele>916</ele>
        <time>2013-12-21T13:35:57.000Z</time>
      </trkpt>
      <trkpt lat="43.93432" lon="7.33756">
        <ele>916.59997558594</ele>
        <time>2013-12-21T13:36:03.000Z</time>
      </trkpt>
      <trkpt lat="43.93422" lon="7.33758">
        <ele>918</ele>
        <time>2013-12-21T13:36:09.000Z</time>
      </trkpt>
      <trkpt lat="43.9342" lon="7.33757">
        <ele>918.40002441406</ele>
        <time>2013-12-21T13:36:10.000Z</time>
      </trkpt>
      <trkpt lat="43.93417" lon="7.33748">
        <ele>920.40002441406</ele>
        <time>2013-12-21T13:36:14.000Z</time>
      </trkpt>
      <trkpt lat="43.93414" lon="7.33743">
        <ele>921.40002441406</ele>
        <time>2013-12-21T13:36:17.000Z</time>
      </trkpt>
      <trkpt lat="43.93409" lon="7.33741">
        <ele>922.40002441406</ele>
        <time>2013-12-21T13:36:21.000Z</time>
      </trkpt>
      <trkpt lat="43.93405" lon="7.3374">
        <ele>923.20001220703</ele>
        <time>2013-12-21T13:36:24.000Z</time>
      </trkpt>
      <trkpt lat="43.93401" lon="7.33738">
        <ele>924</ele>
        <time>2013-12-21T13:36:27.000Z</time>
      </trkpt>
      <trkpt lat="43.93394" lon="7.33732">
        <ele>925.20001220703</ele>
        <time>2013-12-21T13:36:32.000Z</time>
      </trkpt>
      <trkpt lat="43.93386" lon="7.33728">
        <ele>927</ele>
        <time>2013-12-21T13:36:37.000Z</time>
      </trkpt>
      <trkpt lat="43.93375" lon="7.33722">
        <ele>930.20001220703</ele>
        <time>2013-12-21T13:36:44.000Z</time>
      </trkpt>
      <trkpt lat="43.93369" lon="7.33722">
        <ele>932</ele>
        <time>2013-12-21T13:36:48.000Z</time>
      </trkpt>
      <trkpt lat="43.9336" lon="7.33716">
        <ele>934.59997558594</ele>
        <time>2013-12-21T13:36:54.000Z</time>
      </trkpt>
      <trkpt lat="43.93349" lon="7.33704">
        <ele>938.40002441406</ele>
        <time>2013-12-21T13:37:01.000Z</time>
      </trkpt>
      <trkpt lat="43.93346" lon="7.33702">
        <ele>939</ele>
        <time>2013-12-21T13:37:03.000Z</time>
      </trkpt>
      <trkpt lat="43.93344" lon="7.33699">
        <ele>940.40002441406</ele>
        <time>2013-12-21T13:37:06.000Z</time>
      </trkpt>
      <trkpt lat="43.9334" lon="7.33693">
        <ele>942.59997558594</ele>
        <time>2013-12-21T13:37:12.000Z</time>
      </trkpt>
      <trkpt lat="43.93341" lon="7.33686">
        <ele>944.79998779297</ele>
        <time>2013-12-21T13:37:17.000Z</time>
      </trkpt>
      <trkpt lat="43.93343" lon="7.33684">
        <ele>945.40002441406</ele>
        <time>2013-12-21T13:37:20.000Z</time>
      </trkpt>
      <trkpt lat="43.93341" lon="7.33678">
        <ele>945.59997558594</ele>
        <time>2013-12-21T13:37:24.000Z</time>
      </trkpt>
      <trkpt lat="43.9334" lon="7.33675">
        <ele>945.40002441406</ele>
        <time>2013-12-21T13:37:26.000Z</time>
      </trkpt>
      <trkpt lat="43.9334" lon="7.33671">
        <ele>945.20001220703</ele>
        <time>2013-12-21T13:37:29.000Z</time>
      </trkpt>
      <trkpt lat="43.93339" lon="7.33663">
        <ele>945</ele>
        <time>2013-12-21T13:37:33.000Z</time>
      </trkpt>
      <trkpt lat="43.93338" lon="7.33658">
        <ele>944.59997558594</ele>
        <time>2013-12-21T13:37:35.000Z</time>
      </trkpt>
      <trkpt lat="43.93331" lon="7.33643">
        <ele>944.20001220703</ele>
        <time>2013-12-21T13:37:41.000Z</time>
      </trkpt>
      <trkpt lat="43.93329" lon="7.3363">
        <ele>943.59997558594</ele>
        <time>2013-12-21T13:37:47.000Z</time>
      </trkpt>
      <trkpt lat="43.9333" lon="7.33626">
        <ele>943.59997558594</ele>
        <time>2013-12-21T13:37:49.000Z</time>
      </trkpt>
      <trkpt lat="43.93329" lon="7.33619">
        <ele>943.40002441406</ele>
        <time>2013-12-21T13:37:52.000Z</time>
      </trkpt>
      <trkpt lat="43.93329" lon="7.3361">
        <ele>943.20001220703</ele>
        <time>2013-12-21T13:37:55.000Z</time>
      </trkpt>
      <trkpt lat="43.93328" lon="7.33606">
        <ele>943</ele>
        <time>2013-12-21T13:37:57.000Z</time>
      </trkpt>
      <trkpt lat="43.93327" lon="7.33596">
        <ele>943</ele>
        <time>2013-12-21T13:38:02.000Z</time>
      </trkpt>
      <trkpt lat="43.93324" lon="7.3358">
        <ele>943.20001220703</ele>
        <time>2013-12-21T13:38:10.000Z</time>
      </trkpt>
      <trkpt lat="43.9332" lon="7.33569">
        <ele>943.59997558594</ele>
        <time>2013-12-21T13:38:18.000Z</time>
      </trkpt>
      <trkpt lat="43.93319" lon="7.33564">
        <ele>943.79998779297</ele>
        <time>2013-12-21T13:38:22.000Z</time>
      </trkpt>
      <trkpt lat="43.93319" lon="7.33561">
        <ele>944</ele>
        <time>2013-12-21T13:38:24.000Z</time>
      </trkpt>
      <trkpt lat="43.93317" lon="7.33549">
        <ele>944.79998779297</ele>
        <time>2013-12-21T13:38:32.000Z</time>
      </trkpt>
      <trkpt lat="43.93317" lon="7.33546">
        <ele>945</ele>
        <time>2013-12-21T13:38:34.000Z</time>
      </trkpt>
      <trkpt lat="43.93314" lon="7.33539">
        <ele>945.59997558594</ele>
        <time>2013-12-21T13:38:40.000Z</time>
      </trkpt>
      <trkpt lat="43.93314" lon="7.33536">
        <ele>946.40002441406</ele>
        <time>2013-12-21T13:38:48.000Z</time>
      </trkpt>
      <trkpt lat="43.93308" lon="7.33528">
        <ele>947.59997558594</ele>
        <time>2013-12-21T13:42:43.000Z</time>
      </trkpt>
      <trkpt lat="43.93301" lon="7.33511">
        <ele>947.59997558594</ele>
        <time>2013-12-21T13:42:47.000Z</time>
      </trkpt>
      <trkpt lat="43.93299" lon="7.33494">
        <ele>947.40002441406</ele>
        <time>2013-12-21T13:42:50.000Z</time>
      </trkpt>
      <trkpt lat="43.93295" lon="7.33489">
        <ele>947.20001220703</ele>
        <time>2013-12-21T13:42:51.000Z</time>
      </trkpt>
      <trkpt lat="43.93283" lon="7.33471">
        <ele>947</ele>
        <time>2013-12-21T13:42:54.000Z</time>
      </trkpt>
      <trkpt lat="43.93279" lon="7.33466">
        <ele>947</ele>
        <time>2013-12-21T13:42:55.000Z</time>
      </trkpt>
      <trkpt lat="43.93273" lon="7.33459">
        <ele>946.79998779297</ele>
        <time>2013-12-21T13:42:57.000Z</time>
      </trkpt>
      <trkpt lat="43.93264" lon="7.33456">
        <ele>946.40002441406</ele>
        <time>2013-12-21T13:42:59.000Z</time>
      </trkpt>
      <trkpt lat="43.93251" lon="7.33455">
        <ele>946.20001220703</ele>
        <time>2013-12-21T13:43:02.000Z</time>
      </trkpt>
      <trkpt lat="43.93247" lon="7.33454">
        <ele>946</ele>
        <time>2013-12-21T13:43:03.000Z</time>
      </trkpt>
      <trkpt lat="43.93242" lon="7.33451">
        <ele>946</ele>
        <time>2013-12-21T13:43:04.000Z</time>
      </trkpt>
      <trkpt lat="43.93228" lon="7.33452">
        <ele>945.59997558594</ele>
        <time>2013-12-21T13:43:07.000Z</time>
      </trkpt>
      <trkpt lat="43.93216" lon="7.33462">
        <ele>945.40002441406</ele>
        <time>2013-12-21T13:43:09.000Z</time>
      </trkpt>
      <trkpt lat="43.93205" lon="7.33472">
        <ele>945.20001220703</ele>
        <time>2013-12-21T13:43:11.000Z</time>
      </trkpt>
      <trkpt lat="43.932" lon="7.33476">
        <ele>945</ele>
        <time>2013-12-21T13:43:12.000Z</time>
      </trkpt>
      <trkpt lat="43.93185" lon="7.33484">
        <ele>944.59997558594</ele>
        <time>2013-12-21T13:43:15.000Z</time>
      </trkpt>
      <trkpt lat="43.93175" lon="7.33488">
        <ele>944.20001220703</ele>
        <time>2013-12-21T13:43:17.000Z</time>
      </trkpt>
      <trkpt lat="43.93167" lon="7.33491">
        <ele>943.79998779297</ele>
        <time>2013-12-21T13:43:20.000Z</time>
      </trkpt>
      <trkpt lat="43.93156" lon="7.33498">
        <ele>943.20001220703</ele>
        <time>2013-12-21T13:43:24.000Z</time>
      </trkpt>
      <trkpt lat="43.93144" lon="7.33501">
        <ele>942</ele>
        <time>2013-12-21T13:43:29.000Z</time>
      </trkpt>
      <trkpt lat="43.93142" lon="7.33513">
        <ele>941.40002441406</ele>
        <time>2013-12-21T13:43:32.000Z</time>
      </trkpt>
      <trkpt lat="43.93152" lon="7.33526">
        <ele>940.40002441406</ele>
        <time>2013-12-21T13:43:36.000Z</time>
      </trkpt>
      <trkpt lat="43.93155" lon="7.33532">
        <ele>939.79998779297</ele>
        <time>2013-12-21T13:43:38.000Z</time>
      </trkpt>
      <trkpt lat="43.93154" lon="7.33536">
        <ele>939.59997558594</ele>
        <time>2013-12-21T13:43:39.000Z</time>
      </trkpt>
      <trkpt lat="43.93145" lon="7.33544">
        <ele>938.59997558594</ele>
        <time>2013-12-21T13:43:42.000Z</time>
      </trkpt>
      <trkpt lat="43.93141" lon="7.33545">
        <ele>938.40002441406</ele>
        <time>2013-12-21T13:43:43.000Z</time>
      </trkpt>
      <trkpt lat="43.9313" lon="7.33543">
        <ele>937.59997558594</ele>
        <time>2013-12-21T13:43:46.000Z</time>
      </trkpt>
      <trkpt lat="43.93117" lon="7.33533">
        <ele>936.59997558594</ele>
        <time>2013-12-21T13:43:50.000Z</time>
      </trkpt>
      <trkpt lat="43.93102" lon="7.33514">
        <ele>935.20001220703</ele>
        <time>2013-12-21T13:43:56.000Z</time>
      </trkpt>
      <trkpt lat="43.93095" lon="7.33502">
        <ele>934.40002441406</ele>
        <time>2013-12-21T13:44:00.000Z</time>
      </trkpt>
      <trkpt lat="43.93092" lon="7.335">
        <ele>934</ele>
        <time>2013-12-21T13:44:01.000Z</time>
      </trkpt>
      <trkpt lat="43.93074" lon="7.33491">
        <ele>933</ele>
        <time>2013-12-21T13:44:06.000Z</time>
      </trkpt>
      <trkpt lat="43.93062" lon="7.33486">
        <ele>932.20001220703</ele>
        <time>2013-12-21T13:44:09.000Z</time>
      </trkpt>
      <trkpt lat="43.93058" lon="7.33487">
        <ele>932</ele>
        <time>2013-12-21T13:44:10.000Z</time>
      </trkpt>
      <trkpt lat="43.93055" lon="7.3349">
        <ele>931.59997558594</ele>
        <time>2013-12-21T13:44:11.000Z</time>
      </trkpt>
      <trkpt lat="43.93044" lon="7.33509">
        <ele>930.59997558594</ele>
        <time>2013-12-21T13:44:15.000Z</time>
      </trkpt>
      <trkpt lat="43.9304" lon="7.33513">
        <ele>930.40002441406</ele>
        <time>2013-12-21T13:44:16.000Z</time>
      </trkpt>
      <trkpt lat="43.93031" lon="7.33526">
        <ele>929.59997558594</ele>
        <time>2013-12-21T13:44:18.000Z</time>
      </trkpt>
      <trkpt lat="43.93025" lon="7.33532">
        <ele>929.40002441406</ele>
        <time>2013-12-21T13:44:19.000Z</time>
      </trkpt>
      <trkpt lat="43.93011" lon="7.33541">
        <ele>928.79998779297</ele>
        <time>2013-12-21T13:44:21.000Z</time>
      </trkpt>
      <trkpt lat="43.92994" lon="7.33549">
        <ele>927.59997558594</ele>
        <time>2013-12-21T13:44:25.000Z</time>
      </trkpt>
      <trkpt lat="43.92991" lon="7.3355">
        <ele>927.20001220703</ele>
        <time>2013-12-21T13:44:26.000Z</time>
      </trkpt>
      <trkpt lat="43.92982" lon="7.33551">
        <ele>926.40002441406</ele>
        <time>2013-12-21T13:44:29.000Z</time>
      </trkpt>
      <trkpt lat="43.92978" lon="7.33553">
        <ele>925.79998779297</ele>
        <time>2013-12-21T13:44:31.000Z</time>
      </trkpt>
      <trkpt lat="43.92967" lon="7.33557">
        <ele>924.79998779297</ele>
        <time>2013-12-21T13:44:34.000Z</time>
      </trkpt>
      <trkpt lat="43.92947" lon="7.3356">
        <ele>923.20001220703</ele>
        <time>2013-12-21T13:44:39.000Z</time>
      </trkpt>
      <trkpt lat="43.92926" lon="7.33569">
        <ele>921</ele>
        <time>2013-12-21T13:44:45.000Z</time>
      </trkpt>
      <trkpt lat="43.92907" lon="7.33579">
        <ele>918.79998779297</ele>
        <time>2013-12-21T13:44:51.000Z</time>
      </trkpt>
      <trkpt lat="43.92901" lon="7.33593">
        <ele>917.20001220703</ele>
        <time>2013-12-21T13:44:55.000Z</time>
      </trkpt>
      <trkpt lat="43.92908" lon="7.33607">
        <ele>915.79998779297</ele>
        <time>2013-12-21T13:44:59.000Z</time>
      </trkpt>
      <trkpt lat="43.92916" lon="7.33618">
        <ele>914</ele>
        <time>2013-12-21T13:45:03.000Z</time>
      </trkpt>
      <trkpt lat="43.92925" lon="7.33632">
        <ele>912.20001220703</ele>
        <time>2013-12-21T13:45:07.000Z</time>
      </trkpt>
      <trkpt lat="43.92937" lon="7.33647">
        <ele>910.40002441406</ele>
        <time>2013-12-21T13:45:11.000Z</time>
      </trkpt>
      <trkpt lat="43.92952" lon="7.33654">
        <ele>908.59997558594</ele>
        <time>2013-12-21T13:45:15.000Z</time>
      </trkpt>
      <trkpt lat="43.92972" lon="7.33664">
        <ele>906.79998779297</ele>
        <time>2013-12-21T13:45:19.000Z</time>
      </trkpt>
      <trkpt lat="43.92976" lon="7.33668">
        <ele>906.40002441406</ele>
        <time>2013-12-21T13:45:20.000Z</time>
      </trkpt>
      <trkpt lat="43.92983" lon="7.33685">
        <ele>904.59997558594</ele>
        <time>2013-12-21T13:45:24.000Z</time>
      </trkpt>
      <trkpt lat="43.92975" lon="7.33701">
        <ele>903</ele>
        <time>2013-12-21T13:45:28.000Z</time>
      </trkpt>
      <trkpt lat="43.92973" lon="7.33704">
        <ele>902.59997558594</ele>
        <time>2013-12-21T13:45:29.000Z</time>
      </trkpt>
      <trkpt lat="43.9297" lon="7.33716">
        <ele>901.40002441406</ele>
        <time>2013-12-21T13:45:32.000Z</time>
      </trkpt>
      <trkpt lat="43.92972" lon="7.33738">
        <ele>899.20001220703</ele>
        <time>2013-12-21T13:45:39.000Z</time>
      </trkpt>
      <trkpt lat="43.92984" lon="7.33759">
        <ele>896.59997558594</ele>
        <time>2013-12-21T13:45:47.000Z</time>
      </trkpt>
      <trkpt lat="43.92996" lon="7.33772">
        <ele>895.20001220703</ele>
        <time>2013-12-21T13:45:52.000Z</time>
      </trkpt>
      <trkpt lat="43.93004" lon="7.33783">
        <ele>893.79998779297</ele>
        <time>2013-12-21T13:45:57.000Z</time>
      </trkpt>
      <trkpt lat="43.93004" lon="7.3379">
        <ele>892.79998779297</ele>
        <time>2013-12-21T13:46:02.000Z</time>
      </trkpt>
      <trkpt lat="43.93004" lon="7.33793">
        <ele>891.59997558594</ele>
        <time>2013-12-21T13:46:08.000Z</time>
      </trkpt>
      <trkpt lat="43.93003" lon="7.33794">
        <ele>890.79998779297</ele>
        <time>2013-12-21T13:46:13.000Z</time>
      </trkpt>
      <trkpt lat="43.93" lon="7.33792">
        <ele>890.20001220703</ele>
        <time>2013-12-21T13:46:19.000Z</time>
      </trkpt>
      <trkpt lat="43.92994" lon="7.33791">
        <ele>889.79998779297</ele>
        <time>2013-12-21T13:46:25.000Z</time>
      </trkpt>
      <trkpt lat="43.92992" lon="7.3379">
        <ele>889.79998779297</ele>
        <time>2013-12-21T13:46:26.000Z</time>
      </trkpt>
      <trkpt lat="43.92981" lon="7.3379">
        <ele>889.59997558594</ele>
        <time>2013-12-21T13:46:30.000Z</time>
      </trkpt>
      <trkpt lat="43.92963" lon="7.33791">
        <ele>889.40002441406</ele>
        <time>2013-12-21T13:46:37.000Z</time>
      </trkpt>
      <trkpt lat="43.92949" lon="7.33794">
        <ele>889.20001220703</ele>
        <time>2013-12-21T13:46:42.000Z</time>
      </trkpt>
      <trkpt lat="43.92937" lon="7.33807">
        <ele>888.79998779297</ele>
        <time>2013-12-21T13:46:46.000Z</time>
      </trkpt>
      <trkpt lat="43.92932" lon="7.33825">
        <ele>888.20001220703</ele>
        <time>2013-12-21T13:46:51.000Z</time>
      </trkpt>
      <trkpt lat="43.92931" lon="7.33843">
        <ele>887.40002441406</ele>
        <time>2013-12-21T13:46:57.000Z</time>
      </trkpt>
      <trkpt lat="43.92934" lon="7.33863">
        <ele>886.59997558594</ele>
        <time>2013-12-21T13:47:03.000Z</time>
      </trkpt>
      <trkpt lat="43.92936" lon="7.3388">
        <ele>885.79998779297</ele>
        <time>2013-12-21T13:47:09.000Z</time>
      </trkpt>
      <trkpt lat="43.92939" lon="7.33893">
        <ele>885</ele>
        <time>2013-12-21T13:47:15.000Z</time>
      </trkpt>
      <trkpt lat="43.92941" lon="7.339">
        <ele>884.59997558594</ele>
        <time>2013-12-21T13:47:20.000Z</time>
      </trkpt>
      <trkpt lat="43.92945" lon="7.33904">
        <ele>882.59997558594</ele>
        <time>2013-12-21T13:47:42.000Z</time>
      </trkpt>
      <trkpt lat="43.92954" lon="7.33901">
        <ele>882.20001220703</ele>
        <time>2013-12-21T13:47:47.000Z</time>
      </trkpt>
      <trkpt lat="43.92941" lon="7.33905">
        <ele>883.79998779297</ele>
        <time>2013-12-21T13:48:14.000Z</time>
      </trkpt>
      <trkpt lat="43.92945" lon="7.33919">
        <ele>884.20001220703</ele>
        <time>2013-12-21T13:48:17.000Z</time>
      </trkpt>
      <trkpt lat="43.92947" lon="7.33945">
        <ele>884.79998779297</ele>
        <time>2013-12-21T13:48:21.000Z</time>
      </trkpt>
      <trkpt lat="43.92948" lon="7.33953">
        <ele>885</ele>
        <time>2013-12-21T13:48:22.000Z</time>
      </trkpt>
      <trkpt lat="43.92954" lon="7.33979">
        <ele>885.20001220703</ele>
        <time>2013-12-21T13:48:25.000Z</time>
      </trkpt>
      <trkpt lat="43.92952" lon="7.33997">
        <ele>885.20001220703</ele>
        <time>2013-12-21T13:48:28.000Z</time>
      </trkpt>
      <trkpt lat="43.9295" lon="7.33997">
        <ele>885.40002441406</ele>
        <time>2013-12-21T13:48:29.000Z</time>
      </trkpt>
      <trkpt lat="43.92935" lon="7.33999">
        <ele>885.79998779297</ele>
        <time>2013-12-21T13:48:32.000Z</time>
      </trkpt>
      <trkpt lat="43.92922" lon="7.34004">
        <ele>886.20001220703</ele>
        <time>2013-12-21T13:48:36.000Z</time>
      </trkpt>
      <trkpt lat="43.92909" lon="7.34016">
        <ele>885.79998779297</ele>
        <time>2013-12-21T13:48:39.000Z</time>
      </trkpt>
      <trkpt lat="43.92904" lon="7.34036">
        <ele>885.79998779297</ele>
        <time>2013-12-21T13:48:42.000Z</time>
      </trkpt>
      <trkpt lat="43.92901" lon="7.34053">
        <ele>885.59997558594</ele>
        <time>2013-12-21T13:48:45.000Z</time>
      </trkpt>
      <trkpt lat="43.92901" lon="7.34059">
        <ele>885.59997558594</ele>
        <time>2013-12-21T13:48:46.000Z</time>
      </trkpt>
      <trkpt lat="43.929" lon="7.34064">
        <ele>885.59997558594</ele>
        <time>2013-12-21T13:48:47.000Z</time>
      </trkpt>
      <trkpt lat="43.92896" lon="7.34074">
        <ele>885.40002441406</ele>
        <time>2013-12-21T13:48:49.000Z</time>
      </trkpt>
      <trkpt lat="43.92891" lon="7.34081">
        <ele>885.20001220703</ele>
        <time>2013-12-21T13:48:51.000Z</time>
      </trkpt>
      <trkpt lat="43.92886" lon="7.34086">
        <ele>885.20001220703</ele>
        <time>2013-12-21T13:48:53.000Z</time>
      </trkpt>
      <trkpt lat="43.92872" lon="7.34101">
        <ele>885</ele>
        <time>2013-12-21T13:48:58.000Z</time>
      </trkpt>
      <trkpt lat="43.92865" lon="7.34115">
        <ele>884.79998779297</ele>
        <time>2013-12-21T13:49:02.000Z</time>
      </trkpt>
      <trkpt lat="43.92864" lon="7.34118">
        <ele>884.79998779297</ele>
        <time>2013-12-21T13:49:03.000Z</time>
      </trkpt>
      <trkpt lat="43.92857" lon="7.34132">
        <ele>884.79998779297</ele>
        <time>2013-12-21T13:49:07.000Z</time>
      </trkpt>
      <trkpt lat="43.92851" lon="7.3415">
        <ele>884.79998779297</ele>
        <time>2013-12-21T13:49:12.000Z</time>
      </trkpt>
      <trkpt lat="43.92853" lon="7.3417">
        <ele>884.79998779297</ele>
        <time>2013-12-21T13:49:17.000Z</time>
      </trkpt>
      <trkpt lat="43.92858" lon="7.34187">
        <ele>884.79998779297</ele>
        <time>2013-12-21T13:49:22.000Z</time>
      </trkpt>
      <trkpt lat="43.92861" lon="7.34204">
        <ele>884.79998779297</ele>
        <time>2013-12-21T13:49:27.000Z</time>
      </trkpt>
      <trkpt lat="43.92861" lon="7.34208">
        <ele>885</ele>
        <time>2013-12-21T13:49:28.000Z</time>
      </trkpt>
      <trkpt lat="43.92857" lon="7.34214">
        <ele>885.40002441406</ele>
        <time>2013-12-21T13:49:31.000Z</time>
      </trkpt>
      <trkpt lat="43.92846" lon="7.34213">
        <ele>886.59997558594</ele>
        <time>2013-12-21T13:49:35.000Z</time>
      </trkpt>
      <trkpt lat="43.92843" lon="7.34213">
        <ele>886.79998779297</ele>
        <time>2013-12-21T13:49:36.000Z</time>
      </trkpt>
      <trkpt lat="43.92836" lon="7.34211">
        <ele>888</ele>
        <time>2013-12-21T13:49:39.000Z</time>
      </trkpt>
      <trkpt lat="43.92831" lon="7.34216">
        <ele>888.40002441406</ele>
        <time>2013-12-21T13:49:41.000Z</time>
      </trkpt>
      <trkpt lat="43.92823" lon="7.34227">
        <ele>888.40002441406</ele>
        <time>2013-12-21T13:49:45.000Z</time>
      </trkpt>
      <trkpt lat="43.92821" lon="7.34243">
        <ele>888.40002441406</ele>
        <time>2013-12-21T13:49:49.000Z</time>
      </trkpt>
      <trkpt lat="43.92816" lon="7.34263">
        <ele>888.40002441406</ele>
        <time>2013-12-21T13:49:55.000Z</time>
      </trkpt>
      <trkpt lat="43.92805" lon="7.34284">
        <ele>888</ele>
        <time>2013-12-21T13:50:01.000Z</time>
      </trkpt>
      <trkpt lat="43.92795" lon="7.34299">
        <ele>888</ele>
        <time>2013-12-21T13:50:06.000Z</time>
      </trkpt>
      <trkpt lat="43.92793" lon="7.34301">
        <ele>888.20001220703</ele>
        <time>2013-12-21T13:50:07.000Z</time>
      </trkpt>
      <trkpt lat="43.92781" lon="7.34311">
        <ele>888.20001220703</ele>
        <time>2013-12-21T13:50:12.000Z</time>
      </trkpt>
      <trkpt lat="43.92775" lon="7.34311">
        <ele>888.79998779297</ele>
        <time>2013-12-21T13:50:14.000Z</time>
      </trkpt>
      <trkpt lat="43.9277" lon="7.34313">
        <ele>889.59997558594</ele>
        <time>2013-12-21T13:50:16.000Z</time>
      </trkpt>
      <trkpt lat="43.92762" lon="7.34321">
        <ele>891</ele>
        <time>2013-12-21T13:50:20.000Z</time>
      </trkpt>
      <trkpt lat="43.92753" lon="7.34333">
        <ele>894.40002441406</ele>
        <time>2013-12-21T13:50:26.000Z</time>
      </trkpt>
      <trkpt lat="43.9275" lon="7.34336">
        <ele>900.40002441406</ele>
        <time>2013-12-21T13:50:35.000Z</time>
      </trkpt>
      <trkpt lat="43.92747" lon="7.3434">
        <ele>903.20001220703</ele>
        <time>2013-12-21T13:50:41.000Z</time>
      </trkpt>
      <trkpt lat="43.92756" lon="7.34345">
        <ele>906.59997558594</ele>
        <time>2013-12-21T13:51:02.000Z</time>
      </trkpt>
      <trkpt lat="43.92748" lon="7.34349">
        <ele>906.20001220703</ele>
        <time>2013-12-21T13:51:11.000Z</time>
      </trkpt>
      <trkpt lat="43.92748" lon="7.34351">
        <ele>906</ele>
        <time>2013-12-21T13:51:14.000Z</time>
      </trkpt>
      <trkpt lat="43.9275" lon="7.3435">
        <ele>905.59997558594</ele>
        <time>2013-12-21T13:51:20.000Z</time>
      </trkpt>
      <trkpt lat="43.92751" lon="7.34348">
        <ele>905.40002441406</ele>
        <time>2013-12-21T13:51:30.000Z</time>
      </trkpt>
      <trkpt lat="43.92753" lon="7.34346">
        <ele>905.59997558594</ele>
        <time>2013-12-21T13:51:37.000Z</time>
      </trkpt>
      <trkpt lat="43.92756" lon="7.34343">
        <ele>906.20001220703</ele>
        <time>2013-12-21T13:51:43.000Z</time>
      </trkpt>
      <trkpt lat="43.92756" lon="7.34341">
        <ele>906.79998779297</ele>
        <time>2013-12-21T13:51:44.000Z</time>
      </trkpt>
      <trkpt lat="43.92754" lon="7.34335">
        <ele>908.79998779297</ele>
        <time>2013-12-21T13:51:49.000Z</time>
      </trkpt>
      <trkpt lat="43.92749" lon="7.34334">
        <ele>909.20001220703</ele>
        <time>2013-12-21T13:51:53.000Z</time>
      </trkpt>
      <trkpt lat="43.92751" lon="7.34328">
        <ele>910.40002441406</ele>
        <time>2013-12-21T13:51:56.000Z</time>
      </trkpt>
      <trkpt lat="43.92751" lon="7.34326">
        <ele>911.59997558594</ele>
        <time>2013-12-21T13:51:59.000Z</time>
      </trkpt>
      <trkpt lat="43.92752" lon="7.34321">
        <ele>912</ele>
        <time>2013-12-21T13:52:02.000Z</time>
      </trkpt>
      <trkpt lat="43.92753" lon="7.34318">
        <ele>912</ele>
        <time>2013-12-21T13:52:03.000Z</time>
      </trkpt>
      <trkpt lat="43.92756" lon="7.34312">
        <ele>912.59997558594</ele>
        <time>2013-12-21T13:52:06.000Z</time>
      </trkpt>
      <trkpt lat="43.92756" lon="7.34304">
        <ele>912.79998779297</ele>
        <time>2013-12-21T13:52:09.000Z</time>
      </trkpt>
      <trkpt lat="43.92752" lon="7.34287">
        <ele>912.79998779297</ele>
        <time>2013-12-21T13:52:15.000Z</time>
      </trkpt>
      <trkpt lat="43.92752" lon="7.34268">
        <ele>913</ele>
        <time>2013-12-21T13:52:20.000Z</time>
      </trkpt>
      <trkpt lat="43.9275" lon="7.34251">
        <ele>913.20001220703</ele>
        <time>2013-12-21T13:52:25.000Z</time>
      </trkpt>
      <trkpt lat="43.92749" lon="7.3424">
        <ele>914</ele>
        <time>2013-12-21T13:52:29.000Z</time>
      </trkpt>
      <trkpt lat="43.92752" lon="7.34232">
        <ele>914.59997558594</ele>
        <time>2013-12-21T13:52:35.000Z</time>
      </trkpt>
      <trkpt lat="43.92753" lon="7.3423">
        <ele>914</ele>
        <time>2013-12-21T13:52:38.000Z</time>
      </trkpt>
      <trkpt lat="43.92752" lon="7.34228">
        <ele>913.79998779297</ele>
        <time>2013-12-21T13:52:40.000Z</time>
      </trkpt>
      <trkpt lat="43.92751" lon="7.34228">
        <ele>913.79998779297</ele>
        <time>2013-12-21T13:52:41.000Z</time>
      </trkpt>
      <trkpt lat="43.9275" lon="7.34225">
        <ele>913.79998779297</ele>
        <time>2013-12-21T13:52:45.000Z</time>
      </trkpt>
      <trkpt lat="43.92751" lon="7.34219">
        <ele>914</ele>
        <time>2013-12-21T13:52:49.000Z</time>
      </trkpt>
      <trkpt lat="43.9275" lon="7.34215">
        <ele>914</ele>
        <time>2013-12-21T13:52:52.000Z</time>
      </trkpt>
      <trkpt lat="43.92749" lon="7.34212">
        <ele>913.79998779297</ele>
        <time>2013-12-21T13:52:54.000Z</time>
      </trkpt>
      <trkpt lat="43.9275" lon="7.34207">
        <ele>913.59997558594</ele>
        <time>2013-12-21T13:52:58.000Z</time>
      </trkpt>
      <trkpt lat="43.9275" lon="7.34201">
        <ele>913</ele>
        <time>2013-12-21T13:53:05.000Z</time>
      </trkpt>
      <trkpt lat="43.92752" lon="7.34198">
        <ele>912.79998779297</ele>
        <time>2013-12-21T13:53:07.000Z</time>
      </trkpt>
      <trkpt lat="43.92745" lon="7.34189">
        <ele>912.40002441406</ele>
        <time>2013-12-21T13:53:12.000Z</time>
      </trkpt>
      <trkpt lat="43.92746" lon="7.34187">
        <ele>912.20001220703</ele>
        <time>2013-12-21T13:53:13.000Z</time>
      </trkpt>
      <trkpt lat="43.92745" lon="7.34177">
        <ele>911.79998779297</ele>
        <time>2013-12-21T13:53:18.000Z</time>
      </trkpt>
      <trkpt lat="43.92744" lon="7.3417">
        <ele>911.59997558594</ele>
        <time>2013-12-21T13:53:22.000Z</time>
      </trkpt>
      <trkpt lat="43.92743" lon="7.34169">
        <ele>911.40002441406</ele>
        <time>2013-12-21T13:53:23.000Z</time>
      </trkpt>
      <trkpt lat="43.92741" lon="7.34161">
        <ele>911.20001220703</ele>
        <time>2013-12-21T13:53:27.000Z</time>
      </trkpt>
      <trkpt lat="43.92741" lon="7.34153">
        <ele>911.20001220703</ele>
        <time>2013-12-21T13:53:32.000Z</time>
      </trkpt>
      <trkpt lat="43.9274" lon="7.34152">
        <ele>911.20001220703</ele>
        <time>2013-12-21T13:53:33.000Z</time>
      </trkpt>
      <trkpt lat="43.92743" lon="7.34147">
        <ele>911.40002441406</ele>
        <time>2013-12-21T13:53:37.000Z</time>
      </trkpt>
      <trkpt lat="43.92741" lon="7.34144">
        <ele>911.79998779297</ele>
        <time>2013-12-21T13:53:40.000Z</time>
      </trkpt>
      <trkpt lat="43.92742" lon="7.34138">
        <ele>912.20001220703</ele>
        <time>2013-12-21T13:53:42.000Z</time>
      </trkpt>
      <trkpt lat="43.92742" lon="7.34132">
        <ele>912.59997558594</ele>
        <time>2013-12-21T13:53:45.000Z</time>
      </trkpt>
      <trkpt lat="43.92738" lon="7.34127">
        <ele>912.59997558594</ele>
        <time>2013-12-21T13:53:49.000Z</time>
      </trkpt>
      <trkpt lat="43.92737" lon="7.34122">
        <ele>912.59997558594</ele>
        <time>2013-12-21T13:53:51.000Z</time>
      </trkpt>
      <trkpt lat="43.92737" lon="7.34117">
        <ele>912.59997558594</ele>
        <time>2013-12-21T13:53:54.000Z</time>
      </trkpt>
      <trkpt lat="43.92735" lon="7.34107">
        <ele>912.59997558594</ele>
        <time>2013-12-21T13:53:58.000Z</time>
      </trkpt>
      <trkpt lat="43.92735" lon="7.34105">
        <ele>912.59997558594</ele>
        <time>2013-12-21T13:53:59.000Z</time>
      </trkpt>
      <trkpt lat="43.92735" lon="7.34101">
        <ele>912.40002441406</ele>
        <time>2013-12-21T13:54:00.000Z</time>
      </trkpt>
      <trkpt lat="43.92731" lon="7.34076">
        <ele>912.40002441406</ele>
        <time>2013-12-21T13:54:05.000Z</time>
      </trkpt>
      <trkpt lat="43.92723" lon="7.34056">
        <ele>912.40002441406</ele>
        <time>2013-12-21T13:54:09.000Z</time>
      </trkpt>
      <trkpt lat="43.92715" lon="7.34038">
        <ele>912.20001220703</ele>
        <time>2013-12-21T13:54:12.000Z</time>
      </trkpt>
      <trkpt lat="43.92711" lon="7.34027">
        <ele>912.20001220703</ele>
        <time>2013-12-21T13:54:14.000Z</time>
      </trkpt>
      <trkpt lat="43.92705" lon="7.34004">
        <ele>912.20001220703</ele>
        <time>2013-12-21T13:54:18.000Z</time>
      </trkpt>
      <trkpt lat="43.92704" lon="7.34">
        <ele>912.20001220703</ele>
        <time>2013-12-21T13:54:19.000Z</time>
      </trkpt>
      <trkpt lat="43.92703" lon="7.33992">
        <ele>912</ele>
        <time>2013-12-21T13:54:21.000Z</time>
      </trkpt>
      <trkpt lat="43.92702" lon="7.33988">
        <ele>912</ele>
        <time>2013-12-21T13:54:22.000Z</time>
      </trkpt>
      <trkpt lat="43.92698" lon="7.33968">
        <ele>912</ele>
        <time>2013-12-21T13:54:26.000Z</time>
      </trkpt>
      <trkpt lat="43.92689" lon="7.33957">
        <ele>912.59997558594</ele>
        <time>2013-12-21T13:54:30.000Z</time>
      </trkpt>
      <trkpt lat="43.92684" lon="7.33954">
        <ele>913.20001220703</ele>
        <time>2013-12-21T13:54:32.000Z</time>
      </trkpt>
      <trkpt lat="43.92678" lon="7.33947">
        <ele>913.20001220703</ele>
        <time>2013-12-21T13:54:35.000Z</time>
      </trkpt>
      <trkpt lat="43.92669" lon="7.33934">
        <ele>913.40002441406</ele>
        <time>2013-12-21T13:54:39.000Z</time>
      </trkpt>
      <trkpt lat="43.92662" lon="7.3393">
        <ele>913.79998779297</ele>
        <time>2013-12-21T13:54:41.000Z</time>
      </trkpt>
      <trkpt lat="43.92645" lon="7.33918">
        <ele>913.59997558594</ele>
        <time>2013-12-21T13:54:46.000Z</time>
      </trkpt>
      <trkpt lat="43.92639" lon="7.339">
        <ele>914</ele>
        <time>2013-12-21T13:54:50.000Z</time>
      </trkpt>
      <trkpt lat="43.92633" lon="7.33889">
        <ele>913.79998779297</ele>
        <time>2013-12-21T13:54:53.000Z</time>
      </trkpt>
      <trkpt lat="43.92631" lon="7.33887">
        <ele>913.79998779297</ele>
        <time>2013-12-21T13:54:54.000Z</time>
      </trkpt>
      <trkpt lat="43.9262" lon="7.33878">
        <ele>913.79998779297</ele>
        <time>2013-12-21T13:54:59.000Z</time>
      </trkpt>
      <trkpt lat="43.92608" lon="7.33862">
        <ele>913.79998779297</ele>
        <time>2013-12-21T13:55:04.000Z</time>
      </trkpt>
      <trkpt lat="43.92597" lon="7.33854">
        <ele>915</ele>
        <time>2013-12-21T13:55:10.000Z</time>
      </trkpt>
      <trkpt lat="43.92595" lon="7.33854">
        <ele>915</ele>
        <time>2013-12-21T13:55:11.000Z</time>
      </trkpt>
      <trkpt lat="43.92591" lon="7.33849">
        <ele>915.40002441406</ele>
        <time>2013-12-21T13:55:14.000Z</time>
      </trkpt>
      <trkpt lat="43.92583" lon="7.33841">
        <ele>916</ele>
        <time>2013-12-21T13:55:17.000Z</time>
      </trkpt>
      <trkpt lat="43.92572" lon="7.33826">
        <ele>916</ele>
        <time>2013-12-21T13:55:23.000Z</time>
      </trkpt>
      <trkpt lat="43.9257" lon="7.33809">
        <ele>916.20001220703</ele>
        <time>2013-12-21T13:55:27.000Z</time>
      </trkpt>
      <trkpt lat="43.92567" lon="7.33793">
        <ele>916.59997558594</ele>
        <time>2013-12-21T13:55:31.000Z</time>
      </trkpt>
      <trkpt lat="43.92567" lon="7.33778">
        <ele>917.40002441406</ele>
        <time>2013-12-21T13:55:35.000Z</time>
      </trkpt>
      <trkpt lat="43.92567" lon="7.33774">
        <ele>917.59997558594</ele>
        <time>2013-12-21T13:55:36.000Z</time>
      </trkpt>
      <trkpt lat="43.92568" lon="7.33757">
        <ele>918.20001220703</ele>
        <time>2013-12-21T13:55:41.000Z</time>
      </trkpt>
      <trkpt lat="43.92568" lon="7.33748">
        <ele>918.79998779297</ele>
        <time>2013-12-21T13:55:44.000Z</time>
      </trkpt>
      <trkpt lat="43.92566" lon="7.3374">
        <ele>919</ele>
        <time>2013-12-21T13:55:47.000Z</time>
      </trkpt>
      <trkpt lat="43.92564" lon="7.33739">
        <ele>919</ele>
        <time>2013-12-21T13:55:48.000Z</time>
      </trkpt>
      <trkpt lat="43.92556" lon="7.33734">
        <ele>918.79998779297</ele>
        <time>2013-12-21T13:55:51.000Z</time>
      </trkpt>
      <trkpt lat="43.92548" lon="7.33728">
        <ele>919.20001220703</ele>
        <time>2013-12-21T13:55:56.000Z</time>
      </trkpt>
      <trkpt lat="43.92538" lon="7.33726">
        <ele>919</ele>
        <time>2013-12-21T13:56:02.000Z</time>
      </trkpt>
      <trkpt lat="43.92524" lon="7.33726">
        <ele>919.20001220703</ele>
        <time>2013-12-21T13:56:07.000Z</time>
      </trkpt>
      <trkpt lat="43.9251" lon="7.33719">
        <ele>919.79998779297</ele>
        <time>2013-12-21T13:56:12.000Z</time>
      </trkpt>
      <trkpt lat="43.92491" lon="7.33706">
        <ele>921</ele>
        <time>2013-12-21T13:56:19.000Z</time>
      </trkpt>
      <trkpt lat="43.92488" lon="7.33705">
        <ele>920.79998779297</ele>
        <time>2013-12-21T13:56:20.000Z</time>
      </trkpt>
      <trkpt lat="43.92482" lon="7.337">
        <ele>921.20001220703</ele>
        <time>2013-12-21T13:56:23.000Z</time>
      </trkpt>
      <trkpt lat="43.92479" lon="7.33698">
        <ele>921.59997558594</ele>
        <time>2013-12-21T13:56:24.000Z</time>
      </trkpt>
      <trkpt lat="43.92471" lon="7.3369">
        <ele>921.79998779297</ele>
        <time>2013-12-21T13:56:29.000Z</time>
      </trkpt>
      <trkpt lat="43.92468" lon="7.33688">
        <ele>922</ele>
        <time>2013-12-21T13:56:34.000Z</time>
      </trkpt>
      <trkpt lat="43.92465" lon="7.33697">
        <ele>910.40002441406</ele>
        <time>2013-12-21T14:01:34.000Z</time>
      </trkpt>
      <trkpt lat="43.92443" lon="7.33705">
        <ele>910</ele>
        <time>2013-12-21T14:01:39.000Z</time>
      </trkpt>
      <trkpt lat="43.92419" lon="7.33708">
        <ele>909.79998779297</ele>
        <time>2013-12-21T14:01:44.000Z</time>
      </trkpt>
      <trkpt lat="43.92402" lon="7.3371">
        <ele>909.79998779297</ele>
        <time>2013-12-21T14:01:48.000Z</time>
      </trkpt>
      <trkpt lat="43.92398" lon="7.33711">
        <ele>909.79998779297</ele>
        <time>2013-12-21T14:01:49.000Z</time>
      </trkpt>
      <trkpt lat="43.92391" lon="7.33724">
        <ele>910</ele>
        <time>2013-12-21T14:01:52.000Z</time>
      </trkpt>
      <trkpt lat="43.9238" lon="7.33737">
        <ele>910</ele>
        <time>2013-12-21T14:01:55.000Z</time>
      </trkpt>
      <trkpt lat="43.92377" lon="7.33741">
        <ele>910.20001220703</ele>
        <time>2013-12-21T14:01:57.000Z</time>
      </trkpt>
      <trkpt lat="43.92376" lon="7.33742">
        <ele>910.20001220703</ele>
        <time>2013-12-21T14:01:59.000Z</time>
      </trkpt>
      <trkpt lat="43.92372" lon="7.33749">
        <ele>910.59997558594</ele>
        <time>2013-12-21T14:02:04.000Z</time>
      </trkpt>
      <trkpt lat="43.9237" lon="7.33759">
        <ele>910.59997558594</ele>
        <time>2013-12-21T14:02:06.000Z</time>
      </trkpt>
      <trkpt lat="43.92366" lon="7.33771">
        <ele>910.59997558594</ele>
        <time>2013-12-21T14:02:08.000Z</time>
      </trkpt>
      <trkpt lat="43.92361" lon="7.33794">
        <ele>910.79998779297</ele>
        <time>2013-12-21T14:02:12.000Z</time>
      </trkpt>
      <trkpt lat="43.92363" lon="7.33817">
        <ele>910.79998779297</ele>
        <time>2013-12-21T14:02:16.000Z</time>
      </trkpt>
      <trkpt lat="43.92356" lon="7.33824">
        <ele>910.59997558594</ele>
        <time>2013-12-21T14:02:19.000Z</time>
      </trkpt>
      <trkpt lat="43.92353" lon="7.33825">
        <ele>910.59997558594</ele>
        <time>2013-12-21T14:02:20.000Z</time>
      </trkpt>
      <trkpt lat="43.92341" lon="7.33826">
        <ele>910.79998779297</ele>
        <time>2013-12-21T14:02:23.000Z</time>
      </trkpt>
      <trkpt lat="43.92332" lon="7.33832">
        <ele>910.79998779297</ele>
        <time>2013-12-21T14:02:27.000Z</time>
      </trkpt>
      <trkpt lat="43.92328" lon="7.33834">
        <ele>910.79998779297</ele>
        <time>2013-12-21T14:02:29.000Z</time>
      </trkpt>
      <trkpt lat="43.92325" lon="7.33833">
        <ele>910.79998779297</ele>
        <time>2013-12-21T14:02:31.000Z</time>
      </trkpt>
      <trkpt lat="43.9231" lon="7.33837">
        <ele>911.20001220703</ele>
        <time>2013-12-21T14:02:36.000Z</time>
      </trkpt>
      <trkpt lat="43.92295" lon="7.33849">
        <ele>911.79998779297</ele>
        <time>2013-12-21T14:02:42.000Z</time>
      </trkpt>
      <trkpt lat="43.92288" lon="7.33859">
        <ele>912.40002441406</ele>
        <time>2013-12-21T14:02:47.000Z</time>
      </trkpt>
      <trkpt lat="43.92281" lon="7.33875">
        <ele>913</ele>
        <time>2013-12-21T14:02:53.000Z</time>
      </trkpt>
      <trkpt lat="43.92272" lon="7.33896">
        <ele>913.79998779297</ele>
        <time>2013-12-21T14:03:00.000Z</time>
      </trkpt>
      <trkpt lat="43.92271" lon="7.33913">
        <ele>914.20001220703</ele>
        <time>2013-12-21T14:03:05.000Z</time>
      </trkpt>
      <trkpt lat="43.92268" lon="7.33919">
        <ele>914.40002441406</ele>
        <time>2013-12-21T14:03:07.000Z</time>
      </trkpt>
      <trkpt lat="43.92266" lon="7.33919">
        <ele>914.40002441406</ele>
        <time>2013-12-21T14:03:08.000Z</time>
      </trkpt>
      <trkpt lat="43.92258" lon="7.33931">
        <ele>915</ele>
        <time>2013-12-21T14:03:13.000Z</time>
      </trkpt>
      <trkpt lat="43.92254" lon="7.33939">
        <ele>915</ele>
        <time>2013-12-21T14:03:16.000Z</time>
      </trkpt>
      <trkpt lat="43.92251" lon="7.33943">
        <ele>915.20001220703</ele>
        <time>2013-12-21T14:03:18.000Z</time>
      </trkpt>
      <trkpt lat="43.92242" lon="7.33955">
        <ele>915.79998779297</ele>
        <time>2013-12-21T14:03:24.000Z</time>
      </trkpt>
      <trkpt lat="43.9224" lon="7.33974">
        <ele>916</ele>
        <time>2013-12-21T14:03:30.000Z</time>
      </trkpt>
      <trkpt lat="43.92239" lon="7.33978">
        <ele>916</ele>
        <time>2013-12-21T14:03:31.000Z</time>
      </trkpt>
      <trkpt lat="43.92238" lon="7.33991">
        <ele>916</ele>
        <time>2013-12-21T14:03:34.000Z</time>
      </trkpt>
      <trkpt lat="43.92233" lon="7.34009">
        <ele>915.59997558594</ele>
        <time>2013-12-21T14:03:39.000Z</time>
      </trkpt>
      <trkpt lat="43.92226" lon="7.34023">
        <ele>915.20001220703</ele>
        <time>2013-12-21T14:03:44.000Z</time>
      </trkpt>
      <trkpt lat="43.92217" lon="7.34036">
        <ele>915</ele>
        <time>2013-12-21T14:03:49.000Z</time>
      </trkpt>
      <trkpt lat="43.92201" lon="7.34038">
        <ele>914.79998779297</ele>
        <time>2013-12-21T14:03:53.000Z</time>
      </trkpt>
      <trkpt lat="43.92183" lon="7.34037">
        <ele>914.59997558594</ele>
        <time>2013-12-21T14:03:57.000Z</time>
      </trkpt>
      <trkpt lat="43.9216" lon="7.34029">
        <ele>914.40002441406</ele>
        <time>2013-12-21T14:04:02.000Z</time>
      </trkpt>
      <trkpt lat="43.92149" lon="7.34028">
        <ele>914.20001220703</ele>
        <time>2013-12-21T14:04:04.000Z</time>
      </trkpt>
      <trkpt lat="43.92141" lon="7.34037">
        <ele>914</ele>
        <time>2013-12-21T14:04:06.000Z</time>
      </trkpt>
      <trkpt lat="43.92126" lon="7.3406">
        <ele>913.79998779297</ele>
        <time>2013-12-21T14:04:10.000Z</time>
      </trkpt>
      <trkpt lat="43.92123" lon="7.34066">
        <ele>913.59997558594</ele>
        <time>2013-12-21T14:04:11.000Z</time>
      </trkpt>
      <trkpt lat="43.92117" lon="7.34085">
        <ele>913.40002441406</ele>
        <time>2013-12-21T14:04:14.000Z</time>
      </trkpt>
      <trkpt lat="43.92118" lon="7.34092">
        <ele>913.20001220703</ele>
        <time>2013-12-21T14:04:15.000Z</time>
      </trkpt>
      <trkpt lat="43.92124" lon="7.34105">
        <ele>913</ele>
        <time>2013-12-21T14:04:17.000Z</time>
      </trkpt>
      <trkpt lat="43.92116" lon="7.3412">
        <ele>912.59997558594</ele>
        <time>2013-12-21T14:04:20.000Z</time>
      </trkpt>
      <trkpt lat="43.92112" lon="7.34124">
        <ele>912.59997558594</ele>
        <time>2013-12-21T14:04:21.000Z</time>
      </trkpt>
      <trkpt lat="43.92107" lon="7.34127">
        <ele>912.40002441406</ele>
        <time>2013-12-21T14:04:22.000Z</time>
      </trkpt>
      <trkpt lat="43.92099" lon="7.34126">
        <ele>912.20001220703</ele>
        <time>2013-12-21T14:04:24.000Z</time>
      </trkpt>
      <trkpt lat="43.92081" lon="7.34122">
        <ele>911.79998779297</ele>
        <time>2013-12-21T14:04:28.000Z</time>
      </trkpt>
      <trkpt lat="43.92072" lon="7.34122">
        <ele>911.59997558594</ele>
        <time>2013-12-21T14:04:30.000Z</time>
      </trkpt>
      <trkpt lat="43.92065" lon="7.34125">
        <ele>911.20001220703</ele>
        <time>2013-12-21T14:04:32.000Z</time>
      </trkpt>
      <trkpt lat="43.92053" lon="7.34143">
        <ele>910.79998779297</ele>
        <time>2013-12-21T14:04:35.000Z</time>
      </trkpt>
      <trkpt lat="43.92048" lon="7.34149">
        <ele>910.59997558594</ele>
        <time>2013-12-21T14:04:36.000Z</time>
      </trkpt>
      <trkpt lat="43.92032" lon="7.34171">
        <ele>909.79998779297</ele>
        <time>2013-12-21T14:04:39.000Z</time>
      </trkpt>
      <trkpt lat="43.92028" lon="7.34178">
        <ele>909.59997558594</ele>
        <time>2013-12-21T14:04:40.000Z</time>
      </trkpt>
      <trkpt lat="43.92019" lon="7.342">
        <ele>909</ele>
        <time>2013-12-21T14:04:43.000Z</time>
      </trkpt>
      <trkpt lat="43.92015" lon="7.34206">
        <ele>908.79998779297</ele>
        <time>2013-12-21T14:04:44.000Z</time>
      </trkpt>
      <trkpt lat="43.92004" lon="7.34218">
        <ele>908</ele>
        <time>2013-12-21T14:04:47.000Z</time>
      </trkpt>
      <trkpt lat="43.92002" lon="7.34219">
        <ele>907.40002441406</ele>
        <time>2013-12-21T14:04:49.000Z</time>
      </trkpt>
      <trkpt lat="43.92002" lon="7.34219">
        <ele>907.20001220703</ele>
        <time>2013-12-21T14:04:50.000Z</time>
      </trkpt>
      <trkpt lat="43.91999" lon="7.342">
        <ele>907.79998779297</ele>
        <time>2013-12-21T14:05:27.000Z</time>
      </trkpt>
      <trkpt lat="43.92" lon="7.34194">
        <ele>907.59997558594</ele>
        <time>2013-12-21T14:05:30.000Z</time>
      </trkpt>
      <trkpt lat="43.91999" lon="7.34177">
        <ele>907.20001220703</ele>
        <time>2013-12-21T14:05:34.000Z</time>
      </trkpt>
      <trkpt lat="43.92" lon="7.34163">
        <ele>906.79998779297</ele>
        <time>2013-12-21T14:05:38.000Z</time>
      </trkpt>
      <trkpt lat="43.91996" lon="7.34142">
        <ele>907.20001220703</ele>
        <time>2013-12-21T14:05:43.000Z</time>
      </trkpt>
      <trkpt lat="43.91997" lon="7.34134">
        <ele>907.40002441406</ele>
        <time>2013-12-21T14:05:45.000Z</time>
      </trkpt>
      <trkpt lat="43.92" lon="7.34126">
        <ele>908</ele>
        <time>2013-12-21T14:05:47.000Z</time>
      </trkpt>
      <trkpt lat="43.92001" lon="7.34122">
        <ele>908.20001220703</ele>
        <time>2013-12-21T14:05:48.000Z</time>
      </trkpt>
      <trkpt lat="43.92003" lon="7.34103">
        <ele>909.40002441406</ele>
        <time>2013-12-21T14:05:53.000Z</time>
      </trkpt>
      <trkpt lat="43.92003" lon="7.34096">
        <ele>909.79998779297</ele>
        <time>2013-12-21T14:05:55.000Z</time>
      </trkpt>
      <trkpt lat="43.92" lon="7.3409">
        <ele>910.59997558594</ele>
        <time>2013-12-21T14:05:57.000Z</time>
      </trkpt>
      <trkpt lat="43.91998" lon="7.34079">
        <ele>911</ele>
        <time>2013-12-21T14:06:01.000Z</time>
      </trkpt>
      <trkpt lat="43.91997" lon="7.34074">
        <ele>911.20001220703</ele>
        <time>2013-12-21T14:06:03.000Z</time>
      </trkpt>
      <trkpt lat="43.91995" lon="7.34071">
        <ele>911</ele>
        <time>2013-12-21T14:06:05.000Z</time>
      </trkpt>
      <trkpt lat="43.91991" lon="7.34065">
        <ele>911.20001220703</ele>
        <time>2013-12-21T14:06:09.000Z</time>
      </trkpt>
      <trkpt lat="43.91984" lon="7.34058">
        <ele>911.20001220703</ele>
        <time>2013-12-21T14:06:14.000Z</time>
      </trkpt>
      <trkpt lat="43.91983" lon="7.34058">
        <ele>911.20001220703</ele>
        <time>2013-12-21T14:06:15.000Z</time>
      </trkpt>
      <trkpt lat="43.91982" lon="7.34057">
        <ele>911.20001220703</ele>
        <time>2013-12-21T14:06:16.000Z</time>
      </trkpt>
      <trkpt lat="43.91977" lon="7.34052">
        <ele>911.20001220703</ele>
        <time>2013-12-21T14:06:21.000Z</time>
      </trkpt>
      <trkpt lat="43.91972" lon="7.34046">
        <ele>911.40002441406</ele>
        <time>2013-12-21T14:06:25.000Z</time>
      </trkpt>
      <trkpt lat="43.91971" lon="7.34042">
        <ele>911.40002441406</ele>
        <time>2013-12-21T14:06:27.000Z</time>
      </trkpt>
      <trkpt lat="43.91968" lon="7.34029">
        <ele>911.79998779297</ele>
        <time>2013-12-21T14:06:31.000Z</time>
      </trkpt>
      <trkpt lat="43.91964" lon="7.34018">
        <ele>912.20001220703</ele>
        <time>2013-12-21T14:06:36.000Z</time>
      </trkpt>
      <trkpt lat="43.91963" lon="7.34015">
        <ele>912.40002441406</ele>
        <time>2013-12-21T14:06:37.000Z</time>
      </trkpt>
      <trkpt lat="43.91962" lon="7.34006">
        <ele>913.59997558594</ele>
        <time>2013-12-21T14:06:41.000Z</time>
      </trkpt>
      <trkpt lat="43.91958" lon="7.33988">
        <ele>916.20001220703</ele>
        <time>2013-12-21T14:06:47.000Z</time>
      </trkpt>
      <trkpt lat="43.91958" lon="7.33985">
        <ele>916.59997558594</ele>
        <time>2013-12-21T14:06:48.000Z</time>
      </trkpt>
      <trkpt lat="43.91956" lon="7.33969">
        <ele>918.20001220703</ele>
        <time>2013-12-21T14:06:53.000Z</time>
      </trkpt>
      <trkpt lat="43.91956" lon="7.33966">
        <ele>918.59997558594</ele>
        <time>2013-12-21T14:06:54.000Z</time>
      </trkpt>
      <trkpt lat="43.9195" lon="7.3395">
        <ele>920</ele>
        <time>2013-12-21T14:06:59.000Z</time>
      </trkpt>
      <trkpt lat="43.91946" lon="7.33932">
        <ele>921.40002441406</ele>
        <time>2013-12-21T14:07:05.000Z</time>
      </trkpt>
      <trkpt lat="43.91942" lon="7.33918">
        <ele>922</ele>
        <time>2013-12-21T14:07:09.000Z</time>
      </trkpt>
      <trkpt lat="43.91929" lon="7.33905">
        <ele>922.40002441406</ele>
        <time>2013-12-21T14:07:14.000Z</time>
      </trkpt>
      <trkpt lat="43.9192" lon="7.33895">
        <ele>923</ele>
        <time>2013-12-21T14:07:19.000Z</time>
      </trkpt>
      <trkpt lat="43.91919" lon="7.33892">
        <ele>923</ele>
        <time>2013-12-21T14:07:21.000Z</time>
      </trkpt>
      <trkpt lat="43.91919" lon="7.33889">
        <ele>922.79998779297</ele>
        <time>2013-12-21T14:07:23.000Z</time>
      </trkpt>
      <trkpt lat="43.91917" lon="7.33882">
        <ele>922.79998779297</ele>
        <time>2013-12-21T14:07:27.000Z</time>
      </trkpt>
      <trkpt lat="43.91916" lon="7.33879">
        <ele>923</ele>
        <time>2013-12-21T14:07:29.000Z</time>
      </trkpt>
      <trkpt lat="43.91909" lon="7.33866">
        <ele>922.79998779297</ele>
        <time>2013-12-21T14:07:35.000Z</time>
      </trkpt>
      <trkpt lat="43.91903" lon="7.33847">
        <ele>922.59997558594</ele>
        <time>2013-12-21T14:07:40.000Z</time>
      </trkpt>
      <trkpt lat="43.91898" lon="7.33833">
        <ele>922.40002441406</ele>
        <time>2013-12-21T14:07:44.000Z</time>
      </trkpt>
      <trkpt lat="43.91888" lon="7.3382">
        <ele>922.40002441406</ele>
        <time>2013-12-21T14:07:49.000Z</time>
      </trkpt>
      <trkpt lat="43.91877" lon="7.3382">
        <ele>922.40002441406</ele>
        <time>2013-12-21T14:07:54.000Z</time>
      </trkpt>
      <trkpt lat="43.9186" lon="7.33824">
        <ele>922.40002441406</ele>
        <time>2013-12-21T14:08:01.000Z</time>
      </trkpt>
      <trkpt lat="43.91847" lon="7.33836">
        <ele>922.79998779297</ele>
        <time>2013-12-21T14:08:05.000Z</time>
      </trkpt>
      <trkpt lat="43.91831" lon="7.33833">
        <ele>923</ele>
        <time>2013-12-21T14:08:09.000Z</time>
      </trkpt>
      <trkpt lat="43.91814" lon="7.33833">
        <ele>923.20001220703</ele>
        <time>2013-12-21T14:08:14.000Z</time>
      </trkpt>
      <trkpt lat="43.91787" lon="7.33828">
        <ele>923.79998779297</ele>
        <time>2013-12-21T14:08:20.000Z</time>
      </trkpt>
      <trkpt lat="43.91773" lon="7.33825">
        <ele>924.20001220703</ele>
        <time>2013-12-21T14:08:24.000Z</time>
      </trkpt>
      <trkpt lat="43.91769" lon="7.33827">
        <ele>924.20001220703</ele>
        <time>2013-12-21T14:08:25.000Z</time>
      </trkpt>
      <trkpt lat="43.91757" lon="7.33838">
        <ele>924.40002441406</ele>
        <time>2013-12-21T14:08:29.000Z</time>
      </trkpt>
      <trkpt lat="43.91743" lon="7.33844">
        <ele>924.59997558594</ele>
        <time>2013-12-21T14:08:33.000Z</time>
      </trkpt>
      <trkpt lat="43.91723" lon="7.3385">
        <ele>924.59997558594</ele>
        <time>2013-12-21T14:08:38.000Z</time>
      </trkpt>
      <trkpt lat="43.91718" lon="7.33854">
        <ele>924.40002441406</ele>
        <time>2013-12-21T14:08:41.000Z</time>
      </trkpt>
      <trkpt lat="43.91717" lon="7.33856">
        <ele>924.40002441406</ele>
        <time>2013-12-21T14:08:42.000Z</time>
      </trkpt>
      <trkpt lat="43.91716" lon="7.33856">
        <ele>924.40002441406</ele>
        <time>2013-12-21T14:08:45.000Z</time>
      </trkpt>
      <trkpt lat="43.91718" lon="7.33852">
        <ele>924.40002441406</ele>
        <time>2013-12-21T14:08:49.000Z</time>
      </trkpt>
      <trkpt lat="43.91718" lon="7.33852">
        <ele>924.59997558594</ele>
        <time>2013-12-21T14:08:50.000Z</time>
      </trkpt>
      <trkpt lat="43.9172" lon="7.33852">
        <ele>924.59997558594</ele>
        <time>2013-12-21T14:08:51.000Z</time>
      </trkpt>
      <trkpt lat="43.91722" lon="7.3385">
        <ele>924.59997558594</ele>
        <time>2013-12-21T14:08:53.000Z</time>
      </trkpt>
      <trkpt lat="43.91721" lon="7.33848">
        <ele>924.79998779297</ele>
        <time>2013-12-21T14:08:54.000Z</time>
      </trkpt>
      <trkpt lat="43.9172" lon="7.3385">
        <ele>925.20001220703</ele>
        <time>2013-12-21T14:08:58.000Z</time>
      </trkpt>
      <trkpt lat="43.9172" lon="7.33853">
        <ele>925.40002441406</ele>
        <time>2013-12-21T14:09:10.000Z</time>
      </trkpt>
      <trkpt lat="43.91722" lon="7.33851">
        <ele>920.79998779297</ele>
        <time>2013-12-21T14:13:54.000Z</time>
      </trkpt>
      <trkpt lat="43.91721" lon="7.33853">
        <ele>923.40002441406</ele>
        <time>2013-12-21T14:15:24.000Z</time>
      </trkpt>
      <trkpt lat="43.91719" lon="7.33859">
        <ele>923</ele>
        <time>2013-12-21T14:15:42.000Z</time>
      </trkpt>
      <trkpt lat="43.91717" lon="7.33863">
        <ele>923</ele>
        <time>2013-12-21T14:15:44.000Z</time>
      </trkpt>
      <trkpt lat="43.91706" lon="7.33872">
        <ele>923.20001220703</ele>
        <time>2013-12-21T14:15:50.000Z</time>
      </trkpt>
      <trkpt lat="43.91694" lon="7.3389">
        <ele>924</ele>
        <time>2013-12-21T14:15:57.000Z</time>
      </trkpt>
      <trkpt lat="43.91677" lon="7.33913">
        <ele>925.20001220703</ele>
        <time>2013-12-21T14:16:07.000Z</time>
      </trkpt>
      <trkpt lat="43.91664" lon="7.33925">
        <ele>926.20001220703</ele>
        <time>2013-12-21T14:16:14.000Z</time>
      </trkpt>
      <trkpt lat="43.91647" lon="7.33936">
        <ele>927.20001220703</ele>
        <time>2013-12-21T14:16:22.000Z</time>
      </trkpt>
      <trkpt lat="43.91633" lon="7.33942">
        <ele>928</ele>
        <time>2013-12-21T14:16:29.000Z</time>
      </trkpt>
      <trkpt lat="43.91622" lon="7.33938">
        <ele>929</ele>
        <time>2013-12-21T14:16:35.000Z</time>
      </trkpt>
      <trkpt lat="43.91609" lon="7.33936">
        <ele>930.79998779297</ele>
        <time>2013-12-21T14:16:42.000Z</time>
      </trkpt>
      <trkpt lat="43.916" lon="7.33944">
        <ele>932.20001220703</ele>
        <time>2013-12-21T14:16:48.000Z</time>
      </trkpt>
      <trkpt lat="43.91588" lon="7.33957">
        <ele>933.40002441406</ele>
        <time>2013-12-21T14:16:54.000Z</time>
      </trkpt>
      <trkpt lat="43.91576" lon="7.33972">
        <ele>934</ele>
        <time>2013-12-21T14:17:01.000Z</time>
      </trkpt>
      <trkpt lat="43.91569" lon="7.33981">
        <ele>934</ele>
        <time>2013-12-21T14:17:06.000Z</time>
      </trkpt>
      <trkpt lat="43.9156" lon="7.33982">
        <ele>935.40002441406</ele>
        <time>2013-12-21T14:17:13.000Z</time>
      </trkpt>
      <trkpt lat="43.91549" lon="7.33978">
        <ele>936.20001220703</ele>
        <time>2013-12-21T14:17:19.000Z</time>
      </trkpt>
      <trkpt lat="43.9154" lon="7.33963">
        <ele>937.59997558594</ele>
        <time>2013-12-21T14:17:25.000Z</time>
      </trkpt>
      <trkpt lat="43.91539" lon="7.33961">
        <ele>938</ele>
        <time>2013-12-21T14:17:26.000Z</time>
      </trkpt>
      <trkpt lat="43.91537" lon="7.33953">
        <ele>939</ele>
        <time>2013-12-21T14:17:29.000Z</time>
      </trkpt>
      <trkpt lat="43.91539" lon="7.33935">
        <ele>940.59997558594</ele>
        <time>2013-12-21T14:17:35.000Z</time>
      </trkpt>
      <trkpt lat="43.9154" lon="7.33911">
        <ele>942.79998779297</ele>
        <time>2013-12-21T14:17:42.000Z</time>
      </trkpt>
      <trkpt lat="43.91542" lon="7.3389">
        <ele>944.79998779297</ele>
        <time>2013-12-21T14:17:48.000Z</time>
      </trkpt>
      <trkpt lat="43.91544" lon="7.33867">
        <ele>947</ele>
        <time>2013-12-21T14:17:55.000Z</time>
      </trkpt>
      <trkpt lat="43.91549" lon="7.33843">
        <ele>949.40002441406</ele>
        <time>2013-12-21T14:18:03.000Z</time>
      </trkpt>
      <trkpt lat="43.91553" lon="7.33821">
        <ele>951.79998779297</ele>
        <time>2013-12-21T14:18:10.000Z</time>
      </trkpt>
      <trkpt lat="43.91554" lon="7.33797">
        <ele>954.59997558594</ele>
        <time>2013-12-21T14:18:18.000Z</time>
      </trkpt>
      <trkpt lat="43.91552" lon="7.33782">
        <ele>955</ele>
        <time>2013-12-21T14:18:24.000Z</time>
      </trkpt>
      <trkpt lat="43.91552" lon="7.33779">
        <ele>955.20001220703</ele>
        <time>2013-12-21T14:18:25.000Z</time>
      </trkpt>
      <trkpt lat="43.91543" lon="7.33766">
        <ele>956.20001220703</ele>
        <time>2013-12-21T14:18:31.000Z</time>
      </trkpt>
      <trkpt lat="43.91531" lon="7.33756">
        <ele>956.40002441406</ele>
        <time>2013-12-21T14:18:37.000Z</time>
      </trkpt>
      <trkpt lat="43.91525" lon="7.3374">
        <ele>956.59997558594</ele>
        <time>2013-12-21T14:18:43.000Z</time>
      </trkpt>
      <trkpt lat="43.91518" lon="7.33721">
        <ele>957.40002441406</ele>
        <time>2013-12-21T14:18:50.000Z</time>
      </trkpt>
      <trkpt lat="43.91506" lon="7.33708">
        <ele>958.20001220703</ele>
        <time>2013-12-21T14:18:57.000Z</time>
      </trkpt>
      <trkpt lat="43.91491" lon="7.33691">
        <ele>959.20001220703</ele>
        <time>2013-12-21T14:19:07.000Z</time>
      </trkpt>
      <trkpt lat="43.91486" lon="7.33686">
        <ele>959.40002441406</ele>
        <time>2013-12-21T14:19:10.000Z</time>
      </trkpt>
      <trkpt lat="43.91484" lon="7.3368">
        <ele>959.79998779297</ele>
        <time>2013-12-21T14:19:13.000Z</time>
      </trkpt>
      <trkpt lat="43.91481" lon="7.33676">
        <ele>960</ele>
        <time>2013-12-21T14:19:15.000Z</time>
      </trkpt>
      <trkpt lat="43.91471" lon="7.33666">
        <ele>961</ele>
        <time>2013-12-21T14:19:21.000Z</time>
      </trkpt>
      <trkpt lat="43.91461" lon="7.33652">
        <ele>962.40002441406</ele>
        <time>2013-12-21T14:19:28.000Z</time>
      </trkpt>
      <trkpt lat="43.91453" lon="7.33635">
        <ele>963.40002441406</ele>
        <time>2013-12-21T14:19:35.000Z</time>
      </trkpt>
      <trkpt lat="43.91446" lon="7.33615">
        <ele>965</ele>
        <time>2013-12-21T14:19:43.000Z</time>
      </trkpt>
      <trkpt lat="43.91438" lon="7.33601">
        <ele>966.40002441406</ele>
        <time>2013-12-21T14:19:49.000Z</time>
      </trkpt>
      <trkpt lat="43.91434" lon="7.33587">
        <ele>967.79998779297</ele>
        <time>2013-12-21T14:19:54.000Z</time>
      </trkpt>
      <trkpt lat="43.91434" lon="7.33584">
        <ele>968.20001220703</ele>
        <time>2013-12-21T14:19:55.000Z</time>
      </trkpt>
      <trkpt lat="43.91431" lon="7.33573">
        <ele>969.20001220703</ele>
        <time>2013-12-21T14:19:59.000Z</time>
      </trkpt>
      <trkpt lat="43.91419" lon="7.33547">
        <ele>971</ele>
        <time>2013-12-21T14:20:09.000Z</time>
      </trkpt>
      <trkpt lat="43.91405" lon="7.33528">
        <ele>971.79998779297</ele>
        <time>2013-12-21T14:20:18.000Z</time>
      </trkpt>
      <trkpt lat="43.91394" lon="7.33513">
        <ele>971.79998779297</ele>
        <time>2013-12-21T14:20:26.000Z</time>
      </trkpt>
      <trkpt lat="43.91384" lon="7.33493">
        <ele>972</ele>
        <time>2013-12-21T14:20:34.000Z</time>
      </trkpt>
      <trkpt lat="43.91372" lon="7.33483">
        <ele>972.20001220703</ele>
        <time>2013-12-21T14:20:41.000Z</time>
      </trkpt>
      <trkpt lat="43.91366" lon="7.33488">
        <ele>972.20001220703</ele>
        <time>2013-12-21T14:20:46.000Z</time>
      </trkpt>
      <trkpt lat="43.91362" lon="7.33499">
        <ele>972.20001220703</ele>
        <time>2013-12-21T14:20:51.000Z</time>
      </trkpt>
      <trkpt lat="43.91366" lon="7.33508">
        <ele>972.79998779297</ele>
        <time>2013-12-21T14:20:55.000Z</time>
      </trkpt>
      <trkpt lat="43.91379" lon="7.3352">
        <ele>973.59997558594</ele>
        <time>2013-12-21T14:21:02.000Z</time>
      </trkpt>
      <trkpt lat="43.91387" lon="7.33538">
        <ele>974.20001220703</ele>
        <time>2013-12-21T14:21:07.000Z</time>
      </trkpt>
      <trkpt lat="43.91398" lon="7.33563">
        <ele>975.79998779297</ele>
        <time>2013-12-21T14:21:15.000Z</time>
      </trkpt>
      <trkpt lat="43.91402" lon="7.33582">
        <ele>977</ele>
        <time>2013-12-21T14:21:20.000Z</time>
      </trkpt>
      <trkpt lat="43.914" lon="7.33584">
        <ele>977.59997558594</ele>
        <time>2013-12-21T14:21:22.000Z</time>
      </trkpt>
      <trkpt lat="43.91398" lon="7.33583">
        <ele>977.59997558594</ele>
        <time>2013-12-21T14:21:23.000Z</time>
      </trkpt>
      <trkpt lat="43.91389" lon="7.33572">
        <ele>978.40002441406</ele>
        <time>2013-12-21T14:21:27.000Z</time>
      </trkpt>
      <trkpt lat="43.91385" lon="7.33559">
        <ele>979.20001220703</ele>
        <time>2013-12-21T14:21:31.000Z</time>
      </trkpt>
      <trkpt lat="43.91375" lon="7.33539">
        <ele>980.20001220703</ele>
        <time>2013-12-21T14:21:38.000Z</time>
      </trkpt>
      <trkpt lat="43.91357" lon="7.33529">
        <ele>980.79998779297</ele>
        <time>2013-12-21T14:21:44.000Z</time>
      </trkpt>
      <trkpt lat="43.9134" lon="7.33518">
        <ele>980.59997558594</ele>
        <time>2013-12-21T14:21:50.000Z</time>
      </trkpt>
      <trkpt lat="43.9133" lon="7.33505">
        <ele>981</ele>
        <time>2013-12-21T14:21:55.000Z</time>
      </trkpt>
      <trkpt lat="43.91321" lon="7.33487">
        <ele>981.79998779297</ele>
        <time>2013-12-21T14:22:01.000Z</time>
      </trkpt>
      <trkpt lat="43.91307" lon="7.33484">
        <ele>983</ele>
        <time>2013-12-21T14:22:07.000Z</time>
      </trkpt>
      <trkpt lat="43.91287" lon="7.33488">
        <ele>984.40002441406</ele>
        <time>2013-12-21T14:22:15.000Z</time>
      </trkpt>
      <trkpt lat="43.91275" lon="7.33485">
        <ele>985.59997558594</ele>
        <time>2013-12-21T14:22:20.000Z</time>
      </trkpt>
      <trkpt lat="43.9127" lon="7.33472">
        <ele>987.40002441406</ele>
        <time>2013-12-21T14:22:25.000Z</time>
      </trkpt>
      <trkpt lat="43.91275" lon="7.33448">
        <ele>991.79998779297</ele>
        <time>2013-12-21T14:22:32.000Z</time>
      </trkpt>
      <trkpt lat="43.91277" lon="7.33422">
        <ele>996.20001220703</ele>
        <time>2013-12-21T14:22:39.000Z</time>
      </trkpt>
      <trkpt lat="43.91272" lon="7.33404">
        <ele>999</ele>
        <time>2013-12-21T14:22:45.000Z</time>
      </trkpt>
      <trkpt lat="43.91261" lon="7.33396">
        <ele>1000.5999755859</ele>
        <time>2013-12-21T14:22:50.000Z</time>
      </trkpt>
      <trkpt lat="43.91257" lon="7.33399">
        <ele>1001</ele>
        <time>2013-12-21T14:22:52.000Z</time>
      </trkpt>
      <trkpt lat="43.91254" lon="7.33402">
        <ele>1001.4000244141</ele>
        <time>2013-12-21T14:22:54.000Z</time>
      </trkpt>
      <trkpt lat="43.91248" lon="7.33406">
        <ele>1002</ele>
        <time>2013-12-21T14:22:58.000Z</time>
      </trkpt>
      <trkpt lat="43.91247" lon="7.33408">
        <ele>1002.4000244141</ele>
        <time>2013-12-21T14:23:00.000Z</time>
      </trkpt>
      <trkpt lat="43.91251" lon="7.33406">
        <ele>1002.799987793</ele>
        <time>2013-12-21T14:23:04.000Z</time>
      </trkpt>
      <trkpt lat="43.91254" lon="7.33403">
        <ele>1003</ele>
        <time>2013-12-21T14:23:06.000Z</time>
      </trkpt>
      <trkpt lat="43.91258" lon="7.33399">
        <ele>1003.4000244141</ele>
        <time>2013-12-21T14:23:12.000Z</time>
      </trkpt>
      <trkpt lat="43.91259" lon="7.33398">
        <ele>1003.5999755859</ele>
        <time>2013-12-21T14:23:14.000Z</time>
      </trkpt>
      <trkpt lat="43.91258" lon="7.33397">
        <ele>1003.799987793</ele>
        <time>2013-12-21T14:23:17.000Z</time>
      </trkpt>
      <trkpt lat="43.91253" lon="7.334">
        <ele>1004</ele>
        <time>2013-12-21T14:23:22.000Z</time>
      </trkpt>
      <trkpt lat="43.9125" lon="7.33404">
        <ele>1004.200012207</ele>
        <time>2013-12-21T14:23:29.000Z</time>
      </trkpt>
      <trkpt lat="43.91254" lon="7.33404">
        <ele>1004.200012207</ele>
        <time>2013-12-21T14:23:33.000Z</time>
      </trkpt>
      <trkpt lat="43.91255" lon="7.33402">
        <ele>1004.200012207</ele>
        <time>2013-12-21T14:23:34.000Z</time>
      </trkpt>
      <trkpt lat="43.91254" lon="7.33399">
        <ele>1004.4000244141</ele>
        <time>2013-12-21T14:23:37.000Z</time>
      </trkpt>
      <trkpt lat="43.91249" lon="7.33404">
        <ele>1004.5999755859</ele>
        <time>2013-12-21T14:23:42.000Z</time>
      </trkpt>
      <trkpt lat="43.91248" lon="7.334">
        <ele>1004.5999755859</ele>
        <time>2013-12-21T14:23:46.000Z</time>
      </trkpt>
      <trkpt lat="43.9125" lon="7.33403">
        <ele>1004.799987793</ele>
        <time>2013-12-21T14:23:50.000Z</time>
      </trkpt>
      <trkpt lat="43.91243" lon="7.33408">
        <ele>1005</ele>
        <time>2013-12-21T14:23:54.000Z</time>
      </trkpt>
      <trkpt lat="43.91239" lon="7.33413">
        <ele>1005.200012207</ele>
        <time>2013-12-21T14:23:57.000Z</time>
      </trkpt>
      <trkpt lat="43.91233" lon="7.3342">
        <ele>1005.4000244141</ele>
        <time>2013-12-21T14:24:01.000Z</time>
      </trkpt>
      <trkpt lat="43.9122" lon="7.33431">
        <ele>1006.200012207</ele>
        <time>2013-12-21T14:24:09.000Z</time>
      </trkpt>
      <trkpt lat="43.912" lon="7.33443">
        <ele>1006.5999755859</ele>
        <time>2013-12-21T14:24:17.000Z</time>
      </trkpt>
      <trkpt lat="43.91185" lon="7.3344">
        <ele>1007.200012207</ele>
        <time>2013-12-21T14:24:23.000Z</time>
      </trkpt>
      <trkpt lat="43.91166" lon="7.33439">
        <ele>1009</ele>
        <time>2013-12-21T14:24:32.000Z</time>
      </trkpt>
      <trkpt lat="43.91142" lon="7.3344">
        <ele>1010.5999755859</ele>
        <time>2013-12-21T14:24:42.000Z</time>
      </trkpt>
      <trkpt lat="43.91133" lon="7.33441">
        <ele>1012.200012207</ele>
        <time>2013-12-21T14:24:48.000Z</time>
      </trkpt>
      <trkpt lat="43.91122" lon="7.33441">
        <ele>1014.5999755859</ele>
        <time>2013-12-21T14:24:53.000Z</time>
      </trkpt>
      <trkpt lat="43.91113" lon="7.33434">
        <ele>1018.4000244141</ele>
        <time>2013-12-21T14:24:59.000Z</time>
      </trkpt>
      <trkpt lat="43.91113" lon="7.33424">
        <ele>1021.5999755859</ele>
        <time>2013-12-21T14:25:04.000Z</time>
      </trkpt>
      <trkpt lat="43.91113" lon="7.33422">
        <ele>1025.1999511719</ele>
        <time>2013-12-21T14:25:09.000Z</time>
      </trkpt>
      <trkpt lat="43.9111" lon="7.33425">
        <ele>1029</ele>
        <time>2013-12-21T14:25:15.000Z</time>
      </trkpt>
      <trkpt lat="43.91109" lon="7.33424">
        <ele>1029.5999755859</ele>
        <time>2013-12-21T14:25:16.000Z</time>
      </trkpt>
      <trkpt lat="43.91108" lon="7.33422">
        <ele>1030</ele>
        <time>2013-12-21T14:25:17.000Z</time>
      </trkpt>
      <trkpt lat="43.91107" lon="7.33418">
        <ele>1031.1999511719</ele>
        <time>2013-12-21T14:25:20.000Z</time>
      </trkpt>
      <trkpt lat="43.91108" lon="7.33414">
        <ele>1032.5999755859</ele>
        <time>2013-12-21T14:25:25.000Z</time>
      </trkpt>
      <trkpt lat="43.91107" lon="7.33411">
        <ele>1032.8000488281</ele>
        <time>2013-12-21T14:25:27.000Z</time>
      </trkpt>
      <trkpt lat="43.91106" lon="7.33408">
        <ele>1033.1999511719</ele>
        <time>2013-12-21T14:25:29.000Z</time>
      </trkpt>
      <trkpt lat="43.91107" lon="7.33404">
        <ele>1033.5999755859</ele>
        <time>2013-12-21T14:25:33.000Z</time>
      </trkpt>
      <trkpt lat="43.91106" lon="7.33404">
        <ele>1033.5999755859</ele>
        <time>2013-12-21T14:25:34.000Z</time>
      </trkpt>
      <trkpt lat="43.91105" lon="7.33403">
        <ele>1033.4000244141</ele>
        <time>2013-12-21T14:25:35.000Z</time>
      </trkpt>
      <trkpt lat="43.91106" lon="7.33401">
        <ele>1033.4000244141</ele>
        <time>2013-12-21T14:25:38.000Z</time>
      </trkpt>
      <trkpt lat="43.91103" lon="7.33405">
        <ele>1033.4000244141</ele>
        <time>2013-12-21T14:25:57.000Z</time>
      </trkpt>
      <trkpt lat="43.91102" lon="7.33405">
        <ele>1033.1999511719</ele>
        <time>2013-12-21T14:25:59.000Z</time>
      </trkpt>
      <trkpt lat="43.91103" lon="7.3341">
        <ele>1033</ele>
        <time>2013-12-21T14:26:03.000Z</time>
      </trkpt>
      <trkpt lat="43.91103" lon="7.33412">
        <ele>1033</ele>
        <time>2013-12-21T14:26:04.000Z</time>
      </trkpt>
      <trkpt lat="43.91103" lon="7.33426">
        <ele>1032.8000488281</ele>
        <time>2013-12-21T14:26:10.000Z</time>
      </trkpt>
      <trkpt lat="43.91107" lon="7.33433">
        <ele>1032.8000488281</ele>
        <time>2013-12-21T14:26:13.000Z</time>
      </trkpt>
      <trkpt lat="43.91112" lon="7.33438">
        <ele>1032.5999755859</ele>
        <time>2013-12-21T14:26:15.000Z</time>
      </trkpt>
      <trkpt lat="43.91118" lon="7.33442">
        <ele>1032.5999755859</ele>
        <time>2013-12-21T14:26:20.000Z</time>
      </trkpt>
      <trkpt lat="43.9112" lon="7.33441">
        <ele>1032.8000488281</ele>
        <time>2013-12-21T14:26:25.000Z</time>
      </trkpt>
      <trkpt lat="43.91119" lon="7.33442">
        <ele>1032.8000488281</ele>
        <time>2013-12-21T14:26:26.000Z</time>
      </trkpt>
      <trkpt lat="43.91116" lon="7.33439">
        <ele>1033.1999511719</ele>
        <time>2013-12-21T14:26:30.000Z</time>
      </trkpt>
      <trkpt lat="43.91116" lon="7.33435">
        <ele>1033.4000244141</ele>
        <time>2013-12-21T14:26:33.000Z</time>
      </trkpt>
      <trkpt lat="43.91116" lon="7.3343">
        <ele>1033.8000488281</ele>
        <time>2013-12-21T14:26:36.000Z</time>
      </trkpt>
      <trkpt lat="43.91116" lon="7.33426">
        <ele>1034.4000244141</ele>
        <time>2013-12-21T14:26:39.000Z</time>
      </trkpt>
      <trkpt lat="43.91116" lon="7.33421">
        <ele>1035.1999511719</ele>
        <time>2013-12-21T14:26:42.000Z</time>
      </trkpt>
      <trkpt lat="43.91117" lon="7.33416">
        <ele>1035.1999511719</ele>
        <time>2013-12-21T14:26:44.000Z</time>
      </trkpt>
      <trkpt lat="43.91116" lon="7.33414">
        <ele>1035.5999755859</ele>
        <time>2013-12-21T14:26:45.000Z</time>
      </trkpt>
      <trkpt lat="43.91114" lon="7.3341">
        <ele>1036</ele>
        <time>2013-12-21T14:26:47.000Z</time>
      </trkpt>
      <trkpt lat="43.91114" lon="7.33408">
        <ele>1036.1999511719</ele>
        <time>2013-12-21T14:26:48.000Z</time>
      </trkpt>
      <trkpt lat="43.9111" lon="7.33399">
        <ele>1036.1999511719</ele>
        <time>2013-12-21T14:26:54.000Z</time>
      </trkpt>
      <trkpt lat="43.9111" lon="7.33398">
        <ele>1036.4000244141</ele>
        <time>2013-12-21T14:26:55.000Z</time>
      </trkpt>
      <trkpt lat="43.91109" lon="7.33393">
        <ele>1036.4000244141</ele>
        <time>2013-12-21T14:26:59.000Z</time>
      </trkpt>
      <trkpt lat="43.91108" lon="7.33391">
        <ele>1036.1999511719</ele>
        <time>2013-12-21T14:27:00.000Z</time>
      </trkpt>
      <trkpt lat="43.91107" lon="7.33382">
        <ele>1035.5999755859</ele>
        <time>2013-12-21T14:27:05.000Z</time>
      </trkpt>
      <trkpt lat="43.91109" lon="7.33371">
        <ele>1034.4000244141</ele>
        <time>2013-12-21T14:27:12.000Z</time>
      </trkpt>
      <trkpt lat="43.91109" lon="7.33368">
        <ele>1034</ele>
        <time>2013-12-21T14:27:14.000Z</time>
      </trkpt>
      <trkpt lat="43.91113" lon="7.33358">
        <ele>1033.4000244141</ele>
        <time>2013-12-21T14:27:19.000Z</time>
      </trkpt>
      <trkpt lat="43.91111" lon="7.33345">
        <ele>1032.8000488281</ele>
        <time>2013-12-21T14:27:24.000Z</time>
      </trkpt>
      <trkpt lat="43.9111" lon="7.3334">
        <ele>1032.4000244141</ele>
        <time>2013-12-21T14:27:26.000Z</time>
      </trkpt>
      <trkpt lat="43.91114" lon="7.33325">
        <ele>1031.8000488281</ele>
        <time>2013-12-21T14:27:32.000Z</time>
      </trkpt>
      <trkpt lat="43.91115" lon="7.33311">
        <ele>1031.4000244141</ele>
        <time>2013-12-21T14:27:37.000Z</time>
      </trkpt>
      <trkpt lat="43.91112" lon="7.33295">
        <ele>1031</ele>
        <time>2013-12-21T14:27:43.000Z</time>
      </trkpt>
      <trkpt lat="43.91105" lon="7.33286">
        <ele>1031.5999755859</ele>
        <time>2013-12-21T14:27:49.000Z</time>
      </trkpt>
      <trkpt lat="43.91095" lon="7.33282">
        <ele>1032.4000244141</ele>
        <time>2013-12-21T14:27:55.000Z</time>
      </trkpt>
      <trkpt lat="43.91085" lon="7.3328">
        <ele>1033.8000488281</ele>
        <time>2013-12-21T14:28:01.000Z</time>
      </trkpt>
      <trkpt lat="43.91084" lon="7.33279">
        <ele>1034</ele>
        <time>2013-12-21T14:28:02.000Z</time>
      </trkpt>
      <trkpt lat="43.9108" lon="7.33278">
        <ele>1034.5999755859</ele>
        <time>2013-12-21T14:28:04.000Z</time>
      </trkpt>
      <trkpt lat="43.9107" lon="7.33277">
        <ele>1035.1999511719</ele>
        <time>2013-12-21T14:28:08.000Z</time>
      </trkpt>
      <trkpt lat="43.91056" lon="7.33282">
        <ele>1036</ele>
        <time>2013-12-21T14:28:14.000Z</time>
      </trkpt>
      <trkpt lat="43.91038" lon="7.33296">
        <ele>1037</ele>
        <time>2013-12-21T14:28:23.000Z</time>
      </trkpt>
      <trkpt lat="43.91026" lon="7.33309">
        <ele>1038</ele>
        <time>2013-12-21T14:28:30.000Z</time>
      </trkpt>
      <trkpt lat="43.91021" lon="7.33323">
        <ele>1039</ele>
        <time>2013-12-21T14:28:36.000Z</time>
      </trkpt>
      <trkpt lat="43.91021" lon="7.3334">
        <ele>1039.5999755859</ele>
        <time>2013-12-21T14:28:42.000Z</time>
      </trkpt>
      <trkpt lat="43.91017" lon="7.3336">
        <ele>1040.4000244141</ele>
        <time>2013-12-21T14:28:49.000Z</time>
      </trkpt>
      <trkpt lat="43.91009" lon="7.33369">
        <ele>1040.4000244141</ele>
        <time>2013-12-21T14:28:54.000Z</time>
      </trkpt>
      <trkpt lat="43.90994" lon="7.33375">
        <ele>1040.5999755859</ele>
        <time>2013-12-21T14:29:02.000Z</time>
      </trkpt>
      <trkpt lat="43.90974" lon="7.33376">
        <ele>1041</ele>
        <time>2013-12-21T14:29:11.000Z</time>
      </trkpt>
      <trkpt lat="43.90954" lon="7.33379">
        <ele>1041.4000244141</ele>
        <time>2013-12-21T14:29:20.000Z</time>
      </trkpt>
      <trkpt lat="43.90938" lon="7.3338">
        <ele>1041.8000488281</ele>
        <time>2013-12-21T14:29:27.000Z</time>
      </trkpt>
      <trkpt lat="43.90919" lon="7.33379">
        <ele>1043.1999511719</ele>
        <time>2013-12-21T14:29:35.000Z</time>
      </trkpt>
      <trkpt lat="43.90907" lon="7.33389">
        <ele>1044.5999755859</ele>
        <time>2013-12-21T14:29:42.000Z</time>
      </trkpt>
      <trkpt lat="43.90892" lon="7.33399">
        <ele>1045.5999755859</ele>
        <time>2013-12-21T14:29:49.000Z</time>
      </trkpt>
      <trkpt lat="43.90877" lon="7.33399">
        <ele>1046.4000244141</ele>
        <time>2013-12-21T14:29:55.000Z</time>
      </trkpt>
      <trkpt lat="43.90863" lon="7.33393">
        <ele>1047.5999755859</ele>
        <time>2013-12-21T14:30:01.000Z</time>
      </trkpt>
      <trkpt lat="43.90849" lon="7.33397">
        <ele>1048.4000244141</ele>
        <time>2013-12-21T14:30:07.000Z</time>
      </trkpt>
      <trkpt lat="43.90834" lon="7.33398">
        <ele>1049</ele>
        <time>2013-12-21T14:30:13.000Z</time>
      </trkpt>
      <trkpt lat="43.90827" lon="7.33386">
        <ele>1049.8000488281</ele>
        <time>2013-12-21T14:30:17.000Z</time>
      </trkpt>
      <trkpt lat="43.90819" lon="7.33366">
        <ele>1050</ele>
        <time>2013-12-21T14:30:24.000Z</time>
      </trkpt>
      <trkpt lat="43.90808" lon="7.33357">
        <ele>1050.8000488281</ele>
        <time>2013-12-21T14:30:30.000Z</time>
      </trkpt>
      <trkpt lat="43.90795" lon="7.33345">
        <ele>1052.4000244141</ele>
        <time>2013-12-21T14:30:38.000Z</time>
      </trkpt>
      <trkpt lat="43.90786" lon="7.3334">
        <ele>1053.8000488281</ele>
        <time>2013-12-21T14:30:45.000Z</time>
      </trkpt>
      <trkpt lat="43.90778" lon="7.33336">
        <ele>1054.8000488281</ele>
        <time>2013-12-21T14:30:50.000Z</time>
      </trkpt>
      <trkpt lat="43.90776" lon="7.33334">
        <ele>1055.4000244141</ele>
        <time>2013-12-21T14:30:52.000Z</time>
      </trkpt>
      <trkpt lat="43.90773" lon="7.33338">
        <ele>1056.4000244141</ele>
        <time>2013-12-21T14:30:57.000Z</time>
      </trkpt>
      <trkpt lat="43.90771" lon="7.3334">
        <ele>1057</ele>
        <time>2013-12-21T14:31:03.000Z</time>
      </trkpt>
      <trkpt lat="43.90779" lon="7.33346">
        <ele>1055.4000244141</ele>
        <time>2013-12-21T14:33:09.000Z</time>
      </trkpt>
      <trkpt lat="43.90776" lon="7.33346">
        <ele>1055.4000244141</ele>
        <time>2013-12-21T14:33:11.000Z</time>
      </trkpt>
      <trkpt lat="43.90774" lon="7.33347">
        <ele>1055.4000244141</ele>
        <time>2013-12-21T14:33:13.000Z</time>
      </trkpt>
      <trkpt lat="43.90771" lon="7.33346">
        <ele>1055.1999511719</ele>
        <time>2013-12-21T14:33:19.000Z</time>
      </trkpt>
      <trkpt lat="43.90769" lon="7.33348">
        <ele>1057.1999511719</ele>
        <time>2013-12-21T14:33:42.000Z</time>
      </trkpt>
      <trkpt lat="43.90768" lon="7.33349">
        <ele>1057.4000244141</ele>
        <time>2013-12-21T14:33:45.000Z</time>
      </trkpt>
      <trkpt lat="43.90767" lon="7.33349">
        <ele>1057.1999511719</ele>
        <time>2013-12-21T14:33:46.000Z</time>
      </trkpt>
      <trkpt lat="43.90761" lon="7.33348">
        <ele>1057.4000244141</ele>
        <time>2013-12-21T14:33:50.000Z</time>
      </trkpt>
      <trkpt lat="43.90753" lon="7.3334">
        <ele>1057.8000488281</ele>
        <time>2013-12-21T14:33:57.000Z</time>
      </trkpt>
      <trkpt lat="43.90752" lon="7.33327">
        <ele>1058.8000488281</ele>
        <time>2013-12-21T14:34:04.000Z</time>
      </trkpt>
      <trkpt lat="43.90752" lon="7.33325">
        <ele>1059</ele>
        <time>2013-12-21T14:34:05.000Z</time>
      </trkpt>
      <trkpt lat="43.90752" lon="7.33321">
        <ele>1059.1999511719</ele>
        <time>2013-12-21T14:34:07.000Z</time>
      </trkpt>
      <trkpt lat="43.90752" lon="7.33312">
        <ele>1059.8000488281</ele>
        <time>2013-12-21T14:34:11.000Z</time>
      </trkpt>
      <trkpt lat="43.90753" lon="7.333">
        <ele>1061</ele>
        <time>2013-12-21T14:34:17.000Z</time>
      </trkpt>
      <trkpt lat="43.90757" lon="7.33289">
        <ele>1062.5999755859</ele>
        <time>2013-12-21T14:34:23.000Z</time>
      </trkpt>
      <trkpt lat="43.90761" lon="7.33277">
        <ele>1063.8000488281</ele>
        <time>2013-12-21T14:34:30.000Z</time>
      </trkpt>
      <trkpt lat="43.90763" lon="7.33277">
        <ele>1063.8000488281</ele>
        <time>2013-12-21T14:34:31.000Z</time>
      </trkpt>
      <trkpt lat="43.90771" lon="7.33278">
        <ele>1064.4000244141</ele>
        <time>2013-12-21T14:34:35.000Z</time>
      </trkpt>
      <trkpt lat="43.90778" lon="7.33276">
        <ele>1065.1999511719</ele>
        <time>2013-12-21T14:34:40.000Z</time>
      </trkpt>
      <trkpt lat="43.90784" lon="7.33271">
        <ele>1066</ele>
        <time>2013-12-21T14:34:45.000Z</time>
      </trkpt>
      <trkpt lat="43.90799" lon="7.3326">
        <ele>1066.5999755859</ele>
        <time>2013-12-21T14:34:52.000Z</time>
      </trkpt>
      <trkpt lat="43.90811" lon="7.33248">
        <ele>1067</ele>
        <time>2013-12-21T14:34:58.000Z</time>
      </trkpt>
      <trkpt lat="43.90825" lon="7.33237">
        <ele>1067.8000488281</ele>
        <time>2013-12-21T14:35:06.000Z</time>
      </trkpt>
      <trkpt lat="43.90837" lon="7.33232">
        <ele>1068</ele>
        <time>2013-12-21T14:35:11.000Z</time>
      </trkpt>
      <trkpt lat="43.90847" lon="7.33225">
        <ele>1069</ele>
        <time>2013-12-21T14:35:17.000Z</time>
      </trkpt>
      <trkpt lat="43.90859" lon="7.33215">
        <ele>1071</ele>
        <time>2013-12-21T14:35:25.000Z</time>
      </trkpt>
      <trkpt lat="43.90872" lon="7.33205">
        <ele>1072.5999755859</ele>
        <time>2013-12-21T14:35:33.000Z</time>
      </trkpt>
      <trkpt lat="43.90881" lon="7.33194">
        <ele>1072.8000488281</ele>
        <time>2013-12-21T14:35:38.000Z</time>
      </trkpt>
      <trkpt lat="43.90888" lon="7.33177">
        <ele>1074</ele>
        <time>2013-12-21T14:35:45.000Z</time>
      </trkpt>
      <trkpt lat="43.90891" lon="7.33161">
        <ele>1075.8000488281</ele>
        <time>2013-12-21T14:35:50.000Z</time>
      </trkpt>
      <trkpt lat="43.90899" lon="7.33153">
        <ele>1077.4000244141</ele>
        <time>2013-12-21T14:35:56.000Z</time>
      </trkpt>
      <trkpt lat="43.90907" lon="7.33147">
        <ele>1080.4000244141</ele>
        <time>2013-12-21T14:36:02.000Z</time>
      </trkpt>
      <trkpt lat="43.90919" lon="7.33127">
        <ele>1082.5999755859</ele>
        <time>2013-12-21T14:36:09.000Z</time>
      </trkpt>
      <trkpt lat="43.90924" lon="7.33116">
        <ele>1084.4000244141</ele>
        <time>2013-12-21T14:36:15.000Z</time>
      </trkpt>
      <trkpt lat="43.90928" lon="7.33106">
        <ele>1084.8000488281</ele>
        <time>2013-12-21T14:36:19.000Z</time>
      </trkpt>
      <trkpt lat="43.90931" lon="7.331">
        <ele>1085.1999511719</ele>
        <time>2013-12-21T14:36:21.000Z</time>
      </trkpt>
      <trkpt lat="43.90937" lon="7.33086">
        <ele>1085.5999755859</ele>
        <time>2013-12-21T14:36:27.000Z</time>
      </trkpt>
      <trkpt lat="43.90939" lon="7.33075">
        <ele>1086.8000488281</ele>
        <time>2013-12-21T14:36:32.000Z</time>
      </trkpt>
      <trkpt lat="43.90941" lon="7.33074">
        <ele>1087.1999511719</ele>
        <time>2013-12-21T14:36:33.000Z</time>
      </trkpt>
      <trkpt lat="43.90949" lon="7.33072">
        <ele>1088.4000244141</ele>
        <time>2013-12-21T14:36:37.000Z</time>
      </trkpt>
      <trkpt lat="43.90953" lon="7.33071">
        <ele>1089</ele>
        <time>2013-12-21T14:36:39.000Z</time>
      </trkpt>
      <trkpt lat="43.90969" lon="7.33073">
        <ele>1090.8000488281</ele>
        <time>2013-12-21T14:36:46.000Z</time>
      </trkpt>
      <trkpt lat="43.90987" lon="7.33072">
        <ele>1090.8000488281</ele>
        <time>2013-12-21T14:36:54.000Z</time>
      </trkpt>
      <trkpt lat="43.90988" lon="7.33071">
        <ele>1090.8000488281</ele>
        <time>2013-12-21T14:36:55.000Z</time>
      </trkpt>
      <trkpt lat="43.90995" lon="7.33065">
        <ele>1090.8000488281</ele>
        <time>2013-12-21T14:36:59.000Z</time>
      </trkpt>
      <trkpt lat="43.91008" lon="7.33056">
        <ele>1091</ele>
        <time>2013-12-21T14:37:07.000Z</time>
      </trkpt>
      <trkpt lat="43.91017" lon="7.33049">
        <ele>1091.1999511719</ele>
        <time>2013-12-21T14:37:13.000Z</time>
      </trkpt>
      <trkpt lat="43.91027" lon="7.33044">
        <ele>1091.8000488281</ele>
        <time>2013-12-21T14:37:19.000Z</time>
      </trkpt>
      <trkpt lat="43.91038" lon="7.33037">
        <ele>1093.4000244141</ele>
        <time>2013-12-21T14:37:28.000Z</time>
      </trkpt>
      <trkpt lat="43.91055" lon="7.33031">
        <ele>1095.4000244141</ele>
        <time>2013-12-21T14:37:38.000Z</time>
      </trkpt>
      <trkpt lat="43.91065" lon="7.33028">
        <ele>1097.1999511719</ele>
        <time>2013-12-21T14:37:45.000Z</time>
      </trkpt>
      <trkpt lat="43.91082" lon="7.33022">
        <ele>1098.8000488281</ele>
        <time>2013-12-21T14:37:54.000Z</time>
      </trkpt>
      <trkpt lat="43.91091" lon="7.33017">
        <ele>1100.5999755859</ele>
        <time>2013-12-21T14:38:02.000Z</time>
      </trkpt>
      <trkpt lat="43.91103" lon="7.3301">
        <ele>1102</ele>
        <time>2013-12-21T14:38:09.000Z</time>
      </trkpt>
      <trkpt lat="43.9111" lon="7.33002">
        <ele>1103</ele>
        <time>2013-12-21T14:38:16.000Z</time>
      </trkpt>
      <trkpt lat="43.91118" lon="7.32987">
        <ele>1103.8000488281</ele>
        <time>2013-12-21T14:38:24.000Z</time>
      </trkpt>
      <trkpt lat="43.9112" lon="7.32985">
        <ele>1104</ele>
        <time>2013-12-21T14:38:26.000Z</time>
      </trkpt>
      <trkpt lat="43.91122" lon="7.32976">
        <ele>1104.1999511719</ele>
        <time>2013-12-21T14:38:30.000Z</time>
      </trkpt>
      <trkpt lat="43.91125" lon="7.32965">
        <ele>1104.4000244141</ele>
        <time>2013-12-21T14:38:35.000Z</time>
      </trkpt>
      <trkpt lat="43.91126" lon="7.32962">
        <ele>1104.4000244141</ele>
        <time>2013-12-21T14:38:37.000Z</time>
      </trkpt>
      <trkpt lat="43.91132" lon="7.3295">
        <ele>1104.1999511719</ele>
        <time>2013-12-21T14:38:45.000Z</time>
      </trkpt>
      <trkpt lat="43.91134" lon="7.32948">
        <ele>1104.4000244141</ele>
        <time>2013-12-21T14:38:47.000Z</time>
      </trkpt>
      <trkpt lat="43.91137" lon="7.32945">
        <ele>1104.5999755859</ele>
        <time>2013-12-21T14:38:50.000Z</time>
      </trkpt>
      <trkpt lat="43.9114" lon="7.32939">
        <ele>1104.4000244141</ele>
        <time>2013-12-21T14:38:54.000Z</time>
      </trkpt>
      <trkpt lat="43.91142" lon="7.32935">
        <ele>1104.4000244141</ele>
        <time>2013-12-21T14:38:56.000Z</time>
      </trkpt>
      <trkpt lat="43.91145" lon="7.32924">
        <ele>1104.4000244141</ele>
        <time>2013-12-21T14:39:02.000Z</time>
      </trkpt>
      <trkpt lat="43.91147" lon="7.32918">
        <ele>1104.4000244141</ele>
        <time>2013-12-21T14:39:05.000Z</time>
      </trkpt>
      <trkpt lat="43.91148" lon="7.32917">
        <ele>1104.5999755859</ele>
        <time>2013-12-21T14:39:06.000Z</time>
      </trkpt>
      <trkpt lat="43.91154" lon="7.32911">
        <ele>1104.5999755859</ele>
        <time>2013-12-21T14:39:10.000Z</time>
      </trkpt>
      <trkpt lat="43.91161" lon="7.32902">
        <ele>1104.8000488281</ele>
        <time>2013-12-21T14:39:16.000Z</time>
      </trkpt>
      <trkpt lat="43.91174" lon="7.32891">
        <ele>1104.8000488281</ele>
        <time>2013-12-21T14:39:23.000Z</time>
      </trkpt>
      <trkpt lat="43.91185" lon="7.32887">
        <ele>1105</ele>
        <time>2013-12-21T14:39:29.000Z</time>
      </trkpt>
      <trkpt lat="43.912" lon="7.32878">
        <ele>1105.4000244141</ele>
        <time>2013-12-21T14:39:36.000Z</time>
      </trkpt>
      <trkpt lat="43.91213" lon="7.32876">
        <ele>1105.5999755859</ele>
        <time>2013-12-21T14:39:42.000Z</time>
      </trkpt>
      <trkpt lat="43.91224" lon="7.32876">
        <ele>1106.1999511719</ele>
        <time>2013-12-21T14:39:48.000Z</time>
      </trkpt>
      <trkpt lat="43.91227" lon="7.32873">
        <ele>1106.5999755859</ele>
        <time>2013-12-21T14:39:55.000Z</time>
      </trkpt>
      <trkpt lat="43.91233" lon="7.32879">
        <ele>1107.8000488281</ele>
        <time>2013-12-21T14:40:20.000Z</time>
      </trkpt>
      <trkpt lat="43.91234" lon="7.32879">
        <ele>1107.5999755859</ele>
        <time>2013-12-21T14:40:24.000Z</time>
      </trkpt>
      <trkpt lat="43.91239" lon="7.32876">
        <ele>1107.5999755859</ele>
        <time>2013-12-21T14:40:37.000Z</time>
      </trkpt>
      <trkpt lat="43.9124" lon="7.32877">
        <ele>1107.5999755859</ele>
        <time>2013-12-21T14:40:39.000Z</time>
      </trkpt>
      <trkpt lat="43.91239" lon="7.32882">
        <ele>1107.1999511719</ele>
        <time>2013-12-21T14:41:04.000Z</time>
      </trkpt>
      <trkpt lat="43.91242" lon="7.32872">
        <ele>1103</ele>
        <time>2013-12-21T14:42:46.000Z</time>
      </trkpt>
      <trkpt lat="43.91248" lon="7.32856">
        <ele>1102.5999755859</ele>
        <time>2013-12-21T14:42:51.000Z</time>
      </trkpt>
      <trkpt lat="43.91256" lon="7.32834">
        <ele>1102.4000244141</ele>
        <time>2013-12-21T14:42:56.000Z</time>
      </trkpt>
      <trkpt lat="43.91258" lon="7.32826">
        <ele>1102.5999755859</ele>
        <time>2013-12-21T14:43:00.000Z</time>
      </trkpt>
      <trkpt lat="43.91268" lon="7.32815">
        <ele>1103.1999511719</ele>
        <time>2013-12-21T14:43:05.000Z</time>
      </trkpt>
      <trkpt lat="43.91272" lon="7.32814">
        <ele>1103.4000244141</ele>
        <time>2013-12-21T14:43:06.000Z</time>
      </trkpt>
      <trkpt lat="43.91283" lon="7.32805">
        <ele>1103.4000244141</ele>
        <time>2013-12-21T14:43:09.000Z</time>
      </trkpt>
      <trkpt lat="43.91289" lon="7.32803">
        <ele>1103.4000244141</ele>
        <time>2013-12-21T14:43:10.000Z</time>
      </trkpt>
      <trkpt lat="43.91298" lon="7.32797">
        <ele>1103.4000244141</ele>
        <time>2013-12-21T14:43:13.000Z</time>
      </trkpt>
      <trkpt lat="43.91303" lon="7.32791">
        <ele>1103.4000244141</ele>
        <time>2013-12-21T14:43:15.000Z</time>
      </trkpt>
      <trkpt lat="43.91315" lon="7.32781">
        <ele>1103.1999511719</ele>
        <time>2013-12-21T14:43:20.000Z</time>
      </trkpt>
      <trkpt lat="43.91329" lon="7.32774">
        <ele>1103.1999511719</ele>
        <time>2013-12-21T14:43:25.000Z</time>
      </trkpt>
      <trkpt lat="43.91344" lon="7.32763">
        <ele>1103.5999755859</ele>
        <time>2013-12-21T14:43:32.000Z</time>
      </trkpt>
      <trkpt lat="43.91357" lon="7.32756">
        <ele>1104.4000244141</ele>
        <time>2013-12-21T14:43:38.000Z</time>
      </trkpt>
      <trkpt lat="43.91369" lon="7.32751">
        <ele>1105.1999511719</ele>
        <time>2013-12-21T14:43:44.000Z</time>
      </trkpt>
      <trkpt lat="43.91378" lon="7.32743">
        <ele>1106.4000244141</ele>
        <time>2013-12-21T14:43:50.000Z</time>
      </trkpt>
      <trkpt lat="43.9139" lon="7.32736">
        <ele>1108.1999511719</ele>
        <time>2013-12-21T14:43:57.000Z</time>
      </trkpt>
      <trkpt lat="43.91403" lon="7.3273">
        <ele>1110.1999511719</ele>
        <time>2013-12-21T14:44:04.000Z</time>
      </trkpt>
      <trkpt lat="43.91415" lon="7.32723">
        <ele>1112</ele>
        <time>2013-12-21T14:44:10.000Z</time>
      </trkpt>
      <trkpt lat="43.9143" lon="7.32715">
        <ele>1113.8000488281</ele>
        <time>2013-12-21T14:44:17.000Z</time>
      </trkpt>
      <trkpt lat="43.91446" lon="7.32705">
        <ele>1115.1999511719</ele>
        <time>2013-12-21T14:44:25.000Z</time>
      </trkpt>
      <trkpt lat="43.9146" lon="7.32692">
        <ele>1115.4000244141</ele>
        <time>2013-12-21T14:44:32.000Z</time>
      </trkpt>
      <trkpt lat="43.91461" lon="7.32675">
        <ele>1115.4000244141</ele>
        <time>2013-12-21T14:44:38.000Z</time>
      </trkpt>
      <trkpt lat="43.9146" lon="7.32651">
        <ele>1115.4000244141</ele>
        <time>2013-12-21T14:44:46.000Z</time>
      </trkpt>
      <trkpt lat="43.91461" lon="7.32629">
        <ele>1115.4000244141</ele>
        <time>2013-12-21T14:44:53.000Z</time>
      </trkpt>
      <trkpt lat="43.91459" lon="7.3261">
        <ele>1115.5999755859</ele>
        <time>2013-12-21T14:44:59.000Z</time>
      </trkpt>
      <trkpt lat="43.91458" lon="7.32586">
        <ele>1115.4000244141</ele>
        <time>2013-12-21T14:45:06.000Z</time>
      </trkpt>
      <trkpt lat="43.91455" lon="7.3256">
        <ele>1115.1999511719</ele>
        <time>2013-12-21T14:45:14.000Z</time>
      </trkpt>
      <trkpt lat="43.91451" lon="7.32536">
        <ele>1114.8000488281</ele>
        <time>2013-12-21T14:45:22.000Z</time>
      </trkpt>
      <trkpt lat="43.9144" lon="7.32522">
        <ele>1114.1999511719</ele>
        <time>2013-12-21T14:45:29.000Z</time>
      </trkpt>
      <trkpt lat="43.91438" lon="7.32518">
        <ele>1114</ele>
        <time>2013-12-21T14:45:30.000Z</time>
      </trkpt>
      <trkpt lat="43.91439" lon="7.32509">
        <ele>1113.8000488281</ele>
        <time>2013-12-21T14:45:32.000Z</time>
      </trkpt>
      <trkpt lat="43.91445" lon="7.32486">
        <ele>1113.5999755859</ele>
        <time>2013-12-21T14:45:36.000Z</time>
      </trkpt>
      <trkpt lat="43.91442" lon="7.32469">
        <ele>1113.1999511719</ele>
        <time>2013-12-21T14:45:40.000Z</time>
      </trkpt>
      <trkpt lat="43.91436" lon="7.32449">
        <ele>1113</ele>
        <time>2013-12-21T14:45:45.000Z</time>
      </trkpt>
      <trkpt lat="43.91442" lon="7.3243">
        <ele>1112.5999755859</ele>
        <time>2013-12-21T14:45:49.000Z</time>
      </trkpt>
      <trkpt lat="43.9144" lon="7.32403">
        <ele>1112.1999511719</ele>
        <time>2013-12-21T14:45:53.000Z</time>
      </trkpt>
      <trkpt lat="43.91441" lon="7.32392">
        <ele>1112</ele>
        <time>2013-12-21T14:45:55.000Z</time>
      </trkpt>
      <trkpt lat="43.9144" lon="7.32378">
        <ele>1111.8000488281</ele>
        <time>2013-12-21T14:45:58.000Z</time>
      </trkpt>
      <trkpt lat="43.91439" lon="7.32357">
        <ele>1111.1999511719</ele>
        <time>2013-12-21T14:46:03.000Z</time>
      </trkpt>
      <trkpt lat="43.91437" lon="7.32337">
        <ele>1110.8000488281</ele>
        <time>2013-12-21T14:46:09.000Z</time>
      </trkpt>
      <trkpt lat="43.91435" lon="7.32324">
        <ele>1110.5999755859</ele>
        <time>2013-12-21T14:46:17.000Z</time>
      </trkpt>
      <trkpt lat="43.91434" lon="7.32321">
        <ele>1110.4000244141</ele>
        <time>2013-12-21T14:46:21.000Z</time>
      </trkpt>
      <trkpt lat="43.91433" lon="7.3232">
        <ele>1110.1999511719</ele>
        <time>2013-12-21T14:46:24.000Z</time>
      </trkpt>
      <trkpt lat="43.9144" lon="7.32325">
        <ele>1106</ele>
        <time>2013-12-21T14:49:19.000Z</time>
      </trkpt>
      <trkpt lat="43.91443" lon="7.32322">
        <ele>1106.5999755859</ele>
        <time>2013-12-21T14:49:30.000Z</time>
      </trkpt>
      <trkpt lat="43.91444" lon="7.32321">
        <ele>1106.5999755859</ele>
        <time>2013-12-21T14:49:31.000Z</time>
      </trkpt>
      <trkpt lat="43.91455" lon="7.32309">
        <ele>1106.8000488281</ele>
        <time>2013-12-21T14:49:37.000Z</time>
      </trkpt>
      <trkpt lat="43.91466" lon="7.32293">
        <ele>1106.8000488281</ele>
        <time>2013-12-21T14:49:43.000Z</time>
      </trkpt>
      <trkpt lat="43.91477" lon="7.32284">
        <ele>1106.5999755859</ele>
        <time>2013-12-21T14:49:47.000Z</time>
      </trkpt>
      <trkpt lat="43.91494" lon="7.32268">
        <ele>1106.4000244141</ele>
        <time>2013-12-21T14:49:52.000Z</time>
      </trkpt>
      <trkpt lat="43.91494" lon="7.32267">
        <ele>1106.1999511719</ele>
        <time>2013-12-21T14:49:54.000Z</time>
      </trkpt>
      <trkpt lat="43.91496" lon="7.32266">
        <ele>1106.1999511719</ele>
        <time>2013-12-21T14:49:55.000Z</time>
      </trkpt>
      <trkpt lat="43.91505" lon="7.32255">
        <ele>1105.8000488281</ele>
        <time>2013-12-21T14:50:00.000Z</time>
      </trkpt>
      <trkpt lat="43.91511" lon="7.32249">
        <ele>1105.5999755859</ele>
        <time>2013-12-21T14:50:04.000Z</time>
      </trkpt>
      <trkpt lat="43.91511" lon="7.32248">
        <ele>1105.5999755859</ele>
        <time>2013-12-21T14:50:05.000Z</time>
      </trkpt>
      <trkpt lat="43.91518" lon="7.32237">
        <ele>1105.1999511719</ele>
        <time>2013-12-21T14:50:10.000Z</time>
      </trkpt>
      <trkpt lat="43.91524" lon="7.32227">
        <ele>1105</ele>
        <time>2013-12-21T14:50:12.000Z</time>
      </trkpt>
      <trkpt lat="43.9153" lon="7.32217">
        <ele>1104.8000488281</ele>
        <time>2013-12-21T14:50:14.000Z</time>
      </trkpt>
      <trkpt lat="43.91544" lon="7.32188">
        <ele>1104.1999511719</ele>
        <time>2013-12-21T14:50:19.000Z</time>
      </trkpt>
      <trkpt lat="43.9155" lon="7.32173">
        <ele>1103.5999755859</ele>
        <time>2013-12-21T14:50:23.000Z</time>
      </trkpt>
      <trkpt lat="43.91551" lon="7.32171">
        <ele>1103.5999755859</ele>
        <time>2013-12-21T14:50:24.000Z</time>
      </trkpt>
      <trkpt lat="43.91557" lon="7.32166">
        <ele>1103.1999511719</ele>
        <time>2013-12-21T14:50:28.000Z</time>
      </trkpt>
      <trkpt lat="43.91557" lon="7.32164">
        <ele>1102.8000488281</ele>
        <time>2013-12-21T14:50:32.000Z</time>
      </trkpt>
      <trkpt lat="43.9156" lon="7.32163">
        <ele>1102.1999511719</ele>
        <time>2013-12-21T14:50:38.000Z</time>
      </trkpt>
      <trkpt lat="43.9156" lon="7.3216">
        <ele>1102</ele>
        <time>2013-12-21T14:50:42.000Z</time>
      </trkpt>
      <trkpt lat="43.91564" lon="7.32157">
        <ele>1101.5999755859</ele>
        <time>2013-12-21T14:50:48.000Z</time>
      </trkpt>
      <trkpt lat="43.91569" lon="7.32155">
        <ele>1101.4000244141</ele>
        <time>2013-12-21T14:50:53.000Z</time>
      </trkpt>
      <trkpt lat="43.91579" lon="7.3215">
        <ele>1101.1999511719</ele>
        <time>2013-12-21T14:50:56.000Z</time>
      </trkpt>
      <trkpt lat="43.91596" lon="7.32131">
        <ele>1100.8000488281</ele>
        <time>2013-12-21T14:51:01.000Z</time>
      </trkpt>
      <trkpt lat="43.91612" lon="7.32118">
        <ele>1100.5999755859</ele>
        <time>2013-12-21T14:51:04.000Z</time>
      </trkpt>
      <trkpt lat="43.91623" lon="7.32107">
        <ele>1100.1999511719</ele>
        <time>2013-12-21T14:51:06.000Z</time>
      </trkpt>
      <trkpt lat="43.9163" lon="7.32101">
        <ele>1100</ele>
        <time>2013-12-21T14:51:08.000Z</time>
      </trkpt>
      <trkpt lat="43.91635" lon="7.32098">
        <ele>1099.8000488281</ele>
        <time>2013-12-21T14:51:09.000Z</time>
      </trkpt>
      <trkpt lat="43.9164" lon="7.32095">
        <ele>1099.5999755859</ele>
        <time>2013-12-21T14:51:10.000Z</time>
      </trkpt>
      <trkpt lat="43.91647" lon="7.32089">
        <ele>1099.1999511719</ele>
        <time>2013-12-21T14:51:12.000Z</time>
      </trkpt>
      <trkpt lat="43.9165" lon="7.32085">
        <ele>1099.1999511719</ele>
        <time>2013-12-21T14:51:13.000Z</time>
      </trkpt>
      <trkpt lat="43.91659" lon="7.32077">
        <ele>1098.8000488281</ele>
        <time>2013-12-21T14:51:15.000Z</time>
      </trkpt>
      <trkpt lat="43.91666" lon="7.32072">
        <ele>1098.4000244141</ele>
        <time>2013-12-21T14:51:17.000Z</time>
      </trkpt>
      <trkpt lat="43.91671" lon="7.32065">
        <ele>1098</ele>
        <time>2013-12-21T14:51:19.000Z</time>
      </trkpt>
      <trkpt lat="43.91673" lon="7.3206">
        <ele>1097.8000488281</ele>
        <time>2013-12-21T14:51:20.000Z</time>
      </trkpt>
      <trkpt lat="43.91675" lon="7.32056">
        <ele>1097.5999755859</ele>
        <time>2013-12-21T14:51:21.000Z</time>
      </trkpt>
      <trkpt lat="43.91687" lon="7.32052">
        <ele>1097</ele>
        <time>2013-12-21T14:51:24.000Z</time>
      </trkpt>
      <trkpt lat="43.91691" lon="7.32049">
        <ele>1096.8000488281</ele>
        <time>2013-12-21T14:51:25.000Z</time>
      </trkpt>
      <trkpt lat="43.91695" lon="7.32048">
        <ele>1096.5999755859</ele>
        <time>2013-12-21T14:51:26.000Z</time>
      </trkpt>
      <trkpt lat="43.917" lon="7.32042">
        <ele>1096.1999511719</ele>
        <time>2013-12-21T14:51:28.000Z</time>
      </trkpt>
      <trkpt lat="43.91707" lon="7.32042">
        <ele>1095.5999755859</ele>
        <time>2013-12-21T14:51:30.000Z</time>
      </trkpt>
      <trkpt lat="43.91713" lon="7.32039">
        <ele>1095.1999511719</ele>
        <time>2013-12-21T14:51:32.000Z</time>
      </trkpt>
      <trkpt lat="43.9172" lon="7.32034">
        <ele>1094.5999755859</ele>
        <time>2013-12-21T14:51:35.000Z</time>
      </trkpt>
      <trkpt lat="43.91726" lon="7.32041">
        <ele>1094</ele>
        <time>2013-12-21T14:51:38.000Z</time>
      </trkpt>
      <trkpt lat="43.91737" lon="7.32042">
        <ele>1093.4000244141</ele>
        <time>2013-12-21T14:51:41.000Z</time>
      </trkpt>
      <trkpt lat="43.91754" lon="7.3204">
        <ele>1092.5999755859</ele>
        <time>2013-12-21T14:51:44.000Z</time>
      </trkpt>
      <trkpt lat="43.91781" lon="7.3203">
        <ele>1091</ele>
        <time>2013-12-21T14:51:49.000Z</time>
      </trkpt>
      <trkpt lat="43.91803" lon="7.3202">
        <ele>1089.5999755859</ele>
        <time>2013-12-21T14:51:53.000Z</time>
      </trkpt>
      <trkpt lat="43.91812" lon="7.32018">
        <ele>1088.8000488281</ele>
        <time>2013-12-21T14:51:55.000Z</time>
      </trkpt>
      <trkpt lat="43.91816" lon="7.32016">
        <ele>1088.5999755859</ele>
        <time>2013-12-21T14:51:56.000Z</time>
      </trkpt>
      <trkpt lat="43.91817" lon="7.32012">
        <ele>1088.1999511719</ele>
        <time>2013-12-21T14:51:57.000Z</time>
      </trkpt>
      <trkpt lat="43.91824" lon="7.32001">
        <ele>1087</ele>
        <time>2013-12-21T14:52:00.000Z</time>
      </trkpt>
      <trkpt lat="43.91829" lon="7.31993">
        <ele>1086.4000244141</ele>
        <time>2013-12-21T14:52:02.000Z</time>
      </trkpt>
      <trkpt lat="43.9183" lon="7.3199">
        <ele>1086</ele>
        <time>2013-12-21T14:52:03.000Z</time>
      </trkpt>
      <trkpt lat="43.91832" lon="7.31983">
        <ele>1085</ele>
        <time>2013-12-21T14:52:06.000Z</time>
      </trkpt>
      <trkpt lat="43.91834" lon="7.31975">
        <ele>1083.4000244141</ele>
        <time>2013-12-21T14:52:11.000Z</time>
      </trkpt>
      <trkpt lat="43.91835" lon="7.31976">
        <ele>1083</ele>
        <time>2013-12-21T14:52:12.000Z</time>
      </trkpt>
      <trkpt lat="43.91836" lon="7.31971">
        <ele>1081.5999755859</ele>
        <time>2013-12-21T14:52:17.000Z</time>
      </trkpt>
      <trkpt lat="43.91843" lon="7.31962">
        <ele>1079.5999755859</ele>
        <time>2013-12-21T14:52:25.000Z</time>
      </trkpt>
      <trkpt lat="43.9185" lon="7.31955">
        <ele>1077.8000488281</ele>
        <time>2013-12-21T14:52:32.000Z</time>
      </trkpt>
      <trkpt lat="43.91852" lon="7.31951">
        <ele>1076</ele>
        <time>2013-12-21T14:52:40.000Z</time>
      </trkpt>
      <trkpt lat="43.91858" lon="7.31946">
        <ele>1074.5999755859</ele>
        <time>2013-12-21T14:52:46.000Z</time>
      </trkpt>
      <trkpt lat="43.91862" lon="7.3194">
        <ele>1073.4000244141</ele>
        <time>2013-12-21T14:52:53.000Z</time>
      </trkpt>
      <trkpt lat="43.91867" lon="7.31932">
        <ele>1071.8000488281</ele>
        <time>2013-12-21T14:53:02.000Z</time>
      </trkpt>
      <trkpt lat="43.91873" lon="7.31923">
        <ele>1070.4000244141</ele>
        <time>2013-12-21T14:53:10.000Z</time>
      </trkpt>
      <trkpt lat="43.91874" lon="7.31915">
        <ele>1069.5999755859</ele>
        <time>2013-12-21T14:53:17.000Z</time>
      </trkpt>
      <trkpt lat="43.91876" lon="7.31914">
        <ele>1068.1999511719</ele>
        <time>2013-12-21T14:53:28.000Z</time>
      </trkpt>
      <trkpt lat="43.91876" lon="7.31904">
        <ele>1062.8000488281</ele>
        <time>2013-12-21T14:54:27.000Z</time>
      </trkpt>
      <trkpt lat="43.91879" lon="7.31898">
        <ele>1062.1999511719</ele>
        <time>2013-12-21T14:54:35.000Z</time>
      </trkpt>
      <trkpt lat="43.9188" lon="7.31896">
        <ele>1060.8000488281</ele>
        <time>2013-12-21T14:54:46.000Z</time>
      </trkpt>
      <trkpt lat="43.91881" lon="7.31891">
        <ele>1060.1999511719</ele>
        <time>2013-12-21T14:54:52.000Z</time>
      </trkpt>
      <trkpt lat="43.9188" lon="7.31894">
        <ele>1059.4000244141</ele>
        <time>2013-12-21T14:55:03.000Z</time>
      </trkpt>
      <trkpt lat="43.91881" lon="7.31892">
        <ele>1059.1999511719</ele>
        <time>2013-12-21T14:55:10.000Z</time>
      </trkpt>
      <trkpt lat="43.91883" lon="7.31886">
        <ele>1059</ele>
        <time>2013-12-21T14:55:20.000Z</time>
      </trkpt>
      <trkpt lat="43.91887" lon="7.31876">
        <ele>1059</ele>
        <time>2013-12-21T14:55:28.000Z</time>
      </trkpt>
      <trkpt lat="43.91892" lon="7.31866">
        <ele>1059.1999511719</ele>
        <time>2013-12-21T14:55:37.000Z</time>
      </trkpt>
      <trkpt lat="43.91893" lon="7.31864">
        <ele>1059.4000244141</ele>
        <time>2013-12-21T14:55:40.000Z</time>
      </trkpt>
      <trkpt lat="43.91896" lon="7.31859">
        <ele>1059.5999755859</ele>
        <time>2013-12-21T14:55:44.000Z</time>
      </trkpt>
      <trkpt lat="43.91899" lon="7.31855">
        <ele>1059.8000488281</ele>
        <time>2013-12-21T14:55:48.000Z</time>
      </trkpt>
      <trkpt lat="43.91901" lon="7.31852">
        <ele>1059.8000488281</ele>
        <time>2013-12-21T14:55:51.000Z</time>
      </trkpt>
      <trkpt lat="43.91902" lon="7.3185">
        <ele>1060</ele>
        <time>2013-12-21T14:55:53.000Z</time>
      </trkpt>
      <trkpt lat="43.91905" lon="7.31845">
        <ele>1060.1999511719</ele>
        <time>2013-12-21T14:55:59.000Z</time>
      </trkpt>
      <trkpt lat="43.91907" lon="7.31841">
        <ele>1060.4000244141</ele>
        <time>2013-12-21T14:56:03.000Z</time>
      </trkpt>
      <trkpt lat="43.91908" lon="7.3184">
        <ele>1060.5999755859</ele>
        <time>2013-12-21T14:56:06.000Z</time>
      </trkpt>
      <trkpt lat="43.91907" lon="7.31838">
        <ele>1060.8000488281</ele>
        <time>2013-12-21T14:56:18.000Z</time>
      </trkpt>
      <trkpt lat="43.9191" lon="7.31834">
        <ele>1062</ele>
        <time>2013-12-21T14:56:41.000Z</time>
      </trkpt>
      <trkpt lat="43.91907" lon="7.31836">
        <ele>1062.1999511719</ele>
        <time>2013-12-21T14:56:50.000Z</time>
      </trkpt>
      <trkpt lat="43.91909" lon="7.31826">
        <ele>1062</ele>
        <time>2013-12-21T14:57:04.000Z</time>
      </trkpt>
      <trkpt lat="43.91911" lon="7.31815">
        <ele>1062.4000244141</ele>
        <time>2013-12-21T14:57:13.000Z</time>
      </trkpt>
      <trkpt lat="43.91912" lon="7.3181">
        <ele>1063</ele>
        <time>2013-12-21T14:57:18.000Z</time>
      </trkpt>
      <trkpt lat="43.91912" lon="7.31808">
        <ele>1063.1999511719</ele>
        <time>2013-12-21T14:57:20.000Z</time>
      </trkpt>
      <trkpt lat="43.91912" lon="7.31801">
        <ele>1064</ele>
        <time>2013-12-21T14:57:28.000Z</time>
      </trkpt>
      <trkpt lat="43.91912" lon="7.31805">
        <ele>1065</ele>
        <time>2013-12-21T14:57:40.000Z</time>
      </trkpt>
      <trkpt lat="43.91913" lon="7.31812">
        <ele>1065</ele>
        <time>2013-12-21T14:57:47.000Z</time>
      </trkpt>
      <trkpt lat="43.91913" lon="7.3182">
        <ele>1064.8000488281</ele>
        <time>2013-12-21T14:57:52.000Z</time>
      </trkpt>
      <trkpt lat="43.91909" lon="7.31837">
        <ele>1064.5999755859</ele>
        <time>2013-12-21T14:57:56.000Z</time>
      </trkpt>
      <trkpt lat="43.91898" lon="7.31862">
        <ele>1064.1999511719</ele>
        <time>2013-12-21T14:58:01.000Z</time>
      </trkpt>
      <trkpt lat="43.91885" lon="7.31887">
        <ele>1063.8000488281</ele>
        <time>2013-12-21T14:58:06.000Z</time>
      </trkpt>
      <trkpt lat="43.91878" lon="7.31906">
        <ele>1063.5999755859</ele>
        <time>2013-12-21T14:58:09.000Z</time>
      </trkpt>
      <trkpt lat="43.91875" lon="7.31915">
        <ele>1063.1999511719</ele>
        <time>2013-12-21T14:58:11.000Z</time>
      </trkpt>
      <trkpt lat="43.91867" lon="7.31934">
        <ele>1062.8000488281</ele>
        <time>2013-12-21T14:58:15.000Z</time>
      </trkpt>
      <trkpt lat="43.9186" lon="7.31944">
        <ele>1062.4000244141</ele>
        <time>2013-12-21T14:58:17.000Z</time>
      </trkpt>
      <trkpt lat="43.91852" lon="7.31954">
        <ele>1062.1999511719</ele>
        <time>2013-12-21T14:58:19.000Z</time>
      </trkpt>
      <trkpt lat="43.9184" lon="7.31976">
        <ele>1061.4000244141</ele>
        <time>2013-12-21T14:58:24.000Z</time>
      </trkpt>
      <trkpt lat="43.91838" lon="7.31987">
        <ele>1060.8000488281</ele>
        <time>2013-12-21T14:58:28.000Z</time>
      </trkpt>
      <trkpt lat="43.91836" lon="7.31992">
        <ele>1060</ele>
        <time>2013-12-21T14:58:33.000Z</time>
      </trkpt>
      <trkpt lat="43.91835" lon="7.31994">
        <ele>1059.8000488281</ele>
        <time>2013-12-21T14:58:34.000Z</time>
      </trkpt>
      <trkpt lat="43.9183" lon="7.32001">
        <ele>1059.1999511719</ele>
        <time>2013-12-21T14:58:38.000Z</time>
      </trkpt>
      <trkpt lat="43.9183" lon="7.32003">
        <ele>1059</ele>
        <time>2013-12-21T14:58:39.000Z</time>
      </trkpt>
      <trkpt lat="43.9183" lon="7.32004">
        <ele>1058.5999755859</ele>
        <time>2013-12-21T14:58:42.000Z</time>
      </trkpt>
      <trkpt lat="43.91834" lon="7.32005">
        <ele>1058</ele>
        <time>2013-12-21T14:58:46.000Z</time>
      </trkpt>
      <trkpt lat="43.91835" lon="7.32005">
        <ele>1058</ele>
        <time>2013-12-21T14:58:47.000Z</time>
      </trkpt>
      <trkpt lat="43.91836" lon="7.32005">
        <ele>1057.4000244141</ele>
        <time>2013-12-21T14:58:51.000Z</time>
      </trkpt>
      <trkpt lat="43.91838" lon="7.32005">
        <ele>1057.1999511719</ele>
        <time>2013-12-21T14:58:52.000Z</time>
      </trkpt>
      <trkpt lat="43.91845" lon="7.32002">
        <ele>1056.8000488281</ele>
        <time>2013-12-21T14:58:56.000Z</time>
      </trkpt>
      <trkpt lat="43.9185" lon="7.31993">
        <ele>1056.4000244141</ele>
        <time>2013-12-21T14:58:59.000Z</time>
      </trkpt>
      <trkpt lat="43.91852" lon="7.3199">
        <ele>1056.1999511719</ele>
        <time>2013-12-21T14:59:00.000Z</time>
      </trkpt>
      <trkpt lat="43.9186" lon="7.3198">
        <ele>1055.5999755859</ele>
        <time>2013-12-21T14:59:05.000Z</time>
      </trkpt>
      <trkpt lat="43.91865" lon="7.31975">
        <ele>1055</ele>
        <time>2013-12-21T14:59:10.000Z</time>
      </trkpt>
      <trkpt lat="43.91864" lon="7.31975">
        <ele>1054.4000244141</ele>
        <time>2013-12-21T14:59:15.000Z</time>
      </trkpt>
      <trkpt lat="43.9187" lon="7.31973">
        <ele>1053.1999511719</ele>
        <time>2013-12-21T14:59:28.000Z</time>
      </trkpt>
      <trkpt lat="43.91884" lon="7.31969">
        <ele>1052.5999755859</ele>
        <time>2013-12-21T14:59:32.000Z</time>
      </trkpt>
      <trkpt lat="43.91896" lon="7.31964">
        <ele>1051.8000488281</ele>
        <time>2013-12-21T14:59:37.000Z</time>
      </trkpt>
      <trkpt lat="43.91913" lon="7.31958">
        <ele>1051</ele>
        <time>2013-12-21T14:59:41.000Z</time>
      </trkpt>
      <trkpt lat="43.91924" lon="7.31945">
        <ele>1050.4000244141</ele>
        <time>2013-12-21T14:59:45.000Z</time>
      </trkpt>
      <trkpt lat="43.91926" lon="7.3194">
        <ele>1050.1999511719</ele>
        <time>2013-12-21T14:59:46.000Z</time>
      </trkpt>
      <trkpt lat="43.9193" lon="7.31927">
        <ele>1049.4000244141</ele>
        <time>2013-12-21T14:59:50.000Z</time>
      </trkpt>
      <trkpt lat="43.91932" lon="7.31922">
        <ele>1049</ele>
        <time>2013-12-21T14:59:52.000Z</time>
      </trkpt>
      <trkpt lat="43.91938" lon="7.31912">
        <ele>1048.4000244141</ele>
        <time>2013-12-21T14:59:56.000Z</time>
      </trkpt>
      <trkpt lat="43.91939" lon="7.31912">
        <ele>1048.1999511719</ele>
        <time>2013-12-21T14:59:57.000Z</time>
      </trkpt>
      <trkpt lat="43.91941" lon="7.31908">
        <ele>1047.8000488281</ele>
        <time>2013-12-21T15:00:00.000Z</time>
      </trkpt>
      <trkpt lat="43.9195" lon="7.31896">
        <ele>1047.5999755859</ele>
        <time>2013-12-21T15:00:04.000Z</time>
      </trkpt>
      <trkpt lat="43.91952" lon="7.31895">
        <ele>1047.4000244141</ele>
        <time>2013-12-21T15:00:07.000Z</time>
      </trkpt>
      <trkpt lat="43.91953" lon="7.31895">
        <ele>1047</ele>
        <time>2013-12-21T15:00:13.000Z</time>
      </trkpt>
      <trkpt lat="43.91956" lon="7.31894">
        <ele>1047</ele>
        <time>2013-12-21T15:00:17.000Z</time>
      </trkpt>
      <trkpt lat="43.91959" lon="7.31892">
        <ele>1046.8000488281</ele>
        <time>2013-12-21T15:00:20.000Z</time>
      </trkpt>
      <trkpt lat="43.91962" lon="7.31886">
        <ele>1046.4000244141</ele>
        <time>2013-12-21T15:00:30.000Z</time>
      </trkpt>
      <trkpt lat="43.91962" lon="7.31883">
        <ele>1046.4000244141</ele>
        <time>2013-12-21T15:00:33.000Z</time>
      </trkpt>
      <trkpt lat="43.91964" lon="7.31882">
        <ele>1046.4000244141</ele>
        <time>2013-12-21T15:00:35.000Z</time>
      </trkpt>
      <trkpt lat="43.91967" lon="7.31881">
        <ele>1046.1999511719</ele>
        <time>2013-12-21T15:00:38.000Z</time>
      </trkpt>
      <trkpt lat="43.91969" lon="7.31882">
        <ele>1046.1999511719</ele>
        <time>2013-12-21T15:00:40.000Z</time>
      </trkpt>
      <trkpt lat="43.91973" lon="7.31884">
        <ele>1046</ele>
        <time>2013-12-21T15:00:42.000Z</time>
      </trkpt>
      <trkpt lat="43.91979" lon="7.31886">
        <ele>1045.8000488281</ele>
        <time>2013-12-21T15:00:46.000Z</time>
      </trkpt>
      <trkpt lat="43.91985" lon="7.31888">
        <ele>1045.1999511719</ele>
        <time>2013-12-21T15:00:52.000Z</time>
      </trkpt>
      <trkpt lat="43.91999" lon="7.31896">
        <ele>1041.4000244141</ele>
        <time>2013-12-21T15:01:15.000Z</time>
      </trkpt>
      <trkpt lat="43.92001" lon="7.31897">
        <ele>1032.1999511719</ele>
        <time>2013-12-21T15:01:57.000Z</time>
      </trkpt>
      <trkpt lat="43.91999" lon="7.31894">
        <ele>1030.1999511719</ele>
        <time>2013-12-21T15:02:10.000Z</time>
      </trkpt>
      <trkpt lat="43.91997" lon="7.31901">
        <ele>1029.1999511719</ele>
        <time>2013-12-21T15:02:19.000Z</time>
      </trkpt>
      <trkpt lat="43.91997" lon="7.31905">
        <ele>1028.8000488281</ele>
        <time>2013-12-21T15:02:22.000Z</time>
      </trkpt>
      <trkpt lat="43.91997" lon="7.31906">
        <ele>1028.5999755859</ele>
        <time>2013-12-21T15:02:23.000Z</time>
      </trkpt>
      <trkpt lat="43.91998" lon="7.31908">
        <ele>1028</ele>
        <time>2013-12-21T15:02:26.000Z</time>
      </trkpt>
      <trkpt lat="43.91997" lon="7.3191">
        <ele>1027.5999755859</ele>
        <time>2013-12-21T15:02:29.000Z</time>
      </trkpt>
      <trkpt lat="43.91992" lon="7.31917">
        <ele>1026.8000488281</ele>
        <time>2013-12-21T15:02:43.000Z</time>
      </trkpt>
      <trkpt lat="43.91992" lon="7.3192">
        <ele>1026.5999755859</ele>
        <time>2013-12-21T15:02:50.000Z</time>
      </trkpt>
      <trkpt lat="43.91992" lon="7.31926">
        <ele>1026.1999511719</ele>
        <time>2013-12-21T15:02:57.000Z</time>
      </trkpt>
      <trkpt lat="43.91994" lon="7.3193">
        <ele>1026</ele>
        <time>2013-12-21T15:03:05.000Z</time>
      </trkpt>
      <trkpt lat="43.92" lon="7.31939">
        <ele>1025.5999755859</ele>
        <time>2013-12-21T15:03:13.000Z</time>
      </trkpt>
      <trkpt lat="43.92002" lon="7.31943">
        <ele>1025</ele>
        <time>2013-12-21T15:03:20.000Z</time>
      </trkpt>
      <trkpt lat="43.92008" lon="7.31951">
        <ele>1024.5999755859</ele>
        <time>2013-12-21T15:03:25.000Z</time>
      </trkpt>
      <trkpt lat="43.92011" lon="7.31954">
        <ele>1024.1999511719</ele>
        <time>2013-12-21T15:03:28.000Z</time>
      </trkpt>
      <trkpt lat="43.92012" lon="7.31955">
        <ele>1023.5999755859</ele>
        <time>2013-12-21T15:03:31.000Z</time>
      </trkpt>
      <trkpt lat="43.92014" lon="7.31956">
        <ele>1023.4000244141</ele>
        <time>2013-12-21T15:03:33.000Z</time>
      </trkpt>
      <trkpt lat="43.9202" lon="7.31952">
        <ele>1022.5999755859</ele>
        <time>2013-12-21T15:03:37.000Z</time>
      </trkpt>
      <trkpt lat="43.92028" lon="7.31933">
        <ele>1021.5999755859</ele>
        <time>2013-12-21T15:03:42.000Z</time>
      </trkpt>
      <trkpt lat="43.92041" lon="7.3192">
        <ele>1020.5999755859</ele>
        <time>2013-12-21T15:03:47.000Z</time>
      </trkpt>
      <trkpt lat="43.92054" lon="7.31903">
        <ele>1019.4000244141</ele>
        <time>2013-12-21T15:03:52.000Z</time>
      </trkpt>
      <trkpt lat="43.92069" lon="7.31876">
        <ele>1018.4000244141</ele>
        <time>2013-12-21T15:03:57.000Z</time>
      </trkpt>
      <trkpt lat="43.92072" lon="7.31872">
        <ele>1018.4000244141</ele>
        <time>2013-12-21T15:03:58.000Z</time>
      </trkpt>
      <trkpt lat="43.92075" lon="7.31855">
        <ele>1017.799987793</ele>
        <time>2013-12-21T15:04:01.000Z</time>
      </trkpt>
      <trkpt lat="43.92073" lon="7.31844">
        <ele>1017.4000244141</ele>
        <time>2013-12-21T15:04:03.000Z</time>
      </trkpt>
      <trkpt lat="43.92076" lon="7.31835">
        <ele>1017</ele>
        <time>2013-12-21T15:04:05.000Z</time>
      </trkpt>
      <trkpt lat="43.92082" lon="7.31808">
        <ele>1016.5999755859</ele>
        <time>2013-12-21T15:04:09.000Z</time>
      </trkpt>
      <trkpt lat="43.92081" lon="7.31787">
        <ele>1016</ele>
        <time>2013-12-21T15:04:13.000Z</time>
      </trkpt>
      <trkpt lat="43.92077" lon="7.31782">
        <ele>1015.5999755859</ele>
        <time>2013-12-21T15:04:17.000Z</time>
      </trkpt>
      <trkpt lat="43.92078" lon="7.31778">
        <ele>1015.200012207</ele>
        <time>2013-12-21T15:04:20.000Z</time>
      </trkpt>
      <trkpt lat="43.92074" lon="7.31776">
        <ele>1014.5999755859</ele>
        <time>2013-12-21T15:04:24.000Z</time>
      </trkpt>
      <trkpt lat="43.92064" lon="7.31776">
        <ele>1012.799987793</ele>
        <time>2013-12-21T15:04:37.000Z</time>
      </trkpt>
      <trkpt lat="43.92061" lon="7.31773">
        <ele>1012.4000244141</ele>
        <time>2013-12-21T15:04:41.000Z</time>
      </trkpt>
      <trkpt lat="43.92055" lon="7.31771">
        <ele>1012</ele>
        <time>2013-12-21T15:04:48.000Z</time>
      </trkpt>
      <trkpt lat="43.92052" lon="7.31771">
        <ele>1012.200012207</ele>
        <time>2013-12-21T15:04:52.000Z</time>
      </trkpt>
      <trkpt lat="43.92058" lon="7.31768">
        <ele>1013.200012207</ele>
        <time>2013-12-21T15:04:58.000Z</time>
      </trkpt>
      <trkpt lat="43.92068" lon="7.3177">
        <ele>1015.4000244141</ele>
        <time>2013-12-21T15:05:05.000Z</time>
      </trkpt>
      <trkpt lat="43.92073" lon="7.31772">
        <ele>1017</ele>
        <time>2013-12-21T15:05:11.000Z</time>
      </trkpt>
      <trkpt lat="43.92076" lon="7.31772">
        <ele>1017.4000244141</ele>
        <time>2013-12-21T15:05:13.000Z</time>
      </trkpt>
      <trkpt lat="43.92079" lon="7.3177">
        <ele>1017.799987793</ele>
        <time>2013-12-21T15:05:16.000Z</time>
      </trkpt>
      <trkpt lat="43.9208" lon="7.31769">
        <ele>1018.4000244141</ele>
        <time>2013-12-21T15:05:18.000Z</time>
      </trkpt>
      <trkpt lat="43.92085" lon="7.31767">
        <ele>1018.200012207</ele>
        <time>2013-12-21T15:05:27.000Z</time>
      </trkpt>
      <trkpt lat="43.92086" lon="7.31764">
        <ele>1017.799987793</ele>
        <time>2013-12-21T15:05:30.000Z</time>
      </trkpt>
      <trkpt lat="43.92087" lon="7.31763">
        <ele>1017.5999755859</ele>
        <time>2013-12-21T15:05:32.000Z</time>
      </trkpt>
      <trkpt lat="43.92089" lon="7.3176">
        <ele>1017.4000244141</ele>
        <time>2013-12-21T15:05:34.000Z</time>
      </trkpt>
      <trkpt lat="43.92092" lon="7.31756">
        <ele>1017</ele>
        <time>2013-12-21T15:05:36.000Z</time>
      </trkpt>
      <trkpt lat="43.92095" lon="7.31753">
        <ele>1016.5999755859</ele>
        <time>2013-12-21T15:05:38.000Z</time>
      </trkpt>
      <trkpt lat="43.92098" lon="7.31752">
        <ele>1016.4000244141</ele>
        <time>2013-12-21T15:05:40.000Z</time>
      </trkpt>
      <trkpt lat="43.92098" lon="7.31752">
        <ele>1016.4000244141</ele>
        <time>2013-12-21T15:05:41.000Z</time>
      </trkpt>
      <trkpt lat="43.92101" lon="7.3175">
        <ele>1016</ele>
        <time>2013-12-21T15:05:43.000Z</time>
      </trkpt>
      <trkpt lat="43.92109" lon="7.31745">
        <ele>1015.5999755859</ele>
        <time>2013-12-21T15:05:46.000Z</time>
      </trkpt>
      <trkpt lat="43.92111" lon="7.31744">
        <ele>1015.4000244141</ele>
        <time>2013-12-21T15:05:47.000Z</time>
      </trkpt>
      <trkpt lat="43.92114" lon="7.31741">
        <ele>1015</ele>
        <time>2013-12-21T15:05:49.000Z</time>
      </trkpt>
      <trkpt lat="43.92121" lon="7.31737">
        <ele>1014.799987793</ele>
        <time>2013-12-21T15:05:52.000Z</time>
      </trkpt>
      <trkpt lat="43.92127" lon="7.31732">
        <ele>1014.5999755859</ele>
        <time>2013-12-21T15:05:55.000Z</time>
      </trkpt>
      <trkpt lat="43.92131" lon="7.31732">
        <ele>1014.4000244141</ele>
        <time>2013-12-21T15:05:56.000Z</time>
      </trkpt>
      <trkpt lat="43.92136" lon="7.31732">
        <ele>1014.4000244141</ele>
        <time>2013-12-21T15:05:57.000Z</time>
      </trkpt>
      <trkpt lat="43.92146" lon="7.31728">
        <ele>1014.200012207</ele>
        <time>2013-12-21T15:06:01.000Z</time>
      </trkpt>
      <trkpt lat="43.92155" lon="7.31724">
        <ele>1013.5999755859</ele>
        <time>2013-12-21T15:06:05.000Z</time>
      </trkpt>
      <trkpt lat="43.92155" lon="7.31723">
        <ele>1013.4000244141</ele>
        <time>2013-12-21T15:06:06.000Z</time>
      </trkpt>
      <trkpt lat="43.92155" lon="7.3172">
        <ele>1013</ele>
        <time>2013-12-21T15:06:08.000Z</time>
      </trkpt>
      <trkpt lat="43.92154" lon="7.31718">
        <ele>1012.4000244141</ele>
        <time>2013-12-21T15:06:11.000Z</time>
      </trkpt>
      <trkpt lat="43.92156" lon="7.31711">
        <ele>1011.799987793</ele>
        <time>2013-12-21T15:06:16.000Z</time>
      </trkpt>
      <trkpt lat="43.92162" lon="7.31712">
        <ele>1010.200012207</ele>
        <time>2013-12-21T15:06:23.000Z</time>
      </trkpt>
      <trkpt lat="43.92168" lon="7.31703">
        <ele>1008.799987793</ele>
        <time>2013-12-21T15:06:30.000Z</time>
      </trkpt>
      <trkpt lat="43.92173" lon="7.31694">
        <ele>1007.5999755859</ele>
        <time>2013-12-21T15:06:36.000Z</time>
      </trkpt>
      <trkpt lat="43.92177" lon="7.31681">
        <ele>1002.799987793</ele>
        <time>2013-12-21T15:07:06.000Z</time>
      </trkpt>
      <trkpt lat="43.92179" lon="7.31678">
        <ele>1002.4000244141</ele>
        <time>2013-12-21T15:07:08.000Z</time>
      </trkpt>
      <trkpt lat="43.9218" lon="7.31674">
        <ele>1002.200012207</ele>
        <time>2013-12-21T15:07:10.000Z</time>
      </trkpt>
      <trkpt lat="43.92181" lon="7.3166">
        <ele>1001.799987793</ele>
        <time>2013-12-21T15:07:14.000Z</time>
      </trkpt>
      <trkpt lat="43.92183" lon="7.3165">
        <ele>1001.5999755859</ele>
        <time>2013-12-21T15:07:17.000Z</time>
      </trkpt>
      <trkpt lat="43.92187" lon="7.3164">
        <ele>1001.4000244141</ele>
        <time>2013-12-21T15:07:21.000Z</time>
      </trkpt>
      <trkpt lat="43.92187" lon="7.31638">
        <ele>1001.200012207</ele>
        <time>2013-12-21T15:07:23.000Z</time>
      </trkpt>
      <trkpt lat="43.92187" lon="7.31634">
        <ele>1001</ele>
        <time>2013-12-21T15:07:25.000Z</time>
      </trkpt>
      <trkpt lat="43.9219" lon="7.31629">
        <ele>1000.799987793</ele>
        <time>2013-12-21T15:07:28.000Z</time>
      </trkpt>
      <trkpt lat="43.92193" lon="7.31625">
        <ele>1000.799987793</ele>
        <time>2013-12-21T15:07:31.000Z</time>
      </trkpt>
      <trkpt lat="43.92192" lon="7.31622">
        <ele>1000.4000244141</ele>
        <time>2013-12-21T15:07:37.000Z</time>
      </trkpt>
      <trkpt lat="43.92193" lon="7.31618">
        <ele>1000</ele>
        <time>2013-12-21T15:07:41.000Z</time>
      </trkpt>
      <trkpt lat="43.92193" lon="7.31617">
        <ele>1000</ele>
        <time>2013-12-21T15:07:42.000Z</time>
      </trkpt>
      <trkpt lat="43.92193" lon="7.31607">
        <ele>999.40002441406</ele>
        <time>2013-12-21T15:07:49.000Z</time>
      </trkpt>
      <trkpt lat="43.92193" lon="7.31606">
        <ele>999.40002441406</ele>
        <time>2013-12-21T15:07:50.000Z</time>
      </trkpt>
      <trkpt lat="43.92191" lon="7.31601">
        <ele>999.20001220703</ele>
        <time>2013-12-21T15:07:53.000Z</time>
      </trkpt>
      <trkpt lat="43.92191" lon="7.31592">
        <ele>999.20001220703</ele>
        <time>2013-12-21T15:07:58.000Z</time>
      </trkpt>
      <trkpt lat="43.92192" lon="7.31586">
        <ele>999</ele>
        <time>2013-12-21T15:08:08.000Z</time>
      </trkpt>
      <trkpt lat="43.92192" lon="7.31582">
        <ele>998.40002441406</ele>
        <time>2013-12-21T15:08:14.000Z</time>
      </trkpt>
      <trkpt lat="43.92189" lon="7.3157">
        <ele>997.79998779297</ele>
        <time>2013-12-21T15:08:23.000Z</time>
      </trkpt>
      <trkpt lat="43.92189" lon="7.31564">
        <ele>997.59997558594</ele>
        <time>2013-12-21T15:08:26.000Z</time>
      </trkpt>
      <trkpt lat="43.92192" lon="7.31561">
        <ele>997.59997558594</ele>
        <time>2013-12-21T15:08:28.000Z</time>
      </trkpt>
      <trkpt lat="43.92192" lon="7.3156">
        <ele>997.59997558594</ele>
        <time>2013-12-21T15:08:29.000Z</time>
      </trkpt>
      <trkpt lat="43.92197" lon="7.31558">
        <ele>997.40002441406</ele>
        <time>2013-12-21T15:08:34.000Z</time>
      </trkpt>
      <trkpt lat="43.92201" lon="7.31554">
        <ele>997.40002441406</ele>
        <time>2013-12-21T15:08:37.000Z</time>
      </trkpt>
      <trkpt lat="43.92201" lon="7.31553">
        <ele>997.40002441406</ele>
        <time>2013-12-21T15:08:39.000Z</time>
      </trkpt>
      <trkpt lat="43.92202" lon="7.31551">
        <ele>997.40002441406</ele>
        <time>2013-12-21T15:08:40.000Z</time>
      </trkpt>
      <trkpt lat="43.92207" lon="7.31543">
        <ele>996.79998779297</ele>
        <time>2013-12-21T15:08:48.000Z</time>
      </trkpt>
      <trkpt lat="43.92209" lon="7.31538">
        <ele>996.59997558594</ele>
        <time>2013-12-21T15:08:53.000Z</time>
      </trkpt>
      <trkpt lat="43.92211" lon="7.31526">
        <ele>996.40002441406</ele>
        <time>2013-12-21T15:09:00.000Z</time>
      </trkpt>
      <trkpt lat="43.92211" lon="7.31523">
        <ele>996.20001220703</ele>
        <time>2013-12-21T15:09:02.000Z</time>
      </trkpt>
      <trkpt lat="43.92213" lon="7.31514">
        <ele>996</ele>
        <time>2013-12-21T15:09:06.000Z</time>
      </trkpt>
      <trkpt lat="43.92218" lon="7.31498">
        <ele>995.59997558594</ele>
        <time>2013-12-21T15:09:12.000Z</time>
      </trkpt>
      <trkpt lat="43.92218" lon="7.31493">
        <ele>995.20001220703</ele>
        <time>2013-12-21T15:09:17.000Z</time>
      </trkpt>
      <trkpt lat="43.92217" lon="7.31492">
        <ele>995.20001220703</ele>
        <time>2013-12-21T15:09:18.000Z</time>
      </trkpt>
      <trkpt lat="43.92217" lon="7.3149">
        <ele>994.79998779297</ele>
        <time>2013-12-21T15:09:21.000Z</time>
      </trkpt>
      <trkpt lat="43.92217" lon="7.31483">
        <ele>994.20001220703</ele>
        <time>2013-12-21T15:09:27.000Z</time>
      </trkpt>
      <trkpt lat="43.92217" lon="7.31481">
        <ele>994</ele>
        <time>2013-12-21T15:09:28.000Z</time>
      </trkpt>
      <trkpt lat="43.92222" lon="7.31475">
        <ele>993.59997558594</ele>
        <time>2013-12-21T15:09:32.000Z</time>
      </trkpt>
      <trkpt lat="43.92226" lon="7.31465">
        <ele>993.20001220703</ele>
        <time>2013-12-21T15:09:37.000Z</time>
      </trkpt>
      <trkpt lat="43.92231" lon="7.31455">
        <ele>992.79998779297</ele>
        <time>2013-12-21T15:09:42.000Z</time>
      </trkpt>
      <trkpt lat="43.92231" lon="7.31453">
        <ele>992.79998779297</ele>
        <time>2013-12-21T15:09:43.000Z</time>
      </trkpt>
      <trkpt lat="43.92231" lon="7.31446">
        <ele>992.59997558594</ele>
        <time>2013-12-21T15:09:46.000Z</time>
      </trkpt>
      <trkpt lat="43.92234" lon="7.31445">
        <ele>992.40002441406</ele>
        <time>2013-12-21T15:09:49.000Z</time>
      </trkpt>
      <trkpt lat="43.92237" lon="7.31439">
        <ele>992.40002441406</ele>
        <time>2013-12-21T15:09:53.000Z</time>
      </trkpt>
      <trkpt lat="43.92239" lon="7.31433">
        <ele>992.20001220703</ele>
        <time>2013-12-21T15:09:57.000Z</time>
      </trkpt>
      <trkpt lat="43.92239" lon="7.3143">
        <ele>992.40002441406</ele>
        <time>2013-12-21T15:09:58.000Z</time>
      </trkpt>
      <trkpt lat="43.92239" lon="7.31425">
        <ele>992.40002441406</ele>
        <time>2013-12-21T15:10:00.000Z</time>
      </trkpt>
      <trkpt lat="43.92239" lon="7.31419">
        <ele>992.59997558594</ele>
        <time>2013-12-21T15:10:03.000Z</time>
      </trkpt>
      <trkpt lat="43.92245" lon="7.3142">
        <ele>999.59997558594</ele>
        <time>2013-12-21T15:10:34.000Z</time>
      </trkpt>
      <trkpt lat="43.92246" lon="7.31412">
        <ele>1000.799987793</ele>
        <time>2013-12-21T15:11:01.000Z</time>
      </trkpt>
      <trkpt lat="43.92246" lon="7.31408">
        <ele>1000.799987793</ele>
        <time>2013-12-21T15:11:03.000Z</time>
      </trkpt>
      <trkpt lat="43.92246" lon="7.31402">
        <ele>1000.799987793</ele>
        <time>2013-12-21T15:11:08.000Z</time>
      </trkpt>
      <trkpt lat="43.92248" lon="7.314">
        <ele>1000.5999755859</ele>
        <time>2013-12-21T15:11:10.000Z</time>
      </trkpt>
      <trkpt lat="43.92246" lon="7.31397">
        <ele>1000.4000244141</ele>
        <time>2013-12-21T15:11:14.000Z</time>
      </trkpt>
      <trkpt lat="43.92247" lon="7.31386">
        <ele>1000.200012207</ele>
        <time>2013-12-21T15:11:19.000Z</time>
      </trkpt>
      <trkpt lat="43.92246" lon="7.31383">
        <ele>1000.200012207</ele>
        <time>2013-12-21T15:11:20.000Z</time>
      </trkpt>
      <trkpt lat="43.92247" lon="7.31372">
        <ele>1000.200012207</ele>
        <time>2013-12-21T15:11:23.000Z</time>
      </trkpt>
      <trkpt lat="43.92246" lon="7.31364">
        <ele>1000.200012207</ele>
        <time>2013-12-21T15:11:25.000Z</time>
      </trkpt>
      <trkpt lat="43.92244" lon="7.31347">
        <ele>1000.200012207</ele>
        <time>2013-12-21T15:11:30.000Z</time>
      </trkpt>
      <trkpt lat="43.92245" lon="7.31322">
        <ele>1000</ele>
        <time>2013-12-21T15:11:35.000Z</time>
      </trkpt>
      <trkpt lat="43.92245" lon="7.31321">
        <ele>1000</ele>
        <time>2013-12-21T15:11:36.000Z</time>
      </trkpt>
      <trkpt lat="43.92247" lon="7.31316">
        <ele>999.79998779297</ele>
        <time>2013-12-21T15:11:39.000Z</time>
      </trkpt>
      <trkpt lat="43.92247" lon="7.31313">
        <ele>999.79998779297</ele>
        <time>2013-12-21T15:11:40.000Z</time>
      </trkpt>
      <trkpt lat="43.92254" lon="7.31299">
        <ele>999.79998779297</ele>
        <time>2013-12-21T15:11:43.000Z</time>
      </trkpt>
      <trkpt lat="43.92255" lon="7.31294">
        <ele>999.79998779297</ele>
        <time>2013-12-21T15:11:44.000Z</time>
      </trkpt>
      <trkpt lat="43.92258" lon="7.31279">
        <ele>999.59997558594</ele>
        <time>2013-12-21T15:11:48.000Z</time>
      </trkpt>
      <trkpt lat="43.92263" lon="7.3126">
        <ele>999.40002441406</ele>
        <time>2013-12-21T15:11:52.000Z</time>
      </trkpt>
      <trkpt lat="43.9226" lon="7.31257">
        <ele>999.40002441406</ele>
        <time>2013-12-21T15:11:53.000Z</time>
      </trkpt>
      <trkpt lat="43.92254" lon="7.31242">
        <ele>999.40002441406</ele>
        <time>2013-12-21T15:11:56.000Z</time>
      </trkpt>
      <trkpt lat="43.92253" lon="7.31214">
        <ele>999</ele>
        <time>2013-12-21T15:12:00.000Z</time>
      </trkpt>
      <trkpt lat="43.92252" lon="7.31209">
        <ele>998.79998779297</ele>
        <time>2013-12-21T15:12:01.000Z</time>
      </trkpt>
      <trkpt lat="43.9225" lon="7.312">
        <ele>998.79998779297</ele>
        <time>2013-12-21T15:12:03.000Z</time>
      </trkpt>
      <trkpt lat="43.92249" lon="7.31194">
        <ele>998.79998779297</ele>
        <time>2013-12-21T15:12:04.000Z</time>
      </trkpt>
      <trkpt lat="43.92248" lon="7.31188">
        <ele>998.79998779297</ele>
        <time>2013-12-21T15:12:05.000Z</time>
      </trkpt>
      <trkpt lat="43.9225" lon="7.31162">
        <ele>998.59997558594</ele>
        <time>2013-12-21T15:12:09.000Z</time>
      </trkpt>
      <trkpt lat="43.9225" lon="7.31148">
        <ele>998.79998779297</ele>
        <time>2013-12-21T15:12:11.000Z</time>
      </trkpt>
      <trkpt lat="43.92254" lon="7.31142">
        <ele>998.79998779297</ele>
        <time>2013-12-21T15:12:13.000Z</time>
      </trkpt>
      <trkpt lat="43.92257" lon="7.31132">
        <ele>998.20001220703</ele>
        <time>2013-12-21T15:12:17.000Z</time>
      </trkpt>
      <trkpt lat="43.92266" lon="7.31113">
        <ele>997.59997558594</ele>
        <time>2013-12-21T15:12:22.000Z</time>
      </trkpt>
      <trkpt lat="43.92267" lon="7.31102">
        <ele>996.79998779297</ele>
        <time>2013-12-21T15:12:26.000Z</time>
      </trkpt>
      <trkpt lat="43.92268" lon="7.31099">
        <ele>996.40002441406</ele>
        <time>2013-12-21T15:12:27.000Z</time>
      </trkpt>
      <trkpt lat="43.92267" lon="7.31082">
        <ele>995.79998779297</ele>
        <time>2013-12-21T15:12:31.000Z</time>
      </trkpt>
      <trkpt lat="43.92266" lon="7.31061">
        <ele>994.59997558594</ele>
        <time>2013-12-21T15:12:36.000Z</time>
      </trkpt>
      <trkpt lat="43.92262" lon="7.31041">
        <ele>993.79998779297</ele>
        <time>2013-12-21T15:12:40.000Z</time>
      </trkpt>
      <trkpt lat="43.92258" lon="7.31031">
        <ele>993.20001220703</ele>
        <time>2013-12-21T15:12:43.000Z</time>
      </trkpt>
      <trkpt lat="43.92255" lon="7.31026">
        <ele>992.59997558594</ele>
        <time>2013-12-21T15:12:45.000Z</time>
      </trkpt>
      <trkpt lat="43.92251" lon="7.31017">
        <ele>992.20001220703</ele>
        <time>2013-12-21T15:12:47.000Z</time>
      </trkpt>
      <trkpt lat="43.92254" lon="7.31002">
        <ele>991.59997558594</ele>
        <time>2013-12-21T15:12:50.000Z</time>
      </trkpt>
      <trkpt lat="43.92257" lon="7.30976">
        <ele>991</ele>
        <time>2013-12-21T15:12:55.000Z</time>
      </trkpt>
      <trkpt lat="43.92257" lon="7.30957">
        <ele>990.59997558594</ele>
        <time>2013-12-21T15:13:01.000Z</time>
      </trkpt>
      <trkpt lat="43.92264" lon="7.3095">
        <ele>990.79998779297</ele>
        <time>2013-12-21T15:13:06.000Z</time>
      </trkpt>
      <trkpt lat="43.92254" lon="7.30946">
        <ele>998.59997558594</ele>
        <time>2013-12-21T15:13:33.000Z</time>
      </trkpt>
      <trkpt lat="43.92254" lon="7.3095">
        <ele>998</ele>
        <time>2013-12-21T15:13:36.000Z</time>
      </trkpt>
      <trkpt lat="43.92262" lon="7.30939">
        <ele>1010</ele>
        <time>2013-12-21T15:15:18.000Z</time>
      </trkpt>
      <trkpt lat="43.92263" lon="7.30938">
        <ele>1008.5999755859</ele>
        <time>2013-12-21T15:15:24.000Z</time>
      </trkpt>
      <trkpt lat="43.92264" lon="7.3094">
        <ele>1008.200012207</ele>
        <time>2013-12-21T15:15:26.000Z</time>
      </trkpt>
      <trkpt lat="43.92265" lon="7.30941">
        <ele>1007.5999755859</ele>
        <time>2013-12-21T15:15:29.000Z</time>
      </trkpt>
      <trkpt lat="43.92276" lon="7.30951">
        <ele>1004.5999755859</ele>
        <time>2013-12-21T15:15:44.000Z</time>
      </trkpt>
      <trkpt lat="43.92286" lon="7.30963">
        <ele>1004</ele>
        <time>2013-12-21T15:15:49.000Z</time>
      </trkpt>
      <trkpt lat="43.92295" lon="7.3097">
        <ele>1003</ele>
        <time>2013-12-21T15:15:56.000Z</time>
      </trkpt>
      <trkpt lat="43.92298" lon="7.30971">
        <ele>1002.200012207</ele>
        <time>2013-12-21T15:16:00.000Z</time>
      </trkpt>
      <trkpt lat="43.92304" lon="7.30976">
        <ele>999.59997558594</ele>
        <time>2013-12-21T15:16:15.000Z</time>
      </trkpt>
      <trkpt lat="43.92308" lon="7.3098">
        <ele>999.20001220703</ele>
        <time>2013-12-21T15:16:18.000Z</time>
      </trkpt>
      <trkpt lat="43.92321" lon="7.30979">
        <ele>998.40002441406</ele>
        <time>2013-12-21T15:16:23.000Z</time>
      </trkpt>
      <trkpt lat="43.92323" lon="7.3098">
        <ele>998.20001220703</ele>
        <time>2013-12-21T15:16:24.000Z</time>
      </trkpt>
      <trkpt lat="43.92332" lon="7.30976">
        <ele>997.59997558594</ele>
        <time>2013-12-21T15:16:28.000Z</time>
      </trkpt>
      <trkpt lat="43.9234" lon="7.30979">
        <ele>996.79998779297</ele>
        <time>2013-12-21T15:16:33.000Z</time>
      </trkpt>
      <trkpt lat="43.92346" lon="7.30984">
        <ele>996</ele>
        <time>2013-12-21T15:16:38.000Z</time>
      </trkpt>
      <trkpt lat="43.92352" lon="7.3099">
        <ele>995.20001220703</ele>
        <time>2013-12-21T15:16:43.000Z</time>
      </trkpt>
      <trkpt lat="43.92354" lon="7.30992">
        <ele>995.20001220703</ele>
        <time>2013-12-21T15:16:44.000Z</time>
      </trkpt>
      <trkpt lat="43.92367" lon="7.31002">
        <ele>993.79998779297</ele>
        <time>2013-12-21T15:16:51.000Z</time>
      </trkpt>
      <trkpt lat="43.92373" lon="7.31003">
        <ele>992.79998779297</ele>
        <time>2013-12-21T15:16:56.000Z</time>
      </trkpt>
      <trkpt lat="43.92378" lon="7.31003">
        <ele>990.79998779297</ele>
        <time>2013-12-21T15:17:04.000Z</time>
      </trkpt>
      <trkpt lat="43.9238" lon="7.31005">
        <ele>989.20001220703</ele>
        <time>2013-12-21T15:17:10.000Z</time>
      </trkpt>
      <trkpt lat="43.92381" lon="7.31009">
        <ele>988.20001220703</ele>
        <time>2013-12-21T15:17:16.000Z</time>
      </trkpt>
      <trkpt lat="43.92381" lon="7.31011">
        <ele>987.59997558594</ele>
        <time>2013-12-21T15:17:19.000Z</time>
      </trkpt>
      <trkpt lat="43.92383" lon="7.31011">
        <ele>986.79998779297</ele>
        <time>2013-12-21T15:17:23.000Z</time>
      </trkpt>
      <trkpt lat="43.92383" lon="7.31016">
        <ele>986</ele>
        <time>2013-12-21T15:17:28.000Z</time>
      </trkpt>
      <trkpt lat="43.92387" lon="7.31019">
        <ele>984.59997558594</ele>
        <time>2013-12-21T15:17:35.000Z</time>
      </trkpt>
      <trkpt lat="43.92391" lon="7.31024">
        <ele>983.20001220703</ele>
        <time>2013-12-21T15:17:42.000Z</time>
      </trkpt>
      <trkpt lat="43.92393" lon="7.31023">
        <ele>983</ele>
        <time>2013-12-21T15:17:43.000Z</time>
      </trkpt>
      <trkpt lat="43.92396" lon="7.31024">
        <ele>982.20001220703</ele>
        <time>2013-12-21T15:17:47.000Z</time>
      </trkpt>
      <trkpt lat="43.92401" lon="7.31031">
        <ele>981.40002441406</ele>
        <time>2013-12-21T15:17:51.000Z</time>
      </trkpt>
      <trkpt lat="43.92403" lon="7.31032">
        <ele>981.20001220703</ele>
        <time>2013-12-21T15:17:52.000Z</time>
      </trkpt>
      <trkpt lat="43.92409" lon="7.31033">
        <ele>980.20001220703</ele>
        <time>2013-12-21T15:17:56.000Z</time>
      </trkpt>
      <trkpt lat="43.92418" lon="7.31032">
        <ele>979.20001220703</ele>
        <time>2013-12-21T15:18:00.000Z</time>
      </trkpt>
      <trkpt lat="43.92421" lon="7.31033">
        <ele>979</ele>
        <time>2013-12-21T15:18:01.000Z</time>
      </trkpt>
      <trkpt lat="43.92432" lon="7.31037">
        <ele>978</ele>
        <time>2013-12-21T15:18:06.000Z</time>
      </trkpt>
      <trkpt lat="43.92445" lon="7.3104">
        <ele>976.59997558594</ele>
        <time>2013-12-21T15:18:11.000Z</time>
      </trkpt>
      <trkpt lat="43.92461" lon="7.31041">
        <ele>975.59997558594</ele>
        <time>2013-12-21T15:18:15.000Z</time>
      </trkpt>
      <trkpt lat="43.92476" lon="7.31039">
        <ele>974.20001220703</ele>
        <time>2013-12-21T15:18:19.000Z</time>
      </trkpt>
      <trkpt lat="43.92488" lon="7.31041">
        <ele>972.79998779297</ele>
        <time>2013-12-21T15:18:23.000Z</time>
      </trkpt>
      <trkpt lat="43.92504" lon="7.31036">
        <ele>971.20001220703</ele>
        <time>2013-12-21T15:18:27.000Z</time>
      </trkpt>
      <trkpt lat="43.92519" lon="7.31035">
        <ele>969.20001220703</ele>
        <time>2013-12-21T15:18:32.000Z</time>
      </trkpt>
      <trkpt lat="43.92533" lon="7.31032">
        <ele>967.40002441406</ele>
        <time>2013-12-21T15:18:36.000Z</time>
      </trkpt>
      <trkpt lat="43.92551" lon="7.31031">
        <ele>965.40002441406</ele>
        <time>2013-12-21T15:18:41.000Z</time>
      </trkpt>
      <trkpt lat="43.92569" lon="7.31032">
        <ele>963</ele>
        <time>2013-12-21T15:18:46.000Z</time>
      </trkpt>
      <trkpt lat="43.92581" lon="7.31036">
        <ele>961.20001220703</ele>
        <time>2013-12-21T15:18:50.000Z</time>
      </trkpt>
      <trkpt lat="43.92586" lon="7.31035">
        <ele>960</ele>
        <time>2013-12-21T15:18:52.000Z</time>
      </trkpt>
      <trkpt lat="43.92594" lon="7.31029">
        <ele>959</ele>
        <time>2013-12-21T15:18:54.000Z</time>
      </trkpt>
      <trkpt lat="43.9262" lon="7.31015">
        <ele>956.40002441406</ele>
        <time>2013-12-21T15:18:59.000Z</time>
      </trkpt>
      <trkpt lat="43.92623" lon="7.31013">
        <ele>955.79998779297</ele>
        <time>2013-12-21T15:19:00.000Z</time>
      </trkpt>
      <trkpt lat="43.92633" lon="7.31011">
        <ele>954</ele>
        <time>2013-12-21T15:19:03.000Z</time>
      </trkpt>
      <trkpt lat="43.92642" lon="7.31012">
        <ele>953</ele>
        <time>2013-12-21T15:19:05.000Z</time>
      </trkpt>
      <trkpt lat="43.92646" lon="7.31011">
        <ele>952.40002441406</ele>
        <time>2013-12-21T15:19:06.000Z</time>
      </trkpt>
      <trkpt lat="43.92655" lon="7.31012">
        <ele>951.40002441406</ele>
        <time>2013-12-21T15:19:08.000Z</time>
      </trkpt>
      <trkpt lat="43.92662" lon="7.31014">
        <ele>950.20001220703</ele>
        <time>2013-12-21T15:19:10.000Z</time>
      </trkpt>
      <trkpt lat="43.92667" lon="7.31017">
        <ele>948.59997558594</ele>
        <time>2013-12-21T15:19:13.000Z</time>
      </trkpt>
      <trkpt lat="43.9268" lon="7.31015">
        <ele>945.79998779297</ele>
        <time>2013-12-21T15:19:18.000Z</time>
      </trkpt>
      <trkpt lat="43.92699" lon="7.31013">
        <ele>943</ele>
        <time>2013-12-21T15:19:23.000Z</time>
      </trkpt>
      <trkpt lat="43.92713" lon="7.31014">
        <ele>941.40002441406</ele>
        <time>2013-12-21T15:19:26.000Z</time>
      </trkpt>
      <trkpt lat="43.92723" lon="7.31016">
        <ele>940.59997558594</ele>
        <time>2013-12-21T15:19:28.000Z</time>
      </trkpt>
      <trkpt lat="43.92731" lon="7.31018">
        <ele>939.40002441406</ele>
        <time>2013-12-21T15:19:30.000Z</time>
      </trkpt>
      <trkpt lat="43.92738" lon="7.31025">
        <ele>938.59997558594</ele>
        <time>2013-12-21T15:19:32.000Z</time>
      </trkpt>
      <trkpt lat="43.92742" lon="7.31027">
        <ele>938</ele>
        <time>2013-12-21T15:19:33.000Z</time>
      </trkpt>
      <trkpt lat="43.92756" lon="7.31027">
        <ele>936.20001220703</ele>
        <time>2013-12-21T15:19:36.000Z</time>
      </trkpt>
      <trkpt lat="43.92762" lon="7.31026">
        <ele>935.40002441406</ele>
        <time>2013-12-21T15:19:37.000Z</time>
      </trkpt>
      <trkpt lat="43.92775" lon="7.31025">
        <ele>933.59997558594</ele>
        <time>2013-12-21T15:19:40.000Z</time>
      </trkpt>
      <trkpt lat="43.92786" lon="7.31027">
        <ele>932</ele>
        <time>2013-12-21T15:19:43.000Z</time>
      </trkpt>
      <trkpt lat="43.9279" lon="7.31026">
        <ele>931.40002441406</ele>
        <time>2013-12-21T15:19:44.000Z</time>
      </trkpt>
      <trkpt lat="43.92806" lon="7.31022">
        <ele>929</ele>
        <time>2013-12-21T15:19:48.000Z</time>
      </trkpt>
      <trkpt lat="43.92821" lon="7.31021">
        <ele>926.40002441406</ele>
        <time>2013-12-21T15:19:52.000Z</time>
      </trkpt>
      <trkpt lat="43.92832" lon="7.31023">
        <ele>925.20001220703</ele>
        <time>2013-12-21T15:19:54.000Z</time>
      </trkpt>
      <trkpt lat="43.92841" lon="7.31028">
        <ele>924.20001220703</ele>
        <time>2013-12-21T15:19:56.000Z</time>
      </trkpt>
      <trkpt lat="43.92851" lon="7.31033">
        <ele>923</ele>
        <time>2013-12-21T15:19:58.000Z</time>
      </trkpt>
      <trkpt lat="43.92858" lon="7.31036">
        <ele>922</ele>
        <time>2013-12-21T15:20:00.000Z</time>
      </trkpt>
      <trkpt lat="43.9286" lon="7.31037">
        <ele>921.40002441406</ele>
        <time>2013-12-21T15:20:01.000Z</time>
      </trkpt>
      <trkpt lat="43.9287" lon="7.31038">
        <ele>919.79998779297</ele>
        <time>2013-12-21T15:20:04.000Z</time>
      </trkpt>
      <trkpt lat="43.92873" lon="7.31039">
        <ele>919.20001220703</ele>
        <time>2013-12-21T15:20:05.000Z</time>
      </trkpt>
      <trkpt lat="43.92876" lon="7.31042">
        <ele>918.79998779297</ele>
        <time>2013-12-21T15:20:06.000Z</time>
      </trkpt>
      <trkpt lat="43.929" lon="7.31055">
        <ele>916</ele>
        <time>2013-12-21T15:20:11.000Z</time>
      </trkpt>
      <trkpt lat="43.9291" lon="7.31059">
        <ele>915</ele>
        <time>2013-12-21T15:20:13.000Z</time>
      </trkpt>
      <trkpt lat="43.92923" lon="7.31067">
        <ele>913.40002441406</ele>
        <time>2013-12-21T15:20:16.000Z</time>
      </trkpt>
      <trkpt lat="43.92926" lon="7.31069">
        <ele>912.79998779297</ele>
        <time>2013-12-21T15:20:17.000Z</time>
      </trkpt>
      <trkpt lat="43.9293" lon="7.31076">
        <ele>911.20001220703</ele>
        <time>2013-12-21T15:20:20.000Z</time>
      </trkpt>
      <trkpt lat="43.92932" lon="7.3108">
        <ele>909.40002441406</ele>
        <time>2013-12-21T15:20:23.000Z</time>
      </trkpt>
      <trkpt lat="43.92933" lon="7.31079">
        <ele>908.40002441406</ele>
        <time>2013-12-21T15:20:25.000Z</time>
      </trkpt>
      <trkpt lat="43.92944" lon="7.31091">
        <ele>863.20001220703</ele>
        <time>2013-12-21T15:22:55.000Z</time>
      </trkpt>
      <trkpt lat="43.92957" lon="7.3111">
        <ele>862.40002441406</ele>
        <time>2013-12-21T15:22:58.000Z</time>
      </trkpt>
      <trkpt lat="43.9297" lon="7.31125">
        <ele>861.79998779297</ele>
        <time>2013-12-21T15:23:01.000Z</time>
      </trkpt>
      <trkpt lat="43.92983" lon="7.3112">
        <ele>860.79998779297</ele>
        <time>2013-12-21T15:23:04.000Z</time>
      </trkpt>
      <trkpt lat="43.92996" lon="7.31114">
        <ele>860.20001220703</ele>
        <time>2013-12-21T15:23:07.000Z</time>
      </trkpt>
      <trkpt lat="43.93005" lon="7.31108">
        <ele>859.79998779297</ele>
        <time>2013-12-21T15:23:09.000Z</time>
      </trkpt>
      <trkpt lat="43.93019" lon="7.31099">
        <ele>858.40002441406</ele>
        <time>2013-12-21T15:23:14.000Z</time>
      </trkpt>
      <trkpt lat="43.93024" lon="7.31105">
        <ele>857.59997558594</ele>
        <time>2013-12-21T15:23:17.000Z</time>
      </trkpt>
      <trkpt lat="43.93024" lon="7.31109">
        <ele>857.20001220703</ele>
        <time>2013-12-21T15:23:18.000Z</time>
      </trkpt>
      <trkpt lat="43.93021" lon="7.31121">
        <ele>856.59997558594</ele>
        <time>2013-12-21T15:23:20.000Z</time>
      </trkpt>
      <trkpt lat="43.9301" lon="7.31133">
        <ele>855.59997558594</ele>
        <time>2013-12-21T15:23:23.000Z</time>
      </trkpt>
      <trkpt lat="43.92995" lon="7.31151">
        <ele>853.79998779297</ele>
        <time>2013-12-21T15:23:29.000Z</time>
      </trkpt>
      <trkpt lat="43.9299" lon="7.31162">
        <ele>852.59997558594</ele>
        <time>2013-12-21T15:23:33.000Z</time>
      </trkpt>
      <trkpt lat="43.92992" lon="7.31164">
        <ele>852.20001220703</ele>
        <time>2013-12-21T15:23:34.000Z</time>
      </trkpt>
      <trkpt lat="43.93009" lon="7.31162">
        <ele>851.40002441406</ele>
        <time>2013-12-21T15:23:37.000Z</time>
      </trkpt>
      <trkpt lat="43.93027" lon="7.31154">
        <ele>850.40002441406</ele>
        <time>2013-12-21T15:23:40.000Z</time>
      </trkpt>
      <trkpt lat="43.93034" lon="7.31152">
        <ele>850</ele>
        <time>2013-12-21T15:23:41.000Z</time>
      </trkpt>
      <trkpt lat="43.93041" lon="7.31151">
        <ele>849.79998779297</ele>
        <time>2013-12-21T15:23:42.000Z</time>
      </trkpt>
      <trkpt lat="43.93058" lon="7.31151">
        <ele>848.79998779297</ele>
        <time>2013-12-21T15:23:45.000Z</time>
      </trkpt>
      <trkpt lat="43.93078" lon="7.31146">
        <ele>847.59997558594</ele>
        <time>2013-12-21T15:23:49.000Z</time>
      </trkpt>
      <trkpt lat="43.931" lon="7.31146">
        <ele>846.59997558594</ele>
        <time>2013-12-21T15:23:52.000Z</time>
      </trkpt>
      <trkpt lat="43.93124" lon="7.31134">
        <ele>845.59997558594</ele>
        <time>2013-12-21T15:23:55.000Z</time>
      </trkpt>
      <trkpt lat="43.93131" lon="7.3113">
        <ele>845.20001220703</ele>
        <time>2013-12-21T15:23:56.000Z</time>
      </trkpt>
      <trkpt lat="43.93147" lon="7.31125">
        <ele>844.59997558594</ele>
        <time>2013-12-21T15:23:58.000Z</time>
      </trkpt>
      <trkpt lat="43.93155" lon="7.31124">
        <ele>844.20001220703</ele>
        <time>2013-12-21T15:23:59.000Z</time>
      </trkpt>
      <trkpt lat="43.93177" lon="7.31126">
        <ele>842.79998779297</ele>
        <time>2013-12-21T15:24:03.000Z</time>
      </trkpt>
      <trkpt lat="43.93172" lon="7.3114">
        <ele>841.59997558594</ele>
        <time>2013-12-21T15:24:06.000Z</time>
      </trkpt>
      <trkpt lat="43.93165" lon="7.31151">
        <ele>840.79998779297</ele>
        <time>2013-12-21T15:24:08.000Z</time>
      </trkpt>
      <trkpt lat="43.93164" lon="7.31153">
        <ele>840.40002441406</ele>
        <time>2013-12-21T15:24:09.000Z</time>
      </trkpt>
      <trkpt lat="43.93164" lon="7.31154">
        <ele>840</ele>
        <time>2013-12-21T15:24:10.000Z</time>
      </trkpt>
      <trkpt lat="43.93162" lon="7.31158">
        <ele>839</ele>
        <time>2013-12-21T15:24:13.000Z</time>
      </trkpt>
      <trkpt lat="43.93165" lon="7.31156">
        <ele>836.40002441406</ele>
        <time>2013-12-21T15:24:20.000Z</time>
      </trkpt>
      <trkpt lat="43.93164" lon="7.31161">
        <ele>831.20001220703</ele>
        <time>2013-12-21T15:24:35.000Z</time>
      </trkpt>
      <trkpt lat="43.93164" lon="7.31161">
        <ele>830.79998779297</ele>
        <time>2013-12-21T15:24:36.000Z</time>
      </trkpt>
      <trkpt lat="43.93167" lon="7.31161">
        <ele>829.20001220703</ele>
        <time>2013-12-21T15:24:41.000Z</time>
      </trkpt>
      <trkpt lat="43.93169" lon="7.31159">
        <ele>828.79998779297</ele>
        <time>2013-12-21T15:24:42.000Z</time>
      </trkpt>
      <trkpt lat="43.93181" lon="7.31149">
        <ele>827.40002441406</ele>
        <time>2013-12-21T15:24:47.000Z</time>
      </trkpt>
      <trkpt lat="43.93196" lon="7.31147">
        <ele>825.79998779297</ele>
        <time>2013-12-21T15:24:52.000Z</time>
      </trkpt>
      <trkpt lat="43.93216" lon="7.31143">
        <ele>824.20001220703</ele>
        <time>2013-12-21T15:24:57.000Z</time>
      </trkpt>
      <trkpt lat="43.93231" lon="7.31137">
        <ele>823.40002441406</ele>
        <time>2013-12-21T15:25:01.000Z</time>
      </trkpt>
      <trkpt lat="43.93255" lon="7.31129">
        <ele>822</ele>
        <time>2013-12-21T15:25:06.000Z</time>
      </trkpt>
      <trkpt lat="43.93268" lon="7.31118">
        <ele>821.20001220703</ele>
        <time>2013-12-21T15:25:09.000Z</time>
      </trkpt>
      <trkpt lat="43.93293" lon="7.311">
        <ele>820</ele>
        <time>2013-12-21T15:25:14.000Z</time>
      </trkpt>
      <trkpt lat="43.93312" lon="7.31087">
        <ele>819.20001220703</ele>
        <time>2013-12-21T15:25:17.000Z</time>
      </trkpt>
      <trkpt lat="43.93318" lon="7.31079">
        <ele>819</ele>
        <time>2013-12-21T15:25:18.000Z</time>
      </trkpt>
      <trkpt lat="43.93334" lon="7.31054">
        <ele>817.79998779297</ele>
        <time>2013-12-21T15:25:21.000Z</time>
      </trkpt>
      <trkpt lat="43.93351" lon="7.31049">
        <ele>816.59997558594</ele>
        <time>2013-12-21T15:25:24.000Z</time>
      </trkpt>
      <trkpt lat="43.93356" lon="7.31049">
        <ele>816</ele>
        <time>2013-12-21T15:25:26.000Z</time>
      </trkpt>
      <trkpt lat="43.93358" lon="7.3105">
        <ele>815.59997558594</ele>
        <time>2013-12-21T15:25:27.000Z</time>
      </trkpt>
      <trkpt lat="43.93365" lon="7.3105">
        <ele>814.79998779297</ele>
        <time>2013-12-21T15:25:29.000Z</time>
      </trkpt>
      <trkpt lat="43.93372" lon="7.31041">
        <ele>814</ele>
        <time>2013-12-21T15:25:31.000Z</time>
      </trkpt>
      <trkpt lat="43.93387" lon="7.31021">
        <ele>812.79998779297</ele>
        <time>2013-12-21T15:25:34.000Z</time>
      </trkpt>
      <trkpt lat="43.93413" lon="7.30994">
        <ele>811</ele>
        <time>2013-12-21T15:25:38.000Z</time>
      </trkpt>
      <trkpt lat="43.93439" lon="7.30996">
        <ele>809.59997558594</ele>
        <time>2013-12-21T15:25:41.000Z</time>
      </trkpt>
      <trkpt lat="43.93447" lon="7.30995">
        <ele>809</ele>
        <time>2013-12-21T15:25:42.000Z</time>
      </trkpt>
      <trkpt lat="43.9347" lon="7.30985">
        <ele>807.79998779297</ele>
        <time>2013-12-21T15:25:45.000Z</time>
      </trkpt>
      <trkpt lat="43.93476" lon="7.30981">
        <ele>807.40002441406</ele>
        <time>2013-12-21T15:25:46.000Z</time>
      </trkpt>
      <trkpt lat="43.93495" lon="7.30974">
        <ele>806</ele>
        <time>2013-12-21T15:25:49.000Z</time>
      </trkpt>
      <trkpt lat="43.93496" lon="7.30973">
        <ele>805.40002441406</ele>
        <time>2013-12-21T15:25:50.000Z</time>
      </trkpt>
      <trkpt lat="43.93493" lon="7.30972">
        <ele>805</ele>
        <time>2013-12-21T15:25:51.000Z</time>
      </trkpt>
      <trkpt lat="43.93492" lon="7.30972">
        <ele>804</ele>
        <time>2013-12-21T15:25:53.000Z</time>
      </trkpt>
      <trkpt lat="43.93496" lon="7.30968">
        <ele>799.40002441406</ele>
        <time>2013-12-21T15:26:04.000Z</time>
      </trkpt>
      <trkpt lat="43.93497" lon="7.3096">
        <ele>797.20001220703</ele>
        <time>2013-12-21T15:26:10.000Z</time>
      </trkpt>
      <trkpt lat="43.93498" lon="7.30952">
        <ele>795.40002441406</ele>
        <time>2013-12-21T15:26:15.000Z</time>
      </trkpt>
      <trkpt lat="43.93499" lon="7.30951">
        <ele>794.59997558594</ele>
        <time>2013-12-21T15:26:17.000Z</time>
      </trkpt>
      <trkpt lat="43.93504" lon="7.30944">
        <ele>793</ele>
        <time>2013-12-21T15:26:23.000Z</time>
      </trkpt>
      <trkpt lat="43.93505" lon="7.30942">
        <ele>792.59997558594</ele>
        <time>2013-12-21T15:26:24.000Z</time>
      </trkpt>
      <trkpt lat="43.93512" lon="7.30929">
        <ele>791.40002441406</ele>
        <time>2013-12-21T15:26:28.000Z</time>
      </trkpt>
      <trkpt lat="43.93517" lon="7.30926">
        <ele>791.20001220703</ele>
        <time>2013-12-21T15:26:29.000Z</time>
      </trkpt>
      <trkpt lat="43.93526" lon="7.30921">
        <ele>790.59997558594</ele>
        <time>2013-12-21T15:26:31.000Z</time>
      </trkpt>
      <trkpt lat="43.93547" lon="7.30916">
        <ele>789.40002441406</ele>
        <time>2013-12-21T15:26:35.000Z</time>
      </trkpt>
      <trkpt lat="43.9355" lon="7.30914">
        <ele>789.20001220703</ele>
        <time>2013-12-21T15:26:36.000Z</time>
      </trkpt>
      <trkpt lat="43.93559" lon="7.30912">
        <ele>788.40002441406</ele>
        <time>2013-12-21T15:26:39.000Z</time>
      </trkpt>
      <trkpt lat="43.9357" lon="7.30916">
        <ele>787.40002441406</ele>
        <time>2013-12-21T15:26:42.000Z</time>
      </trkpt>
      <trkpt lat="43.93573" lon="7.30916">
        <ele>787.20001220703</ele>
        <time>2013-12-21T15:26:43.000Z</time>
      </trkpt>
      <trkpt lat="43.93585" lon="7.3091">
        <ele>786.20001220703</ele>
        <time>2013-12-21T15:26:47.000Z</time>
      </trkpt>
      <trkpt lat="43.93594" lon="7.30903">
        <ele>785.40002441406</ele>
        <time>2013-12-21T15:26:51.000Z</time>
      </trkpt>
      <trkpt lat="43.93607" lon="7.30894">
        <ele>784.40002441406</ele>
        <time>2013-12-21T15:26:56.000Z</time>
      </trkpt>
      <trkpt lat="43.93624" lon="7.30891">
        <ele>783.59997558594</ele>
        <time>2013-12-21T15:27:00.000Z</time>
      </trkpt>
      <trkpt lat="43.93629" lon="7.30884">
        <ele>783.40002441406</ele>
        <time>2013-12-21T15:27:02.000Z</time>
      </trkpt>
      <trkpt lat="43.93633" lon="7.30878">
        <ele>783</ele>
        <time>2013-12-21T15:27:04.000Z</time>
      </trkpt>
      <trkpt lat="43.93639" lon="7.30865">
        <ele>782.59997558594</ele>
        <time>2013-12-21T15:27:08.000Z</time>
      </trkpt>
      <trkpt lat="43.93648" lon="7.30853">
        <ele>782.20001220703</ele>
        <time>2013-12-21T15:27:12.000Z</time>
      </trkpt>
      <trkpt lat="43.93662" lon="7.30846">
        <ele>781.59997558594</ele>
        <time>2013-12-21T15:27:17.000Z</time>
      </trkpt>
      <trkpt lat="43.93672" lon="7.30836">
        <ele>781.20001220703</ele>
        <time>2013-12-21T15:27:22.000Z</time>
      </trkpt>
      <trkpt lat="43.93677" lon="7.30814">
        <ele>780.79998779297</ele>
        <time>2013-12-21T15:27:27.000Z</time>
      </trkpt>
      <trkpt lat="43.93679" lon="7.30803">
        <ele>780.59997558594</ele>
        <time>2013-12-21T15:27:30.000Z</time>
      </trkpt>
      <trkpt lat="43.9368" lon="7.30803">
        <ele>780.59997558594</ele>
        <time>2013-12-21T15:27:31.000Z</time>
      </trkpt>
      <trkpt lat="43.93687" lon="7.30795">
        <ele>780.20001220703</ele>
        <time>2013-12-21T15:27:36.000Z</time>
      </trkpt>
      <trkpt lat="43.93693" lon="7.30778">
        <ele>779</ele>
        <time>2013-12-21T15:27:40.000Z</time>
      </trkpt>
      <trkpt lat="43.93694" lon="7.30774">
        <ele>778.59997558594</ele>
        <time>2013-12-21T15:27:42.000Z</time>
      </trkpt>
      <trkpt lat="43.93695" lon="7.30771">
        <ele>778.40002441406</ele>
        <time>2013-12-21T15:27:43.000Z</time>
      </trkpt>
      <trkpt lat="43.93695" lon="7.30769">
        <ele>778</ele>
        <time>2013-12-21T15:27:44.000Z</time>
      </trkpt>
      <trkpt lat="43.93694" lon="7.30752">
        <ele>776.79998779297</ele>
        <time>2013-12-21T15:27:48.000Z</time>
      </trkpt>
      <trkpt lat="43.93691" lon="7.30743">
        <ele>775.59997558594</ele>
        <time>2013-12-21T15:27:52.000Z</time>
      </trkpt>
      <trkpt lat="43.93692" lon="7.3073">
        <ele>774.40002441406</ele>
        <time>2013-12-21T15:27:55.000Z</time>
      </trkpt>
      <trkpt lat="43.93693" lon="7.30718">
        <ele>773.20001220703</ele>
        <time>2013-12-21T15:27:59.000Z</time>
      </trkpt>
      <trkpt lat="43.93692" lon="7.30716">
        <ele>772.79998779297</ele>
        <time>2013-12-21T15:28:00.000Z</time>
      </trkpt>
      <trkpt lat="43.93691" lon="7.30709">
        <ele>772</ele>
        <time>2013-12-21T15:28:02.000Z</time>
      </trkpt>
      <trkpt lat="43.93693" lon="7.30701">
        <ele>771.40002441406</ele>
        <time>2013-12-21T15:28:04.000Z</time>
      </trkpt>
      <trkpt lat="43.93691" lon="7.3069">
        <ele>770.20001220703</ele>
        <time>2013-12-21T15:28:07.000Z</time>
      </trkpt>
      <trkpt lat="43.93687" lon="7.30676">
        <ele>768.79998779297</ele>
        <time>2013-12-21T15:28:11.000Z</time>
      </trkpt>
      <trkpt lat="43.93687" lon="7.30674">
        <ele>768.40002441406</ele>
        <time>2013-12-21T15:28:12.000Z</time>
      </trkpt>
      <trkpt lat="43.93688" lon="7.30656">
        <ele>767</ele>
        <time>2013-12-21T15:28:16.000Z</time>
      </trkpt>
      <trkpt lat="43.9369" lon="7.30654">
        <ele>766.59997558594</ele>
        <time>2013-12-21T15:28:17.000Z</time>
      </trkpt>
      <trkpt lat="43.93692" lon="7.30651">
        <ele>766</ele>
        <time>2013-12-21T15:28:19.000Z</time>
      </trkpt>
      <trkpt lat="43.937" lon="7.30639">
        <ele>764.79998779297</ele>
        <time>2013-12-21T15:28:23.000Z</time>
      </trkpt>
      <trkpt lat="43.93704" lon="7.30627">
        <ele>764.20001220703</ele>
        <time>2013-12-21T15:28:25.000Z</time>
      </trkpt>
      <trkpt lat="43.93708" lon="7.30621">
        <ele>763.59997558594</ele>
        <time>2013-12-21T15:28:27.000Z</time>
      </trkpt>
      <trkpt lat="43.93711" lon="7.30608">
        <ele>762.20001220703</ele>
        <time>2013-12-21T15:28:31.000Z</time>
      </trkpt>
      <trkpt lat="43.93718" lon="7.30601">
        <ele>760.20001220703</ele>
        <time>2013-12-21T15:28:36.000Z</time>
      </trkpt>
      <trkpt lat="43.93724" lon="7.30599">
        <ele>758.79998779297</ele>
        <time>2013-12-21T15:28:40.000Z</time>
      </trkpt>
      <trkpt lat="43.93728" lon="7.30594">
        <ele>755.40002441406</ele>
        <time>2013-12-21T15:28:50.000Z</time>
      </trkpt>
      <trkpt lat="43.93731" lon="7.3059">
        <ele>753.79998779297</ele>
        <time>2013-12-21T15:28:55.000Z</time>
      </trkpt>
      <trkpt lat="43.93738" lon="7.30586">
        <ele>752.40002441406</ele>
        <time>2013-12-21T15:29:00.000Z</time>
      </trkpt>
      <trkpt lat="43.93749" lon="7.30579">
        <ele>751</ele>
        <time>2013-12-21T15:29:04.000Z</time>
      </trkpt>
      <trkpt lat="43.93751" lon="7.30576">
        <ele>750.40002441406</ele>
        <time>2013-12-21T15:29:06.000Z</time>
      </trkpt>
      <trkpt lat="43.93752" lon="7.30576">
        <ele>749.79998779297</ele>
        <time>2013-12-21T15:29:08.000Z</time>
      </trkpt>
      <trkpt lat="43.93756" lon="7.30572">
        <ele>748.59997558594</ele>
        <time>2013-12-21T15:29:12.000Z</time>
      </trkpt>
      <trkpt lat="43.93761" lon="7.3057">
        <ele>748</ele>
        <time>2013-12-21T15:29:14.000Z</time>
      </trkpt>
      <trkpt lat="43.93766" lon="7.30567">
        <ele>747.59997558594</ele>
        <time>2013-12-21T15:29:16.000Z</time>
      </trkpt>
      <trkpt lat="43.93769" lon="7.30567">
        <ele>747</ele>
        <time>2013-12-21T15:29:18.000Z</time>
      </trkpt>
      <trkpt lat="43.93771" lon="7.30565">
        <ele>746.59997558594</ele>
        <time>2013-12-21T15:29:19.000Z</time>
      </trkpt>
      <trkpt lat="43.93777" lon="7.30559">
        <ele>745.20001220703</ele>
        <time>2013-12-21T15:29:24.000Z</time>
      </trkpt>
      <trkpt lat="43.93776" lon="7.30554">
        <ele>744.59997558594</ele>
        <time>2013-12-21T15:29:26.000Z</time>
      </trkpt>
      <trkpt lat="43.93776" lon="7.30549">
        <ele>743.59997558594</ele>
        <time>2013-12-21T15:29:29.000Z</time>
      </trkpt>
      <trkpt lat="43.93777" lon="7.30548">
        <ele>742.20001220703</ele>
        <time>2013-12-21T15:29:33.000Z</time>
      </trkpt>
      <trkpt lat="43.9378" lon="7.30547">
        <ele>740</ele>
        <time>2013-12-21T15:29:40.000Z</time>
      </trkpt>
      <trkpt lat="43.93779" lon="7.30542">
        <ele>738</ele>
        <time>2013-12-21T15:29:46.000Z</time>
      </trkpt>
      <trkpt lat="43.93779" lon="7.3054">
        <ele>737</ele>
        <time>2013-12-21T15:29:49.000Z</time>
      </trkpt>
      <trkpt lat="43.93778" lon="7.30537">
        <ele>736.20001220703</ele>
        <time>2013-12-21T15:29:51.000Z</time>
      </trkpt>
      <trkpt lat="43.93773" lon="7.3053">
        <ele>734.20001220703</ele>
        <time>2013-12-21T15:29:57.000Z</time>
      </trkpt>
      <trkpt lat="43.93773" lon="7.30526">
        <ele>733.40002441406</ele>
        <time>2013-12-21T15:29:59.000Z</time>
      </trkpt>
      <trkpt lat="43.93773" lon="7.30518">
        <ele>732.40002441406</ele>
        <time>2013-12-21T15:30:02.000Z</time>
      </trkpt>
      <trkpt lat="43.93773" lon="7.30516">
        <ele>732.20001220703</ele>
        <time>2013-12-21T15:30:03.000Z</time>
      </trkpt>
      <trkpt lat="43.93776" lon="7.30511">
        <ele>731</ele>
        <time>2013-12-21T15:30:06.000Z</time>
      </trkpt>
      <trkpt lat="43.9378" lon="7.305">
        <ele>730</ele>
        <time>2013-12-21T15:30:09.000Z</time>
      </trkpt>
      <trkpt lat="43.93786" lon="7.30479">
        <ele>727.79998779297</ele>
        <time>2013-12-21T15:30:15.000Z</time>
      </trkpt>
      <trkpt lat="43.93791" lon="7.30462">
        <ele>726</ele>
        <time>2013-12-21T15:30:20.000Z</time>
      </trkpt>
      <trkpt lat="43.93791" lon="7.30458">
        <ele>725.59997558594</ele>
        <time>2013-12-21T15:30:21.000Z</time>
      </trkpt>
      <trkpt lat="43.93797" lon="7.30444">
        <ele>724</ele>
        <time>2013-12-21T15:30:25.000Z</time>
      </trkpt>
      <trkpt lat="43.93801" lon="7.30439">
        <ele>722</ele>
        <time>2013-12-21T15:30:30.000Z</time>
      </trkpt>
      <trkpt lat="43.93814" lon="7.30438">
        <ele>712</ele>
        <time>2013-12-21T15:31:09.000Z</time>
      </trkpt>
      <trkpt lat="43.93816" lon="7.3044">
        <ele>711.40002441406</ele>
        <time>2013-12-21T15:31:15.000Z</time>
      </trkpt>
      <trkpt lat="43.93815" lon="7.30439">
        <ele>710.59997558594</ele>
        <time>2013-12-21T15:31:21.000Z</time>
      </trkpt>
      <trkpt lat="43.93814" lon="7.30429">
        <ele>710.20001220703</ele>
        <time>2013-12-21T15:31:24.000Z</time>
      </trkpt>
      <trkpt lat="43.93807" lon="7.30413">
        <ele>709.40002441406</ele>
        <time>2013-12-21T15:31:28.000Z</time>
      </trkpt>
      <trkpt lat="43.93804" lon="7.30408">
        <ele>709.20001220703</ele>
        <time>2013-12-21T15:31:29.000Z</time>
      </trkpt>
      <trkpt lat="43.93792" lon="7.30391">
        <ele>708</ele>
        <time>2013-12-21T15:31:33.000Z</time>
      </trkpt>
      <trkpt lat="43.93782" lon="7.3037">
        <ele>706</ele>
        <time>2013-12-21T15:31:38.000Z</time>
      </trkpt>
      <trkpt lat="43.93776" lon="7.30348">
        <ele>703.79998779297</ele>
        <time>2013-12-21T15:31:43.000Z</time>
      </trkpt>
      <trkpt lat="43.93772" lon="7.30344">
        <ele>703.40002441406</ele>
        <time>2013-12-21T15:31:44.000Z</time>
      </trkpt>
      <trkpt lat="43.93762" lon="7.30335">
        <ele>702</ele>
        <time>2013-12-21T15:31:47.000Z</time>
      </trkpt>
      <trkpt lat="43.9375" lon="7.30323">
        <ele>699.40002441406</ele>
        <time>2013-12-21T15:31:52.000Z</time>
      </trkpt>
      <trkpt lat="43.93753" lon="7.30308">
        <ele>698</ele>
        <time>2013-12-21T15:31:55.000Z</time>
      </trkpt>
      <trkpt lat="43.93751" lon="7.30297">
        <ele>697.20001220703</ele>
        <time>2013-12-21T15:31:57.000Z</time>
      </trkpt>
      <trkpt lat="43.93756" lon="7.30273">
        <ele>695.20001220703</ele>
        <time>2013-12-21T15:32:01.000Z</time>
      </trkpt>
      <trkpt lat="43.93751" lon="7.30256">
        <ele>693.20001220703</ele>
        <time>2013-12-21T15:32:05.000Z</time>
      </trkpt>
      <trkpt lat="43.93745" lon="7.30226">
        <ele>690.59997558594</ele>
        <time>2013-12-21T15:32:10.000Z</time>
      </trkpt>
      <trkpt lat="43.93742" lon="7.30219">
        <ele>690</ele>
        <time>2013-12-21T15:32:11.000Z</time>
      </trkpt>
      <trkpt lat="43.93738" lon="7.3019">
        <ele>688</ele>
        <time>2013-12-21T15:32:15.000Z</time>
      </trkpt>
      <trkpt lat="43.93737" lon="7.3018">
        <ele>687.20001220703</ele>
        <time>2013-12-21T15:32:16.000Z</time>
      </trkpt>
      <trkpt lat="43.93744" lon="7.30162">
        <ele>686.20001220703</ele>
        <time>2013-12-21T15:32:18.000Z</time>
      </trkpt>
      <trkpt lat="43.93756" lon="7.30146">
        <ele>685.40002441406</ele>
        <time>2013-12-21T15:32:20.000Z</time>
      </trkpt>
      <trkpt lat="43.93757" lon="7.3014">
        <ele>685</ele>
        <time>2013-12-21T15:32:21.000Z</time>
      </trkpt>
      <trkpt lat="43.93753" lon="7.30132">
        <ele>684</ele>
        <time>2013-12-21T15:32:23.000Z</time>
      </trkpt>
      <trkpt lat="43.9375" lon="7.30126">
        <ele>683.59997558594</ele>
        <time>2013-12-21T15:32:24.000Z</time>
      </trkpt>
      <trkpt lat="43.93746" lon="7.30114">
        <ele>682.40002441406</ele>
        <time>2013-12-21T15:32:26.000Z</time>
      </trkpt>
      <trkpt lat="43.93736" lon="7.30096">
        <ele>680.79998779297</ele>
        <time>2013-12-21T15:32:29.000Z</time>
      </trkpt>
      <trkpt lat="43.93724" lon="7.30078">
        <ele>678.40002441406</ele>
        <time>2013-12-21T15:32:34.000Z</time>
      </trkpt>
      <trkpt lat="43.93712" lon="7.30063">
        <ele>676.59997558594</ele>
        <time>2013-12-21T15:32:38.000Z</time>
      </trkpt>
      <trkpt lat="43.93706" lon="7.30042">
        <ele>674.59997558594</ele>
        <time>2013-12-21T15:32:42.000Z</time>
      </trkpt>
      <trkpt lat="43.93704" lon="7.30037">
        <ele>674.20001220703</ele>
        <time>2013-12-21T15:32:43.000Z</time>
      </trkpt>
      <trkpt lat="43.937" lon="7.30024">
        <ele>673.40002441406</ele>
        <time>2013-12-21T15:32:45.000Z</time>
      </trkpt>
      <trkpt lat="43.93698" lon="7.3001">
        <ele>672.40002441406</ele>
        <time>2013-12-21T15:32:47.000Z</time>
      </trkpt>
      <trkpt lat="43.93699" lon="7.29996">
        <ele>671</ele>
        <time>2013-12-21T15:32:50.000Z</time>
      </trkpt>
      <trkpt lat="43.93704" lon="7.2999">
        <ele>670.59997558594</ele>
        <time>2013-12-21T15:32:51.000Z</time>
      </trkpt>
      <trkpt lat="43.93719" lon="7.2997">
        <ele>669.40002441406</ele>
        <time>2013-12-21T15:32:54.000Z</time>
      </trkpt>
      <trkpt lat="43.93724" lon="7.2996">
        <ele>668.40002441406</ele>
        <time>2013-12-21T15:32:56.000Z</time>
      </trkpt>
      <trkpt lat="43.93728" lon="7.29936">
        <ele>667</ele>
        <time>2013-12-21T15:32:59.000Z</time>
      </trkpt>
      <trkpt lat="43.93735" lon="7.29914">
        <ele>665.79998779297</ele>
        <time>2013-12-21T15:33:02.000Z</time>
      </trkpt>
      <trkpt lat="43.93735" lon="7.29909">
        <ele>665.20001220703</ele>
        <time>2013-12-21T15:33:03.000Z</time>
      </trkpt>
      <trkpt lat="43.9374" lon="7.29883">
        <ele>663.40002441406</ele>
        <time>2013-12-21T15:33:07.000Z</time>
      </trkpt>
      <trkpt lat="43.93739" lon="7.29878">
        <ele>663</ele>
        <time>2013-12-21T15:33:08.000Z</time>
      </trkpt>
      <trkpt lat="43.93734" lon="7.29863">
        <ele>661.20001220703</ele>
        <time>2013-12-21T15:33:12.000Z</time>
      </trkpt>
      <trkpt lat="43.93732" lon="7.29858">
        <ele>660.79998779297</ele>
        <time>2013-12-21T15:33:13.000Z</time>
      </trkpt>
      <trkpt lat="43.9372" lon="7.29838">
        <ele>659.20001220703</ele>
        <time>2013-12-21T15:33:17.000Z</time>
      </trkpt>
      <trkpt lat="43.9372" lon="7.29831">
        <ele>657.79998779297</ele>
        <time>2013-12-21T15:33:20.000Z</time>
      </trkpt>
      <trkpt lat="43.93723" lon="7.2983">
        <ele>657.40002441406</ele>
        <time>2013-12-21T15:33:21.000Z</time>
      </trkpt>
      <trkpt lat="43.93729" lon="7.29827">
        <ele>656.59997558594</ele>
        <time>2013-12-21T15:33:23.000Z</time>
      </trkpt>
      <trkpt lat="43.93738" lon="7.29821">
        <ele>655.59997558594</ele>
        <time>2013-12-21T15:33:26.000Z</time>
      </trkpt>
      <trkpt lat="43.93746" lon="7.29813">
        <ele>654.40002441406</ele>
        <time>2013-12-21T15:33:29.000Z</time>
      </trkpt>
      <trkpt lat="43.93749" lon="7.29809">
        <ele>653.79998779297</ele>
        <time>2013-12-21T15:33:31.000Z</time>
      </trkpt>
      <trkpt lat="43.93759" lon="7.29804">
        <ele>651.79998779297</ele>
        <time>2013-12-21T15:33:36.000Z</time>
      </trkpt>
      <trkpt lat="43.9376" lon="7.29802">
        <ele>651</ele>
        <time>2013-12-21T15:33:38.000Z</time>
      </trkpt>
      <trkpt lat="43.93761" lon="7.29802">
        <ele>650.20001220703</ele>
        <time>2013-12-21T15:33:40.000Z</time>
      </trkpt>
      <trkpt lat="43.93763" lon="7.29807">
        <ele>649.20001220703</ele>
        <time>2013-12-21T15:33:43.000Z</time>
      </trkpt>
      <trkpt lat="43.93765" lon="7.29806">
        <ele>648.20001220703</ele>
        <time>2013-12-21T15:33:45.000Z</time>
      </trkpt>
      <trkpt lat="43.93766" lon="7.29805">
        <ele>647.79998779297</ele>
        <time>2013-12-21T15:33:46.000Z</time>
      </trkpt>
      <trkpt lat="43.93771" lon="7.29797">
        <ele>646.59997558594</ele>
        <time>2013-12-21T15:33:49.000Z</time>
      </trkpt>
      <trkpt lat="43.93773" lon="7.29795">
        <ele>646.20001220703</ele>
        <time>2013-12-21T15:33:50.000Z</time>
      </trkpt>
      <trkpt lat="43.93785" lon="7.29783">
        <ele>644.59997558594</ele>
        <time>2013-12-21T15:33:54.000Z</time>
      </trkpt>
      <trkpt lat="43.93795" lon="7.29765">
        <ele>642.79998779297</ele>
        <time>2013-12-21T15:33:58.000Z</time>
      </trkpt>
      <trkpt lat="43.93797" lon="7.29763">
        <ele>642.20001220703</ele>
        <time>2013-12-21T15:33:59.000Z</time>
      </trkpt>
      <trkpt lat="43.93805" lon="7.29752">
        <ele>640.79998779297</ele>
        <time>2013-12-21T15:34:02.000Z</time>
      </trkpt>
      <trkpt lat="43.93807" lon="7.29745">
        <ele>639.79998779297</ele>
        <time>2013-12-21T15:34:04.000Z</time>
      </trkpt>
      <trkpt lat="43.93808" lon="7.2974">
        <ele>638.79998779297</ele>
        <time>2013-12-21T15:34:06.000Z</time>
      </trkpt>
      <trkpt lat="43.93809" lon="7.29739">
        <ele>638.20001220703</ele>
        <time>2013-12-21T15:34:07.000Z</time>
      </trkpt>
      <trkpt lat="43.93813" lon="7.29732">
        <ele>636.59997558594</ele>
        <time>2013-12-21T15:34:10.000Z</time>
      </trkpt>
      <trkpt lat="43.93816" lon="7.29725">
        <ele>635.59997558594</ele>
        <time>2013-12-21T15:34:12.000Z</time>
      </trkpt>
      <trkpt lat="43.9382" lon="7.29717">
        <ele>634</ele>
        <time>2013-12-21T15:34:15.000Z</time>
      </trkpt>
      <trkpt lat="43.93829" lon="7.29703">
        <ele>632</ele>
        <time>2013-12-21T15:34:19.000Z</time>
      </trkpt>
      <trkpt lat="43.93843" lon="7.29675">
        <ele>629.79998779297</ele>
        <time>2013-12-21T15:34:23.000Z</time>
      </trkpt>
      <trkpt lat="43.93849" lon="7.29666">
        <ele>628.59997558594</ele>
        <time>2013-12-21T15:34:25.000Z</time>
      </trkpt>
      <trkpt lat="43.93854" lon="7.2966">
        <ele>627.59997558594</ele>
        <time>2013-12-21T15:34:27.000Z</time>
      </trkpt>
      <trkpt lat="43.93856" lon="7.29661">
        <ele>627</ele>
        <time>2013-12-21T15:34:28.000Z</time>
      </trkpt>
      <trkpt lat="43.93859" lon="7.2966">
        <ele>626</ele>
        <time>2013-12-21T15:34:30.000Z</time>
      </trkpt>
      <trkpt lat="43.9386" lon="7.29659">
        <ele>625.40002441406</ele>
        <time>2013-12-21T15:34:31.000Z</time>
      </trkpt>
      <trkpt lat="43.93862" lon="7.29657">
        <ele>623.79998779297</ele>
        <time>2013-12-21T15:34:34.000Z</time>
      </trkpt>
      <trkpt lat="43.93862" lon="7.29657">
        <ele>623.40002441406</ele>
        <time>2013-12-21T15:34:35.000Z</time>
      </trkpt>
      <trkpt lat="43.93864" lon="7.29658">
        <ele>622.40002441406</ele>
        <time>2013-12-21T15:34:37.000Z</time>
      </trkpt>
      <trkpt lat="43.93866" lon="7.29658">
        <ele>622</ele>
        <time>2013-12-21T15:34:38.000Z</time>
      </trkpt>
      <trkpt lat="43.93875" lon="7.29651">
        <ele>620.20001220703</ele>
        <time>2013-12-21T15:34:42.000Z</time>
      </trkpt>
      <trkpt lat="43.93887" lon="7.29642">
        <ele>617.59997558594</ele>
        <time>2013-12-21T15:34:48.000Z</time>
      </trkpt>
      <trkpt lat="43.93889" lon="7.2964">
        <ele>616.59997558594</ele>
        <time>2013-12-21T15:34:50.000Z</time>
      </trkpt>
      <trkpt lat="43.9389" lon="7.2964">
        <ele>615.79998779297</ele>
        <time>2013-12-21T15:34:52.000Z</time>
      </trkpt>
      <trkpt lat="43.93893" lon="7.2964">
        <ele>612.40002441406</ele>
        <time>2013-12-21T15:35:00.000Z</time>
      </trkpt>
      <trkpt lat="43.93901" lon="7.29635">
        <ele>580.59997558594</ele>
        <time>2013-12-21T15:37:19.000Z</time>
      </trkpt>
      <trkpt lat="43.93908" lon="7.2963">
        <ele>580.20001220703</ele>
        <time>2013-12-21T15:37:23.000Z</time>
      </trkpt>
      <trkpt lat="43.93911" lon="7.29623">
        <ele>579.79998779297</ele>
        <time>2013-12-21T15:37:26.000Z</time>
      </trkpt>
      <trkpt lat="43.93915" lon="7.29621">
        <ele>579.40002441406</ele>
        <time>2013-12-21T15:37:28.000Z</time>
      </trkpt>
      <trkpt lat="43.93924" lon="7.29614">
        <ele>579</ele>
        <time>2013-12-21T15:37:32.000Z</time>
      </trkpt>
      <trkpt lat="43.9393" lon="7.29609">
        <ele>578.20001220703</ele>
        <time>2013-12-21T15:37:36.000Z</time>
      </trkpt>
      <trkpt lat="43.93933" lon="7.29603">
        <ele>577.59997558594</ele>
        <time>2013-12-21T15:37:39.000Z</time>
      </trkpt>
      <trkpt lat="43.93934" lon="7.29603">
        <ele>577.40002441406</ele>
        <time>2013-12-21T15:37:40.000Z</time>
      </trkpt>
      <trkpt lat="43.9394" lon="7.29594">
        <ele>576.20001220703</ele>
        <time>2013-12-21T15:37:45.000Z</time>
      </trkpt>
      <trkpt lat="43.93941" lon="7.29591">
        <ele>575.79998779297</ele>
        <time>2013-12-21T15:37:46.000Z</time>
      </trkpt>
      <trkpt lat="43.93948" lon="7.29573">
        <ele>574.20001220703</ele>
        <time>2013-12-21T15:37:51.000Z</time>
      </trkpt>
      <trkpt lat="43.93949" lon="7.2957">
        <ele>573.40002441406</ele>
        <time>2013-12-21T15:37:53.000Z</time>
      </trkpt>
      <trkpt lat="43.9395" lon="7.29566">
        <ele>572.79998779297</ele>
        <time>2013-12-21T15:37:55.000Z</time>
      </trkpt>
      <trkpt lat="43.93953" lon="7.29556">
        <ele>571.59997558594</ele>
        <time>2013-12-21T15:37:58.000Z</time>
      </trkpt>
      <trkpt lat="43.93952" lon="7.29553">
        <ele>571.20001220703</ele>
        <time>2013-12-21T15:37:59.000Z</time>
      </trkpt>
      <trkpt lat="43.93946" lon="7.29543">
        <ele>569.79998779297</ele>
        <time>2013-12-21T15:38:03.000Z</time>
      </trkpt>
      <trkpt lat="43.93946" lon="7.29541">
        <ele>568</ele>
        <time>2013-12-21T15:38:08.000Z</time>
      </trkpt>
      <trkpt lat="43.93945" lon="7.29541">
        <ele>567.59997558594</ele>
        <time>2013-12-21T15:38:09.000Z</time>
      </trkpt>
      <trkpt lat="43.93944" lon="7.2954">
        <ele>566.20001220703</ele>
        <time>2013-12-21T15:38:13.000Z</time>
      </trkpt>
      <trkpt lat="43.93942" lon="7.29539">
        <ele>565.79998779297</ele>
        <time>2013-12-21T15:38:14.000Z</time>
      </trkpt>
      <trkpt lat="43.93938" lon="7.29534">
        <ele>564.20001220703</ele>
        <time>2013-12-21T15:38:18.000Z</time>
      </trkpt>
      <trkpt lat="43.93936" lon="7.29533">
        <ele>563.59997558594</ele>
        <time>2013-12-21T15:38:20.000Z</time>
      </trkpt>
      <trkpt lat="43.93929" lon="7.29527">
        <ele>562.40002441406</ele>
        <time>2013-12-21T15:38:23.000Z</time>
      </trkpt>
      <trkpt lat="43.93913" lon="7.29516">
        <ele>560.59997558594</ele>
        <time>2013-12-21T15:38:28.000Z</time>
      </trkpt>
      <trkpt lat="43.9391" lon="7.29505">
        <ele>560</ele>
        <time>2013-12-21T15:38:30.000Z</time>
      </trkpt>
      <trkpt lat="43.93909" lon="7.29494">
        <ele>559.59997558594</ele>
        <time>2013-12-21T15:38:31.000Z</time>
      </trkpt>
      <trkpt lat="43.93906" lon="7.29475">
        <ele>559</ele>
        <time>2013-12-21T15:38:33.000Z</time>
      </trkpt>
      <trkpt lat="43.93903" lon="7.29461">
        <ele>558.40002441406</ele>
        <time>2013-12-21T15:38:35.000Z</time>
      </trkpt>
      <trkpt lat="43.93904" lon="7.29457">
        <ele>558</ele>
        <time>2013-12-21T15:38:36.000Z</time>
      </trkpt>
      <trkpt lat="43.93903" lon="7.29452">
        <ele>557.40002441406</ele>
        <time>2013-12-21T15:38:38.000Z</time>
      </trkpt>
      <trkpt lat="43.93903" lon="7.29445">
        <ele>556.79998779297</ele>
        <time>2013-12-21T15:38:40.000Z</time>
      </trkpt>
      <trkpt lat="43.93904" lon="7.29439">
        <ele>556.20001220703</ele>
        <time>2013-12-21T15:38:42.000Z</time>
      </trkpt>
      <trkpt lat="43.93904" lon="7.29436">
        <ele>556</ele>
        <time>2013-12-21T15:38:43.000Z</time>
      </trkpt>
      <trkpt lat="43.93904" lon="7.29428">
        <ele>554.79998779297</ele>
        <time>2013-12-21T15:38:47.000Z</time>
      </trkpt>
      <trkpt lat="43.93904" lon="7.29426">
        <ele>552.40002441406</ele>
        <time>2013-12-21T15:38:55.000Z</time>
      </trkpt>
      <trkpt lat="43.93904" lon="7.29424">
        <ele>550.79998779297</ele>
        <time>2013-12-21T15:39:00.000Z</time>
      </trkpt>
      <trkpt lat="43.93905" lon="7.29417">
        <ele>548.20001220703</ele>
        <time>2013-12-21T15:39:08.000Z</time>
      </trkpt>
      <trkpt lat="43.93909" lon="7.29414">
        <ele>546.20001220703</ele>
        <time>2013-12-21T15:39:14.000Z</time>
      </trkpt>
      <trkpt lat="43.9391" lon="7.29414">
        <ele>546</ele>
        <time>2013-12-21T15:39:15.000Z</time>
      </trkpt>
      <trkpt lat="43.9391" lon="7.2941">
        <ele>544.59997558594</ele>
        <time>2013-12-21T15:39:19.000Z</time>
      </trkpt>
      <trkpt lat="43.93912" lon="7.29405">
        <ele>542.79998779297</ele>
        <time>2013-12-21T15:39:24.000Z</time>
      </trkpt>
      <trkpt lat="43.93916" lon="7.29386">
        <ele>541.40002441406</ele>
        <time>2013-12-21T15:39:29.000Z</time>
      </trkpt>
      <trkpt lat="43.93927" lon="7.29358">
        <ele>539.79998779297</ele>
        <time>2013-12-21T15:39:35.000Z</time>
      </trkpt>
      <trkpt lat="43.93933" lon="7.29342">
        <ele>538.40002441406</ele>
        <time>2013-12-21T15:39:41.000Z</time>
      </trkpt>
      <trkpt lat="43.93935" lon="7.29338">
        <ele>538</ele>
        <time>2013-12-21T15:39:43.000Z</time>
      </trkpt>
      <trkpt lat="43.93937" lon="7.29327">
        <ele>537.20001220703</ele>
        <time>2013-12-21T15:39:46.000Z</time>
      </trkpt>
      <trkpt lat="43.93939" lon="7.29319">
        <ele>536.79998779297</ele>
        <time>2013-12-21T15:39:48.000Z</time>
      </trkpt>
      <trkpt lat="43.93945" lon="7.29305">
        <ele>536</ele>
        <time>2013-12-21T15:39:52.000Z</time>
      </trkpt>
      <trkpt lat="43.9395" lon="7.2929">
        <ele>534.79998779297</ele>
        <time>2013-12-21T15:39:57.000Z</time>
      </trkpt>
      <trkpt lat="43.93951" lon="7.29291">
        <ele>534</ele>
        <time>2013-12-21T15:40:01.000Z</time>
      </trkpt>
      <trkpt lat="43.93961" lon="7.29281">
        <ele>526</ele>
        <time>2013-12-21T15:40:55.000Z</time>
      </trkpt>
      <trkpt lat="43.93965" lon="7.29272">
        <ele>526</ele>
        <time>2013-12-21T15:41:00.000Z</time>
      </trkpt>
      <trkpt lat="43.93977" lon="7.29266">
        <ele>526</ele>
        <time>2013-12-21T15:41:04.000Z</time>
      </trkpt>
      <trkpt lat="43.93978" lon="7.29264">
        <ele>526</ele>
        <time>2013-12-21T15:41:05.000Z</time>
      </trkpt>
      <trkpt lat="43.93982" lon="7.29257">
        <ele>526</ele>
        <time>2013-12-21T15:41:07.000Z</time>
      </trkpt>
      <trkpt lat="43.93986" lon="7.2924">
        <ele>526</ele>
        <time>2013-12-21T15:41:11.000Z</time>
      </trkpt>
      <trkpt lat="43.93989" lon="7.29233">
        <ele>526.20001220703</ele>
        <time>2013-12-21T15:41:15.000Z</time>
      </trkpt>
      <trkpt lat="43.94003" lon="7.29227">
        <ele>526.59997558594</ele>
        <time>2013-12-21T15:41:28.000Z</time>
      </trkpt>
      <trkpt lat="43.94004" lon="7.29225">
        <ele>527.59997558594</ele>
        <time>2013-12-21T15:41:32.000Z</time>
      </trkpt>
      <trkpt lat="43.94005" lon="7.29222">
        <ele>529.40002441406</ele>
        <time>2013-12-21T15:41:38.000Z</time>
      </trkpt>
      <trkpt lat="43.94011" lon="7.29219">
        <ele>531</ele>
        <time>2013-12-21T15:41:42.000Z</time>
      </trkpt>
      <trkpt lat="43.94014" lon="7.2922">
        <ele>532</ele>
        <time>2013-12-21T15:41:44.000Z</time>
      </trkpt>
      <trkpt lat="43.94013" lon="7.29214">
        <ele>533.40002441406</ele>
        <time>2013-12-21T15:41:49.000Z</time>
      </trkpt>
      <trkpt lat="43.94004" lon="7.2921">
        <ele>536.59997558594</ele>
        <time>2013-12-21T15:42:02.000Z</time>
      </trkpt>
      <trkpt lat="43.94002" lon="7.29217">
        <ele>538</ele>
        <time>2013-12-21T15:42:07.000Z</time>
      </trkpt>
      <trkpt lat="43.94002" lon="7.29219">
        <ele>538.40002441406</ele>
        <time>2013-12-21T15:42:08.000Z</time>
      </trkpt>
      <trkpt lat="43.94001" lon="7.29223">
        <ele>539.40002441406</ele>
        <time>2013-12-21T15:42:11.000Z</time>
      </trkpt>
      <trkpt lat="43.94001" lon="7.29223">
        <ele>539.59997558594</ele>
        <time>2013-12-21T15:42:13.000Z</time>
      </trkpt>
      <trkpt lat="43.94002" lon="7.29224">
        <ele>539.79998779297</ele>
        <time>2013-12-21T15:42:14.000Z</time>
      </trkpt>
      <trkpt lat="43.94009" lon="7.29223">
        <ele>540.59997558594</ele>
        <time>2013-12-21T15:42:17.000Z</time>
      </trkpt>
      <trkpt lat="43.94012" lon="7.29221">
        <ele>540.79998779297</ele>
        <time>2013-12-21T15:42:18.000Z</time>
      </trkpt>
      <trkpt lat="43.94023" lon="7.29218">
        <ele>541</ele>
        <time>2013-12-21T15:42:22.000Z</time>
      </trkpt>
      <trkpt lat="43.94031" lon="7.29218">
        <ele>541.40002441406</ele>
        <time>2013-12-21T15:42:26.000Z</time>
      </trkpt>
      <trkpt lat="43.94042" lon="7.29228">
        <ele>542.20001220703</ele>
        <time>2013-12-21T15:42:31.000Z</time>
      </trkpt>
      <trkpt lat="43.94054" lon="7.29216">
        <ele>541.59997558594</ele>
        <time>2013-12-21T15:42:35.000Z</time>
      </trkpt>
      <trkpt lat="43.94071" lon="7.29221">
        <ele>541.59997558594</ele>
        <time>2013-12-21T15:42:39.000Z</time>
      </trkpt>
      <trkpt lat="43.94075" lon="7.29222">
        <ele>541.59997558594</ele>
        <time>2013-12-21T15:42:40.000Z</time>
      </trkpt>
      <trkpt lat="43.94081" lon="7.29218">
        <ele>541.40002441406</ele>
        <time>2013-12-21T15:42:42.000Z</time>
      </trkpt>
      <trkpt lat="43.94084" lon="7.29215">
        <ele>541.20001220703</ele>
        <time>2013-12-21T15:42:43.000Z</time>
      </trkpt>
      <trkpt lat="43.94095" lon="7.2921">
        <ele>540.79998779297</ele>
        <time>2013-12-21T15:42:48.000Z</time>
      </trkpt>
      <trkpt lat="43.94096" lon="7.2921">
        <ele>540.59997558594</ele>
        <time>2013-12-21T15:42:53.000Z</time>
      </trkpt>
      <trkpt lat="43.94103" lon="7.29198">
        <ele>539.59997558594</ele>
        <time>2013-12-21T15:43:00.000Z</time>
      </trkpt>
      <trkpt lat="43.94103" lon="7.29194">
        <ele>539</ele>
        <time>2013-12-21T15:43:05.000Z</time>
      </trkpt>
      <trkpt lat="43.94104" lon="7.29192">
        <ele>538.79998779297</ele>
        <time>2013-12-21T15:43:06.000Z</time>
      </trkpt>
      <trkpt lat="43.94103" lon="7.29188">
        <ele>538.20001220703</ele>
        <time>2013-12-21T15:43:09.000Z</time>
      </trkpt>
      <trkpt lat="43.94102" lon="7.29177">
        <ele>537.59997558594</ele>
        <time>2013-12-21T15:43:12.000Z</time>
      </trkpt>
      <trkpt lat="43.94104" lon="7.29164">
        <ele>536.40002441406</ele>
        <time>2013-12-21T15:43:17.000Z</time>
      </trkpt>
      <trkpt lat="43.94105" lon="7.29156">
        <ele>535</ele>
        <time>2013-12-21T15:43:22.000Z</time>
      </trkpt>
      <trkpt lat="43.94104" lon="7.29153">
        <ele>534.40002441406</ele>
        <time>2013-12-21T15:43:24.000Z</time>
      </trkpt>
      <trkpt lat="43.94102" lon="7.29147">
        <ele>533.59997558594</ele>
        <time>2013-12-21T15:43:27.000Z</time>
      </trkpt>
      <trkpt lat="43.94109" lon="7.29133">
        <ele>533</ele>
        <time>2013-12-21T15:43:30.000Z</time>
      </trkpt>
      <trkpt lat="43.94112" lon="7.29127">
        <ele>532.79998779297</ele>
        <time>2013-12-21T15:43:31.000Z</time>
      </trkpt>
      <trkpt lat="43.94124" lon="7.29111">
        <ele>532.20001220703</ele>
        <time>2013-12-21T15:43:35.000Z</time>
      </trkpt>
      <trkpt lat="43.94124" lon="7.29098">
        <ele>531.40002441406</ele>
        <time>2013-12-21T15:43:40.000Z</time>
      </trkpt>
      <trkpt lat="43.94125" lon="7.29084">
        <ele>530.79998779297</ele>
        <time>2013-12-21T15:43:45.000Z</time>
      </trkpt>
      <trkpt lat="43.94121" lon="7.29076">
        <ele>530</ele>
        <time>2013-12-21T15:43:50.000Z</time>
      </trkpt>
      <trkpt lat="43.94122" lon="7.29073">
        <ele>529.59997558594</ele>
        <time>2013-12-21T15:43:52.000Z</time>
      </trkpt>
      <trkpt lat="43.9412" lon="7.29069">
        <ele>529</ele>
        <time>2013-12-21T15:43:55.000Z</time>
      </trkpt>
      <trkpt lat="43.94122" lon="7.29064">
        <ele>528.59997558594</ele>
        <time>2013-12-21T15:43:57.000Z</time>
      </trkpt>
      <trkpt lat="43.94122" lon="7.2906">
        <ele>528.20001220703</ele>
        <time>2013-12-21T15:43:59.000Z</time>
      </trkpt>
      <trkpt lat="43.94119" lon="7.29042">
        <ele>527</ele>
        <time>2013-12-21T15:44:03.000Z</time>
      </trkpt>
      <trkpt lat="43.94115" lon="7.2903">
        <ele>526.40002441406</ele>
        <time>2013-12-21T15:44:05.000Z</time>
      </trkpt>
      <trkpt lat="43.94116" lon="7.29019">
        <ele>525.40002441406</ele>
        <time>2013-12-21T15:44:08.000Z</time>
      </trkpt>
      <trkpt lat="43.94123" lon="7.29">
        <ele>523.79998779297</ele>
        <time>2013-12-21T15:44:13.000Z</time>
      </trkpt>
      <trkpt lat="43.94123" lon="7.29001">
        <ele>523</ele>
        <time>2013-12-21T15:44:17.000Z</time>
      </trkpt>
      <trkpt lat="43.94132" lon="7.29">
        <ele>523</ele>
        <time>2013-12-21T15:44:23.000Z</time>
      </trkpt>
      <trkpt lat="43.94136" lon="7.28997">
        <ele>523.40002441406</ele>
        <time>2013-12-21T15:44:28.000Z</time>
      </trkpt>
      <trkpt lat="43.94137" lon="7.28996">
        <ele>523.79998779297</ele>
        <time>2013-12-21T15:44:31.000Z</time>
      </trkpt>
      <trkpt lat="43.94138" lon="7.28995">
        <ele>524.40002441406</ele>
        <time>2013-12-21T15:44:33.000Z</time>
      </trkpt>
      <trkpt lat="43.9414" lon="7.28993">
        <ele>524.79998779297</ele>
        <time>2013-12-21T15:44:35.000Z</time>
      </trkpt>
      <trkpt lat="43.94144" lon="7.28987">
        <ele>525.59997558594</ele>
        <time>2013-12-21T15:44:39.000Z</time>
      </trkpt>
      <trkpt lat="43.94145" lon="7.28987">
        <ele>525.79998779297</ele>
        <time>2013-12-21T15:44:40.000Z</time>
      </trkpt>
      <trkpt lat="43.9415" lon="7.28982">
        <ele>526.40002441406</ele>
        <time>2013-12-21T15:44:45.000Z</time>
      </trkpt>
      <trkpt lat="43.94151" lon="7.28981">
        <ele>526.59997558594</ele>
        <time>2013-12-21T15:44:46.000Z</time>
      </trkpt>
      <trkpt lat="43.94153" lon="7.2898">
        <ele>527</ele>
        <time>2013-12-21T15:44:49.000Z</time>
      </trkpt>
      <trkpt lat="43.94153" lon="7.28979">
        <ele>527.20001220703</ele>
        <time>2013-12-21T15:44:50.000Z</time>
      </trkpt>
      <trkpt lat="43.94155" lon="7.28979">
        <ele>527.20001220703</ele>
        <time>2013-12-21T15:44:52.000Z</time>
      </trkpt>
      <trkpt lat="43.94156" lon="7.28978">
        <ele>527.59997558594</ele>
        <time>2013-12-21T15:44:55.000Z</time>
      </trkpt>
      <trkpt lat="43.9416" lon="7.28975">
        <ele>528.79998779297</ele>
        <time>2013-12-21T15:45:02.000Z</time>
      </trkpt>
      <trkpt lat="43.94163" lon="7.28972">
        <ele>528.40002441406</ele>
        <time>2013-12-21T15:45:05.000Z</time>
      </trkpt>
      <trkpt lat="43.94165" lon="7.2897">
        <ele>528.40002441406</ele>
        <time>2013-12-21T15:45:07.000Z</time>
      </trkpt>
      <trkpt lat="43.94166" lon="7.28965">
        <ele>528.40002441406</ele>
        <time>2013-12-21T15:45:10.000Z</time>
      </trkpt>
      <trkpt lat="43.94166" lon="7.28963">
        <ele>528.40002441406</ele>
        <time>2013-12-21T15:45:12.000Z</time>
      </trkpt>
      <trkpt lat="43.94167" lon="7.28961">
        <ele>528.20001220703</ele>
        <time>2013-12-21T15:45:14.000Z</time>
      </trkpt>
      <trkpt lat="43.94167" lon="7.2896">
        <ele>528</ele>
        <time>2013-12-21T15:45:15.000Z</time>
      </trkpt>
      <trkpt lat="43.94169" lon="7.28957">
        <ele>528</ele>
        <time>2013-12-21T15:45:19.000Z</time>
      </trkpt>
      <trkpt lat="43.94169" lon="7.28957">
        <ele>527.79998779297</ele>
        <time>2013-12-21T15:45:20.000Z</time>
      </trkpt>
      <trkpt lat="43.94171" lon="7.28955">
        <ele>527.79998779297</ele>
        <time>2013-12-21T15:45:24.000Z</time>
      </trkpt>
      <trkpt lat="43.94176" lon="7.28954">
        <ele>527.79998779297</ele>
        <time>2013-12-21T15:45:26.000Z</time>
      </trkpt>
      <trkpt lat="43.94189" lon="7.28949">
        <ele>527.59997558594</ele>
        <time>2013-12-21T15:45:30.000Z</time>
      </trkpt>
      <trkpt lat="43.94195" lon="7.28941">
        <ele>527.79998779297</ele>
        <time>2013-12-21T15:45:34.000Z</time>
      </trkpt>
      <trkpt lat="43.94198" lon="7.28934">
        <ele>527.40002441406</ele>
        <time>2013-12-21T15:45:37.000Z</time>
      </trkpt>
      <trkpt lat="43.94202" lon="7.28935">
        <ele>527.20001220703</ele>
        <time>2013-12-21T15:45:39.000Z</time>
      </trkpt>
      <trkpt lat="43.94205" lon="7.28932">
        <ele>527</ele>
        <time>2013-12-21T15:45:41.000Z</time>
      </trkpt>
      <trkpt lat="43.94203" lon="7.28929">
        <ele>526.59997558594</ele>
        <time>2013-12-21T15:45:43.000Z</time>
      </trkpt>
      <trkpt lat="43.94197" lon="7.28917">
        <ele>525.59997558594</ele>
        <time>2013-12-21T15:45:49.000Z</time>
      </trkpt>
      <trkpt lat="43.94194" lon="7.28915">
        <ele>524.59997558594</ele>
        <time>2013-12-21T15:45:55.000Z</time>
      </trkpt>
      <trkpt lat="43.94193" lon="7.28912">
        <ele>523</ele>
        <time>2013-12-21T15:46:03.000Z</time>
      </trkpt>
      <trkpt lat="43.94192" lon="7.28908">
        <ele>521.79998779297</ele>
        <time>2013-12-21T15:46:10.000Z</time>
      </trkpt>
      <trkpt lat="43.94191" lon="7.28903">
        <ele>520.79998779297</ele>
        <time>2013-12-21T15:46:17.000Z</time>
      </trkpt>
      <trkpt lat="43.94187" lon="7.289">
        <ele>519.79998779297</ele>
        <time>2013-12-21T15:46:24.000Z</time>
      </trkpt>
      <trkpt lat="43.94188" lon="7.28897">
        <ele>519</ele>
        <time>2013-12-21T15:46:30.000Z</time>
      </trkpt>
      <trkpt lat="43.9419" lon="7.28895">
        <ele>518</ele>
        <time>2013-12-21T15:46:35.000Z</time>
      </trkpt>
      <trkpt lat="43.94189" lon="7.28893">
        <ele>517.20001220703</ele>
        <time>2013-12-21T15:46:40.000Z</time>
      </trkpt>
      <trkpt lat="43.94184" lon="7.2889">
        <ele>516.20001220703</ele>
        <time>2013-12-21T15:46:45.000Z</time>
      </trkpt>
      <trkpt lat="43.9418" lon="7.28886">
        <ele>515.40002441406</ele>
        <time>2013-12-21T15:46:49.000Z</time>
      </trkpt>
      <trkpt lat="43.94179" lon="7.28886">
        <ele>515</ele>
        <time>2013-12-21T15:46:51.000Z</time>
      </trkpt>
      <trkpt lat="43.94182" lon="7.28887">
        <ele>513.79998779297</ele>
        <time>2013-12-21T15:46:59.000Z</time>
      </trkpt>
      <trkpt lat="43.94174" lon="7.28885">
        <ele>511.60000610352</ele>
        <time>2013-12-21T15:47:09.000Z</time>
      </trkpt>
      <trkpt lat="43.94168" lon="7.28882">
        <ele>510.39999389648</ele>
        <time>2013-12-21T15:47:13.000Z</time>
      </trkpt>
      <trkpt lat="43.94168" lon="7.28881">
        <ele>510</ele>
        <time>2013-12-21T15:47:14.000Z</time>
      </trkpt>
      <trkpt lat="43.94172" lon="7.28882">
        <ele>508.39999389648</ele>
        <time>2013-12-21T15:47:19.000Z</time>
      </trkpt>
      <trkpt lat="43.94173" lon="7.28878">
        <ele>507</ele>
        <time>2013-12-21T15:47:24.000Z</time>
      </trkpt>
      <trkpt lat="43.94172" lon="7.28873">
        <ele>504</ele>
        <time>2013-12-21T15:47:36.000Z</time>
      </trkpt>
      <trkpt lat="43.94173" lon="7.28871">
        <ele>501.60000610352</ele>
        <time>2013-12-21T15:47:46.000Z</time>
      </trkpt>
      <trkpt lat="43.94172" lon="7.28875">
        <ele>499.79998779297</ele>
        <time>2013-12-21T15:47:59.000Z</time>
      </trkpt>
      <trkpt lat="43.94171" lon="7.28874">
        <ele>499.60000610352</ele>
        <time>2013-12-21T15:48:00.000Z</time>
      </trkpt>
      <trkpt lat="43.94169" lon="7.28872">
        <ele>499.20001220703</ele>
        <time>2013-12-21T15:48:02.000Z</time>
      </trkpt>
      <trkpt lat="43.94169" lon="7.28871">
        <ele>499</ele>
        <time>2013-12-21T15:48:03.000Z</time>
      </trkpt>
      <trkpt lat="43.94163" lon="7.28863">
        <ele>498.20001220703</ele>
        <time>2013-12-21T15:48:07.000Z</time>
      </trkpt>
      <trkpt lat="43.9416" lon="7.28859">
        <ele>497.79998779297</ele>
        <time>2013-12-21T15:48:09.000Z</time>
      </trkpt>
      <trkpt lat="43.94157" lon="7.28856">
        <ele>497.20001220703</ele>
        <time>2013-12-21T15:48:11.000Z</time>
      </trkpt>
      <trkpt lat="43.94156" lon="7.28854">
        <ele>496.39999389648</ele>
        <time>2013-12-21T15:48:15.000Z</time>
      </trkpt>
      <trkpt lat="43.94155" lon="7.28854">
        <ele>494.79998779297</ele>
        <time>2013-12-21T15:48:21.000Z</time>
      </trkpt>
      <trkpt lat="43.94152" lon="7.28853">
        <ele>493</ele>
        <time>2013-12-21T15:48:27.000Z</time>
      </trkpt>
      <trkpt lat="43.94149" lon="7.2885">
        <ele>491.60000610352</ele>
        <time>2013-12-21T15:48:32.000Z</time>
      </trkpt>
      <trkpt lat="43.94147" lon="7.28846">
        <ele>490.79998779297</ele>
        <time>2013-12-21T15:48:35.000Z</time>
      </trkpt>
      <trkpt lat="43.94143" lon="7.28845">
        <ele>490</ele>
        <time>2013-12-21T15:48:38.000Z</time>
      </trkpt>
      <trkpt lat="43.94135" lon="7.2884">
        <ele>488.79998779297</ele>
        <time>2013-12-21T15:48:43.000Z</time>
      </trkpt>
      <trkpt lat="43.94128" lon="7.28834">
        <ele>488</ele>
        <time>2013-12-21T15:48:46.000Z</time>
      </trkpt>
      <trkpt lat="43.94122" lon="7.2883">
        <ele>487.60000610352</ele>
        <time>2013-12-21T15:48:48.000Z</time>
      </trkpt>
      <trkpt lat="43.94112" lon="7.2881">
        <ele>486.79998779297</ele>
        <time>2013-12-21T15:48:52.000Z</time>
      </trkpt>
      <trkpt lat="43.94108" lon="7.28802">
        <ele>485.79998779297</ele>
        <time>2013-12-21T15:48:56.000Z</time>
      </trkpt>
      <trkpt lat="43.94106" lon="7.28798">
        <ele>483</ele>
        <time>2013-12-21T15:49:07.000Z</time>
      </trkpt>
      <trkpt lat="43.94104" lon="7.28796">
        <ele>481.60000610352</ele>
        <time>2013-12-21T15:49:13.000Z</time>
      </trkpt>
      <trkpt lat="43.94102" lon="7.28792">
        <ele>480.39999389648</ele>
        <time>2013-12-21T15:49:19.000Z</time>
      </trkpt>
      <trkpt lat="43.94097" lon="7.28785">
        <ele>479.20001220703</ele>
        <time>2013-12-21T15:49:24.000Z</time>
      </trkpt>
      <trkpt lat="43.94094" lon="7.28781">
        <ele>477.79998779297</ele>
        <time>2013-12-21T15:49:29.000Z</time>
      </trkpt>
      <trkpt lat="43.94098" lon="7.28779">
        <ele>476.60000610352</ele>
        <time>2013-12-21T15:49:34.000Z</time>
      </trkpt>
      <trkpt lat="43.94101" lon="7.28777">
        <ele>476.20001220703</ele>
        <time>2013-12-21T15:49:36.000Z</time>
      </trkpt>
      <trkpt lat="43.94103" lon="7.28778">
        <ele>475.79998779297</ele>
        <time>2013-12-21T15:49:38.000Z</time>
      </trkpt>
      <trkpt lat="43.94105" lon="7.28777">
        <ele>475</ele>
        <time>2013-12-21T15:49:41.000Z</time>
      </trkpt>
      <trkpt lat="43.9411" lon="7.28778">
        <ele>474.60000610352</ele>
        <time>2013-12-21T15:49:43.000Z</time>
      </trkpt>
      <trkpt lat="43.94122" lon="7.28782">
        <ele>473.60000610352</ele>
        <time>2013-12-21T15:49:48.000Z</time>
      </trkpt>
      <trkpt lat="43.94127" lon="7.28783">
        <ele>473</ele>
        <time>2013-12-21T15:49:50.000Z</time>
      </trkpt>
      <trkpt lat="43.94133" lon="7.28783">
        <ele>472.39999389648</ele>
        <time>2013-12-21T15:49:53.000Z</time>
      </trkpt>
      <trkpt lat="43.94141" lon="7.28781">
        <ele>471</ele>
        <time>2013-12-21T15:49:58.000Z</time>
      </trkpt>
      <trkpt lat="43.94147" lon="7.28779">
        <ele>470.20001220703</ele>
        <time>2013-12-21T15:50:01.000Z</time>
      </trkpt>
      <trkpt lat="43.94151" lon="7.28779">
        <ele>469.60000610352</ele>
        <time>2013-12-21T15:50:03.000Z</time>
      </trkpt>
      <trkpt lat="43.94154" lon="7.28777">
        <ele>468.39999389648</ele>
        <time>2013-12-21T15:50:07.000Z</time>
      </trkpt>
      <trkpt lat="43.94153" lon="7.28776">
        <ele>467.79998779297</ele>
        <time>2013-12-21T15:50:09.000Z</time>
      </trkpt>
      <trkpt lat="43.94148" lon="7.2877">
        <ele>467.20001220703</ele>
        <time>2013-12-21T15:50:11.000Z</time>
      </trkpt>
      <trkpt lat="43.94136" lon="7.28763">
        <ele>465.60000610352</ele>
        <time>2013-12-21T15:50:15.000Z</time>
      </trkpt>
      <trkpt lat="43.94134" lon="7.28762">
        <ele>465.20001220703</ele>
        <time>2013-12-21T15:50:16.000Z</time>
      </trkpt>
      <trkpt lat="43.94125" lon="7.28754">
        <ele>463.60000610352</ele>
        <time>2013-12-21T15:50:20.000Z</time>
      </trkpt>
      <trkpt lat="43.94117" lon="7.28747">
        <ele>461.60000610352</ele>
        <time>2013-12-21T15:50:24.000Z</time>
      </trkpt>
      <trkpt lat="43.94112" lon="7.28739">
        <ele>459.20001220703</ele>
        <time>2013-12-21T15:50:29.000Z</time>
      </trkpt>
      <trkpt lat="43.94108" lon="7.28735">
        <ele>457.20001220703</ele>
        <time>2013-12-21T15:50:33.000Z</time>
      </trkpt>
      <trkpt lat="43.94108" lon="7.28735">
        <ele>456.79998779297</ele>
        <time>2013-12-21T15:50:34.000Z</time>
      </trkpt>
      <trkpt lat="43.94107" lon="7.28733">
        <ele>454.39999389648</ele>
        <time>2013-12-21T15:50:39.000Z</time>
      </trkpt>
      <trkpt lat="43.94107" lon="7.28724">
        <ele>450.60000610352</ele>
        <time>2013-12-21T15:50:49.000Z</time>
      </trkpt>
      <trkpt lat="43.94107" lon="7.28721">
        <ele>448.79998779297</ele>
        <time>2013-12-21T15:50:54.000Z</time>
      </trkpt>
      <trkpt lat="43.94103" lon="7.28719">
        <ele>443.60000610352</ele>
        <time>2013-12-21T15:51:07.000Z</time>
      </trkpt>
      <trkpt lat="43.94096" lon="7.2871">
        <ele>441.60000610352</ele>
        <time>2013-12-21T15:51:12.000Z</time>
      </trkpt>
      <trkpt lat="43.94094" lon="7.2871">
        <ele>441.20001220703</ele>
        <time>2013-12-21T15:51:13.000Z</time>
      </trkpt>
      <trkpt lat="43.9409" lon="7.28711">
        <ele>440</ele>
        <time>2013-12-21T15:51:16.000Z</time>
      </trkpt>
      <trkpt lat="43.94088" lon="7.28711">
        <ele>439.60000610352</ele>
        <time>2013-12-21T15:51:17.000Z</time>
      </trkpt>
      <trkpt lat="43.94083" lon="7.28707">
        <ele>438.20001220703</ele>
        <time>2013-12-21T15:51:21.000Z</time>
      </trkpt>
      <trkpt lat="43.9408" lon="7.28697">
        <ele>436.79998779297</ele>
        <time>2013-12-21T15:51:24.000Z</time>
      </trkpt>
      <trkpt lat="43.94079" lon="7.28693">
        <ele>436.60000610352</ele>
        <time>2013-12-21T15:51:25.000Z</time>
      </trkpt>
      <trkpt lat="43.94078" lon="7.28692">
        <ele>436.39999389648</ele>
        <time>2013-12-21T15:51:26.000Z</time>
      </trkpt>
      <trkpt lat="43.9408" lon="7.2869">
        <ele>435.60000610352</ele>
        <time>2013-12-21T15:51:29.000Z</time>
      </trkpt>
      <trkpt lat="43.94083" lon="7.28689">
        <ele>434.60000610352</ele>
        <time>2013-12-21T15:51:32.000Z</time>
      </trkpt>
      <trkpt lat="43.94084" lon="7.28689">
        <ele>434.39999389648</ele>
        <time>2013-12-21T15:51:33.000Z</time>
      </trkpt>
      <trkpt lat="43.94084" lon="7.28689">
        <ele>434.20001220703</ele>
        <time>2013-12-21T15:51:34.000Z</time>
      </trkpt>
      <trkpt lat="43.94079" lon="7.28684">
        <ele>432.39999389648</ele>
        <time>2013-12-21T15:51:40.000Z</time>
      </trkpt>
      <trkpt lat="43.94073" lon="7.28676">
        <ele>431.20001220703</ele>
        <time>2013-12-21T15:51:44.000Z</time>
      </trkpt>
      <trkpt lat="43.94073" lon="7.28674">
        <ele>431</ele>
        <time>2013-12-21T15:51:45.000Z</time>
      </trkpt>
      <trkpt lat="43.94074" lon="7.28672">
        <ele>429.79998779297</ele>
        <time>2013-12-21T15:51:49.000Z</time>
      </trkpt>
      <trkpt lat="43.94076" lon="7.28672">
        <ele>429.60000610352</ele>
        <time>2013-12-21T15:51:50.000Z</time>
      </trkpt>
      <trkpt lat="43.94082" lon="7.2867">
        <ele>428.60000610352</ele>
        <time>2013-12-21T15:51:54.000Z</time>
      </trkpt>
      <trkpt lat="43.94084" lon="7.28669">
        <ele>428.39999389648</ele>
        <time>2013-12-21T15:51:55.000Z</time>
      </trkpt>
      <trkpt lat="43.94085" lon="7.28664">
        <ele>427.60000610352</ele>
        <time>2013-12-21T15:51:59.000Z</time>
      </trkpt>
      <trkpt lat="43.94086" lon="7.28661">
        <ele>427.39999389648</ele>
        <time>2013-12-21T15:52:01.000Z</time>
      </trkpt>
      <trkpt lat="43.94085" lon="7.28657">
        <ele>426.60000610352</ele>
        <time>2013-12-21T15:52:03.000Z</time>
      </trkpt>
      <trkpt lat="43.94086" lon="7.28655">
        <ele>426.39999389648</ele>
        <time>2013-12-21T15:52:04.000Z</time>
      </trkpt>
      <trkpt lat="43.94084" lon="7.2865">
        <ele>425.39999389648</ele>
        <time>2013-12-21T15:52:07.000Z</time>
      </trkpt>
      <trkpt lat="43.94082" lon="7.28645">
        <ele>424</ele>
        <time>2013-12-21T15:52:11.000Z</time>
      </trkpt>
      <trkpt lat="43.94085" lon="7.28636">
        <ele>422.39999389648</ele>
        <time>2013-12-21T15:52:15.000Z</time>
      </trkpt>
      <trkpt lat="43.94088" lon="7.28628">
        <ele>420.79998779297</ele>
        <time>2013-12-21T15:52:19.000Z</time>
      </trkpt>
      <trkpt lat="43.94089" lon="7.28614">
        <ele>418.20001220703</ele>
        <time>2013-12-21T15:52:25.000Z</time>
      </trkpt>
      <trkpt lat="43.94092" lon="7.28612">
        <ele>416.39999389648</ele>
        <time>2013-12-21T15:52:29.000Z</time>
      </trkpt>
      <trkpt lat="43.94093" lon="7.28613">
        <ele>412.79998779297</ele>
        <time>2013-12-21T15:52:37.000Z</time>
      </trkpt>
      <trkpt lat="43.94096" lon="7.28609">
        <ele>370.39999389648</ele>
        <time>2013-12-21T15:54:54.000Z</time>
      </trkpt>
      <trkpt lat="43.94097" lon="7.28605">
        <ele>370.20001220703</ele>
        <time>2013-12-21T15:54:57.000Z</time>
      </trkpt>
      <trkpt lat="43.94101" lon="7.28593">
        <ele>369.60000610352</ele>
        <time>2013-12-21T15:55:01.000Z</time>
      </trkpt>
      <trkpt lat="43.94101" lon="7.2859">
        <ele>369.60000610352</ele>
        <time>2013-12-21T15:55:02.000Z</time>
      </trkpt>
      <trkpt lat="43.94098" lon="7.28574">
        <ele>369</ele>
        <time>2013-12-21T15:55:06.000Z</time>
      </trkpt>
      <trkpt lat="43.94095" lon="7.28552">
        <ele>368.60000610352</ele>
        <time>2013-12-21T15:55:09.000Z</time>
      </trkpt>
      <trkpt lat="43.94094" lon="7.28544">
        <ele>368.60000610352</ele>
        <time>2013-12-21T15:55:10.000Z</time>
      </trkpt>
      <trkpt lat="43.94095" lon="7.28512">
        <ele>367.79998779297</ele>
        <time>2013-12-21T15:55:14.000Z</time>
      </trkpt>
      <trkpt lat="43.94094" lon="7.28503">
        <ele>367.60000610352</ele>
        <time>2013-12-21T15:55:15.000Z</time>
      </trkpt>
      <trkpt lat="43.94092" lon="7.28475">
        <ele>367</ele>
        <time>2013-12-21T15:55:18.000Z</time>
      </trkpt>
      <trkpt lat="43.94091" lon="7.28456">
        <ele>366.39999389648</ele>
        <time>2013-12-21T15:55:20.000Z</time>
      </trkpt>
      <trkpt lat="43.94091" lon="7.28436">
        <ele>365.79998779297</ele>
        <time>2013-12-21T15:55:23.000Z</time>
      </trkpt>
      <trkpt lat="43.9409" lon="7.28426">
        <ele>364.60000610352</ele>
        <time>2013-12-21T15:55:27.000Z</time>
      </trkpt>
      <trkpt lat="43.94086" lon="7.28422">
        <ele>363.20001220703</ele>
        <time>2013-12-21T15:55:32.000Z</time>
      </trkpt>
      <trkpt lat="43.94087" lon="7.28414">
        <ele>361.79998779297</ele>
        <time>2013-12-21T15:55:37.000Z</time>
      </trkpt>
      <trkpt lat="43.94078" lon="7.28413">
        <ele>360.39999389648</ele>
        <time>2013-12-21T15:55:41.000Z</time>
      </trkpt>
      <trkpt lat="43.94077" lon="7.28406">
        <ele>359.20001220703</ele>
        <time>2013-12-21T15:55:44.000Z</time>
      </trkpt>
      <trkpt lat="43.94094" lon="7.2839">
        <ele>358.20001220703</ele>
        <time>2013-12-21T15:55:47.000Z</time>
      </trkpt>
      <trkpt lat="43.941" lon="7.28385">
        <ele>357.79998779297</ele>
        <time>2013-12-21T15:55:48.000Z</time>
      </trkpt>
      <trkpt lat="43.94105" lon="7.28381">
        <ele>357.39999389648</ele>
        <time>2013-12-21T15:55:49.000Z</time>
      </trkpt>
      <trkpt lat="43.94112" lon="7.28378">
        <ele>356.79998779297</ele>
        <time>2013-12-21T15:55:51.000Z</time>
      </trkpt>
      <trkpt lat="43.94117" lon="7.28375">
        <ele>356.20001220703</ele>
        <time>2013-12-21T15:55:53.000Z</time>
      </trkpt>
      <trkpt lat="43.9412" lon="7.28373">
        <ele>355.79998779297</ele>
        <time>2013-12-21T15:55:54.000Z</time>
      </trkpt>
      <trkpt lat="43.94121" lon="7.28368">
        <ele>355.20001220703</ele>
        <time>2013-12-21T15:55:56.000Z</time>
      </trkpt>
      <trkpt lat="43.94118" lon="7.28367">
        <ele>354.20001220703</ele>
        <time>2013-12-21T15:55:59.000Z</time>
      </trkpt>
      <trkpt lat="43.94117" lon="7.28367">
        <ele>353.79998779297</ele>
        <time>2013-12-21T15:56:00.000Z</time>
      </trkpt>
      <trkpt lat="43.94112" lon="7.28365">
        <ele>351.79998779297</ele>
        <time>2013-12-21T15:56:06.000Z</time>
      </trkpt>
      <trkpt lat="43.94114" lon="7.28358">
        <ele>346.20001220703</ele>
        <time>2013-12-21T15:56:25.000Z</time>
      </trkpt>
      <trkpt lat="43.94117" lon="7.28362">
        <ele>344.79998779297</ele>
        <time>2013-12-21T15:56:30.000Z</time>
      </trkpt>
      <trkpt lat="43.9412" lon="7.28363">
        <ele>343.79998779297</ele>
        <time>2013-12-21T15:56:35.000Z</time>
      </trkpt>
      <trkpt lat="43.94115" lon="7.28372">
        <ele>337.39999389648</ele>
        <time>2013-12-21T15:57:02.000Z</time>
      </trkpt>
      <trkpt lat="43.94119" lon="7.2837">
        <ele>337.20001220703</ele>
        <time>2013-12-21T15:57:04.000Z</time>
      </trkpt>
      <trkpt lat="43.94128" lon="7.28368">
        <ele>336.79998779297</ele>
        <time>2013-12-21T15:57:07.000Z</time>
      </trkpt>
      <trkpt lat="43.94134" lon="7.28365">
        <ele>336.60000610352</ele>
        <time>2013-12-21T15:57:09.000Z</time>
      </trkpt>
      <trkpt lat="43.94156" lon="7.28355">
        <ele>335.60000610352</ele>
        <time>2013-12-21T15:57:16.000Z</time>
      </trkpt>
      <trkpt lat="43.94172" lon="7.2834">
        <ele>335.60000610352</ele>
        <time>2013-12-21T15:57:22.000Z</time>
      </trkpt>
      <trkpt lat="43.94188" lon="7.28326">
        <ele>335.79998779297</ele>
        <time>2013-12-21T15:57:27.000Z</time>
      </trkpt>
      <trkpt lat="43.9421" lon="7.28306">
        <ele>336.39999389648</ele>
        <time>2013-12-21T15:57:34.000Z</time>
      </trkpt>
      <trkpt lat="43.94225" lon="7.28296">
        <ele>337</ele>
        <time>2013-12-21T15:57:39.000Z</time>
      </trkpt>
      <trkpt lat="43.94236" lon="7.28289">
        <ele>336.79998779297</ele>
        <time>2013-12-21T15:57:45.000Z</time>
      </trkpt>
      <trkpt lat="43.94245" lon="7.28284">
        <ele>336.39999389648</ele>
        <time>2013-12-21T15:57:51.000Z</time>
      </trkpt>
      <trkpt lat="43.94248" lon="7.28282">
        <ele>335.79998779297</ele>
        <time>2013-12-21T15:57:58.000Z</time>
      </trkpt>
      <trkpt lat="43.94245" lon="7.28279">
        <ele>332.79998779297</ele>
        <time>2013-12-21T15:58:34.000Z</time>
      </trkpt>
      <trkpt lat="43.94236" lon="7.28278">
        <ele>332.20001220703</ele>
        <time>2013-12-21T15:58:39.000Z</time>
      </trkpt>
      <trkpt lat="43.94229" lon="7.28283">
        <ele>331.79998779297</ele>
        <time>2013-12-21T15:58:43.000Z</time>
      </trkpt>
      <trkpt lat="43.94224" lon="7.28287">
        <ele>331.60000610352</ele>
        <time>2013-12-21T15:58:45.000Z</time>
      </trkpt>
      <trkpt lat="43.94214" lon="7.28295">
        <ele>331.39999389648</ele>
        <time>2013-12-21T15:58:50.000Z</time>
      </trkpt>
      <trkpt lat="43.94198" lon="7.2831">
        <ele>331</ele>
        <time>2013-12-21T15:58:57.000Z</time>
      </trkpt>
      <trkpt lat="43.94177" lon="7.28329">
        <ele>330.79998779297</ele>
        <time>2013-12-21T15:59:04.000Z</time>
      </trkpt>
      <trkpt lat="43.94151" lon="7.28349">
        <ele>330.20001220703</ele>
        <time>2013-12-21T15:59:11.000Z</time>
      </trkpt>
      <trkpt lat="43.94146" lon="7.28351">
        <ele>330</ele>
        <time>2013-12-21T15:59:12.000Z</time>
      </trkpt>
      <trkpt lat="43.94111" lon="7.28361">
        <ele>328.79998779297</ele>
        <time>2013-12-21T15:59:20.000Z</time>
      </trkpt>
      <trkpt lat="43.94074" lon="7.28374">
        <ele>327</ele>
        <time>2013-12-21T15:59:29.000Z</time>
      </trkpt>
      <trkpt lat="43.94067" lon="7.28375">
        <ele>326.39999389648</ele>
        <time>2013-12-21T15:59:31.000Z</time>
      </trkpt>
      <trkpt lat="43.94052" lon="7.28379">
        <ele>325.39999389648</ele>
        <time>2013-12-21T15:59:35.000Z</time>
      </trkpt>
      <trkpt lat="43.94029" lon="7.28381">
        <ele>323.60000610352</ele>
        <time>2013-12-21T15:59:41.000Z</time>
      </trkpt>
      <trkpt lat="43.93995" lon="7.28374">
        <ele>320.39999389648</ele>
        <time>2013-12-21T15:59:50.000Z</time>
      </trkpt>
      <trkpt lat="43.93974" lon="7.28368">
        <ele>318.79998779297</ele>
        <time>2013-12-21T15:59:56.000Z</time>
      </trkpt>
      <trkpt lat="43.93951" lon="7.28355">
        <ele>317.39999389648</ele>
        <time>2013-12-21T16:00:02.000Z</time>
      </trkpt>
      <trkpt lat="43.93943" lon="7.28346">
        <ele>317</ele>
        <time>2013-12-21T16:00:04.000Z</time>
      </trkpt>
      <trkpt lat="43.93931" lon="7.28326">
        <ele>316.39999389648</ele>
        <time>2013-12-21T16:00:07.000Z</time>
      </trkpt>
      <trkpt lat="43.93901" lon="7.28274">
        <ele>316.20001220703</ele>
        <time>2013-12-21T16:00:16.000Z</time>
      </trkpt>
      <trkpt lat="43.93868" lon="7.2822">
        <ele>316.79998779297</ele>
        <time>2013-12-21T16:00:25.000Z</time>
      </trkpt>
      <trkpt lat="43.93844" lon="7.28183">
        <ele>317.60000610352</ele>
        <time>2013-12-21T16:00:32.000Z</time>
      </trkpt>
      <trkpt lat="43.93841" lon="7.28178">
        <ele>317.79998779297</ele>
        <time>2013-12-21T16:00:33.000Z</time>
      </trkpt>
      <trkpt lat="43.93825" lon="7.28148">
        <ele>318.20001220703</ele>
        <time>2013-12-21T16:00:38.000Z</time>
      </trkpt>
      <trkpt lat="43.93817" lon="7.28114">
        <ele>319</ele>
        <time>2013-12-21T16:00:43.000Z</time>
      </trkpt>
      <trkpt lat="43.93815" lon="7.28068">
        <ele>318.60000610352</ele>
        <time>2013-12-21T16:00:49.000Z</time>
      </trkpt>
      <trkpt lat="43.93815" lon="7.28052">
        <ele>318.60000610352</ele>
        <time>2013-12-21T16:00:51.000Z</time>
      </trkpt>
      <trkpt lat="43.93818" lon="7.28028">
        <ele>318.39999389648</ele>
        <time>2013-12-21T16:00:54.000Z</time>
      </trkpt>
      <trkpt lat="43.93823" lon="7.27975">
        <ele>317.60000610352</ele>
        <time>2013-12-21T16:01:01.000Z</time>
      </trkpt>
      <trkpt lat="43.93824" lon="7.27919">
        <ele>316.60000610352</ele>
        <time>2013-12-21T16:01:08.000Z</time>
      </trkpt>
      <trkpt lat="43.93824" lon="7.27893">
        <ele>316.20001220703</ele>
        <time>2013-12-21T16:01:11.000Z</time>
      </trkpt>
      <trkpt lat="43.93824" lon="7.27875">
        <ele>316</ele>
        <time>2013-12-21T16:01:13.000Z</time>
      </trkpt>
      <trkpt lat="43.93823" lon="7.27866">
        <ele>316</ele>
        <time>2013-12-21T16:01:14.000Z</time>
      </trkpt>
      <trkpt lat="43.93817" lon="7.27841">
        <ele>315.39999389648</ele>
        <time>2013-12-21T16:01:17.000Z</time>
      </trkpt>
      <trkpt lat="43.93814" lon="7.27832">
        <ele>315.39999389648</ele>
        <time>2013-12-21T16:01:18.000Z</time>
      </trkpt>
      <trkpt lat="43.93789" lon="7.27763">
        <ele>314.79998779297</ele>
        <time>2013-12-21T16:01:26.000Z</time>
      </trkpt>
      <trkpt lat="43.9378" lon="7.27739">
        <ele>314.79998779297</ele>
        <time>2013-12-21T16:01:29.000Z</time>
      </trkpt>
      <trkpt lat="43.93775" lon="7.27724">
        <ele>314.60000610352</ele>
        <time>2013-12-21T16:01:31.000Z</time>
      </trkpt>
      <trkpt lat="43.93774" lon="7.27716">
        <ele>314.60000610352</ele>
        <time>2013-12-21T16:01:32.000Z</time>
      </trkpt>
      <trkpt lat="43.93755" lon="7.27662">
        <ele>314.60000610352</ele>
        <time>2013-12-21T16:01:39.000Z</time>
      </trkpt>
      <trkpt lat="43.93736" lon="7.27605">
        <ele>314.60000610352</ele>
        <time>2013-12-21T16:01:46.000Z</time>
      </trkpt>
      <trkpt lat="43.93714" lon="7.27547">
        <ele>314.39999389648</ele>
        <time>2013-12-21T16:01:53.000Z</time>
      </trkpt>
      <trkpt lat="43.93685" lon="7.27497">
        <ele>314.20001220703</ele>
        <time>2013-12-21T16:02:00.000Z</time>
      </trkpt>
      <trkpt lat="43.93653" lon="7.27449">
        <ele>314.20001220703</ele>
        <time>2013-12-21T16:02:07.000Z</time>
      </trkpt>
      <trkpt lat="43.93638" lon="7.27417">
        <ele>314.20001220703</ele>
        <time>2013-12-21T16:02:11.000Z</time>
      </trkpt>
      <trkpt lat="43.93636" lon="7.27409">
        <ele>314.20001220703</ele>
        <time>2013-12-21T16:02:12.000Z</time>
      </trkpt>
      <trkpt lat="43.93617" lon="7.2734">
        <ele>314.79998779297</ele>
        <time>2013-12-21T16:02:20.000Z</time>
      </trkpt>
      <trkpt lat="43.93612" lon="7.27285">
        <ele>314.60000610352</ele>
        <time>2013-12-21T16:02:26.000Z</time>
      </trkpt>
      <trkpt lat="43.93612" lon="7.27266">
        <ele>314.39999389648</ele>
        <time>2013-12-21T16:02:28.000Z</time>
      </trkpt>
      <trkpt lat="43.9361" lon="7.27236">
        <ele>314.20001220703</ele>
        <time>2013-12-21T16:02:31.000Z</time>
      </trkpt>
      <trkpt lat="43.93605" lon="7.27209">
        <ele>314.20001220703</ele>
        <time>2013-12-21T16:02:34.000Z</time>
      </trkpt>
      <trkpt lat="43.93603" lon="7.27201">
        <ele>314</ele>
        <time>2013-12-21T16:02:35.000Z</time>
      </trkpt>
      <trkpt lat="43.93582" lon="7.27152">
        <ele>313.79998779297</ele>
        <time>2013-12-21T16:02:41.000Z</time>
      </trkpt>
      <trkpt lat="43.93572" lon="7.27125">
        <ele>313.60000610352</ele>
        <time>2013-12-21T16:02:44.000Z</time>
      </trkpt>
      <trkpt lat="43.93573" lon="7.27105">
        <ele>313.60000610352</ele>
        <time>2013-12-21T16:02:46.000Z</time>
      </trkpt>
      <trkpt lat="43.93567" lon="7.27068">
        <ele>313.20001220703</ele>
        <time>2013-12-21T16:02:50.000Z</time>
      </trkpt>
      <trkpt lat="43.93565" lon="7.27059">
        <ele>313.20001220703</ele>
        <time>2013-12-21T16:02:51.000Z</time>
      </trkpt>
      <trkpt lat="43.93549" lon="7.26988">
        <ele>312.79998779297</ele>
        <time>2013-12-21T16:02:59.000Z</time>
      </trkpt>
      <trkpt lat="43.93542" lon="7.26953">
        <ele>312.60000610352</ele>
        <time>2013-12-21T16:03:03.000Z</time>
      </trkpt>
      <trkpt lat="43.93541" lon="7.26928">
        <ele>312.60000610352</ele>
        <time>2013-12-21T16:03:06.000Z</time>
      </trkpt>
      <trkpt lat="43.93547" lon="7.26902">
        <ele>312.60000610352</ele>
        <time>2013-12-21T16:03:09.000Z</time>
      </trkpt>
      <trkpt lat="43.93551" lon="7.26869">
        <ele>312.39999389648</ele>
        <time>2013-12-21T16:03:13.000Z</time>
      </trkpt>
      <trkpt lat="43.93551" lon="7.2686">
        <ele>312.39999389648</ele>
        <time>2013-12-21T16:03:14.000Z</time>
      </trkpt>
      <trkpt lat="43.93554" lon="7.26837">
        <ele>312.20001220703</ele>
        <time>2013-12-21T16:03:17.000Z</time>
      </trkpt>
      <trkpt lat="43.93554" lon="7.26829">
        <ele>312.20001220703</ele>
        <time>2013-12-21T16:03:18.000Z</time>
      </trkpt>
      <trkpt lat="43.93561" lon="7.268">
        <ele>312</ele>
        <time>2013-12-21T16:03:21.000Z</time>
      </trkpt>
      <trkpt lat="43.93563" lon="7.2679">
        <ele>312</ele>
        <time>2013-12-21T16:03:22.000Z</time>
      </trkpt>
      <trkpt lat="43.9356" lon="7.2676">
        <ele>311.79998779297</ele>
        <time>2013-12-21T16:03:25.000Z</time>
      </trkpt>
      <trkpt lat="43.93559" lon="7.2675">
        <ele>311.60000610352</ele>
        <time>2013-12-21T16:03:26.000Z</time>
      </trkpt>
      <trkpt lat="43.93551" lon="7.26698">
        <ele>311.39999389648</ele>
        <time>2013-12-21T16:03:31.000Z</time>
      </trkpt>
      <trkpt lat="43.93534" lon="7.26623">
        <ele>310.79998779297</ele>
        <time>2013-12-21T16:03:38.000Z</time>
      </trkpt>
      <trkpt lat="43.93514" lon="7.26547">
        <ele>310.20001220703</ele>
        <time>2013-12-21T16:03:45.000Z</time>
      </trkpt>
      <trkpt lat="43.9351" lon="7.26537">
        <ele>310</ele>
        <time>2013-12-21T16:03:46.000Z</time>
      </trkpt>
      <trkpt lat="43.93505" lon="7.26527">
        <ele>310</ele>
        <time>2013-12-21T16:03:47.000Z</time>
      </trkpt>
      <trkpt lat="43.93477" lon="7.26497">
        <ele>309.60000610352</ele>
        <time>2013-12-21T16:03:51.000Z</time>
      </trkpt>
      <trkpt lat="43.93443" lon="7.26481">
        <ele>309.20001220703</ele>
        <time>2013-12-21T16:03:55.000Z</time>
      </trkpt>
      <trkpt lat="43.93435" lon="7.26478">
        <ele>309</ele>
        <time>2013-12-21T16:03:56.000Z</time>
      </trkpt>
      <trkpt lat="43.93428" lon="7.26475">
        <ele>309</ele>
        <time>2013-12-21T16:03:57.000Z</time>
      </trkpt>
      <trkpt lat="43.93413" lon="7.26477">
        <ele>308.79998779297</ele>
        <time>2013-12-21T16:03:59.000Z</time>
      </trkpt>
      <trkpt lat="43.93385" lon="7.26499">
        <ele>309.20001220703</ele>
        <time>2013-12-21T16:04:03.000Z</time>
      </trkpt>
      <trkpt lat="43.9335" lon="7.2652">
        <ele>310</ele>
        <time>2013-12-21T16:04:08.000Z</time>
      </trkpt>
      <trkpt lat="43.933" lon="7.26556">
        <ele>316</ele>
        <time>2013-12-21T16:04:15.000Z</time>
      </trkpt>
      <trkpt lat="43.93295" lon="7.26562">
        <ele>317.39999389648</ele>
        <time>2013-12-21T16:04:16.000Z</time>
      </trkpt>
      <trkpt lat="43.93267" lon="7.26589">
        <ele>322.60000610352</ele>
        <time>2013-12-21T16:04:22.000Z</time>
      </trkpt>
      <trkpt lat="43.93236" lon="7.26604">
        <ele>324</ele>
        <time>2013-12-21T16:04:28.000Z</time>
      </trkpt>
      <trkpt lat="43.93229" lon="7.26603">
        <ele>323.39999389648</ele>
        <time>2013-12-21T16:04:29.000Z</time>
      </trkpt>
      <trkpt lat="43.93178" lon="7.26602">
        <ele>324.79998779297</ele>
        <time>2013-12-21T16:04:37.000Z</time>
      </trkpt>
      <trkpt lat="43.93131" lon="7.26604">
        <ele>327</ele>
        <time>2013-12-21T16:04:45.000Z</time>
      </trkpt>
      <trkpt lat="43.93126" lon="7.26603">
        <ele>327.20001220703</ele>
        <time>2013-12-21T16:04:46.000Z</time>
      </trkpt>
      <trkpt lat="43.93103" lon="7.26594">
        <ele>328.79998779297</ele>
        <time>2013-12-21T16:04:50.000Z</time>
      </trkpt>
      <trkpt lat="43.93074" lon="7.26581">
        <ele>331.39999389648</ele>
        <time>2013-12-21T16:04:56.000Z</time>
      </trkpt>
      <trkpt lat="43.93056" lon="7.26576">
        <ele>330.39999389648</ele>
        <time>2013-12-21T16:05:00.000Z</time>
      </trkpt>
      <trkpt lat="43.93047" lon="7.26576">
        <ele>330.39999389648</ele>
        <time>2013-12-21T16:05:02.000Z</time>
      </trkpt>
      <trkpt lat="43.9302" lon="7.26581">
        <ele>329.20001220703</ele>
        <time>2013-12-21T16:05:08.000Z</time>
      </trkpt>
      <trkpt lat="43.93" lon="7.26589">
        <ele>327.79998779297</ele>
        <time>2013-12-21T16:05:13.000Z</time>
      </trkpt>
      <trkpt lat="43.92991" lon="7.26594">
        <ele>327.20001220703</ele>
        <time>2013-12-21T16:05:15.000Z</time>
      </trkpt>
      <trkpt lat="43.92969" lon="7.26612">
        <ele>324.60000610352</ele>
        <time>2013-12-21T16:05:21.000Z</time>
      </trkpt>
      <trkpt lat="43.92965" lon="7.26615">
        <ele>324.20001220703</ele>
        <time>2013-12-21T16:05:22.000Z</time>
      </trkpt>
      <trkpt lat="43.92939" lon="7.26636">
        <ele>320.60000610352</ele>
        <time>2013-12-21T16:05:29.000Z</time>
      </trkpt>
      <trkpt lat="43.92928" lon="7.26643">
        <ele>318.79998779297</ele>
        <time>2013-12-21T16:05:32.000Z</time>
      </trkpt>
      <trkpt lat="43.92915" lon="7.26642">
        <ele>317.39999389648</ele>
        <time>2013-12-21T16:05:35.000Z</time>
      </trkpt>
      <trkpt lat="43.92911" lon="7.2664">
        <ele>316.79998779297</ele>
        <time>2013-12-21T16:05:36.000Z</time>
      </trkpt>
      <trkpt lat="43.92885" lon="7.2663">
        <ele>313.60000610352</ele>
        <time>2013-12-21T16:05:42.000Z</time>
      </trkpt>
      <trkpt lat="43.92873" lon="7.26628">
        <ele>311.79998779297</ele>
        <time>2013-12-21T16:05:45.000Z</time>
      </trkpt>
      <trkpt lat="43.92861" lon="7.26624">
        <ele>310.20001220703</ele>
        <time>2013-12-21T16:05:48.000Z</time>
      </trkpt>
      <trkpt lat="43.92858" lon="7.26623">
        <ele>309.60000610352</ele>
        <time>2013-12-21T16:05:49.000Z</time>
      </trkpt>
      <trkpt lat="43.92832" lon="7.26616">
        <ele>306.79998779297</ele>
        <time>2013-12-21T16:05:55.000Z</time>
      </trkpt>
      <trkpt lat="43.928" lon="7.26613">
        <ele>304.20001220703</ele>
        <time>2013-12-21T16:06:02.000Z</time>
      </trkpt>
      <trkpt lat="43.92766" lon="7.26609">
        <ele>302.39999389648</ele>
        <time>2013-12-21T16:06:09.000Z</time>
      </trkpt>
      <trkpt lat="43.92723" lon="7.26591">
        <ele>300.79998779297</ele>
        <time>2013-12-21T16:06:17.000Z</time>
      </trkpt>
      <trkpt lat="43.92718" lon="7.26586">
        <ele>300.60000610352</ele>
        <time>2013-12-21T16:06:18.000Z</time>
      </trkpt>
      <trkpt lat="43.92706" lon="7.2657">
        <ele>300.20001220703</ele>
        <time>2013-12-21T16:06:21.000Z</time>
      </trkpt>
      <trkpt lat="43.92688" lon="7.26554">
        <ele>299.20001220703</ele>
        <time>2013-12-21T16:06:25.000Z</time>
      </trkpt>
      <trkpt lat="43.92677" lon="7.26548">
        <ele>298.79998779297</ele>
        <time>2013-12-21T16:06:27.000Z</time>
      </trkpt>
      <trkpt lat="43.9264" lon="7.26518">
        <ele>299.20001220703</ele>
        <time>2013-12-21T16:06:33.000Z</time>
      </trkpt>
      <trkpt lat="43.92611" lon="7.26484">
        <ele>299.20001220703</ele>
        <time>2013-12-21T16:06:38.000Z</time>
      </trkpt>
      <trkpt lat="43.92584" lon="7.26442">
        <ele>298.79998779297</ele>
        <time>2013-12-21T16:06:43.000Z</time>
      </trkpt>
      <trkpt lat="43.92578" lon="7.26435">
        <ele>298.60000610352</ele>
        <time>2013-12-21T16:06:44.000Z</time>
      </trkpt>
      <trkpt lat="43.92555" lon="7.26432">
        <ele>298.60000610352</ele>
        <time>2013-12-21T16:06:47.000Z</time>
      </trkpt>
      <trkpt lat="43.9254" lon="7.26439">
        <ele>298.20001220703</ele>
        <time>2013-12-21T16:06:49.000Z</time>
      </trkpt>
      <trkpt lat="43.92525" lon="7.26447">
        <ele>298</ele>
        <time>2013-12-21T16:06:51.000Z</time>
      </trkpt>
      <trkpt lat="43.92499" lon="7.26457">
        <ele>297.60000610352</ele>
        <time>2013-12-21T16:06:54.000Z</time>
      </trkpt>
      <trkpt lat="43.92489" lon="7.26458">
        <ele>297.60000610352</ele>
        <time>2013-12-21T16:06:55.000Z</time>
      </trkpt>
      <trkpt lat="43.92462" lon="7.26448">
        <ele>297.39999389648</ele>
        <time>2013-12-21T16:06:58.000Z</time>
      </trkpt>
      <trkpt lat="43.92446" lon="7.26436">
        <ele>297</ele>
        <time>2013-12-21T16:07:00.000Z</time>
      </trkpt>
      <trkpt lat="43.92431" lon="7.26421">
        <ele>296.79998779297</ele>
        <time>2013-12-21T16:07:02.000Z</time>
      </trkpt>
      <trkpt lat="43.92423" lon="7.26414">
        <ele>296.60000610352</ele>
        <time>2013-12-21T16:07:03.000Z</time>
      </trkpt>
      <trkpt lat="43.92406" lon="7.26404">
        <ele>296.39999389648</ele>
        <time>2013-12-21T16:07:05.000Z</time>
      </trkpt>
      <trkpt lat="43.92371" lon="7.26401">
        <ele>295.60000610352</ele>
        <time>2013-12-21T16:07:09.000Z</time>
      </trkpt>
      <trkpt lat="43.92352" lon="7.26428">
        <ele>294.79998779297</ele>
        <time>2013-12-21T16:07:12.000Z</time>
      </trkpt>
      <trkpt lat="43.92343" lon="7.26449">
        <ele>294.20001220703</ele>
        <time>2013-12-21T16:07:14.000Z</time>
      </trkpt>
      <trkpt lat="43.92324" lon="7.26487">
        <ele>293.20001220703</ele>
        <time>2013-12-21T16:07:18.000Z</time>
      </trkpt>
      <trkpt lat="43.92305" lon="7.265">
        <ele>292.39999389648</ele>
        <time>2013-12-21T16:07:21.000Z</time>
      </trkpt>
      <trkpt lat="43.9228" lon="7.26501">
        <ele>291.60000610352</ele>
        <time>2013-12-21T16:07:25.000Z</time>
      </trkpt>
      <trkpt lat="43.92274" lon="7.265">
        <ele>291.39999389648</ele>
        <time>2013-12-21T16:07:26.000Z</time>
      </trkpt>
      <trkpt lat="43.9224" lon="7.26493">
        <ele>290.20001220703</ele>
        <time>2013-12-21T16:07:32.000Z</time>
      </trkpt>
      <trkpt lat="43.92199" lon="7.26488">
        <ele>289.20001220703</ele>
        <time>2013-12-21T16:07:40.000Z</time>
      </trkpt>
      <trkpt lat="43.92171" lon="7.26496">
        <ele>288.39999389648</ele>
        <time>2013-12-21T16:07:46.000Z</time>
      </trkpt>
      <trkpt lat="43.92139" lon="7.26504">
        <ele>288</ele>
        <time>2013-12-21T16:07:53.000Z</time>
      </trkpt>
      <trkpt lat="43.92105" lon="7.26508">
        <ele>287.60000610352</ele>
        <time>2013-12-21T16:08:01.000Z</time>
      </trkpt>
      <trkpt lat="43.92076" lon="7.26506">
        <ele>287.39999389648</ele>
        <time>2013-12-21T16:08:08.000Z</time>
      </trkpt>
      <trkpt lat="43.92044" lon="7.26497">
        <ele>286.79998779297</ele>
        <time>2013-12-21T16:08:16.000Z</time>
      </trkpt>
      <trkpt lat="43.92019" lon="7.26499">
        <ele>287.20001220703</ele>
        <time>2013-12-21T16:08:22.000Z</time>
      </trkpt>
      <trkpt lat="43.92005" lon="7.2649">
        <ele>288.39999389648</ele>
        <time>2013-12-21T16:08:27.000Z</time>
      </trkpt>
      <trkpt lat="43.91996" lon="7.2648">
        <ele>287.79998779297</ele>
        <time>2013-12-21T16:08:33.000Z</time>
      </trkpt>
      <trkpt lat="43.91994" lon="7.26475">
        <ele>287.60000610352</ele>
        <time>2013-12-21T16:08:38.000Z</time>
      </trkpt>
      <trkpt lat="43.91992" lon="7.26465">
        <ele>301.39999389648</ele>
        <time>2013-12-21T16:09:35.000Z</time>
      </trkpt>
      <trkpt lat="43.91996" lon="7.26467">
        <ele>300.60000610352</ele>
        <time>2013-12-21T16:09:41.000Z</time>
      </trkpt>
      <trkpt lat="43.91997" lon="7.26466">
        <ele>300.60000610352</ele>
        <time>2013-12-21T16:09:42.000Z</time>
      </trkpt>
      <trkpt lat="43.91996" lon="7.26464">
        <ele>300.20001220703</ele>
        <time>2013-12-21T16:09:45.000Z</time>
      </trkpt>
      <trkpt lat="43.91997" lon="7.26465">
        <ele>300</ele>
        <time>2013-12-21T16:09:49.000Z</time>
      </trkpt>
      <trkpt lat="43.92003" lon="7.26473">
        <ele>300.39999389648</ele>
        <time>2013-12-21T16:12:03.000Z</time>
      </trkpt>
      <trkpt lat="43.92003" lon="7.26476">
        <ele>297.79998779297</ele>
        <time>2013-12-21T16:12:09.000Z</time>
      </trkpt>
      <trkpt lat="43.91987" lon="7.2646">
        <ele>292</ele>
        <time>2013-12-21T16:14:48.000Z</time>
      </trkpt>
      <trkpt lat="43.91989" lon="7.26461">
        <ele>291.79998779297</ele>
        <time>2013-12-21T16:14:52.000Z</time>
      </trkpt>
      <trkpt lat="43.9199" lon="7.26467">
        <ele>291.79998779297</ele>
        <time>2013-12-21T16:14:57.000Z</time>
      </trkpt>
      <trkpt lat="43.91992" lon="7.26468">
        <ele>291.79998779297</ele>
        <time>2013-12-21T16:14:58.000Z</time>
      </trkpt>
      <trkpt lat="43.9199" lon="7.26474">
        <ele>291.39999389648</ele>
        <time>2013-12-21T16:15:00.000Z</time>
      </trkpt>
      <trkpt lat="43.91983" lon="7.26483">
        <ele>291.39999389648</ele>
        <time>2013-12-21T16:15:03.000Z</time>
      </trkpt>
      <trkpt lat="43.9198" lon="7.26486">
        <ele>291.39999389648</ele>
        <time>2013-12-21T16:15:04.000Z</time>
      </trkpt>
      <trkpt lat="43.91966" lon="7.26512">
        <ele>291.20001220703</ele>
        <time>2013-12-21T16:15:11.000Z</time>
      </trkpt>
      <trkpt lat="43.91961" lon="7.26527">
        <ele>290.79998779297</ele>
        <time>2013-12-21T16:15:17.000Z</time>
      </trkpt>
      <trkpt lat="43.91956" lon="7.26536">
        <ele>290.20001220703</ele>
        <time>2013-12-21T16:15:22.000Z</time>
      </trkpt>
      <trkpt lat="43.91955" lon="7.26538">
        <ele>290</ele>
        <time>2013-12-21T16:15:24.000Z</time>
      </trkpt>
      <trkpt lat="43.91954" lon="7.26533">
        <ele>289.20001220703</ele>
        <time>2013-12-21T16:15:38.000Z</time>
      </trkpt>
      <trkpt lat="43.91964" lon="7.26523">
        <ele>275.20001220703</ele>
        <time>2013-12-21T16:27:12.000Z</time>
      </trkpt>
      <trkpt lat="43.91959" lon="7.26526">
        <ele>291.60000610352</ele>
        <time>2013-12-21T16:45:03.000Z</time>
      </trkpt>
      <trkpt lat="43.91963" lon="7.26522">
        <ele>290.79998779297</ele>
        <time>2013-12-21T17:04:06.000Z</time>
      </trkpt>
      <trkpt lat="43.91961" lon="7.2649">
        <ele>291.20001220703</ele>
        <time>2013-12-21T17:04:49.000Z</time>
      </trkpt>
    </trkseg>
  </trk>
</gpx>